<?xml version="1.0" encoding="UTF-8" standalone="no" ?>
<gpx xmlns="http://www.topografix.com/GPX/1/1" xmlns:xsi="http://www.w3.org/2001/XMLSchema-instance" xsi:schemaLocation="http://www.topografix.com/GPX/1/1 http://www.topografix.com/GPX/1/1/gpx.xsd" version="1.1" creator="VisuGPX - https://www.visugpx.com">
  <metadata>
    <name>Vers St George</name>
    <desc><![CDATA[Ptites drailles d\'ici et d\'ailleurs]]></desc>
  </metadata>
  <trk>
    <name><![CDATA[2014-03-23-01_Turzon-heyrieux]]></name>
    <trkseg>
      <trkpt lat="44.94518" lon="4.84678">
        <ele>132.8</ele>
        <time>2014-03-23T07:07:37Z</time>
      </trkpt>
      <trkpt lat="44.94509" lon="4.84663">
        <ele>131.9</ele>
        <time>2014-03-23T07:07:40Z</time>
      </trkpt>
      <trkpt lat="44.94506" lon="4.84658">
        <ele>131.8</ele>
        <time>2014-03-23T07:07:41Z</time>
      </trkpt>
      <trkpt lat="44.94503" lon="4.84652">
        <ele>132.2</ele>
        <time>2014-03-23T07:07:42Z</time>
      </trkpt>
      <trkpt lat="44.945" lon="4.84647">
        <ele>132.6</ele>
        <time>2014-03-23T07:07:43Z</time>
      </trkpt>
      <trkpt lat="44.94497" lon="4.84642">
        <ele>132.9</ele>
        <time>2014-03-23T07:07:44Z</time>
      </trkpt>
      <trkpt lat="44.94494" lon="4.84636">
        <ele>133.1</ele>
        <time>2014-03-23T07:07:45Z</time>
      </trkpt>
      <trkpt lat="44.94491" lon="4.84631">
        <ele>133.2</ele>
        <time>2014-03-23T07:07:46Z</time>
      </trkpt>
      <trkpt lat="44.94488" lon="4.84626">
        <ele>132.9</ele>
        <time>2014-03-23T07:07:47Z</time>
      </trkpt>
      <trkpt lat="44.94485" lon="4.84621">
        <ele>132.6</ele>
        <time>2014-03-23T07:07:48Z</time>
      </trkpt>
      <trkpt lat="44.94482" lon="4.84616">
        <ele>132.7</ele>
        <time>2014-03-23T07:07:49Z</time>
      </trkpt>
      <trkpt lat="44.94479" lon="4.84611">
        <ele>132.7</ele>
        <time>2014-03-23T07:07:50Z</time>
      </trkpt>
      <trkpt lat="44.94476" lon="4.84606">
        <ele>132.8</ele>
        <time>2014-03-23T07:07:51Z</time>
      </trkpt>
      <trkpt lat="44.9447" lon="4.84596">
        <ele>133.1</ele>
        <time>2014-03-23T07:07:53Z</time>
      </trkpt>
      <trkpt lat="44.94467" lon="4.84591">
        <ele>133.1</ele>
        <time>2014-03-23T07:07:54Z</time>
      </trkpt>
      <trkpt lat="44.94464" lon="4.84587">
        <ele>133.1</ele>
        <time>2014-03-23T07:07:55Z</time>
      </trkpt>
      <trkpt lat="44.94461" lon="4.84582">
        <ele>133.6</ele>
        <time>2014-03-23T07:07:56Z</time>
      </trkpt>
      <trkpt lat="44.94458" lon="4.84577">
        <ele>134.1</ele>
        <time>2014-03-23T07:07:57Z</time>
      </trkpt>
      <trkpt lat="44.94455" lon="4.84572">
        <ele>134.4</ele>
        <time>2014-03-23T07:07:58Z</time>
      </trkpt>
      <trkpt lat="44.94452" lon="4.84567">
        <ele>134.2</ele>
        <time>2014-03-23T07:07:59Z</time>
      </trkpt>
      <trkpt lat="44.94448" lon="4.84562">
        <ele>134</ele>
        <time>2014-03-23T07:08:00Z</time>
      </trkpt>
      <trkpt lat="44.94445" lon="4.84557">
        <ele>133.9</ele>
        <time>2014-03-23T07:08:01Z</time>
      </trkpt>
      <trkpt lat="44.94442" lon="4.84553">
        <ele>133.8</ele>
        <time>2014-03-23T07:08:02Z</time>
      </trkpt>
      <trkpt lat="44.94439" lon="4.84548">
        <ele>133.7</ele>
        <time>2014-03-23T07:08:03Z</time>
      </trkpt>
      <trkpt lat="44.94435" lon="4.84544">
        <ele>134</ele>
        <time>2014-03-23T07:08:04Z</time>
      </trkpt>
      <trkpt lat="44.94432" lon="4.84539">
        <ele>134.2</ele>
        <time>2014-03-23T07:08:05Z</time>
      </trkpt>
      <trkpt lat="44.94429" lon="4.84534">
        <ele>133.9</ele>
        <time>2014-03-23T07:08:06Z</time>
      </trkpt>
      <trkpt lat="44.94426" lon="4.84529">
        <ele>133.8</ele>
        <time>2014-03-23T07:08:07Z</time>
      </trkpt>
      <trkpt lat="44.94422" lon="4.84525">
        <ele>133.5</ele>
        <time>2014-03-23T07:08:08Z</time>
      </trkpt>
      <trkpt lat="44.94419" lon="4.8452">
        <ele>133.3</ele>
        <time>2014-03-23T07:08:09Z</time>
      </trkpt>
      <trkpt lat="44.94416" lon="4.84515">
        <ele>133.2</ele>
        <time>2014-03-23T07:08:10Z</time>
      </trkpt>
      <trkpt lat="44.9441" lon="4.84507">
        <ele>133.6</ele>
        <time>2014-03-23T07:08:12Z</time>
      </trkpt>
      <trkpt lat="44.94404" lon="4.84498">
        <ele>133.8</ele>
        <time>2014-03-23T07:08:14Z</time>
      </trkpt>
      <trkpt lat="44.94398" lon="4.84489">
        <ele>133.7</ele>
        <time>2014-03-23T07:08:16Z</time>
      </trkpt>
      <trkpt lat="44.94392" lon="4.8448">
        <ele>134</ele>
        <time>2014-03-23T07:08:18Z</time>
      </trkpt>
      <trkpt lat="44.94387" lon="4.84471">
        <ele>134.9</ele>
        <time>2014-03-23T07:08:20Z</time>
      </trkpt>
      <trkpt lat="44.94382" lon="4.84462">
        <ele>135.9</ele>
        <time>2014-03-23T07:08:22Z</time>
      </trkpt>
      <trkpt lat="44.94377" lon="4.84453">
        <ele>135.1</ele>
        <time>2014-03-23T07:08:24Z</time>
      </trkpt>
      <trkpt lat="44.94374" lon="4.84444">
        <ele>134.5</ele>
        <time>2014-03-23T07:08:26Z</time>
      </trkpt>
      <trkpt lat="44.94373" lon="4.84434">
        <ele>134.3</ele>
        <time>2014-03-23T07:08:28Z</time>
      </trkpt>
      <trkpt lat="44.94371" lon="4.84425">
        <ele>134</ele>
        <time>2014-03-23T07:08:30Z</time>
      </trkpt>
      <trkpt lat="44.94367" lon="4.84417">
        <ele>133.6</ele>
        <time>2014-03-23T07:08:32Z</time>
      </trkpt>
      <trkpt lat="44.94363" lon="4.84409">
        <ele>133.3</ele>
        <time>2014-03-23T07:08:34Z</time>
      </trkpt>
      <trkpt lat="44.94358" lon="4.84401">
        <ele>133.3</ele>
        <time>2014-03-23T07:08:36Z</time>
      </trkpt>
      <trkpt lat="44.94355" lon="4.84397">
        <ele>133.6</ele>
        <time>2014-03-23T07:08:37Z</time>
      </trkpt>
      <trkpt lat="44.94347" lon="4.84386">
        <ele>133.5</ele>
        <time>2014-03-23T07:08:40Z</time>
      </trkpt>
      <trkpt lat="44.94341" lon="4.84378">
        <ele>133.4</ele>
        <time>2014-03-23T07:08:42Z</time>
      </trkpt>
      <trkpt lat="44.94335" lon="4.84369">
        <ele>133.4</ele>
        <time>2014-03-23T07:08:44Z</time>
      </trkpt>
      <trkpt lat="44.94332" lon="4.84364">
        <ele>133.4</ele>
        <time>2014-03-23T07:08:45Z</time>
      </trkpt>
      <trkpt lat="44.94328" lon="4.84358">
        <ele>133.1</ele>
        <time>2014-03-23T07:08:46Z</time>
      </trkpt>
      <trkpt lat="44.94323" lon="4.84353">
        <ele>132.8</ele>
        <time>2014-03-23T07:08:47Z</time>
      </trkpt>
      <trkpt lat="44.94319" lon="4.84347">
        <ele>132.6</ele>
        <time>2014-03-23T07:08:48Z</time>
      </trkpt>
      <trkpt lat="44.94315" lon="4.84342">
        <ele>132.4</ele>
        <time>2014-03-23T07:08:49Z</time>
      </trkpt>
      <trkpt lat="44.94311" lon="4.84337">
        <ele>132.2</ele>
        <time>2014-03-23T07:08:50Z</time>
      </trkpt>
      <trkpt lat="44.94307" lon="4.84333">
        <ele>132</ele>
        <time>2014-03-23T07:08:51Z</time>
      </trkpt>
      <trkpt lat="44.94303" lon="4.84328">
        <ele>131.9</ele>
        <time>2014-03-23T07:08:52Z</time>
      </trkpt>
      <trkpt lat="44.943" lon="4.84324">
        <ele>131.8</ele>
        <time>2014-03-23T07:08:53Z</time>
      </trkpt>
      <trkpt lat="44.94296" lon="4.8432">
        <ele>131.7</ele>
        <time>2014-03-23T07:08:54Z</time>
      </trkpt>
      <trkpt lat="44.94293" lon="4.84316">
        <ele>131.6</ele>
        <time>2014-03-23T07:08:55Z</time>
      </trkpt>
      <trkpt lat="44.94286" lon="4.84308">
        <ele>131.6</ele>
        <time>2014-03-23T07:08:57Z</time>
      </trkpt>
      <trkpt lat="44.94279" lon="4.843">
        <ele>132.1</ele>
        <time>2014-03-23T07:08:59Z</time>
      </trkpt>
      <trkpt lat="44.94276" lon="4.84296">
        <ele>132.2</ele>
        <time>2014-03-23T07:09:00Z</time>
      </trkpt>
      <trkpt lat="44.94272" lon="4.84292">
        <ele>132.2</ele>
        <time>2014-03-23T07:09:01Z</time>
      </trkpt>
      <trkpt lat="44.94268" lon="4.84288">
        <ele>132.2</ele>
        <time>2014-03-23T07:09:02Z</time>
      </trkpt>
      <trkpt lat="44.94264" lon="4.84284">
        <ele>132.3</ele>
        <time>2014-03-23T07:09:03Z</time>
      </trkpt>
      <trkpt lat="44.9426" lon="4.8428">
        <ele>132.3</ele>
        <time>2014-03-23T07:09:04Z</time>
      </trkpt>
      <trkpt lat="44.94257" lon="4.84275">
        <ele>132.1</ele>
        <time>2014-03-23T07:09:05Z</time>
      </trkpt>
      <trkpt lat="44.94253" lon="4.84271">
        <ele>132</ele>
        <time>2014-03-23T07:09:06Z</time>
      </trkpt>
      <trkpt lat="44.9425" lon="4.84266">
        <ele>131.9</ele>
        <time>2014-03-23T07:09:07Z</time>
      </trkpt>
      <trkpt lat="44.94247" lon="4.84261">
        <ele>132</ele>
        <time>2014-03-23T07:09:08Z</time>
      </trkpt>
      <trkpt lat="44.94244" lon="4.84255">
        <ele>132.1</ele>
        <time>2014-03-23T07:09:09Z</time>
      </trkpt>
      <trkpt lat="44.94242" lon="4.8425">
        <ele>132</ele>
        <time>2014-03-23T07:09:10Z</time>
      </trkpt>
      <trkpt lat="44.94239" lon="4.84245">
        <ele>132</ele>
        <time>2014-03-23T07:09:11Z</time>
      </trkpt>
      <trkpt lat="44.94235" lon="4.84241">
        <ele>132</ele>
        <time>2014-03-23T07:09:12Z</time>
      </trkpt>
      <trkpt lat="44.94231" lon="4.84237">
        <ele>132</ele>
        <time>2014-03-23T07:09:13Z</time>
      </trkpt>
      <trkpt lat="44.94228" lon="4.84233">
        <ele>132</ele>
        <time>2014-03-23T07:09:14Z</time>
      </trkpt>
      <trkpt lat="44.94224" lon="4.8423">
        <ele>132.1</ele>
        <time>2014-03-23T07:09:15Z</time>
      </trkpt>
      <trkpt lat="44.9422" lon="4.84226">
        <ele>132.2</ele>
        <time>2014-03-23T07:09:16Z</time>
      </trkpt>
      <trkpt lat="44.94216" lon="4.84222">
        <ele>132</ele>
        <time>2014-03-23T07:09:17Z</time>
      </trkpt>
      <trkpt lat="44.94213" lon="4.84218">
        <ele>131.9</ele>
        <time>2014-03-23T07:09:18Z</time>
      </trkpt>
      <trkpt lat="44.94209" lon="4.84215">
        <ele>131.7</ele>
        <time>2014-03-23T07:09:19Z</time>
      </trkpt>
      <trkpt lat="44.94202" lon="4.84207">
        <ele>131.3</ele>
        <time>2014-03-23T07:09:21Z</time>
      </trkpt>
      <trkpt lat="44.94198" lon="4.84204">
        <ele>131.7</ele>
        <time>2014-03-23T07:09:22Z</time>
      </trkpt>
      <trkpt lat="44.94189" lon="4.84201">
        <ele>132.4</ele>
        <time>2014-03-23T07:09:24Z</time>
      </trkpt>
      <trkpt lat="44.94181" lon="4.84199">
        <ele>132.9</ele>
        <time>2014-03-23T07:09:26Z</time>
      </trkpt>
      <trkpt lat="44.94177" lon="4.84197">
        <ele>132.8</ele>
        <time>2014-03-23T07:09:27Z</time>
      </trkpt>
      <trkpt lat="44.94172" lon="4.84194">
        <ele>132.7</ele>
        <time>2014-03-23T07:09:28Z</time>
      </trkpt>
      <trkpt lat="44.94168" lon="4.84192">
        <ele>133.2</ele>
        <time>2014-03-23T07:09:29Z</time>
      </trkpt>
      <trkpt lat="44.94164" lon="4.8419">
        <ele>133.5</ele>
        <time>2014-03-23T07:09:30Z</time>
      </trkpt>
      <trkpt lat="44.94148" lon="4.84176">
        <ele>132</ele>
        <time>2014-03-23T07:09:33Z</time>
      </trkpt>
      <trkpt lat="44.94142" lon="4.8417">
        <ele>132.7</ele>
        <time>2014-03-23T07:09:35Z</time>
      </trkpt>
      <trkpt lat="44.94138" lon="4.84165">
        <ele>132.6</ele>
        <time>2014-03-23T07:09:36Z</time>
      </trkpt>
      <trkpt lat="44.94134" lon="4.8416">
        <ele>132.6</ele>
        <time>2014-03-23T07:09:37Z</time>
      </trkpt>
      <trkpt lat="44.94131" lon="4.84155">
        <ele>132.3</ele>
        <time>2014-03-23T07:09:38Z</time>
      </trkpt>
      <trkpt lat="44.94127" lon="4.8415">
        <ele>132</ele>
        <time>2014-03-23T07:09:39Z</time>
      </trkpt>
      <trkpt lat="44.94124" lon="4.84145">
        <ele>131.8</ele>
        <time>2014-03-23T07:09:40Z</time>
      </trkpt>
      <trkpt lat="44.9412" lon="4.8414">
        <ele>131.9</ele>
        <time>2014-03-23T07:09:41Z</time>
      </trkpt>
      <trkpt lat="44.94117" lon="4.84135">
        <ele>132</ele>
        <time>2014-03-23T07:09:42Z</time>
      </trkpt>
      <trkpt lat="44.94114" lon="4.8413">
        <ele>132</ele>
        <time>2014-03-23T07:09:43Z</time>
      </trkpt>
      <trkpt lat="44.94111" lon="4.84125">
        <ele>132</ele>
        <time>2014-03-23T07:09:44Z</time>
      </trkpt>
      <trkpt lat="44.94108" lon="4.8412">
        <ele>132</ele>
        <time>2014-03-23T07:09:45Z</time>
      </trkpt>
      <trkpt lat="44.94101" lon="4.84112">
        <ele>132.3</ele>
        <time>2014-03-23T07:09:47Z</time>
      </trkpt>
      <trkpt lat="44.94094" lon="4.84106">
        <ele>131.9</ele>
        <time>2014-03-23T07:09:49Z</time>
      </trkpt>
      <trkpt lat="44.94086" lon="4.84103">
        <ele>132.5</ele>
        <time>2014-03-23T07:09:52Z</time>
      </trkpt>
      <trkpt lat="44.94082" lon="4.84102">
        <ele>132.4</ele>
        <time>2014-03-23T07:09:53Z</time>
      </trkpt>
      <trkpt lat="44.94076" lon="4.84103">
        <ele>132.3</ele>
        <time>2014-03-23T07:09:54Z</time>
      </trkpt>
      <trkpt lat="44.94071" lon="4.84105">
        <ele>132.4</ele>
        <time>2014-03-23T07:09:55Z</time>
      </trkpt>
      <trkpt lat="44.94066" lon="4.84105">
        <ele>132.4</ele>
        <time>2014-03-23T07:09:56Z</time>
      </trkpt>
      <trkpt lat="44.94061" lon="4.84104">
        <ele>132.6</ele>
        <time>2014-03-23T07:09:57Z</time>
      </trkpt>
      <trkpt lat="44.94056" lon="4.84102">
        <ele>132.7</ele>
        <time>2014-03-23T07:09:58Z</time>
      </trkpt>
      <trkpt lat="44.9405" lon="4.841">
        <ele>132.7</ele>
        <time>2014-03-23T07:09:59Z</time>
      </trkpt>
      <trkpt lat="44.94045" lon="4.84099">
        <ele>133</ele>
        <time>2014-03-23T07:10:00Z</time>
      </trkpt>
      <trkpt lat="44.9404" lon="4.84098">
        <ele>133.1</ele>
        <time>2014-03-23T07:10:01Z</time>
      </trkpt>
      <trkpt lat="44.94036" lon="4.84098">
        <ele>133.1</ele>
        <time>2014-03-23T07:10:02Z</time>
      </trkpt>
      <trkpt lat="44.94031" lon="4.84097">
        <ele>133</ele>
        <time>2014-03-23T07:10:03Z</time>
      </trkpt>
      <trkpt lat="44.94026" lon="4.84096">
        <ele>133</ele>
        <time>2014-03-23T07:10:04Z</time>
      </trkpt>
      <trkpt lat="44.94022" lon="4.84095">
        <ele>133.4</ele>
        <time>2014-03-23T07:10:05Z</time>
      </trkpt>
      <trkpt lat="44.94013" lon="4.84093">
        <ele>133.5</ele>
        <time>2014-03-23T07:10:07Z</time>
      </trkpt>
      <trkpt lat="44.94008" lon="4.84092">
        <ele>133.3</ele>
        <time>2014-03-23T07:10:08Z</time>
      </trkpt>
      <trkpt lat="44.94004" lon="4.84092">
        <ele>133.4</ele>
        <time>2014-03-23T07:10:09Z</time>
      </trkpt>
      <trkpt lat="44.93999" lon="4.84091">
        <ele>133.5</ele>
        <time>2014-03-23T07:10:10Z</time>
      </trkpt>
      <trkpt lat="44.93994" lon="4.84089">
        <ele>133.6</ele>
        <time>2014-03-23T07:10:11Z</time>
      </trkpt>
      <trkpt lat="44.9399" lon="4.84088">
        <ele>133.6</ele>
        <time>2014-03-23T07:10:12Z</time>
      </trkpt>
      <trkpt lat="44.93985" lon="4.84088">
        <ele>133.6</ele>
        <time>2014-03-23T07:10:13Z</time>
      </trkpt>
      <trkpt lat="44.9398" lon="4.84087">
        <ele>133.4</ele>
        <time>2014-03-23T07:10:14Z</time>
      </trkpt>
      <trkpt lat="44.93975" lon="4.84085">
        <ele>133.3</ele>
        <time>2014-03-23T07:10:15Z</time>
      </trkpt>
      <trkpt lat="44.9397" lon="4.84084">
        <ele>133.4</ele>
        <time>2014-03-23T07:10:16Z</time>
      </trkpt>
      <trkpt lat="44.93966" lon="4.84081">
        <ele>133.5</ele>
        <time>2014-03-23T07:10:17Z</time>
      </trkpt>
      <trkpt lat="44.93961" lon="4.84078">
        <ele>133.6</ele>
        <time>2014-03-23T07:10:18Z</time>
      </trkpt>
      <trkpt lat="44.93957" lon="4.84075">
        <ele>133.4</ele>
        <time>2014-03-23T07:10:19Z</time>
      </trkpt>
      <trkpt lat="44.93953" lon="4.84071">
        <ele>133.2</ele>
        <time>2014-03-23T07:10:20Z</time>
      </trkpt>
      <trkpt lat="44.93949" lon="4.84067">
        <ele>133.3</ele>
        <time>2014-03-23T07:10:21Z</time>
      </trkpt>
      <trkpt lat="44.93945" lon="4.84063">
        <ele>133.4</ele>
        <time>2014-03-23T07:10:22Z</time>
      </trkpt>
      <trkpt lat="44.93942" lon="4.84059">
        <ele>133.6</ele>
        <time>2014-03-23T07:10:23Z</time>
      </trkpt>
      <trkpt lat="44.93938" lon="4.84056">
        <ele>133.7</ele>
        <time>2014-03-23T07:10:24Z</time>
      </trkpt>
      <trkpt lat="44.93933" lon="4.84053">
        <ele>133.8</ele>
        <time>2014-03-23T07:10:25Z</time>
      </trkpt>
      <trkpt lat="44.93925" lon="4.84048">
        <ele>133.5</ele>
        <time>2014-03-23T07:10:27Z</time>
      </trkpt>
      <trkpt lat="44.93917" lon="4.84045">
        <ele>133.4</ele>
        <time>2014-03-23T07:10:29Z</time>
      </trkpt>
      <trkpt lat="44.93912" lon="4.84043">
        <ele>133.3</ele>
        <time>2014-03-23T07:10:30Z</time>
      </trkpt>
      <trkpt lat="44.93908" lon="4.84042">
        <ele>133.8</ele>
        <time>2014-03-23T07:10:31Z</time>
      </trkpt>
      <trkpt lat="44.93904" lon="4.8404">
        <ele>134.2</ele>
        <time>2014-03-23T07:10:32Z</time>
      </trkpt>
      <trkpt lat="44.93899" lon="4.84038">
        <ele>134.3</ele>
        <time>2014-03-23T07:10:33Z</time>
      </trkpt>
      <trkpt lat="44.93895" lon="4.84036">
        <ele>134.3</ele>
        <time>2014-03-23T07:10:34Z</time>
      </trkpt>
      <trkpt lat="44.9389" lon="4.84034">
        <ele>134.2</ele>
        <time>2014-03-23T07:10:35Z</time>
      </trkpt>
      <trkpt lat="44.93886" lon="4.84032">
        <ele>134.2</ele>
        <time>2014-03-23T07:10:36Z</time>
      </trkpt>
      <trkpt lat="44.93878" lon="4.84028">
        <ele>134</ele>
        <time>2014-03-23T07:10:38Z</time>
      </trkpt>
      <trkpt lat="44.93874" lon="4.84025">
        <ele>134</ele>
        <time>2014-03-23T07:10:39Z</time>
      </trkpt>
      <trkpt lat="44.93866" lon="4.8402">
        <ele>134.6</ele>
        <time>2014-03-23T07:10:41Z</time>
      </trkpt>
      <trkpt lat="44.93861" lon="4.84016">
        <ele>134.7</ele>
        <time>2014-03-23T07:10:42Z</time>
      </trkpt>
      <trkpt lat="44.93857" lon="4.84013">
        <ele>134.8</ele>
        <time>2014-03-23T07:10:43Z</time>
      </trkpt>
      <trkpt lat="44.93853" lon="4.84009">
        <ele>134.8</ele>
        <time>2014-03-23T07:10:44Z</time>
      </trkpt>
      <trkpt lat="44.93848" lon="4.84004">
        <ele>134.6</ele>
        <time>2014-03-23T07:10:45Z</time>
      </trkpt>
      <trkpt lat="44.93844" lon="4.84">
        <ele>134.4</ele>
        <time>2014-03-23T07:10:46Z</time>
      </trkpt>
      <trkpt lat="44.9384" lon="4.83995">
        <ele>134.2</ele>
        <time>2014-03-23T07:10:47Z</time>
      </trkpt>
      <trkpt lat="44.93837" lon="4.8399">
        <ele>134</ele>
        <time>2014-03-23T07:10:48Z</time>
      </trkpt>
      <trkpt lat="44.93834" lon="4.83985">
        <ele>133.9</ele>
        <time>2014-03-23T07:10:49Z</time>
      </trkpt>
      <trkpt lat="44.93829" lon="4.83975">
        <ele>134.4</ele>
        <time>2014-03-23T07:10:51Z</time>
      </trkpt>
      <trkpt lat="44.93824" lon="4.83965">
        <ele>134.1</ele>
        <time>2014-03-23T07:10:53Z</time>
      </trkpt>
      <trkpt lat="44.9382" lon="4.83954">
        <ele>134.3</ele>
        <time>2014-03-23T07:10:55Z</time>
      </trkpt>
      <trkpt lat="44.93814" lon="4.83945">
        <ele>134.4</ele>
        <time>2014-03-23T07:10:57Z</time>
      </trkpt>
      <trkpt lat="44.93808" lon="4.83937">
        <ele>134.6</ele>
        <time>2014-03-23T07:10:59Z</time>
      </trkpt>
      <trkpt lat="44.938" lon="4.83932">
        <ele>134.9</ele>
        <time>2014-03-23T07:11:01Z</time>
      </trkpt>
      <trkpt lat="44.93796" lon="4.83929">
        <ele>135</ele>
        <time>2014-03-23T07:11:02Z</time>
      </trkpt>
      <trkpt lat="44.93791" lon="4.83927">
        <ele>135</ele>
        <time>2014-03-23T07:11:03Z</time>
      </trkpt>
      <trkpt lat="44.93787" lon="4.83924">
        <ele>134.9</ele>
        <time>2014-03-23T07:11:04Z</time>
      </trkpt>
      <trkpt lat="44.93783" lon="4.83922">
        <ele>134.9</ele>
        <time>2014-03-23T07:11:05Z</time>
      </trkpt>
      <trkpt lat="44.93779" lon="4.83919">
        <ele>134.8</ele>
        <time>2014-03-23T07:11:06Z</time>
      </trkpt>
      <trkpt lat="44.93774" lon="4.83917">
        <ele>134.8</ele>
        <time>2014-03-23T07:11:07Z</time>
      </trkpt>
      <trkpt lat="44.9377" lon="4.83914">
        <ele>134.8</ele>
        <time>2014-03-23T07:11:08Z</time>
      </trkpt>
      <trkpt lat="44.93766" lon="4.83912">
        <ele>134.5</ele>
        <time>2014-03-23T07:11:09Z</time>
      </trkpt>
      <trkpt lat="44.93758" lon="4.83906">
        <ele>134.8</ele>
        <time>2014-03-23T07:11:11Z</time>
      </trkpt>
      <trkpt lat="44.9375" lon="4.83901">
        <ele>134.8</ele>
        <time>2014-03-23T07:11:13Z</time>
      </trkpt>
      <trkpt lat="44.93743" lon="4.83895">
        <ele>134.3</ele>
        <time>2014-03-23T07:11:15Z</time>
      </trkpt>
      <trkpt lat="44.93736" lon="4.8389">
        <ele>135</ele>
        <time>2014-03-23T07:11:17Z</time>
      </trkpt>
      <trkpt lat="44.93729" lon="4.83885">
        <ele>135.4</ele>
        <time>2014-03-23T07:11:19Z</time>
      </trkpt>
      <trkpt lat="44.93722" lon="4.83881">
        <ele>135.6</ele>
        <time>2014-03-23T07:11:21Z</time>
      </trkpt>
      <trkpt lat="44.93714" lon="4.83877">
        <ele>135.6</ele>
        <time>2014-03-23T07:11:23Z</time>
      </trkpt>
      <trkpt lat="44.93707" lon="4.83874">
        <ele>136.1</ele>
        <time>2014-03-23T07:11:25Z</time>
      </trkpt>
      <trkpt lat="44.93699" lon="4.83871">
        <ele>136.9</ele>
        <time>2014-03-23T07:11:27Z</time>
      </trkpt>
      <trkpt lat="44.93691" lon="4.83869">
        <ele>137.5</ele>
        <time>2014-03-23T07:11:29Z</time>
      </trkpt>
      <trkpt lat="44.93683" lon="4.83867">
        <ele>137.6</ele>
        <time>2014-03-23T07:11:31Z</time>
      </trkpt>
      <trkpt lat="44.93676" lon="4.83865">
        <ele>137.5</ele>
        <time>2014-03-23T07:11:33Z</time>
      </trkpt>
      <trkpt lat="44.93668" lon="4.83862">
        <ele>137.8</ele>
        <time>2014-03-23T07:11:35Z</time>
      </trkpt>
      <trkpt lat="44.9366" lon="4.83859">
        <ele>138.6</ele>
        <time>2014-03-23T07:11:37Z</time>
      </trkpt>
      <trkpt lat="44.93652" lon="4.83855">
        <ele>138.9</ele>
        <time>2014-03-23T07:11:39Z</time>
      </trkpt>
      <trkpt lat="44.93648" lon="4.83854">
        <ele>138.8</ele>
        <time>2014-03-23T07:11:40Z</time>
      </trkpt>
      <trkpt lat="44.93636" lon="4.83849">
        <ele>138.9</ele>
        <time>2014-03-23T07:11:43Z</time>
      </trkpt>
      <trkpt lat="44.93627" lon="4.83846">
        <ele>138.8</ele>
        <time>2014-03-23T07:11:45Z</time>
      </trkpt>
      <trkpt lat="44.93619" lon="4.83843">
        <ele>138.5</ele>
        <time>2014-03-23T07:11:47Z</time>
      </trkpt>
      <trkpt lat="44.93614" lon="4.83841">
        <ele>138.3</ele>
        <time>2014-03-23T07:11:48Z</time>
      </trkpt>
      <trkpt lat="44.9361" lon="4.83839">
        <ele>138.3</ele>
        <time>2014-03-23T07:11:49Z</time>
      </trkpt>
      <trkpt lat="44.93606" lon="4.83837">
        <ele>138.4</ele>
        <time>2014-03-23T07:11:50Z</time>
      </trkpt>
      <trkpt lat="44.93601" lon="4.83834">
        <ele>138.6</ele>
        <time>2014-03-23T07:11:51Z</time>
      </trkpt>
      <trkpt lat="44.93597" lon="4.83832">
        <ele>138.7</ele>
        <time>2014-03-23T07:11:52Z</time>
      </trkpt>
      <trkpt lat="44.93592" lon="4.8383">
        <ele>138.9</ele>
        <time>2014-03-23T07:11:53Z</time>
      </trkpt>
      <trkpt lat="44.93588" lon="4.83829">
        <ele>139</ele>
        <time>2014-03-23T07:11:54Z</time>
      </trkpt>
      <trkpt lat="44.93583" lon="4.83828">
        <ele>139.2</ele>
        <time>2014-03-23T07:11:55Z</time>
      </trkpt>
      <trkpt lat="44.93578" lon="4.83828">
        <ele>139</ele>
        <time>2014-03-23T07:11:56Z</time>
      </trkpt>
      <trkpt lat="44.93574" lon="4.83828">
        <ele>138.9</ele>
        <time>2014-03-23T07:11:57Z</time>
      </trkpt>
      <trkpt lat="44.93569" lon="4.83828">
        <ele>138.8</ele>
        <time>2014-03-23T07:11:58Z</time>
      </trkpt>
      <trkpt lat="44.93565" lon="4.83828">
        <ele>138.7</ele>
        <time>2014-03-23T07:11:59Z</time>
      </trkpt>
      <trkpt lat="44.9356" lon="4.83828">
        <ele>138.6</ele>
        <time>2014-03-23T07:12:00Z</time>
      </trkpt>
      <trkpt lat="44.93556" lon="4.83828">
        <ele>138.7</ele>
        <time>2014-03-23T07:12:01Z</time>
      </trkpt>
      <trkpt lat="44.93551" lon="4.83827">
        <ele>138.8</ele>
        <time>2014-03-23T07:12:02Z</time>
      </trkpt>
      <trkpt lat="44.93547" lon="4.83826">
        <ele>138.7</ele>
        <time>2014-03-23T07:12:03Z</time>
      </trkpt>
      <trkpt lat="44.93542" lon="4.83826">
        <ele>138.7</ele>
        <time>2014-03-23T07:12:04Z</time>
      </trkpt>
      <trkpt lat="44.93538" lon="4.83826">
        <ele>138.6</ele>
        <time>2014-03-23T07:12:05Z</time>
      </trkpt>
      <trkpt lat="44.93529" lon="4.83825">
        <ele>138.6</ele>
        <time>2014-03-23T07:12:07Z</time>
      </trkpt>
      <trkpt lat="44.9352" lon="4.83824">
        <ele>138.2</ele>
        <time>2014-03-23T07:12:09Z</time>
      </trkpt>
      <trkpt lat="44.93512" lon="4.8382">
        <ele>137.8</ele>
        <time>2014-03-23T07:12:11Z</time>
      </trkpt>
      <trkpt lat="44.93505" lon="4.83815">
        <ele>138.1</ele>
        <time>2014-03-23T07:12:13Z</time>
      </trkpt>
      <trkpt lat="44.93496" lon="4.83812">
        <ele>138.5</ele>
        <time>2014-03-23T07:12:15Z</time>
      </trkpt>
      <trkpt lat="44.93487" lon="4.8381">
        <ele>138.7</ele>
        <time>2014-03-23T07:12:17Z</time>
      </trkpt>
      <trkpt lat="44.93479" lon="4.83807">
        <ele>138.7</ele>
        <time>2014-03-23T07:12:19Z</time>
      </trkpt>
      <trkpt lat="44.9347" lon="4.83804">
        <ele>139.1</ele>
        <time>2014-03-23T07:12:21Z</time>
      </trkpt>
      <trkpt lat="44.93462" lon="4.838">
        <ele>139.5</ele>
        <time>2014-03-23T07:12:23Z</time>
      </trkpt>
      <trkpt lat="44.93453" lon="4.83797">
        <ele>139.9</ele>
        <time>2014-03-23T07:12:25Z</time>
      </trkpt>
      <trkpt lat="44.93449" lon="4.83795">
        <ele>140.1</ele>
        <time>2014-03-23T07:12:26Z</time>
      </trkpt>
      <trkpt lat="44.93445" lon="4.83793">
        <ele>140</ele>
        <time>2014-03-23T07:12:27Z</time>
      </trkpt>
      <trkpt lat="44.9344" lon="4.83791">
        <ele>140</ele>
        <time>2014-03-23T07:12:28Z</time>
      </trkpt>
      <trkpt lat="44.93432" lon="4.83787">
        <ele>140.2</ele>
        <time>2014-03-23T07:12:30Z</time>
      </trkpt>
      <trkpt lat="44.93424" lon="4.83784">
        <ele>140.2</ele>
        <time>2014-03-23T07:12:32Z</time>
      </trkpt>
      <trkpt lat="44.93416" lon="4.83779">
        <ele>140.3</ele>
        <time>2014-03-23T07:12:34Z</time>
      </trkpt>
      <trkpt lat="44.93409" lon="4.83772">
        <ele>140.4</ele>
        <time>2014-03-23T07:12:36Z</time>
      </trkpt>
      <trkpt lat="44.93403" lon="4.83765">
        <ele>140.4</ele>
        <time>2014-03-23T07:12:38Z</time>
      </trkpt>
      <trkpt lat="44.934" lon="4.8376">
        <ele>140.4</ele>
        <time>2014-03-23T07:12:39Z</time>
      </trkpt>
      <trkpt lat="44.93397" lon="4.83755">
        <ele>140.3</ele>
        <time>2014-03-23T07:12:40Z</time>
      </trkpt>
      <trkpt lat="44.93394" lon="4.83749">
        <ele>140.3</ele>
        <time>2014-03-23T07:12:41Z</time>
      </trkpt>
      <trkpt lat="44.93391" lon="4.83744">
        <ele>140.3</ele>
        <time>2014-03-23T07:12:42Z</time>
      </trkpt>
      <trkpt lat="44.93387" lon="4.83739">
        <ele>140.2</ele>
        <time>2014-03-23T07:12:43Z</time>
      </trkpt>
      <trkpt lat="44.93384" lon="4.83734">
        <ele>140.2</ele>
        <time>2014-03-23T07:12:44Z</time>
      </trkpt>
      <trkpt lat="44.93381" lon="4.83729">
        <ele>140.2</ele>
        <time>2014-03-23T07:12:45Z</time>
      </trkpt>
      <trkpt lat="44.93377" lon="4.83725">
        <ele>140</ele>
        <time>2014-03-23T07:12:46Z</time>
      </trkpt>
      <trkpt lat="44.93374" lon="4.8372">
        <ele>139.9</ele>
        <time>2014-03-23T07:12:47Z</time>
      </trkpt>
      <trkpt lat="44.93367" lon="4.83712">
        <ele>139.6</ele>
        <time>2014-03-23T07:12:49Z</time>
      </trkpt>
      <trkpt lat="44.93361" lon="4.83704">
        <ele>139.7</ele>
        <time>2014-03-23T07:12:51Z</time>
      </trkpt>
      <trkpt lat="44.93355" lon="4.83694">
        <ele>139.7</ele>
        <time>2014-03-23T07:12:53Z</time>
      </trkpt>
      <trkpt lat="44.9335" lon="4.83685">
        <ele>139.8</ele>
        <time>2014-03-23T07:12:55Z</time>
      </trkpt>
      <trkpt lat="44.93346" lon="4.83681">
        <ele>140</ele>
        <time>2014-03-23T07:12:56Z</time>
      </trkpt>
      <trkpt lat="44.93342" lon="4.83676">
        <ele>140.1</ele>
        <time>2014-03-23T07:12:57Z</time>
      </trkpt>
      <trkpt lat="44.93337" lon="4.83672">
        <ele>139.9</ele>
        <time>2014-03-23T07:12:58Z</time>
      </trkpt>
      <trkpt lat="44.93332" lon="4.83667">
        <ele>139.8</ele>
        <time>2014-03-23T07:12:59Z</time>
      </trkpt>
      <trkpt lat="44.93328" lon="4.83661">
        <ele>139.2</ele>
        <time>2014-03-23T07:13:00Z</time>
      </trkpt>
      <trkpt lat="44.93323" lon="4.83656">
        <ele>138.8</ele>
        <time>2014-03-23T07:13:01Z</time>
      </trkpt>
      <trkpt lat="44.93318" lon="4.83654">
        <ele>138.4</ele>
        <time>2014-03-23T07:13:02Z</time>
      </trkpt>
      <trkpt lat="44.93314" lon="4.83656">
        <ele>138.3</ele>
        <time>2014-03-23T07:13:03Z</time>
      </trkpt>
      <trkpt lat="44.9331" lon="4.8366">
        <ele>138.2</ele>
        <time>2014-03-23T07:13:04Z</time>
      </trkpt>
      <trkpt lat="44.93307" lon="4.83665">
        <ele>138.3</ele>
        <time>2014-03-23T07:13:05Z</time>
      </trkpt>
      <trkpt lat="44.93305" lon="4.83671">
        <ele>138.4</ele>
        <time>2014-03-23T07:13:06Z</time>
      </trkpt>
      <trkpt lat="44.93302" lon="4.83677">
        <ele>137.8</ele>
        <time>2014-03-23T07:13:07Z</time>
      </trkpt>
      <trkpt lat="44.93301" lon="4.83683">
        <ele>137.4</ele>
        <time>2014-03-23T07:13:08Z</time>
      </trkpt>
      <trkpt lat="44.933" lon="4.83695">
        <ele>137.4</ele>
        <time>2014-03-23T07:13:10Z</time>
      </trkpt>
      <trkpt lat="44.93298" lon="4.83706">
        <ele>138.2</ele>
        <time>2014-03-23T07:13:12Z</time>
      </trkpt>
      <trkpt lat="44.93292" lon="4.83712">
        <ele>138.9</ele>
        <time>2014-03-23T07:13:14Z</time>
      </trkpt>
      <trkpt lat="44.93284" lon="4.83712">
        <ele>139.4</ele>
        <time>2014-03-23T07:13:16Z</time>
      </trkpt>
      <trkpt lat="44.93277" lon="4.83713">
        <ele>140.2</ele>
        <time>2014-03-23T07:13:18Z</time>
      </trkpt>
      <trkpt lat="44.9327" lon="4.83708">
        <ele>141.3</ele>
        <time>2014-03-23T07:13:20Z</time>
      </trkpt>
      <trkpt lat="44.93263" lon="4.83701">
        <ele>141.2</ele>
        <time>2014-03-23T07:13:22Z</time>
      </trkpt>
      <trkpt lat="44.93256" lon="4.83693">
        <ele>140.9</ele>
        <time>2014-03-23T07:13:24Z</time>
      </trkpt>
      <trkpt lat="44.9325" lon="4.83686">
        <ele>140.9</ele>
        <time>2014-03-23T07:13:26Z</time>
      </trkpt>
      <trkpt lat="44.93242" lon="4.83681">
        <ele>141.2</ele>
        <time>2014-03-23T07:13:28Z</time>
      </trkpt>
      <trkpt lat="44.93234" lon="4.83678">
        <ele>141.5</ele>
        <time>2014-03-23T07:13:30Z</time>
      </trkpt>
      <trkpt lat="44.93226" lon="4.83679">
        <ele>140.7</ele>
        <time>2014-03-23T07:13:32Z</time>
      </trkpt>
      <trkpt lat="44.93217" lon="4.83681">
        <ele>141.1</ele>
        <time>2014-03-23T07:13:34Z</time>
      </trkpt>
      <trkpt lat="44.93213" lon="4.83681">
        <ele>141.2</ele>
        <time>2014-03-23T07:13:35Z</time>
      </trkpt>
      <trkpt lat="44.93208" lon="4.83681">
        <ele>141.2</ele>
        <time>2014-03-23T07:13:36Z</time>
      </trkpt>
      <trkpt lat="44.93203" lon="4.8368">
        <ele>141.3</ele>
        <time>2014-03-23T07:13:37Z</time>
      </trkpt>
      <trkpt lat="44.93199" lon="4.83679">
        <ele>141.2</ele>
        <time>2014-03-23T07:13:38Z</time>
      </trkpt>
      <trkpt lat="44.93194" lon="4.83678">
        <ele>141.2</ele>
        <time>2014-03-23T07:13:39Z</time>
      </trkpt>
      <trkpt lat="44.93189" lon="4.83676">
        <ele>141.2</ele>
        <time>2014-03-23T07:13:40Z</time>
      </trkpt>
      <trkpt lat="44.93185" lon="4.83674">
        <ele>141.2</ele>
        <time>2014-03-23T07:13:41Z</time>
      </trkpt>
      <trkpt lat="44.9318" lon="4.83672">
        <ele>141.3</ele>
        <time>2014-03-23T07:13:42Z</time>
      </trkpt>
      <trkpt lat="44.93175" lon="4.8367">
        <ele>141.1</ele>
        <time>2014-03-23T07:13:43Z</time>
      </trkpt>
      <trkpt lat="44.9317" lon="4.83668">
        <ele>141</ele>
        <time>2014-03-23T07:13:44Z</time>
      </trkpt>
      <trkpt lat="44.93166" lon="4.83666">
        <ele>140.9</ele>
        <time>2014-03-23T07:13:45Z</time>
      </trkpt>
      <trkpt lat="44.93161" lon="4.83664">
        <ele>140.9</ele>
        <time>2014-03-23T07:13:46Z</time>
      </trkpt>
      <trkpt lat="44.93157" lon="4.83661">
        <ele>140.8</ele>
        <time>2014-03-23T07:13:47Z</time>
      </trkpt>
      <trkpt lat="44.93152" lon="4.83658">
        <ele>140.3</ele>
        <time>2014-03-23T07:13:48Z</time>
      </trkpt>
      <trkpt lat="44.93147" lon="4.83656">
        <ele>140</ele>
        <time>2014-03-23T07:13:49Z</time>
      </trkpt>
      <trkpt lat="44.93143" lon="4.83653">
        <ele>139.9</ele>
        <time>2014-03-23T07:13:50Z</time>
      </trkpt>
      <trkpt lat="44.93139" lon="4.83651">
        <ele>139.8</ele>
        <time>2014-03-23T07:13:51Z</time>
      </trkpt>
      <trkpt lat="44.93134" lon="4.83648">
        <ele>140.4</ele>
        <time>2014-03-23T07:13:52Z</time>
      </trkpt>
      <trkpt lat="44.9313" lon="4.83646">
        <ele>140.8</ele>
        <time>2014-03-23T07:13:53Z</time>
      </trkpt>
      <trkpt lat="44.93125" lon="4.83644">
        <ele>141.2</ele>
        <time>2014-03-23T07:13:54Z</time>
      </trkpt>
      <trkpt lat="44.93121" lon="4.83641">
        <ele>141.5</ele>
        <time>2014-03-23T07:13:55Z</time>
      </trkpt>
      <trkpt lat="44.93117" lon="4.83639">
        <ele>141.8</ele>
        <time>2014-03-23T07:13:56Z</time>
      </trkpt>
      <trkpt lat="44.93112" lon="4.83636">
        <ele>141.5</ele>
        <time>2014-03-23T07:13:57Z</time>
      </trkpt>
      <trkpt lat="44.93108" lon="4.83634">
        <ele>141.3</ele>
        <time>2014-03-23T07:13:58Z</time>
      </trkpt>
      <trkpt lat="44.931" lon="4.83629">
        <ele>142.1</ele>
        <time>2014-03-23T07:14:00Z</time>
      </trkpt>
      <trkpt lat="44.93096" lon="4.83627">
        <ele>142.4</ele>
        <time>2014-03-23T07:14:01Z</time>
      </trkpt>
      <trkpt lat="44.93091" lon="4.83624">
        <ele>142.1</ele>
        <time>2014-03-23T07:14:02Z</time>
      </trkpt>
      <trkpt lat="44.93087" lon="4.83622">
        <ele>141.9</ele>
        <time>2014-03-23T07:14:03Z</time>
      </trkpt>
      <trkpt lat="44.93083" lon="4.8362">
        <ele>142</ele>
        <time>2014-03-23T07:14:04Z</time>
      </trkpt>
      <trkpt lat="44.93075" lon="4.83615">
        <ele>142</ele>
        <time>2014-03-23T07:14:06Z</time>
      </trkpt>
      <trkpt lat="44.93067" lon="4.83611">
        <ele>141.9</ele>
        <time>2014-03-23T07:14:08Z</time>
      </trkpt>
      <trkpt lat="44.93058" lon="4.83606">
        <ele>142.4</ele>
        <time>2014-03-23T07:14:10Z</time>
      </trkpt>
      <trkpt lat="44.9305" lon="4.83601">
        <ele>142.6</ele>
        <time>2014-03-23T07:14:12Z</time>
      </trkpt>
      <trkpt lat="44.93042" lon="4.83597">
        <ele>142.8</ele>
        <time>2014-03-23T07:14:14Z</time>
      </trkpt>
      <trkpt lat="44.93034" lon="4.83592">
        <ele>143</ele>
        <time>2014-03-23T07:14:16Z</time>
      </trkpt>
      <trkpt lat="44.9303" lon="4.83589">
        <ele>143.1</ele>
        <time>2014-03-23T07:14:17Z</time>
      </trkpt>
      <trkpt lat="44.93025" lon="4.83586">
        <ele>143.3</ele>
        <time>2014-03-23T07:14:18Z</time>
      </trkpt>
      <trkpt lat="44.93021" lon="4.83583">
        <ele>143.5</ele>
        <time>2014-03-23T07:14:19Z</time>
      </trkpt>
      <trkpt lat="44.93014" lon="4.83577">
        <ele>143.4</ele>
        <time>2014-03-23T07:14:21Z</time>
      </trkpt>
      <trkpt lat="44.93006" lon="4.8357">
        <ele>143.3</ele>
        <time>2014-03-23T07:14:23Z</time>
      </trkpt>
      <trkpt lat="44.92999" lon="4.83564">
        <ele>143.3</ele>
        <time>2014-03-23T07:14:25Z</time>
      </trkpt>
      <trkpt lat="44.92995" lon="4.8356">
        <ele>143.3</ele>
        <time>2014-03-23T07:14:26Z</time>
      </trkpt>
      <trkpt lat="44.92991" lon="4.83557">
        <ele>143.3</ele>
        <time>2014-03-23T07:14:27Z</time>
      </trkpt>
      <trkpt lat="44.92987" lon="4.83553">
        <ele>143.5</ele>
        <time>2014-03-23T07:14:28Z</time>
      </trkpt>
      <trkpt lat="44.92984" lon="4.8355">
        <ele>143.6</ele>
        <time>2014-03-23T07:14:29Z</time>
      </trkpt>
      <trkpt lat="44.9298" lon="4.83546">
        <ele>143.8</ele>
        <time>2014-03-23T07:14:30Z</time>
      </trkpt>
      <trkpt lat="44.92972" lon="4.83539">
        <ele>144.2</ele>
        <time>2014-03-23T07:14:32Z</time>
      </trkpt>
      <trkpt lat="44.92969" lon="4.83536">
        <ele>144.5</ele>
        <time>2014-03-23T07:14:33Z</time>
      </trkpt>
      <trkpt lat="44.92965" lon="4.83532">
        <ele>144.8</ele>
        <time>2014-03-23T07:14:34Z</time>
      </trkpt>
      <trkpt lat="44.92961" lon="4.83528">
        <ele>145</ele>
        <time>2014-03-23T07:14:35Z</time>
      </trkpt>
      <trkpt lat="44.92958" lon="4.83524">
        <ele>145.1</ele>
        <time>2014-03-23T07:14:36Z</time>
      </trkpt>
      <trkpt lat="44.92954" lon="4.8352">
        <ele>145.3</ele>
        <time>2014-03-23T07:14:37Z</time>
      </trkpt>
      <trkpt lat="44.9295" lon="4.83516">
        <ele>145.4</ele>
        <time>2014-03-23T07:14:38Z</time>
      </trkpt>
      <trkpt lat="44.92946" lon="4.83512">
        <ele>145.5</ele>
        <time>2014-03-23T07:14:39Z</time>
      </trkpt>
      <trkpt lat="44.92942" lon="4.83509">
        <ele>145.6</ele>
        <time>2014-03-23T07:14:40Z</time>
      </trkpt>
      <trkpt lat="44.92938" lon="4.83505">
        <ele>145.7</ele>
        <time>2014-03-23T07:14:41Z</time>
      </trkpt>
      <trkpt lat="44.92934" lon="4.83502">
        <ele>145.9</ele>
        <time>2014-03-23T07:14:42Z</time>
      </trkpt>
      <trkpt lat="44.9293" lon="4.83498">
        <ele>146.1</ele>
        <time>2014-03-23T07:14:43Z</time>
      </trkpt>
      <trkpt lat="44.92926" lon="4.83494">
        <ele>146</ele>
        <time>2014-03-23T07:14:44Z</time>
      </trkpt>
      <trkpt lat="44.92922" lon="4.83491">
        <ele>146</ele>
        <time>2014-03-23T07:14:45Z</time>
      </trkpt>
      <trkpt lat="44.92918" lon="4.83487">
        <ele>146</ele>
        <time>2014-03-23T07:14:46Z</time>
      </trkpt>
      <trkpt lat="44.92914" lon="4.83482">
        <ele>145.9</ele>
        <time>2014-03-23T07:14:47Z</time>
      </trkpt>
      <trkpt lat="44.9291" lon="4.83478">
        <ele>145.8</ele>
        <time>2014-03-23T07:14:48Z</time>
      </trkpt>
      <trkpt lat="44.92906" lon="4.83474">
        <ele>146.3</ele>
        <time>2014-03-23T07:14:49Z</time>
      </trkpt>
      <trkpt lat="44.92903" lon="4.8347">
        <ele>146.6</ele>
        <time>2014-03-23T07:14:50Z</time>
      </trkpt>
      <trkpt lat="44.92899" lon="4.83466">
        <ele>146.9</ele>
        <time>2014-03-23T07:14:51Z</time>
      </trkpt>
      <trkpt lat="44.92895" lon="4.83462">
        <ele>146.7</ele>
        <time>2014-03-23T07:14:52Z</time>
      </trkpt>
      <trkpt lat="44.92892" lon="4.83458">
        <ele>146.6</ele>
        <time>2014-03-23T07:14:53Z</time>
      </trkpt>
      <trkpt lat="44.92888" lon="4.83454">
        <ele>146.8</ele>
        <time>2014-03-23T07:14:54Z</time>
      </trkpt>
      <trkpt lat="44.92884" lon="4.8345">
        <ele>146.9</ele>
        <time>2014-03-23T07:14:55Z</time>
      </trkpt>
      <trkpt lat="44.9288" lon="4.83446">
        <ele>146.9</ele>
        <time>2014-03-23T07:14:56Z</time>
      </trkpt>
      <trkpt lat="44.92876" lon="4.83443">
        <ele>146.9</ele>
        <time>2014-03-23T07:14:57Z</time>
      </trkpt>
      <trkpt lat="44.92872" lon="4.83439">
        <ele>146.9</ele>
        <time>2014-03-23T07:14:58Z</time>
      </trkpt>
      <trkpt lat="44.92868" lon="4.83435">
        <ele>146.7</ele>
        <time>2014-03-23T07:14:59Z</time>
      </trkpt>
      <trkpt lat="44.92864" lon="4.83433">
        <ele>146.6</ele>
        <time>2014-03-23T07:15:00Z</time>
      </trkpt>
      <trkpt lat="44.9286" lon="4.8343">
        <ele>146.4</ele>
        <time>2014-03-23T07:15:01Z</time>
      </trkpt>
      <trkpt lat="44.92856" lon="4.83427">
        <ele>146.3</ele>
        <time>2014-03-23T07:15:02Z</time>
      </trkpt>
      <trkpt lat="44.92852" lon="4.83424">
        <ele>146.1</ele>
        <time>2014-03-23T07:15:03Z</time>
      </trkpt>
      <trkpt lat="44.92848" lon="4.83421">
        <ele>146.2</ele>
        <time>2014-03-23T07:15:04Z</time>
      </trkpt>
      <trkpt lat="44.9284" lon="4.83415">
        <ele>146.4</ele>
        <time>2014-03-23T07:15:06Z</time>
      </trkpt>
      <trkpt lat="44.92836" lon="4.83412">
        <ele>146.5</ele>
        <time>2014-03-23T07:15:07Z</time>
      </trkpt>
      <trkpt lat="44.92832" lon="4.83408">
        <ele>146.6</ele>
        <time>2014-03-23T07:15:08Z</time>
      </trkpt>
      <trkpt lat="44.92828" lon="4.83404">
        <ele>146.6</ele>
        <time>2014-03-23T07:15:09Z</time>
      </trkpt>
      <trkpt lat="44.92824" lon="4.83401">
        <ele>146.7</ele>
        <time>2014-03-23T07:15:10Z</time>
      </trkpt>
      <trkpt lat="44.9282" lon="4.83397">
        <ele>146.7</ele>
        <time>2014-03-23T07:15:11Z</time>
      </trkpt>
      <trkpt lat="44.92816" lon="4.83394">
        <ele>146.7</ele>
        <time>2014-03-23T07:15:12Z</time>
      </trkpt>
      <trkpt lat="44.92812" lon="4.8339">
        <ele>146.6</ele>
        <time>2014-03-23T07:15:13Z</time>
      </trkpt>
      <trkpt lat="44.92808" lon="4.83387">
        <ele>146.6</ele>
        <time>2014-03-23T07:15:14Z</time>
      </trkpt>
      <trkpt lat="44.92804" lon="4.83383">
        <ele>146.3</ele>
        <time>2014-03-23T07:15:15Z</time>
      </trkpt>
      <trkpt lat="44.928" lon="4.8338">
        <ele>146.2</ele>
        <time>2014-03-23T07:15:16Z</time>
      </trkpt>
      <trkpt lat="44.92795" lon="4.83377">
        <ele>146.1</ele>
        <time>2014-03-23T07:15:17Z</time>
      </trkpt>
      <trkpt lat="44.92791" lon="4.83374">
        <ele>146.4</ele>
        <time>2014-03-23T07:15:18Z</time>
      </trkpt>
      <trkpt lat="44.92786" lon="4.83371">
        <ele>146.6</ele>
        <time>2014-03-23T07:15:19Z</time>
      </trkpt>
      <trkpt lat="44.92782" lon="4.83369">
        <ele>147</ele>
        <time>2014-03-23T07:15:20Z</time>
      </trkpt>
      <trkpt lat="44.92777" lon="4.83366">
        <ele>147.4</ele>
        <time>2014-03-23T07:15:21Z</time>
      </trkpt>
      <trkpt lat="44.92773" lon="4.83364">
        <ele>147.2</ele>
        <time>2014-03-23T07:15:22Z</time>
      </trkpt>
      <trkpt lat="44.92768" lon="4.83362">
        <ele>147</ele>
        <time>2014-03-23T07:15:23Z</time>
      </trkpt>
      <trkpt lat="44.92763" lon="4.83361">
        <ele>146.9</ele>
        <time>2014-03-23T07:15:24Z</time>
      </trkpt>
      <trkpt lat="44.92758" lon="4.83359">
        <ele>146.9</ele>
        <time>2014-03-23T07:15:25Z</time>
      </trkpt>
      <trkpt lat="44.92753" lon="4.83357">
        <ele>147</ele>
        <time>2014-03-23T07:15:26Z</time>
      </trkpt>
      <trkpt lat="44.92749" lon="4.83355">
        <ele>146.8</ele>
        <time>2014-03-23T07:15:27Z</time>
      </trkpt>
      <trkpt lat="44.92744" lon="4.83353">
        <ele>146.6</ele>
        <time>2014-03-23T07:15:28Z</time>
      </trkpt>
      <trkpt lat="44.92739" lon="4.83352">
        <ele>146.5</ele>
        <time>2014-03-23T07:15:29Z</time>
      </trkpt>
      <trkpt lat="44.92735" lon="4.8335">
        <ele>146.3</ele>
        <time>2014-03-23T07:15:30Z</time>
      </trkpt>
      <trkpt lat="44.9273" lon="4.83348">
        <ele>146.2</ele>
        <time>2014-03-23T07:15:31Z</time>
      </trkpt>
      <trkpt lat="44.92726" lon="4.83346">
        <ele>146.1</ele>
        <time>2014-03-23T07:15:32Z</time>
      </trkpt>
      <trkpt lat="44.92721" lon="4.83344">
        <ele>146</ele>
        <time>2014-03-23T07:15:33Z</time>
      </trkpt>
      <trkpt lat="44.92716" lon="4.83342">
        <ele>146.7</ele>
        <time>2014-03-23T07:15:34Z</time>
      </trkpt>
      <trkpt lat="44.92712" lon="4.83341">
        <ele>147.3</ele>
        <time>2014-03-23T07:15:35Z</time>
      </trkpt>
      <trkpt lat="44.92707" lon="4.83338">
        <ele>147.7</ele>
        <time>2014-03-23T07:15:36Z</time>
      </trkpt>
      <trkpt lat="44.92702" lon="4.83336">
        <ele>147.9</ele>
        <time>2014-03-23T07:15:37Z</time>
      </trkpt>
      <trkpt lat="44.92697" lon="4.83334">
        <ele>148</ele>
        <time>2014-03-23T07:15:38Z</time>
      </trkpt>
      <trkpt lat="44.92693" lon="4.8333">
        <ele>147.6</ele>
        <time>2014-03-23T07:15:39Z</time>
      </trkpt>
      <trkpt lat="44.92688" lon="4.83327">
        <ele>147.3</ele>
        <time>2014-03-23T07:15:40Z</time>
      </trkpt>
      <trkpt lat="44.92684" lon="4.83323">
        <ele>147.1</ele>
        <time>2014-03-23T07:15:41Z</time>
      </trkpt>
      <trkpt lat="44.9268" lon="4.83319">
        <ele>147</ele>
        <time>2014-03-23T07:15:42Z</time>
      </trkpt>
      <trkpt lat="44.92675" lon="4.83315">
        <ele>146.9</ele>
        <time>2014-03-23T07:15:43Z</time>
      </trkpt>
      <trkpt lat="44.92671" lon="4.83311">
        <ele>146.8</ele>
        <time>2014-03-23T07:15:44Z</time>
      </trkpt>
      <trkpt lat="44.92667" lon="4.83306">
        <ele>146.7</ele>
        <time>2014-03-23T07:15:45Z</time>
      </trkpt>
      <trkpt lat="44.92663" lon="4.83302">
        <ele>146.6</ele>
        <time>2014-03-23T07:15:46Z</time>
      </trkpt>
      <trkpt lat="44.92659" lon="4.83298">
        <ele>146.5</ele>
        <time>2014-03-23T07:15:47Z</time>
      </trkpt>
      <trkpt lat="44.92655" lon="4.83294">
        <ele>146.4</ele>
        <time>2014-03-23T07:15:48Z</time>
      </trkpt>
      <trkpt lat="44.92651" lon="4.8329">
        <ele>146.1</ele>
        <time>2014-03-23T07:15:49Z</time>
      </trkpt>
      <trkpt lat="44.92647" lon="4.83285">
        <ele>145.9</ele>
        <time>2014-03-23T07:15:50Z</time>
      </trkpt>
      <trkpt lat="44.92643" lon="4.83281">
        <ele>146.2</ele>
        <time>2014-03-23T07:15:51Z</time>
      </trkpt>
      <trkpt lat="44.92639" lon="4.83277">
        <ele>146.4</ele>
        <time>2014-03-23T07:15:52Z</time>
      </trkpt>
      <trkpt lat="44.92635" lon="4.83273">
        <ele>146.6</ele>
        <time>2014-03-23T07:15:53Z</time>
      </trkpt>
      <trkpt lat="44.92632" lon="4.83268">
        <ele>146.7</ele>
        <time>2014-03-23T07:15:54Z</time>
      </trkpt>
      <trkpt lat="44.92628" lon="4.83264">
        <ele>146.8</ele>
        <time>2014-03-23T07:15:55Z</time>
      </trkpt>
      <trkpt lat="44.92624" lon="4.8326">
        <ele>146.6</ele>
        <time>2014-03-23T07:15:56Z</time>
      </trkpt>
      <trkpt lat="44.92621" lon="4.83256">
        <ele>146.4</ele>
        <time>2014-03-23T07:15:57Z</time>
      </trkpt>
      <trkpt lat="44.92617" lon="4.83251">
        <ele>146.8</ele>
        <time>2014-03-23T07:15:58Z</time>
      </trkpt>
      <trkpt lat="44.9261" lon="4.83243">
        <ele>147.2</ele>
        <time>2014-03-23T07:16:00Z</time>
      </trkpt>
      <trkpt lat="44.92604" lon="4.83236">
        <ele>147.5</ele>
        <time>2014-03-23T07:16:02Z</time>
      </trkpt>
      <trkpt lat="44.92598" lon="4.83228">
        <ele>147.6</ele>
        <time>2014-03-23T07:16:04Z</time>
      </trkpt>
      <trkpt lat="44.92594" lon="4.8322">
        <ele>147.9</ele>
        <time>2014-03-23T07:16:06Z</time>
      </trkpt>
      <trkpt lat="44.92591" lon="4.8321">
        <ele>148.2</ele>
        <time>2014-03-23T07:16:08Z</time>
      </trkpt>
      <trkpt lat="44.92585" lon="4.83202">
        <ele>148</ele>
        <time>2014-03-23T07:16:10Z</time>
      </trkpt>
      <trkpt lat="44.92577" lon="4.83197">
        <ele>147.9</ele>
        <time>2014-03-23T07:16:12Z</time>
      </trkpt>
      <trkpt lat="44.9257" lon="4.83193">
        <ele>148.2</ele>
        <time>2014-03-23T07:16:14Z</time>
      </trkpt>
      <trkpt lat="44.92563" lon="4.83188">
        <ele>148.4</ele>
        <time>2014-03-23T07:16:16Z</time>
      </trkpt>
      <trkpt lat="44.92556" lon="4.83184">
        <ele>149.1</ele>
        <time>2014-03-23T07:16:18Z</time>
      </trkpt>
      <trkpt lat="44.9255" lon="4.8318">
        <ele>149.7</ele>
        <time>2014-03-23T07:16:20Z</time>
      </trkpt>
      <trkpt lat="44.92543" lon="4.83175">
        <ele>149.7</ele>
        <time>2014-03-23T07:16:22Z</time>
      </trkpt>
      <trkpt lat="44.92536" lon="4.83171">
        <ele>149.6</ele>
        <time>2014-03-23T07:16:24Z</time>
      </trkpt>
      <trkpt lat="44.9253" lon="4.83166">
        <ele>149.7</ele>
        <time>2014-03-23T07:16:26Z</time>
      </trkpt>
      <trkpt lat="44.92522" lon="4.83162">
        <ele>150</ele>
        <time>2014-03-23T07:16:28Z</time>
      </trkpt>
      <trkpt lat="44.92515" lon="4.83159">
        <ele>150.9</ele>
        <time>2014-03-23T07:16:30Z</time>
      </trkpt>
      <trkpt lat="44.92508" lon="4.83157">
        <ele>152</ele>
        <time>2014-03-23T07:16:32Z</time>
      </trkpt>
      <trkpt lat="44.925" lon="4.83155">
        <ele>152.9</ele>
        <time>2014-03-23T07:16:34Z</time>
      </trkpt>
      <trkpt lat="44.92493" lon="4.83155">
        <ele>153.5</ele>
        <time>2014-03-23T07:16:36Z</time>
      </trkpt>
      <trkpt lat="44.92486" lon="4.83153">
        <ele>153.9</ele>
        <time>2014-03-23T07:16:38Z</time>
      </trkpt>
      <trkpt lat="44.92479" lon="4.83153">
        <ele>154.3</ele>
        <time>2014-03-23T07:16:40Z</time>
      </trkpt>
      <trkpt lat="44.92472" lon="4.83152">
        <ele>154.6</ele>
        <time>2014-03-23T07:16:42Z</time>
      </trkpt>
      <trkpt lat="44.92463" lon="4.83151">
        <ele>155.5</ele>
        <time>2014-03-23T07:16:44Z</time>
      </trkpt>
      <trkpt lat="44.9246" lon="4.83151">
        <ele>155.7</ele>
        <time>2014-03-23T07:16:45Z</time>
      </trkpt>
      <trkpt lat="44.92448" lon="4.83151">
        <ele>155.8</ele>
        <time>2014-03-23T07:16:48Z</time>
      </trkpt>
      <trkpt lat="44.92441" lon="4.8315">
        <ele>156</ele>
        <time>2014-03-23T07:16:50Z</time>
      </trkpt>
      <trkpt lat="44.92434" lon="4.8315">
        <ele>156.4</ele>
        <time>2014-03-23T07:16:52Z</time>
      </trkpt>
      <trkpt lat="44.92426" lon="4.8315">
        <ele>156.7</ele>
        <time>2014-03-23T07:16:54Z</time>
      </trkpt>
      <trkpt lat="44.92418" lon="4.8315">
        <ele>156.7</ele>
        <time>2014-03-23T07:16:56Z</time>
      </trkpt>
      <trkpt lat="44.92409" lon="4.83149">
        <ele>156.4</ele>
        <time>2014-03-23T07:16:58Z</time>
      </trkpt>
      <trkpt lat="44.92405" lon="4.83149">
        <ele>156.3</ele>
        <time>2014-03-23T07:16:59Z</time>
      </trkpt>
      <trkpt lat="44.924" lon="4.83148">
        <ele>156.5</ele>
        <time>2014-03-23T07:17:00Z</time>
      </trkpt>
      <trkpt lat="44.92395" lon="4.83148">
        <ele>156.6</ele>
        <time>2014-03-23T07:17:01Z</time>
      </trkpt>
      <trkpt lat="44.92391" lon="4.83147">
        <ele>157</ele>
        <time>2014-03-23T07:17:02Z</time>
      </trkpt>
      <trkpt lat="44.92386" lon="4.83147">
        <ele>157.2</ele>
        <time>2014-03-23T07:17:03Z</time>
      </trkpt>
      <trkpt lat="44.92382" lon="4.83145">
        <ele>157.4</ele>
        <time>2014-03-23T07:17:04Z</time>
      </trkpt>
      <trkpt lat="44.92377" lon="4.83144">
        <ele>157.4</ele>
        <time>2014-03-23T07:17:05Z</time>
      </trkpt>
      <trkpt lat="44.92372" lon="4.83143">
        <ele>157.5</ele>
        <time>2014-03-23T07:17:06Z</time>
      </trkpt>
      <trkpt lat="44.92367" lon="4.83142">
        <ele>157.4</ele>
        <time>2014-03-23T07:17:07Z</time>
      </trkpt>
      <trkpt lat="44.92363" lon="4.8314">
        <ele>157.3</ele>
        <time>2014-03-23T07:17:08Z</time>
      </trkpt>
      <trkpt lat="44.92358" lon="4.83138">
        <ele>157.5</ele>
        <time>2014-03-23T07:17:09Z</time>
      </trkpt>
      <trkpt lat="44.92353" lon="4.83137">
        <ele>157.7</ele>
        <time>2014-03-23T07:17:10Z</time>
      </trkpt>
      <trkpt lat="44.92349" lon="4.83135">
        <ele>157.8</ele>
        <time>2014-03-23T07:17:11Z</time>
      </trkpt>
      <trkpt lat="44.9234" lon="4.83132">
        <ele>157.3</ele>
        <time>2014-03-23T07:17:13Z</time>
      </trkpt>
      <trkpt lat="44.92336" lon="4.8313">
        <ele>157.3</ele>
        <time>2014-03-23T07:17:14Z</time>
      </trkpt>
      <trkpt lat="44.92332" lon="4.83129">
        <ele>157.3</ele>
        <time>2014-03-23T07:17:15Z</time>
      </trkpt>
      <trkpt lat="44.92327" lon="4.83127">
        <ele>157.4</ele>
        <time>2014-03-23T07:17:16Z</time>
      </trkpt>
      <trkpt lat="44.92323" lon="4.83125">
        <ele>157.5</ele>
        <time>2014-03-23T07:17:17Z</time>
      </trkpt>
      <trkpt lat="44.92318" lon="4.83124">
        <ele>157.6</ele>
        <time>2014-03-23T07:17:18Z</time>
      </trkpt>
      <trkpt lat="44.92314" lon="4.83122">
        <ele>157.5</ele>
        <time>2014-03-23T07:17:19Z</time>
      </trkpt>
      <trkpt lat="44.92305" lon="4.8312">
        <ele>157.8</ele>
        <time>2014-03-23T07:17:21Z</time>
      </trkpt>
      <trkpt lat="44.92296" lon="4.83117">
        <ele>158.9</ele>
        <time>2014-03-23T07:17:23Z</time>
      </trkpt>
      <trkpt lat="44.92288" lon="4.83115">
        <ele>159.8</ele>
        <time>2014-03-23T07:17:25Z</time>
      </trkpt>
      <trkpt lat="44.92279" lon="4.83113">
        <ele>159</ele>
        <time>2014-03-23T07:17:27Z</time>
      </trkpt>
      <trkpt lat="44.92274" lon="4.83112">
        <ele>158.8</ele>
        <time>2014-03-23T07:17:28Z</time>
      </trkpt>
      <trkpt lat="44.9227" lon="4.83111">
        <ele>158.7</ele>
        <time>2014-03-23T07:17:29Z</time>
      </trkpt>
      <trkpt lat="44.92265" lon="4.8311">
        <ele>158.6</ele>
        <time>2014-03-23T07:17:30Z</time>
      </trkpt>
      <trkpt lat="44.92261" lon="4.83109">
        <ele>158.3</ele>
        <time>2014-03-23T07:17:31Z</time>
      </trkpt>
      <trkpt lat="44.92252" lon="4.83108">
        <ele>158.6</ele>
        <time>2014-03-23T07:17:33Z</time>
      </trkpt>
      <trkpt lat="44.92243" lon="4.83105">
        <ele>158.9</ele>
        <time>2014-03-23T07:17:35Z</time>
      </trkpt>
      <trkpt lat="44.92239" lon="4.83104">
        <ele>158.9</ele>
        <time>2014-03-23T07:17:36Z</time>
      </trkpt>
      <trkpt lat="44.92234" lon="4.83103">
        <ele>158.9</ele>
        <time>2014-03-23T07:17:37Z</time>
      </trkpt>
      <trkpt lat="44.9223" lon="4.83102">
        <ele>158.9</ele>
        <time>2014-03-23T07:17:38Z</time>
      </trkpt>
      <trkpt lat="44.92221" lon="4.831">
        <ele>159.3</ele>
        <time>2014-03-23T07:17:40Z</time>
      </trkpt>
      <trkpt lat="44.92216" lon="4.83099">
        <ele>159.6</ele>
        <time>2014-03-23T07:17:41Z</time>
      </trkpt>
      <trkpt lat="44.92207" lon="4.83097">
        <ele>160.1</ele>
        <time>2014-03-23T07:17:43Z</time>
      </trkpt>
      <trkpt lat="44.92199" lon="4.83095">
        <ele>160.7</ele>
        <time>2014-03-23T07:17:45Z</time>
      </trkpt>
      <trkpt lat="44.92194" lon="4.83094">
        <ele>161</ele>
        <time>2014-03-23T07:17:46Z</time>
      </trkpt>
      <trkpt lat="44.92181" lon="4.83092">
        <ele>161.1</ele>
        <time>2014-03-23T07:17:49Z</time>
      </trkpt>
      <trkpt lat="44.92172" lon="4.8309">
        <ele>161.2</ele>
        <time>2014-03-23T07:17:51Z</time>
      </trkpt>
      <trkpt lat="44.92163" lon="4.83088">
        <ele>161.4</ele>
        <time>2014-03-23T07:17:53Z</time>
      </trkpt>
      <trkpt lat="44.92155" lon="4.83086">
        <ele>162</ele>
        <time>2014-03-23T07:17:55Z</time>
      </trkpt>
      <trkpt lat="44.9215" lon="4.83086">
        <ele>162.2</ele>
        <time>2014-03-23T07:17:56Z</time>
      </trkpt>
      <trkpt lat="44.92146" lon="4.83085">
        <ele>162</ele>
        <time>2014-03-23T07:17:57Z</time>
      </trkpt>
      <trkpt lat="44.92141" lon="4.83085">
        <ele>161.8</ele>
        <time>2014-03-23T07:17:58Z</time>
      </trkpt>
      <trkpt lat="44.92136" lon="4.83084">
        <ele>162</ele>
        <time>2014-03-23T07:17:59Z</time>
      </trkpt>
      <trkpt lat="44.92132" lon="4.83084">
        <ele>162.2</ele>
        <time>2014-03-23T07:18:00Z</time>
      </trkpt>
      <trkpt lat="44.92127" lon="4.83084">
        <ele>161.8</ele>
        <time>2014-03-23T07:18:01Z</time>
      </trkpt>
      <trkpt lat="44.92123" lon="4.83084">
        <ele>161.5</ele>
        <time>2014-03-23T07:18:02Z</time>
      </trkpt>
      <trkpt lat="44.92118" lon="4.83084">
        <ele>161.3</ele>
        <time>2014-03-23T07:18:03Z</time>
      </trkpt>
      <trkpt lat="44.92113" lon="4.83084">
        <ele>161.5</ele>
        <time>2014-03-23T07:18:04Z</time>
      </trkpt>
      <trkpt lat="44.92109" lon="4.83084">
        <ele>161.6</ele>
        <time>2014-03-23T07:18:05Z</time>
      </trkpt>
      <trkpt lat="44.92104" lon="4.83084">
        <ele>161.7</ele>
        <time>2014-03-23T07:18:06Z</time>
      </trkpt>
      <trkpt lat="44.92099" lon="4.83084">
        <ele>161.7</ele>
        <time>2014-03-23T07:18:07Z</time>
      </trkpt>
      <trkpt lat="44.92094" lon="4.83084">
        <ele>161.8</ele>
        <time>2014-03-23T07:18:08Z</time>
      </trkpt>
      <trkpt lat="44.9209" lon="4.83084">
        <ele>162.4</ele>
        <time>2014-03-23T07:18:09Z</time>
      </trkpt>
      <trkpt lat="44.92085" lon="4.83083">
        <ele>162.8</ele>
        <time>2014-03-23T07:18:10Z</time>
      </trkpt>
      <trkpt lat="44.9208" lon="4.83082">
        <ele>162.8</ele>
        <time>2014-03-23T07:18:11Z</time>
      </trkpt>
      <trkpt lat="44.92076" lon="4.83081">
        <ele>162.8</ele>
        <time>2014-03-23T07:18:12Z</time>
      </trkpt>
      <trkpt lat="44.92071" lon="4.83079">
        <ele>163.2</ele>
        <time>2014-03-23T07:18:13Z</time>
      </trkpt>
      <trkpt lat="44.92067" lon="4.83078">
        <ele>163.6</ele>
        <time>2014-03-23T07:18:14Z</time>
      </trkpt>
      <trkpt lat="44.92062" lon="4.83076">
        <ele>163.9</ele>
        <time>2014-03-23T07:18:15Z</time>
      </trkpt>
      <trkpt lat="44.92058" lon="4.83074">
        <ele>164.1</ele>
        <time>2014-03-23T07:18:16Z</time>
      </trkpt>
      <trkpt lat="44.92054" lon="4.83072">
        <ele>164.4</ele>
        <time>2014-03-23T07:18:17Z</time>
      </trkpt>
      <trkpt lat="44.92049" lon="4.83071">
        <ele>164.3</ele>
        <time>2014-03-23T07:18:18Z</time>
      </trkpt>
      <trkpt lat="44.92045" lon="4.83069">
        <ele>164.2</ele>
        <time>2014-03-23T07:18:19Z</time>
      </trkpt>
      <trkpt lat="44.92041" lon="4.83067">
        <ele>164.4</ele>
        <time>2014-03-23T07:18:20Z</time>
      </trkpt>
      <trkpt lat="44.92032" lon="4.83063">
        <ele>164.7</ele>
        <time>2014-03-23T07:18:22Z</time>
      </trkpt>
      <trkpt lat="44.92028" lon="4.8306">
        <ele>164.9</ele>
        <time>2014-03-23T07:18:23Z</time>
      </trkpt>
      <trkpt lat="44.92024" lon="4.83058">
        <ele>165</ele>
        <time>2014-03-23T07:18:24Z</time>
      </trkpt>
      <trkpt lat="44.92019" lon="4.83056">
        <ele>165.1</ele>
        <time>2014-03-23T07:18:25Z</time>
      </trkpt>
      <trkpt lat="44.92015" lon="4.83054">
        <ele>165.2</ele>
        <time>2014-03-23T07:18:26Z</time>
      </trkpt>
      <trkpt lat="44.92011" lon="4.83053">
        <ele>165.3</ele>
        <time>2014-03-23T07:18:27Z</time>
      </trkpt>
      <trkpt lat="44.92006" lon="4.83051">
        <ele>165.7</ele>
        <time>2014-03-23T07:18:28Z</time>
      </trkpt>
      <trkpt lat="44.92002" lon="4.83048">
        <ele>166.1</ele>
        <time>2014-03-23T07:18:29Z</time>
      </trkpt>
      <trkpt lat="44.91998" lon="4.83046">
        <ele>166.1</ele>
        <time>2014-03-23T07:18:30Z</time>
      </trkpt>
      <trkpt lat="44.91993" lon="4.83044">
        <ele>166</ele>
        <time>2014-03-23T07:18:31Z</time>
      </trkpt>
      <trkpt lat="44.91985" lon="4.8304">
        <ele>166.9</ele>
        <time>2014-03-23T07:18:33Z</time>
      </trkpt>
      <trkpt lat="44.91981" lon="4.83038">
        <ele>167.1</ele>
        <time>2014-03-23T07:18:34Z</time>
      </trkpt>
      <trkpt lat="44.91972" lon="4.83034">
        <ele>166.7</ele>
        <time>2014-03-23T07:18:36Z</time>
      </trkpt>
      <trkpt lat="44.91964" lon="4.83031">
        <ele>167.4</ele>
        <time>2014-03-23T07:18:38Z</time>
      </trkpt>
      <trkpt lat="44.91956" lon="4.83029">
        <ele>168</ele>
        <time>2014-03-23T07:18:40Z</time>
      </trkpt>
      <trkpt lat="44.91947" lon="4.83028">
        <ele>168.3</ele>
        <time>2014-03-23T07:18:42Z</time>
      </trkpt>
      <trkpt lat="44.91939" lon="4.83026">
        <ele>168.4</ele>
        <time>2014-03-23T07:18:44Z</time>
      </trkpt>
      <trkpt lat="44.9193" lon="4.83023">
        <ele>168.5</ele>
        <time>2014-03-23T07:18:46Z</time>
      </trkpt>
      <trkpt lat="44.91926" lon="4.83022">
        <ele>168.7</ele>
        <time>2014-03-23T07:18:47Z</time>
      </trkpt>
      <trkpt lat="44.91917" lon="4.8302">
        <ele>169.3</ele>
        <time>2014-03-23T07:18:49Z</time>
      </trkpt>
      <trkpt lat="44.91913" lon="4.83019">
        <ele>169.6</ele>
        <time>2014-03-23T07:18:50Z</time>
      </trkpt>
      <trkpt lat="44.91908" lon="4.83018">
        <ele>169.3</ele>
        <time>2014-03-23T07:18:51Z</time>
      </trkpt>
      <trkpt lat="44.91903" lon="4.83017">
        <ele>169</ele>
        <time>2014-03-23T07:18:52Z</time>
      </trkpt>
      <trkpt lat="44.91899" lon="4.83016">
        <ele>168.9</ele>
        <time>2014-03-23T07:18:53Z</time>
      </trkpt>
      <trkpt lat="44.91894" lon="4.83015">
        <ele>169</ele>
        <time>2014-03-23T07:18:54Z</time>
      </trkpt>
      <trkpt lat="44.91889" lon="4.83015">
        <ele>169.1</ele>
        <time>2014-03-23T07:18:55Z</time>
      </trkpt>
      <trkpt lat="44.91884" lon="4.83013">
        <ele>169.1</ele>
        <time>2014-03-23T07:18:56Z</time>
      </trkpt>
      <trkpt lat="44.9188" lon="4.83012">
        <ele>169.1</ele>
        <time>2014-03-23T07:18:57Z</time>
      </trkpt>
      <trkpt lat="44.91875" lon="4.83011">
        <ele>169.1</ele>
        <time>2014-03-23T07:18:58Z</time>
      </trkpt>
      <trkpt lat="44.9187" lon="4.8301">
        <ele>169.1</ele>
        <time>2014-03-23T07:18:59Z</time>
      </trkpt>
      <trkpt lat="44.91865" lon="4.83009">
        <ele>169.2</ele>
        <time>2014-03-23T07:19:00Z</time>
      </trkpt>
      <trkpt lat="44.9186" lon="4.83008">
        <ele>169.2</ele>
        <time>2014-03-23T07:19:01Z</time>
      </trkpt>
      <trkpt lat="44.91855" lon="4.83007">
        <ele>169.2</ele>
        <time>2014-03-23T07:19:02Z</time>
      </trkpt>
      <trkpt lat="44.91849" lon="4.83006">
        <ele>169.4</ele>
        <time>2014-03-23T07:19:03Z</time>
      </trkpt>
      <trkpt lat="44.91844" lon="4.83004">
        <ele>169.5</ele>
        <time>2014-03-23T07:19:04Z</time>
      </trkpt>
      <trkpt lat="44.91839" lon="4.83003">
        <ele>169.5</ele>
        <time>2014-03-23T07:19:05Z</time>
      </trkpt>
      <trkpt lat="44.91833" lon="4.83002">
        <ele>169.4</ele>
        <time>2014-03-23T07:19:06Z</time>
      </trkpt>
      <trkpt lat="44.91828" lon="4.83001">
        <ele>169.3</ele>
        <time>2014-03-23T07:19:07Z</time>
      </trkpt>
      <trkpt lat="44.91822" lon="4.82999">
        <ele>169.4</ele>
        <time>2014-03-23T07:19:08Z</time>
      </trkpt>
      <trkpt lat="44.91816" lon="4.82998">
        <ele>169.4</ele>
        <time>2014-03-23T07:19:09Z</time>
      </trkpt>
      <trkpt lat="44.91811" lon="4.82997">
        <ele>169.1</ele>
        <time>2014-03-23T07:19:10Z</time>
      </trkpt>
      <trkpt lat="44.91805" lon="4.82996">
        <ele>168.8</ele>
        <time>2014-03-23T07:19:11Z</time>
      </trkpt>
      <trkpt lat="44.91799" lon="4.82996">
        <ele>168.6</ele>
        <time>2014-03-23T07:19:12Z</time>
      </trkpt>
      <trkpt lat="44.91794" lon="4.82996">
        <ele>168.3</ele>
        <time>2014-03-23T07:19:13Z</time>
      </trkpt>
      <trkpt lat="44.91788" lon="4.82996">
        <ele>168.1</ele>
        <time>2014-03-23T07:19:14Z</time>
      </trkpt>
      <trkpt lat="44.91782" lon="4.82995">
        <ele>168</ele>
        <time>2014-03-23T07:19:15Z</time>
      </trkpt>
      <trkpt lat="44.91776" lon="4.82995">
        <ele>168</ele>
        <time>2014-03-23T07:19:16Z</time>
      </trkpt>
      <trkpt lat="44.9177" lon="4.82995">
        <ele>167.8</ele>
        <time>2014-03-23T07:19:17Z</time>
      </trkpt>
      <trkpt lat="44.91765" lon="4.82995">
        <ele>167.6</ele>
        <time>2014-03-23T07:19:18Z</time>
      </trkpt>
      <trkpt lat="44.91759" lon="4.82995">
        <ele>167.5</ele>
        <time>2014-03-23T07:19:19Z</time>
      </trkpt>
      <trkpt lat="44.91753" lon="4.82995">
        <ele>167.6</ele>
        <time>2014-03-23T07:19:20Z</time>
      </trkpt>
      <trkpt lat="44.91747" lon="4.82995">
        <ele>167.7</ele>
        <time>2014-03-23T07:19:21Z</time>
      </trkpt>
      <trkpt lat="44.91741" lon="4.82996">
        <ele>167.4</ele>
        <time>2014-03-23T07:19:22Z</time>
      </trkpt>
      <trkpt lat="44.91735" lon="4.82996">
        <ele>167.2</ele>
        <time>2014-03-23T07:19:23Z</time>
      </trkpt>
      <trkpt lat="44.9173" lon="4.82997">
        <ele>167.1</ele>
        <time>2014-03-23T07:19:24Z</time>
      </trkpt>
      <trkpt lat="44.91724" lon="4.82998">
        <ele>166.7</ele>
        <time>2014-03-23T07:19:25Z</time>
      </trkpt>
      <trkpt lat="44.91718" lon="4.82998">
        <ele>166.4</ele>
        <time>2014-03-23T07:19:26Z</time>
      </trkpt>
      <trkpt lat="44.91712" lon="4.82999">
        <ele>166.5</ele>
        <time>2014-03-23T07:19:27Z</time>
      </trkpt>
      <trkpt lat="44.91707" lon="4.82999">
        <ele>166.6</ele>
        <time>2014-03-23T07:19:28Z</time>
      </trkpt>
      <trkpt lat="44.91701" lon="4.82999">
        <ele>166.5</ele>
        <time>2014-03-23T07:19:29Z</time>
      </trkpt>
      <trkpt lat="44.91696" lon="4.83">
        <ele>166.4</ele>
        <time>2014-03-23T07:19:30Z</time>
      </trkpt>
      <trkpt lat="44.9169" lon="4.83">
        <ele>166.3</ele>
        <time>2014-03-23T07:19:31Z</time>
      </trkpt>
      <trkpt lat="44.91685" lon="4.83">
        <ele>166.3</ele>
        <time>2014-03-23T07:19:32Z</time>
      </trkpt>
      <trkpt lat="44.9168" lon="4.83">
        <ele>166.3</ele>
        <time>2014-03-23T07:19:33Z</time>
      </trkpt>
      <trkpt lat="44.91675" lon="4.83">
        <ele>166.6</ele>
        <time>2014-03-23T07:19:34Z</time>
      </trkpt>
      <trkpt lat="44.9167" lon="4.83">
        <ele>166.9</ele>
        <time>2014-03-23T07:19:35Z</time>
      </trkpt>
      <trkpt lat="44.91664" lon="4.83">
        <ele>167.1</ele>
        <time>2014-03-23T07:19:36Z</time>
      </trkpt>
      <trkpt lat="44.91659" lon="4.83">
        <ele>167.2</ele>
        <time>2014-03-23T07:19:37Z</time>
      </trkpt>
      <trkpt lat="44.91654" lon="4.82999">
        <ele>167.3</ele>
        <time>2014-03-23T07:19:38Z</time>
      </trkpt>
      <trkpt lat="44.91649" lon="4.82999">
        <ele>167.6</ele>
        <time>2014-03-23T07:19:39Z</time>
      </trkpt>
      <trkpt lat="44.91644" lon="4.82999">
        <ele>167.8</ele>
        <time>2014-03-23T07:19:40Z</time>
      </trkpt>
      <trkpt lat="44.91639" lon="4.82999">
        <ele>168.2</ele>
        <time>2014-03-23T07:19:41Z</time>
      </trkpt>
      <trkpt lat="44.91633" lon="4.82999">
        <ele>168.5</ele>
        <time>2014-03-23T07:19:42Z</time>
      </trkpt>
      <trkpt lat="44.91628" lon="4.83">
        <ele>168.8</ele>
        <time>2014-03-23T07:19:43Z</time>
      </trkpt>
      <trkpt lat="44.91623" lon="4.83">
        <ele>169</ele>
        <time>2014-03-23T07:19:44Z</time>
      </trkpt>
      <trkpt lat="44.91619" lon="4.83">
        <ele>169.2</ele>
        <time>2014-03-23T07:19:45Z</time>
      </trkpt>
      <trkpt lat="44.91614" lon="4.83">
        <ele>169</ele>
        <time>2014-03-23T07:19:46Z</time>
      </trkpt>
      <trkpt lat="44.91609" lon="4.83">
        <ele>168.9</ele>
        <time>2014-03-23T07:19:47Z</time>
      </trkpt>
      <trkpt lat="44.91605" lon="4.83">
        <ele>168.8</ele>
        <time>2014-03-23T07:19:48Z</time>
      </trkpt>
      <trkpt lat="44.916" lon="4.83001">
        <ele>168.6</ele>
        <time>2014-03-23T07:19:49Z</time>
      </trkpt>
      <trkpt lat="44.91595" lon="4.83001">
        <ele>168.5</ele>
        <time>2014-03-23T07:19:50Z</time>
      </trkpt>
      <trkpt lat="44.91591" lon="4.83002">
        <ele>169.2</ele>
        <time>2014-03-23T07:19:51Z</time>
      </trkpt>
      <trkpt lat="44.91586" lon="4.83002">
        <ele>169.8</ele>
        <time>2014-03-23T07:19:52Z</time>
      </trkpt>
      <trkpt lat="44.91582" lon="4.83003">
        <ele>170</ele>
        <time>2014-03-23T07:19:53Z</time>
      </trkpt>
      <trkpt lat="44.91577" lon="4.83004">
        <ele>170.2</ele>
        <time>2014-03-23T07:19:54Z</time>
      </trkpt>
      <trkpt lat="44.91568" lon="4.83005">
        <ele>170.3</ele>
        <time>2014-03-23T07:19:56Z</time>
      </trkpt>
      <trkpt lat="44.91559" lon="4.83007">
        <ele>170.4</ele>
        <time>2014-03-23T07:19:58Z</time>
      </trkpt>
      <trkpt lat="44.91551" lon="4.83009">
        <ele>170.9</ele>
        <time>2014-03-23T07:20:00Z</time>
      </trkpt>
      <trkpt lat="44.91542" lon="4.83012">
        <ele>171.8</ele>
        <time>2014-03-23T07:20:02Z</time>
      </trkpt>
      <trkpt lat="44.91534" lon="4.83014">
        <ele>172.6</ele>
        <time>2014-03-23T07:20:04Z</time>
      </trkpt>
      <trkpt lat="44.91529" lon="4.83015">
        <ele>172.7</ele>
        <time>2014-03-23T07:20:05Z</time>
      </trkpt>
      <trkpt lat="44.91521" lon="4.83018">
        <ele>172.6</ele>
        <time>2014-03-23T07:20:07Z</time>
      </trkpt>
      <trkpt lat="44.91512" lon="4.8302">
        <ele>172.5</ele>
        <time>2014-03-23T07:20:09Z</time>
      </trkpt>
      <trkpt lat="44.91504" lon="4.83023">
        <ele>173.4</ele>
        <time>2014-03-23T07:20:11Z</time>
      </trkpt>
      <trkpt lat="44.91496" lon="4.83024">
        <ele>173.6</ele>
        <time>2014-03-23T07:20:13Z</time>
      </trkpt>
      <trkpt lat="44.91488" lon="4.83026">
        <ele>174.8</ele>
        <time>2014-03-23T07:20:15Z</time>
      </trkpt>
      <trkpt lat="44.9148" lon="4.83027">
        <ele>175.1</ele>
        <time>2014-03-23T07:20:17Z</time>
      </trkpt>
      <trkpt lat="44.91471" lon="4.8303">
        <ele>175.2</ele>
        <time>2014-03-23T07:20:19Z</time>
      </trkpt>
      <trkpt lat="44.91463" lon="4.83032">
        <ele>175.5</ele>
        <time>2014-03-23T07:20:21Z</time>
      </trkpt>
      <trkpt lat="44.91455" lon="4.83034">
        <ele>175.6</ele>
        <time>2014-03-23T07:20:23Z</time>
      </trkpt>
      <trkpt lat="44.91446" lon="4.83035">
        <ele>176.4</ele>
        <time>2014-03-23T07:20:25Z</time>
      </trkpt>
      <trkpt lat="44.91438" lon="4.83035">
        <ele>177</ele>
        <time>2014-03-23T07:20:27Z</time>
      </trkpt>
      <trkpt lat="44.91431" lon="4.83035">
        <ele>177.5</ele>
        <time>2014-03-23T07:20:29Z</time>
      </trkpt>
      <trkpt lat="44.91423" lon="4.83034">
        <ele>178.2</ele>
        <time>2014-03-23T07:20:31Z</time>
      </trkpt>
      <trkpt lat="44.91415" lon="4.83033">
        <ele>178.5</ele>
        <time>2014-03-23T07:20:33Z</time>
      </trkpt>
      <trkpt lat="44.91407" lon="4.8303">
        <ele>178.4</ele>
        <time>2014-03-23T07:20:35Z</time>
      </trkpt>
      <trkpt lat="44.914" lon="4.83026">
        <ele>179</ele>
        <time>2014-03-23T07:20:37Z</time>
      </trkpt>
      <trkpt lat="44.91393" lon="4.83021">
        <ele>179.3</ele>
        <time>2014-03-23T07:20:39Z</time>
      </trkpt>
      <trkpt lat="44.91386" lon="4.83015">
        <ele>179.8</ele>
        <time>2014-03-23T07:20:41Z</time>
      </trkpt>
      <trkpt lat="44.91379" lon="4.83009">
        <ele>180.5</ele>
        <time>2014-03-23T07:20:43Z</time>
      </trkpt>
      <trkpt lat="44.91374" lon="4.83002">
        <ele>181</ele>
        <time>2014-03-23T07:20:45Z</time>
      </trkpt>
      <trkpt lat="44.91368" lon="4.82995">
        <ele>181</ele>
        <time>2014-03-23T07:20:47Z</time>
      </trkpt>
      <trkpt lat="44.91363" lon="4.82987">
        <ele>181</ele>
        <time>2014-03-23T07:20:49Z</time>
      </trkpt>
      <trkpt lat="44.9136" lon="4.82983">
        <ele>181.5</ele>
        <time>2014-03-23T07:20:50Z</time>
      </trkpt>
      <trkpt lat="44.91351" lon="4.82971">
        <ele>181.7</ele>
        <time>2014-03-23T07:20:53Z</time>
      </trkpt>
      <trkpt lat="44.91345" lon="4.82964">
        <ele>182</ele>
        <time>2014-03-23T07:20:55Z</time>
      </trkpt>
      <trkpt lat="44.91339" lon="4.82957">
        <ele>182.3</ele>
        <time>2014-03-23T07:20:57Z</time>
      </trkpt>
      <trkpt lat="44.91332" lon="4.8295">
        <ele>182.3</ele>
        <time>2014-03-23T07:20:59Z</time>
      </trkpt>
      <trkpt lat="44.91325" lon="4.82945">
        <ele>182.3</ele>
        <time>2014-03-23T07:21:01Z</time>
      </trkpt>
      <trkpt lat="44.91318" lon="4.82939">
        <ele>182.6</ele>
        <time>2014-03-23T07:21:03Z</time>
      </trkpt>
      <trkpt lat="44.9131" lon="4.82934">
        <ele>182.5</ele>
        <time>2014-03-23T07:21:05Z</time>
      </trkpt>
      <trkpt lat="44.91305" lon="4.82931">
        <ele>182.5</ele>
        <time>2014-03-23T07:21:06Z</time>
      </trkpt>
      <trkpt lat="44.913" lon="4.82928">
        <ele>182.8</ele>
        <time>2014-03-23T07:21:07Z</time>
      </trkpt>
      <trkpt lat="44.91296" lon="4.82926">
        <ele>183.1</ele>
        <time>2014-03-23T07:21:08Z</time>
      </trkpt>
      <trkpt lat="44.91291" lon="4.82924">
        <ele>183.7</ele>
        <time>2014-03-23T07:21:09Z</time>
      </trkpt>
      <trkpt lat="44.91286" lon="4.82922">
        <ele>184.1</ele>
        <time>2014-03-23T07:21:10Z</time>
      </trkpt>
      <trkpt lat="44.91281" lon="4.8292">
        <ele>184.3</ele>
        <time>2014-03-23T07:21:11Z</time>
      </trkpt>
      <trkpt lat="44.91277" lon="4.82918">
        <ele>184.3</ele>
        <time>2014-03-23T07:21:12Z</time>
      </trkpt>
      <trkpt lat="44.91272" lon="4.82916">
        <ele>184.4</ele>
        <time>2014-03-23T07:21:13Z</time>
      </trkpt>
      <trkpt lat="44.91267" lon="4.82914">
        <ele>184.3</ele>
        <time>2014-03-23T07:21:14Z</time>
      </trkpt>
      <trkpt lat="44.91263" lon="4.82913">
        <ele>184.3</ele>
        <time>2014-03-23T07:21:15Z</time>
      </trkpt>
      <trkpt lat="44.91258" lon="4.82911">
        <ele>184.2</ele>
        <time>2014-03-23T07:21:16Z</time>
      </trkpt>
      <trkpt lat="44.91254" lon="4.82909">
        <ele>184.2</ele>
        <time>2014-03-23T07:21:17Z</time>
      </trkpt>
      <trkpt lat="44.91249" lon="4.82907">
        <ele>184.6</ele>
        <time>2014-03-23T07:21:18Z</time>
      </trkpt>
      <trkpt lat="44.91244" lon="4.82905">
        <ele>184.9</ele>
        <time>2014-03-23T07:21:19Z</time>
      </trkpt>
      <trkpt lat="44.9124" lon="4.82903">
        <ele>185.2</ele>
        <time>2014-03-23T07:21:20Z</time>
      </trkpt>
      <trkpt lat="44.91235" lon="4.82901">
        <ele>185.2</ele>
        <time>2014-03-23T07:21:21Z</time>
      </trkpt>
      <trkpt lat="44.91231" lon="4.82899">
        <ele>185.1</ele>
        <time>2014-03-23T07:21:22Z</time>
      </trkpt>
      <trkpt lat="44.91227" lon="4.82896">
        <ele>185.4</ele>
        <time>2014-03-23T07:21:23Z</time>
      </trkpt>
      <trkpt lat="44.91222" lon="4.82894">
        <ele>185.6</ele>
        <time>2014-03-23T07:21:24Z</time>
      </trkpt>
      <trkpt lat="44.91218" lon="4.82891">
        <ele>185.7</ele>
        <time>2014-03-23T07:21:25Z</time>
      </trkpt>
      <trkpt lat="44.91214" lon="4.82888">
        <ele>185.9</ele>
        <time>2014-03-23T07:21:26Z</time>
      </trkpt>
      <trkpt lat="44.9121" lon="4.82885">
        <ele>186</ele>
        <time>2014-03-23T07:21:27Z</time>
      </trkpt>
      <trkpt lat="44.91206" lon="4.82882">
        <ele>186</ele>
        <time>2014-03-23T07:21:28Z</time>
      </trkpt>
      <trkpt lat="44.91202" lon="4.82879">
        <ele>185.9</ele>
        <time>2014-03-23T07:21:29Z</time>
      </trkpt>
      <trkpt lat="44.91198" lon="4.82876">
        <ele>186.2</ele>
        <time>2014-03-23T07:21:30Z</time>
      </trkpt>
      <trkpt lat="44.91194" lon="4.82872">
        <ele>186.4</ele>
        <time>2014-03-23T07:21:31Z</time>
      </trkpt>
      <trkpt lat="44.9119" lon="4.82869">
        <ele>186.6</ele>
        <time>2014-03-23T07:21:32Z</time>
      </trkpt>
      <trkpt lat="44.91186" lon="4.82866">
        <ele>186.5</ele>
        <time>2014-03-23T07:21:33Z</time>
      </trkpt>
      <trkpt lat="44.91181" lon="4.82863">
        <ele>186.4</ele>
        <time>2014-03-23T07:21:34Z</time>
      </trkpt>
      <trkpt lat="44.91177" lon="4.8286">
        <ele>186.7</ele>
        <time>2014-03-23T07:21:35Z</time>
      </trkpt>
      <trkpt lat="44.91173" lon="4.82857">
        <ele>186.9</ele>
        <time>2014-03-23T07:21:36Z</time>
      </trkpt>
      <trkpt lat="44.91169" lon="4.82853">
        <ele>187</ele>
        <time>2014-03-23T07:21:37Z</time>
      </trkpt>
      <trkpt lat="44.91165" lon="4.8285">
        <ele>187.2</ele>
        <time>2014-03-23T07:21:38Z</time>
      </trkpt>
      <trkpt lat="44.91162" lon="4.82847">
        <ele>187.3</ele>
        <time>2014-03-23T07:21:39Z</time>
      </trkpt>
      <trkpt lat="44.91158" lon="4.82843">
        <ele>187.5</ele>
        <time>2014-03-23T07:21:40Z</time>
      </trkpt>
      <trkpt lat="44.91154" lon="4.8284">
        <ele>187.6</ele>
        <time>2014-03-23T07:21:41Z</time>
      </trkpt>
      <trkpt lat="44.9115" lon="4.82836">
        <ele>187.7</ele>
        <time>2014-03-23T07:21:42Z</time>
      </trkpt>
      <trkpt lat="44.91146" lon="4.82832">
        <ele>187.7</ele>
        <time>2014-03-23T07:21:43Z</time>
      </trkpt>
      <trkpt lat="44.91143" lon="4.82828">
        <ele>188.1</ele>
        <time>2014-03-23T07:21:44Z</time>
      </trkpt>
      <trkpt lat="44.91139" lon="4.82824">
        <ele>188.5</ele>
        <time>2014-03-23T07:21:45Z</time>
      </trkpt>
      <trkpt lat="44.91135" lon="4.8282">
        <ele>188.7</ele>
        <time>2014-03-23T07:21:46Z</time>
      </trkpt>
      <trkpt lat="44.91131" lon="4.82816">
        <ele>188.7</ele>
        <time>2014-03-23T07:21:47Z</time>
      </trkpt>
      <trkpt lat="44.91127" lon="4.82812">
        <ele>188.7</ele>
        <time>2014-03-23T07:21:48Z</time>
      </trkpt>
      <trkpt lat="44.91124" lon="4.82808">
        <ele>189.1</ele>
        <time>2014-03-23T07:21:49Z</time>
      </trkpt>
      <trkpt lat="44.9112" lon="4.82804">
        <ele>189.3</ele>
        <time>2014-03-23T07:21:50Z</time>
      </trkpt>
      <trkpt lat="44.91117" lon="4.828">
        <ele>189.6</ele>
        <time>2014-03-23T07:21:51Z</time>
      </trkpt>
      <trkpt lat="44.91113" lon="4.82796">
        <ele>189.3</ele>
        <time>2014-03-23T07:21:52Z</time>
      </trkpt>
      <trkpt lat="44.91109" lon="4.82792">
        <ele>189.1</ele>
        <time>2014-03-23T07:21:53Z</time>
      </trkpt>
      <trkpt lat="44.91106" lon="4.82788">
        <ele>189.4</ele>
        <time>2014-03-23T07:21:54Z</time>
      </trkpt>
      <trkpt lat="44.91099" lon="4.8278">
        <ele>189.9</ele>
        <time>2014-03-23T07:21:56Z</time>
      </trkpt>
      <trkpt lat="44.91092" lon="4.82772">
        <ele>190.3</ele>
        <time>2014-03-23T07:21:58Z</time>
      </trkpt>
      <trkpt lat="44.91085" lon="4.82765">
        <ele>190.3</ele>
        <time>2014-03-23T07:22:00Z</time>
      </trkpt>
      <trkpt lat="44.91078" lon="4.82759">
        <ele>191.3</ele>
        <time>2014-03-23T07:22:02Z</time>
      </trkpt>
      <trkpt lat="44.9107" lon="4.82752">
        <ele>191.9</ele>
        <time>2014-03-23T07:22:04Z</time>
      </trkpt>
      <trkpt lat="44.91063" lon="4.82746">
        <ele>192.2</ele>
        <time>2014-03-23T07:22:06Z</time>
      </trkpt>
      <trkpt lat="44.91056" lon="4.82741">
        <ele>192.7</ele>
        <time>2014-03-23T07:22:08Z</time>
      </trkpt>
      <trkpt lat="44.91048" lon="4.82736">
        <ele>193.3</ele>
        <time>2014-03-23T07:22:10Z</time>
      </trkpt>
      <trkpt lat="44.9104" lon="4.82733">
        <ele>193.4</ele>
        <time>2014-03-23T07:22:12Z</time>
      </trkpt>
      <trkpt lat="44.91033" lon="4.8273">
        <ele>194.6</ele>
        <time>2014-03-23T07:22:14Z</time>
      </trkpt>
      <trkpt lat="44.91026" lon="4.82727">
        <ele>194.5</ele>
        <time>2014-03-23T07:22:16Z</time>
      </trkpt>
      <trkpt lat="44.9102" lon="4.82724">
        <ele>195</ele>
        <time>2014-03-23T07:22:18Z</time>
      </trkpt>
      <trkpt lat="44.91013" lon="4.82722">
        <ele>195.6</ele>
        <time>2014-03-23T07:22:20Z</time>
      </trkpt>
      <trkpt lat="44.91006" lon="4.82719">
        <ele>196.2</ele>
        <time>2014-03-23T07:22:22Z</time>
      </trkpt>
      <trkpt lat="44.91" lon="4.82716">
        <ele>196.7</ele>
        <time>2014-03-23T07:22:24Z</time>
      </trkpt>
      <trkpt lat="44.90993" lon="4.82713">
        <ele>196.9</ele>
        <time>2014-03-23T07:22:26Z</time>
      </trkpt>
      <trkpt lat="44.90987" lon="4.82711">
        <ele>197.5</ele>
        <time>2014-03-23T07:22:28Z</time>
      </trkpt>
      <trkpt lat="44.9098" lon="4.82708">
        <ele>197.9</ele>
        <time>2014-03-23T07:22:30Z</time>
      </trkpt>
      <trkpt lat="44.90972" lon="4.82705">
        <ele>198.4</ele>
        <time>2014-03-23T07:22:32Z</time>
      </trkpt>
      <trkpt lat="44.90965" lon="4.82702">
        <ele>199.2</ele>
        <time>2014-03-23T07:22:34Z</time>
      </trkpt>
      <trkpt lat="44.90958" lon="4.82699">
        <ele>199.8</ele>
        <time>2014-03-23T07:22:36Z</time>
      </trkpt>
      <trkpt lat="44.9095" lon="4.82696">
        <ele>199.9</ele>
        <time>2014-03-23T07:22:38Z</time>
      </trkpt>
      <trkpt lat="44.90943" lon="4.82692">
        <ele>200.2</ele>
        <time>2014-03-23T07:22:40Z</time>
      </trkpt>
      <trkpt lat="44.90935" lon="4.82687">
        <ele>200.6</ele>
        <time>2014-03-23T07:22:42Z</time>
      </trkpt>
      <trkpt lat="44.90928" lon="4.82682">
        <ele>200.9</ele>
        <time>2014-03-23T07:22:44Z</time>
      </trkpt>
      <trkpt lat="44.9092" lon="4.82676">
        <ele>201.4</ele>
        <time>2014-03-23T07:22:46Z</time>
      </trkpt>
      <trkpt lat="44.90913" lon="4.8267">
        <ele>202.1</ele>
        <time>2014-03-23T07:22:48Z</time>
      </trkpt>
      <trkpt lat="44.90906" lon="4.82664">
        <ele>202</ele>
        <time>2014-03-23T07:22:50Z</time>
      </trkpt>
      <trkpt lat="44.90899" lon="4.82658">
        <ele>202.9</ele>
        <time>2014-03-23T07:22:52Z</time>
      </trkpt>
      <trkpt lat="44.90895" lon="4.82654">
        <ele>203.4</ele>
        <time>2014-03-23T07:22:53Z</time>
      </trkpt>
      <trkpt lat="44.90885" lon="4.82644">
        <ele>204.1</ele>
        <time>2014-03-23T07:22:56Z</time>
      </trkpt>
      <trkpt lat="44.90877" lon="4.82637">
        <ele>203.9</ele>
        <time>2014-03-23T07:22:58Z</time>
      </trkpt>
      <trkpt lat="44.9087" lon="4.8263">
        <ele>204.3</ele>
        <time>2014-03-23T07:23:00Z</time>
      </trkpt>
      <trkpt lat="44.90866" lon="4.82626">
        <ele>204.7</ele>
        <time>2014-03-23T07:23:01Z</time>
      </trkpt>
      <trkpt lat="44.90863" lon="4.82622">
        <ele>205</ele>
        <time>2014-03-23T07:23:02Z</time>
      </trkpt>
      <trkpt lat="44.90859" lon="4.82618">
        <ele>205.1</ele>
        <time>2014-03-23T07:23:03Z</time>
      </trkpt>
      <trkpt lat="44.90855" lon="4.82615">
        <ele>205.2</ele>
        <time>2014-03-23T07:23:04Z</time>
      </trkpt>
      <trkpt lat="44.90851" lon="4.82611">
        <ele>205.8</ele>
        <time>2014-03-23T07:23:05Z</time>
      </trkpt>
      <trkpt lat="44.90847" lon="4.82607">
        <ele>206.2</ele>
        <time>2014-03-23T07:23:06Z</time>
      </trkpt>
      <trkpt lat="44.90843" lon="4.82603">
        <ele>206.3</ele>
        <time>2014-03-23T07:23:07Z</time>
      </trkpt>
      <trkpt lat="44.90839" lon="4.82599">
        <ele>206.4</ele>
        <time>2014-03-23T07:23:08Z</time>
      </trkpt>
      <trkpt lat="44.90835" lon="4.82595">
        <ele>206.5</ele>
        <time>2014-03-23T07:23:09Z</time>
      </trkpt>
      <trkpt lat="44.90831" lon="4.82591">
        <ele>206.6</ele>
        <time>2014-03-23T07:23:10Z</time>
      </trkpt>
      <trkpt lat="44.90827" lon="4.82587">
        <ele>206.7</ele>
        <time>2014-03-23T07:23:11Z</time>
      </trkpt>
      <trkpt lat="44.90823" lon="4.82583">
        <ele>206.6</ele>
        <time>2014-03-23T07:23:12Z</time>
      </trkpt>
      <trkpt lat="44.90819" lon="4.82579">
        <ele>206.6</ele>
        <time>2014-03-23T07:23:13Z</time>
      </trkpt>
      <trkpt lat="44.90815" lon="4.82575">
        <ele>206.5</ele>
        <time>2014-03-23T07:23:14Z</time>
      </trkpt>
      <trkpt lat="44.90811" lon="4.82571">
        <ele>206.6</ele>
        <time>2014-03-23T07:23:15Z</time>
      </trkpt>
      <trkpt lat="44.90807" lon="4.82567">
        <ele>206.6</ele>
        <time>2014-03-23T07:23:16Z</time>
      </trkpt>
      <trkpt lat="44.90803" lon="4.82563">
        <ele>206.9</ele>
        <time>2014-03-23T07:23:17Z</time>
      </trkpt>
      <trkpt lat="44.90799" lon="4.82559">
        <ele>207.1</ele>
        <time>2014-03-23T07:23:18Z</time>
      </trkpt>
      <trkpt lat="44.90795" lon="4.82555">
        <ele>206.8</ele>
        <time>2014-03-23T07:23:19Z</time>
      </trkpt>
      <trkpt lat="44.90791" lon="4.82551">
        <ele>206.6</ele>
        <time>2014-03-23T07:23:20Z</time>
      </trkpt>
      <trkpt lat="44.90787" lon="4.82547">
        <ele>206.5</ele>
        <time>2014-03-23T07:23:21Z</time>
      </trkpt>
      <trkpt lat="44.90783" lon="4.82543">
        <ele>206.4</ele>
        <time>2014-03-23T07:23:22Z</time>
      </trkpt>
      <trkpt lat="44.90779" lon="4.8254">
        <ele>206.4</ele>
        <time>2014-03-23T07:23:23Z</time>
      </trkpt>
      <trkpt lat="44.90775" lon="4.82536">
        <ele>206.3</ele>
        <time>2014-03-23T07:23:24Z</time>
      </trkpt>
      <trkpt lat="44.90771" lon="4.82532">
        <ele>206.3</ele>
        <time>2014-03-23T07:23:25Z</time>
      </trkpt>
      <trkpt lat="44.90767" lon="4.82528">
        <ele>206.3</ele>
        <time>2014-03-23T07:23:26Z</time>
      </trkpt>
      <trkpt lat="44.90763" lon="4.82524">
        <ele>206.5</ele>
        <time>2014-03-23T07:23:27Z</time>
      </trkpt>
      <trkpt lat="44.90759" lon="4.8252">
        <ele>206.7</ele>
        <time>2014-03-23T07:23:28Z</time>
      </trkpt>
      <trkpt lat="44.90755" lon="4.82516">
        <ele>206.4</ele>
        <time>2014-03-23T07:23:29Z</time>
      </trkpt>
      <trkpt lat="44.90751" lon="4.82512">
        <ele>206.2</ele>
        <time>2014-03-23T07:23:30Z</time>
      </trkpt>
      <trkpt lat="44.90747" lon="4.82508">
        <ele>206.5</ele>
        <time>2014-03-23T07:23:31Z</time>
      </trkpt>
      <trkpt lat="44.90743" lon="4.82504">
        <ele>206.7</ele>
        <time>2014-03-23T07:23:32Z</time>
      </trkpt>
      <trkpt lat="44.90739" lon="4.825">
        <ele>206.9</ele>
        <time>2014-03-23T07:23:33Z</time>
      </trkpt>
      <trkpt lat="44.90735" lon="4.82496">
        <ele>207.2</ele>
        <time>2014-03-23T07:23:34Z</time>
      </trkpt>
      <trkpt lat="44.90731" lon="4.82492">
        <ele>207.4</ele>
        <time>2014-03-23T07:23:35Z</time>
      </trkpt>
      <trkpt lat="44.90727" lon="4.82488">
        <ele>207.6</ele>
        <time>2014-03-23T07:23:36Z</time>
      </trkpt>
      <trkpt lat="44.90723" lon="4.82484">
        <ele>207.7</ele>
        <time>2014-03-23T07:23:37Z</time>
      </trkpt>
      <trkpt lat="44.90719" lon="4.8248">
        <ele>208.3</ele>
        <time>2014-03-23T07:23:38Z</time>
      </trkpt>
      <trkpt lat="44.90715" lon="4.82476">
        <ele>208.8</ele>
        <time>2014-03-23T07:23:39Z</time>
      </trkpt>
      <trkpt lat="44.90711" lon="4.82472">
        <ele>209.2</ele>
        <time>2014-03-23T07:23:40Z</time>
      </trkpt>
      <trkpt lat="44.90707" lon="4.82468">
        <ele>209</ele>
        <time>2014-03-23T07:23:41Z</time>
      </trkpt>
      <trkpt lat="44.90703" lon="4.82464">
        <ele>208.8</ele>
        <time>2014-03-23T07:23:42Z</time>
      </trkpt>
      <trkpt lat="44.90699" lon="4.8246">
        <ele>208.9</ele>
        <time>2014-03-23T07:23:43Z</time>
      </trkpt>
      <trkpt lat="44.90695" lon="4.82455">
        <ele>209</ele>
        <time>2014-03-23T07:23:44Z</time>
      </trkpt>
      <trkpt lat="44.9069" lon="4.82451">
        <ele>209.4</ele>
        <time>2014-03-23T07:23:45Z</time>
      </trkpt>
      <trkpt lat="44.90686" lon="4.82447">
        <ele>209.7</ele>
        <time>2014-03-23T07:23:46Z</time>
      </trkpt>
      <trkpt lat="44.90682" lon="4.82443">
        <ele>209.9</ele>
        <time>2014-03-23T07:23:47Z</time>
      </trkpt>
      <trkpt lat="44.90678" lon="4.82439">
        <ele>209.7</ele>
        <time>2014-03-23T07:23:48Z</time>
      </trkpt>
      <trkpt lat="44.90674" lon="4.82435">
        <ele>209.5</ele>
        <time>2014-03-23T07:23:49Z</time>
      </trkpt>
      <trkpt lat="44.9067" lon="4.82431">
        <ele>209.3</ele>
        <time>2014-03-23T07:23:50Z</time>
      </trkpt>
      <trkpt lat="44.90666" lon="4.82427">
        <ele>209.2</ele>
        <time>2014-03-23T07:23:51Z</time>
      </trkpt>
      <trkpt lat="44.90661" lon="4.82423">
        <ele>209</ele>
        <time>2014-03-23T07:23:52Z</time>
      </trkpt>
      <trkpt lat="44.90657" lon="4.82418">
        <ele>209.2</ele>
        <time>2014-03-23T07:23:53Z</time>
      </trkpt>
      <trkpt lat="44.90653" lon="4.82414">
        <ele>209.3</ele>
        <time>2014-03-23T07:23:54Z</time>
      </trkpt>
      <trkpt lat="44.90649" lon="4.8241">
        <ele>209.2</ele>
        <time>2014-03-23T07:23:55Z</time>
      </trkpt>
      <trkpt lat="44.90645" lon="4.82406">
        <ele>209.1</ele>
        <time>2014-03-23T07:23:56Z</time>
      </trkpt>
      <trkpt lat="44.9064" lon="4.82402">
        <ele>209.1</ele>
        <time>2014-03-23T07:23:57Z</time>
      </trkpt>
      <trkpt lat="44.90636" lon="4.82398">
        <ele>209</ele>
        <time>2014-03-23T07:23:58Z</time>
      </trkpt>
      <trkpt lat="44.90632" lon="4.82394">
        <ele>209</ele>
        <time>2014-03-23T07:23:59Z</time>
      </trkpt>
      <trkpt lat="44.90628" lon="4.82389">
        <ele>209</ele>
        <time>2014-03-23T07:24:00Z</time>
      </trkpt>
      <trkpt lat="44.90623" lon="4.82385">
        <ele>209.1</ele>
        <time>2014-03-23T07:24:01Z</time>
      </trkpt>
      <trkpt lat="44.90619" lon="4.8238">
        <ele>209.2</ele>
        <time>2014-03-23T07:24:02Z</time>
      </trkpt>
      <trkpt lat="44.90615" lon="4.82375">
        <ele>209.3</ele>
        <time>2014-03-23T07:24:03Z</time>
      </trkpt>
      <trkpt lat="44.90612" lon="4.8237">
        <ele>209.3</ele>
        <time>2014-03-23T07:24:04Z</time>
      </trkpt>
      <trkpt lat="44.90608" lon="4.82365">
        <ele>209.6</ele>
        <time>2014-03-23T07:24:05Z</time>
      </trkpt>
      <trkpt lat="44.90604" lon="4.8236">
        <ele>209.7</ele>
        <time>2014-03-23T07:24:06Z</time>
      </trkpt>
      <trkpt lat="44.906" lon="4.82356">
        <ele>209.8</ele>
        <time>2014-03-23T07:24:07Z</time>
      </trkpt>
      <trkpt lat="44.90597" lon="4.82351">
        <ele>209.9</ele>
        <time>2014-03-23T07:24:08Z</time>
      </trkpt>
      <trkpt lat="44.90593" lon="4.82345">
        <ele>209.7</ele>
        <time>2014-03-23T07:24:09Z</time>
      </trkpt>
      <trkpt lat="44.90589" lon="4.8234">
        <ele>209.6</ele>
        <time>2014-03-23T07:24:10Z</time>
      </trkpt>
      <trkpt lat="44.90585" lon="4.82335">
        <ele>209.6</ele>
        <time>2014-03-23T07:24:11Z</time>
      </trkpt>
      <trkpt lat="44.90582" lon="4.8233">
        <ele>209.6</ele>
        <time>2014-03-23T07:24:12Z</time>
      </trkpt>
      <trkpt lat="44.90578" lon="4.82325">
        <ele>209.6</ele>
        <time>2014-03-23T07:24:13Z</time>
      </trkpt>
      <trkpt lat="44.90574" lon="4.8232">
        <ele>209.6</ele>
        <time>2014-03-23T07:24:14Z</time>
      </trkpt>
      <trkpt lat="44.9057" lon="4.82315">
        <ele>209.6</ele>
        <time>2014-03-23T07:24:15Z</time>
      </trkpt>
      <trkpt lat="44.90566" lon="4.8231">
        <ele>209.6</ele>
        <time>2014-03-23T07:24:16Z</time>
      </trkpt>
      <trkpt lat="44.90562" lon="4.82305">
        <ele>209.6</ele>
        <time>2014-03-23T07:24:17Z</time>
      </trkpt>
      <trkpt lat="44.90558" lon="4.823">
        <ele>209.6</ele>
        <time>2014-03-23T07:24:18Z</time>
      </trkpt>
      <trkpt lat="44.90554" lon="4.82295">
        <ele>209.7</ele>
        <time>2014-03-23T07:24:19Z</time>
      </trkpt>
      <trkpt lat="44.9055" lon="4.8229">
        <ele>209.7</ele>
        <time>2014-03-23T07:24:20Z</time>
      </trkpt>
      <trkpt lat="44.90546" lon="4.82285">
        <ele>209.6</ele>
        <time>2014-03-23T07:24:21Z</time>
      </trkpt>
      <trkpt lat="44.90542" lon="4.82281">
        <ele>209.5</ele>
        <time>2014-03-23T07:24:22Z</time>
      </trkpt>
      <trkpt lat="44.90537" lon="4.82276">
        <ele>210</ele>
        <time>2014-03-23T07:24:23Z</time>
      </trkpt>
      <trkpt lat="44.90533" lon="4.82272">
        <ele>210.3</ele>
        <time>2014-03-23T07:24:24Z</time>
      </trkpt>
      <trkpt lat="44.90529" lon="4.82267">
        <ele>210.5</ele>
        <time>2014-03-23T07:24:25Z</time>
      </trkpt>
      <trkpt lat="44.90524" lon="4.82263">
        <ele>210.3</ele>
        <time>2014-03-23T07:24:26Z</time>
      </trkpt>
      <trkpt lat="44.90519" lon="4.82259">
        <ele>210.1</ele>
        <time>2014-03-23T07:24:27Z</time>
      </trkpt>
      <trkpt lat="44.90515" lon="4.82255">
        <ele>210.1</ele>
        <time>2014-03-23T07:24:28Z</time>
      </trkpt>
      <trkpt lat="44.9051" lon="4.82251">
        <ele>210.1</ele>
        <time>2014-03-23T07:24:29Z</time>
      </trkpt>
      <trkpt lat="44.90505" lon="4.82247">
        <ele>210.1</ele>
        <time>2014-03-23T07:24:30Z</time>
      </trkpt>
      <trkpt lat="44.905" lon="4.82243">
        <ele>210.2</ele>
        <time>2014-03-23T07:24:31Z</time>
      </trkpt>
      <trkpt lat="44.90495" lon="4.82239">
        <ele>210.2</ele>
        <time>2014-03-23T07:24:32Z</time>
      </trkpt>
      <trkpt lat="44.9049" lon="4.82235">
        <ele>210.4</ele>
        <time>2014-03-23T07:24:33Z</time>
      </trkpt>
      <trkpt lat="44.90485" lon="4.82232">
        <ele>210.5</ele>
        <time>2014-03-23T07:24:34Z</time>
      </trkpt>
      <trkpt lat="44.90481" lon="4.82228">
        <ele>210.1</ele>
        <time>2014-03-23T07:24:35Z</time>
      </trkpt>
      <trkpt lat="44.90476" lon="4.82224">
        <ele>209.8</ele>
        <time>2014-03-23T07:24:36Z</time>
      </trkpt>
      <trkpt lat="44.90471" lon="4.82221">
        <ele>209.6</ele>
        <time>2014-03-23T07:24:37Z</time>
      </trkpt>
      <trkpt lat="44.90467" lon="4.82217">
        <ele>209.7</ele>
        <time>2014-03-23T07:24:38Z</time>
      </trkpt>
      <trkpt lat="44.90462" lon="4.82213">
        <ele>209.8</ele>
        <time>2014-03-23T07:24:39Z</time>
      </trkpt>
      <trkpt lat="44.90457" lon="4.8221">
        <ele>209.6</ele>
        <time>2014-03-23T07:24:40Z</time>
      </trkpt>
      <trkpt lat="44.90453" lon="4.82206">
        <ele>209.5</ele>
        <time>2014-03-23T07:24:41Z</time>
      </trkpt>
      <trkpt lat="44.90448" lon="4.82203">
        <ele>209.9</ele>
        <time>2014-03-23T07:24:42Z</time>
      </trkpt>
      <trkpt lat="44.90444" lon="4.82199">
        <ele>210.1</ele>
        <time>2014-03-23T07:24:43Z</time>
      </trkpt>
      <trkpt lat="44.90439" lon="4.82196">
        <ele>210.3</ele>
        <time>2014-03-23T07:24:44Z</time>
      </trkpt>
      <trkpt lat="44.90434" lon="4.82192">
        <ele>210.1</ele>
        <time>2014-03-23T07:24:45Z</time>
      </trkpt>
      <trkpt lat="44.9043" lon="4.82189">
        <ele>209.9</ele>
        <time>2014-03-23T07:24:46Z</time>
      </trkpt>
      <trkpt lat="44.90425" lon="4.82185">
        <ele>210.4</ele>
        <time>2014-03-23T07:24:47Z</time>
      </trkpt>
      <trkpt lat="44.9042" lon="4.82181">
        <ele>210.8</ele>
        <time>2014-03-23T07:24:48Z</time>
      </trkpt>
      <trkpt lat="44.90416" lon="4.82178">
        <ele>211.1</ele>
        <time>2014-03-23T07:24:49Z</time>
      </trkpt>
      <trkpt lat="44.90411" lon="4.82174">
        <ele>210.6</ele>
        <time>2014-03-23T07:24:50Z</time>
      </trkpt>
      <trkpt lat="44.90407" lon="4.82171">
        <ele>210.3</ele>
        <time>2014-03-23T07:24:51Z</time>
      </trkpt>
      <trkpt lat="44.90402" lon="4.82168">
        <ele>210.5</ele>
        <time>2014-03-23T07:24:52Z</time>
      </trkpt>
      <trkpt lat="44.90398" lon="4.82164">
        <ele>210.6</ele>
        <time>2014-03-23T07:24:53Z</time>
      </trkpt>
      <trkpt lat="44.90393" lon="4.8216">
        <ele>210.6</ele>
        <time>2014-03-23T07:24:54Z</time>
      </trkpt>
      <trkpt lat="44.90388" lon="4.82157">
        <ele>210.5</ele>
        <time>2014-03-23T07:24:55Z</time>
      </trkpt>
      <trkpt lat="44.90384" lon="4.82153">
        <ele>210.4</ele>
        <time>2014-03-23T07:24:56Z</time>
      </trkpt>
      <trkpt lat="44.90379" lon="4.8215">
        <ele>210.5</ele>
        <time>2014-03-23T07:24:57Z</time>
      </trkpt>
      <trkpt lat="44.90375" lon="4.82146">
        <ele>210.5</ele>
        <time>2014-03-23T07:24:58Z</time>
      </trkpt>
      <trkpt lat="44.9037" lon="4.82143">
        <ele>210.8</ele>
        <time>2014-03-23T07:24:59Z</time>
      </trkpt>
      <trkpt lat="44.90365" lon="4.82139">
        <ele>211.1</ele>
        <time>2014-03-23T07:25:00Z</time>
      </trkpt>
      <trkpt lat="44.90361" lon="4.82136">
        <ele>211</ele>
        <time>2014-03-23T07:25:01Z</time>
      </trkpt>
      <trkpt lat="44.90356" lon="4.82133">
        <ele>211</ele>
        <time>2014-03-23T07:25:02Z</time>
      </trkpt>
      <trkpt lat="44.90351" lon="4.82129">
        <ele>210.9</ele>
        <time>2014-03-23T07:25:03Z</time>
      </trkpt>
      <trkpt lat="44.90347" lon="4.82126">
        <ele>210.9</ele>
        <time>2014-03-23T07:25:04Z</time>
      </trkpt>
      <trkpt lat="44.90342" lon="4.82122">
        <ele>210.8</ele>
        <time>2014-03-23T07:25:05Z</time>
      </trkpt>
      <trkpt lat="44.90337" lon="4.82119">
        <ele>210.8</ele>
        <time>2014-03-23T07:25:06Z</time>
      </trkpt>
      <trkpt lat="44.90333" lon="4.82116">
        <ele>210.9</ele>
        <time>2014-03-23T07:25:07Z</time>
      </trkpt>
      <trkpt lat="44.90328" lon="4.82112">
        <ele>210.9</ele>
        <time>2014-03-23T07:25:08Z</time>
      </trkpt>
      <trkpt lat="44.90323" lon="4.82109">
        <ele>210.5</ele>
        <time>2014-03-23T07:25:09Z</time>
      </trkpt>
      <trkpt lat="44.90318" lon="4.82106">
        <ele>210.2</ele>
        <time>2014-03-23T07:25:10Z</time>
      </trkpt>
      <trkpt lat="44.90314" lon="4.82102">
        <ele>210.6</ele>
        <time>2014-03-23T07:25:11Z</time>
      </trkpt>
      <trkpt lat="44.90309" lon="4.82099">
        <ele>211</ele>
        <time>2014-03-23T07:25:12Z</time>
      </trkpt>
      <trkpt lat="44.90304" lon="4.82096">
        <ele>211.3</ele>
        <time>2014-03-23T07:25:13Z</time>
      </trkpt>
      <trkpt lat="44.903" lon="4.82093">
        <ele>211.5</ele>
        <time>2014-03-23T07:25:14Z</time>
      </trkpt>
      <trkpt lat="44.90295" lon="4.82089">
        <ele>211.7</ele>
        <time>2014-03-23T07:25:15Z</time>
      </trkpt>
      <trkpt lat="44.9029" lon="4.82086">
        <ele>211.9</ele>
        <time>2014-03-23T07:25:16Z</time>
      </trkpt>
      <trkpt lat="44.90285" lon="4.82083">
        <ele>212.2</ele>
        <time>2014-03-23T07:25:17Z</time>
      </trkpt>
      <trkpt lat="44.90281" lon="4.82079">
        <ele>211.9</ele>
        <time>2014-03-23T07:25:18Z</time>
      </trkpt>
      <trkpt lat="44.90276" lon="4.82076">
        <ele>211.7</ele>
        <time>2014-03-23T07:25:19Z</time>
      </trkpt>
      <trkpt lat="44.90271" lon="4.82073">
        <ele>211.9</ele>
        <time>2014-03-23T07:25:20Z</time>
      </trkpt>
      <trkpt lat="44.90267" lon="4.8207">
        <ele>212</ele>
        <time>2014-03-23T07:25:21Z</time>
      </trkpt>
      <trkpt lat="44.90262" lon="4.82067">
        <ele>212.1</ele>
        <time>2014-03-23T07:25:22Z</time>
      </trkpt>
      <trkpt lat="44.90257" lon="4.82064">
        <ele>211.8</ele>
        <time>2014-03-23T07:25:23Z</time>
      </trkpt>
      <trkpt lat="44.90253" lon="4.82061">
        <ele>211.5</ele>
        <time>2014-03-23T07:25:24Z</time>
      </trkpt>
      <trkpt lat="44.90248" lon="4.82057">
        <ele>211.5</ele>
        <time>2014-03-23T07:25:25Z</time>
      </trkpt>
      <trkpt lat="44.90244" lon="4.82054">
        <ele>211.4</ele>
        <time>2014-03-23T07:25:26Z</time>
      </trkpt>
      <trkpt lat="44.90239" lon="4.82051">
        <ele>211.4</ele>
        <time>2014-03-23T07:25:27Z</time>
      </trkpt>
      <trkpt lat="44.90235" lon="4.82048">
        <ele>211.5</ele>
        <time>2014-03-23T07:25:28Z</time>
      </trkpt>
      <trkpt lat="44.90231" lon="4.82045">
        <ele>211.7</ele>
        <time>2014-03-23T07:25:29Z</time>
      </trkpt>
      <trkpt lat="44.90226" lon="4.82042">
        <ele>211.8</ele>
        <time>2014-03-23T07:25:30Z</time>
      </trkpt>
      <trkpt lat="44.90222" lon="4.8204">
        <ele>212</ele>
        <time>2014-03-23T07:25:31Z</time>
      </trkpt>
      <trkpt lat="44.90217" lon="4.82037">
        <ele>212.3</ele>
        <time>2014-03-23T07:25:32Z</time>
      </trkpt>
      <trkpt lat="44.90213" lon="4.82034">
        <ele>212.5</ele>
        <time>2014-03-23T07:25:33Z</time>
      </trkpt>
      <trkpt lat="44.90208" lon="4.82031">
        <ele>212.6</ele>
        <time>2014-03-23T07:25:34Z</time>
      </trkpt>
      <trkpt lat="44.90204" lon="4.82028">
        <ele>213</ele>
        <time>2014-03-23T07:25:35Z</time>
      </trkpt>
      <trkpt lat="44.90199" lon="4.82025">
        <ele>213.3</ele>
        <time>2014-03-23T07:25:36Z</time>
      </trkpt>
      <trkpt lat="44.90195" lon="4.82022">
        <ele>213.2</ele>
        <time>2014-03-23T07:25:37Z</time>
      </trkpt>
      <trkpt lat="44.9019" lon="4.82019">
        <ele>213.2</ele>
        <time>2014-03-23T07:25:38Z</time>
      </trkpt>
      <trkpt lat="44.90186" lon="4.82016">
        <ele>213.2</ele>
        <time>2014-03-23T07:25:39Z</time>
      </trkpt>
      <trkpt lat="44.90182" lon="4.82013">
        <ele>213.1</ele>
        <time>2014-03-23T07:25:40Z</time>
      </trkpt>
      <trkpt lat="44.90177" lon="4.8201">
        <ele>213.1</ele>
        <time>2014-03-23T07:25:41Z</time>
      </trkpt>
      <trkpt lat="44.90173" lon="4.82007">
        <ele>212.9</ele>
        <time>2014-03-23T07:25:42Z</time>
      </trkpt>
      <trkpt lat="44.90169" lon="4.82003">
        <ele>212.7</ele>
        <time>2014-03-23T07:25:43Z</time>
      </trkpt>
      <trkpt lat="44.90165" lon="4.82">
        <ele>212.9</ele>
        <time>2014-03-23T07:25:44Z</time>
      </trkpt>
      <trkpt lat="44.90161" lon="4.81996">
        <ele>212.9</ele>
        <time>2014-03-23T07:25:45Z</time>
      </trkpt>
      <trkpt lat="44.90157" lon="4.81993">
        <ele>213</ele>
        <time>2014-03-23T07:25:46Z</time>
      </trkpt>
      <trkpt lat="44.90153" lon="4.8199">
        <ele>213.1</ele>
        <time>2014-03-23T07:25:47Z</time>
      </trkpt>
      <trkpt lat="44.90149" lon="4.81986">
        <ele>213.2</ele>
        <time>2014-03-23T07:25:48Z</time>
      </trkpt>
      <trkpt lat="44.90145" lon="4.81983">
        <ele>213.1</ele>
        <time>2014-03-23T07:25:49Z</time>
      </trkpt>
      <trkpt lat="44.9014" lon="4.8198">
        <ele>213</ele>
        <time>2014-03-23T07:25:50Z</time>
      </trkpt>
      <trkpt lat="44.90136" lon="4.81977">
        <ele>213</ele>
        <time>2014-03-23T07:25:51Z</time>
      </trkpt>
      <trkpt lat="44.90132" lon="4.81974">
        <ele>213.1</ele>
        <time>2014-03-23T07:25:52Z</time>
      </trkpt>
      <trkpt lat="44.90128" lon="4.81971">
        <ele>213.1</ele>
        <time>2014-03-23T07:25:53Z</time>
      </trkpt>
      <trkpt lat="44.90124" lon="4.81968">
        <ele>213.2</ele>
        <time>2014-03-23T07:25:54Z</time>
      </trkpt>
      <trkpt lat="44.90119" lon="4.81965">
        <ele>213.3</ele>
        <time>2014-03-23T07:25:55Z</time>
      </trkpt>
      <trkpt lat="44.90115" lon="4.81962">
        <ele>213.4</ele>
        <time>2014-03-23T07:25:56Z</time>
      </trkpt>
      <trkpt lat="44.90112" lon="4.81958">
        <ele>213.5</ele>
        <time>2014-03-23T07:25:57Z</time>
      </trkpt>
      <trkpt lat="44.90108" lon="4.81955">
        <ele>213.4</ele>
        <time>2014-03-23T07:25:58Z</time>
      </trkpt>
      <trkpt lat="44.90104" lon="4.81952">
        <ele>213.3</ele>
        <time>2014-03-23T07:25:59Z</time>
      </trkpt>
      <trkpt lat="44.90099" lon="4.81949">
        <ele>213.3</ele>
        <time>2014-03-23T07:26:00Z</time>
      </trkpt>
      <trkpt lat="44.90095" lon="4.81946">
        <ele>213.7</ele>
        <time>2014-03-23T07:26:01Z</time>
      </trkpt>
      <trkpt lat="44.90091" lon="4.81944">
        <ele>213.9</ele>
        <time>2014-03-23T07:26:02Z</time>
      </trkpt>
      <trkpt lat="44.90087" lon="4.81942">
        <ele>213.7</ele>
        <time>2014-03-23T07:26:03Z</time>
      </trkpt>
      <trkpt lat="44.90082" lon="4.8194">
        <ele>213.6</ele>
        <time>2014-03-23T07:26:04Z</time>
      </trkpt>
      <trkpt lat="44.90074" lon="4.81935">
        <ele>214.5</ele>
        <time>2014-03-23T07:26:06Z</time>
      </trkpt>
      <trkpt lat="44.90066" lon="4.81929">
        <ele>214.8</ele>
        <time>2014-03-23T07:26:08Z</time>
      </trkpt>
      <trkpt lat="44.90059" lon="4.81924">
        <ele>215</ele>
        <time>2014-03-23T07:26:10Z</time>
      </trkpt>
      <trkpt lat="44.90051" lon="4.81918">
        <ele>215.3</ele>
        <time>2014-03-23T07:26:12Z</time>
      </trkpt>
      <trkpt lat="44.90043" lon="4.81913">
        <ele>215.6</ele>
        <time>2014-03-23T07:26:14Z</time>
      </trkpt>
      <trkpt lat="44.90035" lon="4.81908">
        <ele>215.6</ele>
        <time>2014-03-23T07:26:16Z</time>
      </trkpt>
      <trkpt lat="44.90027" lon="4.81904">
        <ele>216.8</ele>
        <time>2014-03-23T07:26:18Z</time>
      </trkpt>
      <trkpt lat="44.9002" lon="4.819">
        <ele>217.3</ele>
        <time>2014-03-23T07:26:20Z</time>
      </trkpt>
      <trkpt lat="44.90012" lon="4.81896">
        <ele>217.5</ele>
        <time>2014-03-23T07:26:22Z</time>
      </trkpt>
      <trkpt lat="44.90004" lon="4.81893">
        <ele>217.8</ele>
        <time>2014-03-23T07:26:24Z</time>
      </trkpt>
      <trkpt lat="44.89997" lon="4.8189">
        <ele>217.9</ele>
        <time>2014-03-23T07:26:26Z</time>
      </trkpt>
      <trkpt lat="44.8999" lon="4.81888">
        <ele>218.2</ele>
        <time>2014-03-23T07:26:28Z</time>
      </trkpt>
      <trkpt lat="44.89983" lon="4.81885">
        <ele>218.3</ele>
        <time>2014-03-23T07:26:30Z</time>
      </trkpt>
      <trkpt lat="44.89975" lon="4.81883">
        <ele>218.5</ele>
        <time>2014-03-23T07:26:32Z</time>
      </trkpt>
      <trkpt lat="44.89967" lon="4.81881">
        <ele>218.8</ele>
        <time>2014-03-23T07:26:34Z</time>
      </trkpt>
      <trkpt lat="44.8996" lon="4.81879">
        <ele>219.4</ele>
        <time>2014-03-23T07:26:36Z</time>
      </trkpt>
      <trkpt lat="44.89952" lon="4.81878">
        <ele>220</ele>
        <time>2014-03-23T07:26:38Z</time>
      </trkpt>
      <trkpt lat="44.89945" lon="4.81876">
        <ele>219.8</ele>
        <time>2014-03-23T07:26:40Z</time>
      </trkpt>
      <trkpt lat="44.89937" lon="4.81876">
        <ele>220.2</ele>
        <time>2014-03-23T07:26:42Z</time>
      </trkpt>
      <trkpt lat="44.8993" lon="4.81876">
        <ele>221.2</ele>
        <time>2014-03-23T07:26:44Z</time>
      </trkpt>
      <trkpt lat="44.89922" lon="4.81876">
        <ele>221.3</ele>
        <time>2014-03-23T07:26:46Z</time>
      </trkpt>
      <trkpt lat="44.89915" lon="4.81877">
        <ele>221.6</ele>
        <time>2014-03-23T07:26:48Z</time>
      </trkpt>
      <trkpt lat="44.89908" lon="4.81878">
        <ele>222.1</ele>
        <time>2014-03-23T07:26:50Z</time>
      </trkpt>
      <trkpt lat="44.899" lon="4.81879">
        <ele>222.2</ele>
        <time>2014-03-23T07:26:52Z</time>
      </trkpt>
      <trkpt lat="44.89893" lon="4.81881">
        <ele>222.3</ele>
        <time>2014-03-23T07:26:54Z</time>
      </trkpt>
      <trkpt lat="44.89885" lon="4.81883">
        <ele>223.3</ele>
        <time>2014-03-23T07:26:56Z</time>
      </trkpt>
      <trkpt lat="44.89882" lon="4.81884">
        <ele>223.6</ele>
        <time>2014-03-23T07:26:57Z</time>
      </trkpt>
      <trkpt lat="44.89871" lon="4.81888">
        <ele>224.1</ele>
        <time>2014-03-23T07:27:00Z</time>
      </trkpt>
      <trkpt lat="44.89864" lon="4.81891">
        <ele>224.5</ele>
        <time>2014-03-23T07:27:02Z</time>
      </trkpt>
      <trkpt lat="44.89857" lon="4.81894">
        <ele>224.7</ele>
        <time>2014-03-23T07:27:04Z</time>
      </trkpt>
      <trkpt lat="44.8985" lon="4.81897">
        <ele>224.7</ele>
        <time>2014-03-23T07:27:06Z</time>
      </trkpt>
      <trkpt lat="44.89842" lon="4.819">
        <ele>225.1</ele>
        <time>2014-03-23T07:27:08Z</time>
      </trkpt>
      <trkpt lat="44.89834" lon="4.81902">
        <ele>225.4</ele>
        <time>2014-03-23T07:27:10Z</time>
      </trkpt>
      <trkpt lat="44.89827" lon="4.81906">
        <ele>225.7</ele>
        <time>2014-03-23T07:27:12Z</time>
      </trkpt>
      <trkpt lat="44.89819" lon="4.81908">
        <ele>226.2</ele>
        <time>2014-03-23T07:27:14Z</time>
      </trkpt>
      <trkpt lat="44.89812" lon="4.81911">
        <ele>226.6</ele>
        <time>2014-03-23T07:27:16Z</time>
      </trkpt>
      <trkpt lat="44.89805" lon="4.81913">
        <ele>226.7</ele>
        <time>2014-03-23T07:27:18Z</time>
      </trkpt>
      <trkpt lat="44.89797" lon="4.81915">
        <ele>226.8</ele>
        <time>2014-03-23T07:27:20Z</time>
      </trkpt>
      <trkpt lat="44.89789" lon="4.81916">
        <ele>227</ele>
        <time>2014-03-23T07:27:22Z</time>
      </trkpt>
      <trkpt lat="44.89783" lon="4.81917">
        <ele>227.3</ele>
        <time>2014-03-23T07:27:24Z</time>
      </trkpt>
      <trkpt lat="44.89776" lon="4.81919">
        <ele>227.6</ele>
        <time>2014-03-23T07:27:26Z</time>
      </trkpt>
      <trkpt lat="44.8977" lon="4.81919">
        <ele>227.7</ele>
        <time>2014-03-23T07:27:28Z</time>
      </trkpt>
      <trkpt lat="44.89763" lon="4.8192">
        <ele>228.5</ele>
        <time>2014-03-23T07:27:30Z</time>
      </trkpt>
      <trkpt lat="44.89756" lon="4.8192">
        <ele>228.7</ele>
        <time>2014-03-23T07:27:32Z</time>
      </trkpt>
      <trkpt lat="44.89749" lon="4.81921">
        <ele>229.8</ele>
        <time>2014-03-23T07:27:34Z</time>
      </trkpt>
      <trkpt lat="44.89742" lon="4.81922">
        <ele>230.5</ele>
        <time>2014-03-23T07:27:36Z</time>
      </trkpt>
      <trkpt lat="44.89735" lon="4.81923">
        <ele>230.5</ele>
        <time>2014-03-23T07:27:38Z</time>
      </trkpt>
      <trkpt lat="44.89728" lon="4.81923">
        <ele>230.7</ele>
        <time>2014-03-23T07:27:40Z</time>
      </trkpt>
      <trkpt lat="44.89721" lon="4.81923">
        <ele>231.2</ele>
        <time>2014-03-23T07:27:42Z</time>
      </trkpt>
      <trkpt lat="44.89715" lon="4.81924">
        <ele>231.7</ele>
        <time>2014-03-23T07:27:44Z</time>
      </trkpt>
      <trkpt lat="44.89708" lon="4.81924">
        <ele>231.7</ele>
        <time>2014-03-23T07:27:46Z</time>
      </trkpt>
      <trkpt lat="44.89701" lon="4.81924">
        <ele>232.2</ele>
        <time>2014-03-23T07:27:48Z</time>
      </trkpt>
      <trkpt lat="44.89694" lon="4.81926">
        <ele>232.7</ele>
        <time>2014-03-23T07:27:50Z</time>
      </trkpt>
      <trkpt lat="44.89687" lon="4.81927">
        <ele>233</ele>
        <time>2014-03-23T07:27:52Z</time>
      </trkpt>
      <trkpt lat="44.8968" lon="4.81928">
        <ele>233.1</ele>
        <time>2014-03-23T07:27:54Z</time>
      </trkpt>
      <trkpt lat="44.89674" lon="4.81929">
        <ele>233.3</ele>
        <time>2014-03-23T07:27:56Z</time>
      </trkpt>
      <trkpt lat="44.89667" lon="4.81929">
        <ele>234.2</ele>
        <time>2014-03-23T07:27:58Z</time>
      </trkpt>
      <trkpt lat="44.89663" lon="4.81929">
        <ele>234.7</ele>
        <time>2014-03-23T07:27:59Z</time>
      </trkpt>
      <trkpt lat="44.89653" lon="4.8193">
        <ele>235.1</ele>
        <time>2014-03-23T07:28:02Z</time>
      </trkpt>
      <trkpt lat="44.89646" lon="4.81931">
        <ele>235.2</ele>
        <time>2014-03-23T07:28:04Z</time>
      </trkpt>
      <trkpt lat="44.89639" lon="4.81931">
        <ele>235.6</ele>
        <time>2014-03-23T07:28:06Z</time>
      </trkpt>
      <trkpt lat="44.89632" lon="4.81932">
        <ele>236.1</ele>
        <time>2014-03-23T07:28:08Z</time>
      </trkpt>
      <trkpt lat="44.89625" lon="4.81932">
        <ele>236.6</ele>
        <time>2014-03-23T07:28:10Z</time>
      </trkpt>
      <trkpt lat="44.89618" lon="4.81933">
        <ele>237.3</ele>
        <time>2014-03-23T07:28:12Z</time>
      </trkpt>
      <trkpt lat="44.89611" lon="4.81934">
        <ele>237.8</ele>
        <time>2014-03-23T07:28:14Z</time>
      </trkpt>
      <trkpt lat="44.89604" lon="4.81935">
        <ele>238.1</ele>
        <time>2014-03-23T07:28:16Z</time>
      </trkpt>
      <trkpt lat="44.89597" lon="4.81935">
        <ele>238</ele>
        <time>2014-03-23T07:28:18Z</time>
      </trkpt>
      <trkpt lat="44.89589" lon="4.81936">
        <ele>237.7</ele>
        <time>2014-03-23T07:28:20Z</time>
      </trkpt>
      <trkpt lat="44.89582" lon="4.81936">
        <ele>238.2</ele>
        <time>2014-03-23T07:28:22Z</time>
      </trkpt>
      <trkpt lat="44.89575" lon="4.81937">
        <ele>239.2</ele>
        <time>2014-03-23T07:28:24Z</time>
      </trkpt>
      <trkpt lat="44.89568" lon="4.81937">
        <ele>240</ele>
        <time>2014-03-23T07:28:26Z</time>
      </trkpt>
      <trkpt lat="44.89561" lon="4.81938">
        <ele>240.2</ele>
        <time>2014-03-23T07:28:28Z</time>
      </trkpt>
      <trkpt lat="44.89554" lon="4.81939">
        <ele>240.2</ele>
        <time>2014-03-23T07:28:30Z</time>
      </trkpt>
      <trkpt lat="44.89547" lon="4.81939">
        <ele>240.1</ele>
        <time>2014-03-23T07:28:32Z</time>
      </trkpt>
      <trkpt lat="44.8954" lon="4.81939">
        <ele>240.9</ele>
        <time>2014-03-23T07:28:34Z</time>
      </trkpt>
      <trkpt lat="44.89533" lon="4.81939">
        <ele>241.4</ele>
        <time>2014-03-23T07:28:36Z</time>
      </trkpt>
      <trkpt lat="44.89526" lon="4.81938">
        <ele>241.4</ele>
        <time>2014-03-23T07:28:38Z</time>
      </trkpt>
      <trkpt lat="44.89519" lon="4.81936">
        <ele>241.3</ele>
        <time>2014-03-23T07:28:40Z</time>
      </trkpt>
      <trkpt lat="44.89512" lon="4.81933">
        <ele>241.6</ele>
        <time>2014-03-23T07:28:42Z</time>
      </trkpt>
      <trkpt lat="44.89505" lon="4.81929">
        <ele>242.3</ele>
        <time>2014-03-23T07:28:44Z</time>
      </trkpt>
      <trkpt lat="44.89499" lon="4.81922">
        <ele>242.9</ele>
        <time>2014-03-23T07:28:46Z</time>
      </trkpt>
      <trkpt lat="44.89496" lon="4.81913">
        <ele>242.7</ele>
        <time>2014-03-23T07:28:48Z</time>
      </trkpt>
      <trkpt lat="44.89496" lon="4.81903">
        <ele>243.2</ele>
        <time>2014-03-23T07:28:50Z</time>
      </trkpt>
      <trkpt lat="44.89499" lon="4.81895">
        <ele>243.5</ele>
        <time>2014-03-23T07:28:52Z</time>
      </trkpt>
      <trkpt lat="44.89504" lon="4.81889">
        <ele>244.1</ele>
        <time>2014-03-23T07:28:54Z</time>
      </trkpt>
      <trkpt lat="44.8951" lon="4.81888">
        <ele>244.6</ele>
        <time>2014-03-23T07:28:56Z</time>
      </trkpt>
      <trkpt lat="44.89517" lon="4.81891">
        <ele>244.7</ele>
        <time>2014-03-23T07:28:58Z</time>
      </trkpt>
      <trkpt lat="44.89522" lon="4.81896">
        <ele>245</ele>
        <time>2014-03-23T07:29:00Z</time>
      </trkpt>
      <trkpt lat="44.89525" lon="4.81898">
        <ele>245.5</ele>
        <time>2014-03-23T07:29:01Z</time>
      </trkpt>
      <trkpt lat="44.89533" lon="4.81904">
        <ele>246.4</ele>
        <time>2014-03-23T07:29:04Z</time>
      </trkpt>
      <trkpt lat="44.89539" lon="4.81907">
        <ele>246.6</ele>
        <time>2014-03-23T07:29:06Z</time>
      </trkpt>
      <trkpt lat="44.89545" lon="4.81909">
        <ele>247.1</ele>
        <time>2014-03-23T07:29:08Z</time>
      </trkpt>
      <trkpt lat="44.89551" lon="4.8191">
        <ele>247.6</ele>
        <time>2014-03-23T07:29:10Z</time>
      </trkpt>
      <trkpt lat="44.89558" lon="4.81909">
        <ele>247.9</ele>
        <time>2014-03-23T07:29:12Z</time>
      </trkpt>
      <trkpt lat="44.89564" lon="4.81906">
        <ele>248.2</ele>
        <time>2014-03-23T07:29:14Z</time>
      </trkpt>
      <trkpt lat="44.89569" lon="4.81903">
        <ele>248.4</ele>
        <time>2014-03-23T07:29:16Z</time>
      </trkpt>
      <trkpt lat="44.89575" lon="4.819">
        <ele>248.8</ele>
        <time>2014-03-23T07:29:18Z</time>
      </trkpt>
      <trkpt lat="44.89581" lon="4.81897">
        <ele>249.2</ele>
        <time>2014-03-23T07:29:20Z</time>
      </trkpt>
      <trkpt lat="44.89587" lon="4.81893">
        <ele>249.9</ele>
        <time>2014-03-23T07:29:22Z</time>
      </trkpt>
      <trkpt lat="44.89593" lon="4.8189">
        <ele>250.6</ele>
        <time>2014-03-23T07:29:24Z</time>
      </trkpt>
      <trkpt lat="44.89599" lon="4.81887">
        <ele>251.6</ele>
        <time>2014-03-23T07:29:26Z</time>
      </trkpt>
      <trkpt lat="44.89604" lon="4.81883">
        <ele>251.9</ele>
        <time>2014-03-23T07:29:28Z</time>
      </trkpt>
      <trkpt lat="44.8961" lon="4.8188">
        <ele>252.1</ele>
        <time>2014-03-23T07:29:30Z</time>
      </trkpt>
      <trkpt lat="44.89616" lon="4.81877">
        <ele>252.2</ele>
        <time>2014-03-23T07:29:32Z</time>
      </trkpt>
      <trkpt lat="44.89624" lon="4.81872">
        <ele>252.8</ele>
        <time>2014-03-23T07:29:35Z</time>
      </trkpt>
      <trkpt lat="44.89629" lon="4.81869">
        <ele>253.3</ele>
        <time>2014-03-23T07:29:37Z</time>
      </trkpt>
      <trkpt lat="44.89638" lon="4.81864">
        <ele>254.1</ele>
        <time>2014-03-23T07:29:40Z</time>
      </trkpt>
      <trkpt lat="44.89645" lon="4.81859">
        <ele>254.5</ele>
        <time>2014-03-23T07:29:43Z</time>
      </trkpt>
      <trkpt lat="44.89653" lon="4.81854">
        <ele>254.8</ele>
        <time>2014-03-23T07:29:46Z</time>
      </trkpt>
      <trkpt lat="44.89662" lon="4.81851">
        <ele>255.5</ele>
        <time>2014-03-23T07:29:49Z</time>
      </trkpt>
      <trkpt lat="44.8967" lon="4.81847">
        <ele>256.5</ele>
        <time>2014-03-23T07:29:52Z</time>
      </trkpt>
      <trkpt lat="44.89676" lon="4.81844">
        <ele>257.2</ele>
        <time>2014-03-23T07:29:54Z</time>
      </trkpt>
      <trkpt lat="44.89682" lon="4.8184">
        <ele>257.4</ele>
        <time>2014-03-23T07:29:56Z</time>
      </trkpt>
      <trkpt lat="44.89687" lon="4.81836">
        <ele>257.5</ele>
        <time>2014-03-23T07:29:58Z</time>
      </trkpt>
      <trkpt lat="44.89693" lon="4.81832">
        <ele>257.7</ele>
        <time>2014-03-23T07:30:00Z</time>
      </trkpt>
      <trkpt lat="44.89699" lon="4.81828">
        <ele>257.9</ele>
        <time>2014-03-23T07:30:02Z</time>
      </trkpt>
      <trkpt lat="44.89701" lon="4.81825">
        <ele>258.4</ele>
        <time>2014-03-23T07:30:03Z</time>
      </trkpt>
      <trkpt lat="44.89713" lon="4.81813">
        <ele>259.2</ele>
        <time>2014-03-23T07:30:08Z</time>
      </trkpt>
      <trkpt lat="44.89719" lon="4.81805">
        <ele>260.2</ele>
        <time>2014-03-23T07:30:11Z</time>
      </trkpt>
      <trkpt lat="44.89725" lon="4.81797">
        <ele>260.4</ele>
        <time>2014-03-23T07:30:14Z</time>
      </trkpt>
      <trkpt lat="44.8973" lon="4.81791">
        <ele>260.6</ele>
        <time>2014-03-23T07:30:16Z</time>
      </trkpt>
      <trkpt lat="44.89735" lon="4.81782">
        <ele>261.6</ele>
        <time>2014-03-23T07:30:19Z</time>
      </trkpt>
      <trkpt lat="44.8974" lon="4.81771">
        <ele>262.4</ele>
        <time>2014-03-23T07:30:22Z</time>
      </trkpt>
      <trkpt lat="44.89744" lon="4.8176">
        <ele>262.9</ele>
        <time>2014-03-23T07:30:25Z</time>
      </trkpt>
      <trkpt lat="44.89746" lon="4.81751">
        <ele>263.2</ele>
        <time>2014-03-23T07:30:27Z</time>
      </trkpt>
      <trkpt lat="44.89749" lon="4.81744">
        <ele>263.7</ele>
        <time>2014-03-23T07:30:29Z</time>
      </trkpt>
      <trkpt lat="44.89754" lon="4.81734">
        <ele>263.6</ele>
        <time>2014-03-23T07:30:32Z</time>
      </trkpt>
      <trkpt lat="44.89758" lon="4.81723">
        <ele>264.6</ele>
        <time>2014-03-23T07:30:35Z</time>
      </trkpt>
      <trkpt lat="44.89762" lon="4.81712">
        <ele>265.7</ele>
        <time>2014-03-23T07:30:38Z</time>
      </trkpt>
      <trkpt lat="44.89766" lon="4.817">
        <ele>266.2</ele>
        <time>2014-03-23T07:30:41Z</time>
      </trkpt>
      <trkpt lat="44.89768" lon="4.81693">
        <ele>266.7</ele>
        <time>2014-03-23T07:30:43Z</time>
      </trkpt>
      <trkpt lat="44.89771" lon="4.81685">
        <ele>267</ele>
        <time>2014-03-23T07:30:45Z</time>
      </trkpt>
      <trkpt lat="44.89773" lon="4.81676">
        <ele>267</ele>
        <time>2014-03-23T07:30:47Z</time>
      </trkpt>
      <trkpt lat="44.89775" lon="4.81667">
        <ele>267.1</ele>
        <time>2014-03-23T07:30:49Z</time>
      </trkpt>
      <trkpt lat="44.89775" lon="4.81658">
        <ele>267.6</ele>
        <time>2014-03-23T07:30:51Z</time>
      </trkpt>
      <trkpt lat="44.89774" lon="4.81648">
        <ele>267.5</ele>
        <time>2014-03-23T07:30:53Z</time>
      </trkpt>
      <trkpt lat="44.89771" lon="4.81639">
        <ele>267.6</ele>
        <time>2014-03-23T07:30:55Z</time>
      </trkpt>
      <trkpt lat="44.89769" lon="4.81631">
        <ele>267.8</ele>
        <time>2014-03-23T07:30:57Z</time>
      </trkpt>
      <trkpt lat="44.89766" lon="4.81623">
        <ele>267.9</ele>
        <time>2014-03-23T07:30:59Z</time>
      </trkpt>
      <trkpt lat="44.89763" lon="4.81615">
        <ele>267.6</ele>
        <time>2014-03-23T07:31:01Z</time>
      </trkpt>
      <trkpt lat="44.89759" lon="4.81607">
        <ele>268.2</ele>
        <time>2014-03-23T07:31:03Z</time>
      </trkpt>
      <trkpt lat="44.89758" lon="4.81603">
        <ele>268.3</ele>
        <time>2014-03-23T07:31:04Z</time>
      </trkpt>
      <trkpt lat="44.89752" lon="4.81592">
        <ele>269</ele>
        <time>2014-03-23T07:31:07Z</time>
      </trkpt>
      <trkpt lat="44.89749" lon="4.81584">
        <ele>269.8</ele>
        <time>2014-03-23T07:31:09Z</time>
      </trkpt>
      <trkpt lat="44.89746" lon="4.81576">
        <ele>270.5</ele>
        <time>2014-03-23T07:31:11Z</time>
      </trkpt>
      <trkpt lat="44.89744" lon="4.81568">
        <ele>270.7</ele>
        <time>2014-03-23T07:31:13Z</time>
      </trkpt>
      <trkpt lat="44.89741" lon="4.81559">
        <ele>270.9</ele>
        <time>2014-03-23T07:31:15Z</time>
      </trkpt>
      <trkpt lat="44.89739" lon="4.81551">
        <ele>271.7</ele>
        <time>2014-03-23T07:31:17Z</time>
      </trkpt>
      <trkpt lat="44.89737" lon="4.81542">
        <ele>272</ele>
        <time>2014-03-23T07:31:19Z</time>
      </trkpt>
      <trkpt lat="44.89735" lon="4.81534">
        <ele>272.1</ele>
        <time>2014-03-23T07:31:21Z</time>
      </trkpt>
      <trkpt lat="44.89734" lon="4.81525">
        <ele>272.1</ele>
        <time>2014-03-23T07:31:23Z</time>
      </trkpt>
      <trkpt lat="44.89732" lon="4.81517">
        <ele>272.6</ele>
        <time>2014-03-23T07:31:25Z</time>
      </trkpt>
      <trkpt lat="44.8973" lon="4.81509">
        <ele>272.9</ele>
        <time>2014-03-23T07:31:27Z</time>
      </trkpt>
      <trkpt lat="44.89726" lon="4.81501">
        <ele>273.1</ele>
        <time>2014-03-23T07:31:29Z</time>
      </trkpt>
      <trkpt lat="44.89723" lon="4.81495">
        <ele>273.5</ele>
        <time>2014-03-23T07:31:31Z</time>
      </trkpt>
      <trkpt lat="44.89719" lon="4.81488">
        <ele>273.9</ele>
        <time>2014-03-23T07:31:33Z</time>
      </trkpt>
      <trkpt lat="44.89715" lon="4.81481">
        <ele>274.7</ele>
        <time>2014-03-23T07:31:35Z</time>
      </trkpt>
      <trkpt lat="44.89711" lon="4.81475">
        <ele>275.4</ele>
        <time>2014-03-23T07:31:37Z</time>
      </trkpt>
      <trkpt lat="44.89707" lon="4.81468">
        <ele>275</ele>
        <time>2014-03-23T07:31:39Z</time>
      </trkpt>
      <trkpt lat="44.89703" lon="4.8146">
        <ele>275.1</ele>
        <time>2014-03-23T07:31:41Z</time>
      </trkpt>
      <trkpt lat="44.897" lon="4.81452">
        <ele>276.2</ele>
        <time>2014-03-23T07:31:43Z</time>
      </trkpt>
      <trkpt lat="44.89697" lon="4.81444">
        <ele>276.6</ele>
        <time>2014-03-23T07:31:45Z</time>
      </trkpt>
      <trkpt lat="44.89694" lon="4.81436">
        <ele>276.7</ele>
        <time>2014-03-23T07:31:47Z</time>
      </trkpt>
      <trkpt lat="44.89689" lon="4.81428">
        <ele>276.9</ele>
        <time>2014-03-23T07:31:50Z</time>
      </trkpt>
      <trkpt lat="44.89687" lon="4.81439">
        <ele>278.2</ele>
        <time>2014-03-23T07:31:55Z</time>
      </trkpt>
      <trkpt lat="44.89691" lon="4.81448">
        <ele>279.1</ele>
        <time>2014-03-23T07:31:58Z</time>
      </trkpt>
      <trkpt lat="44.89694" lon="4.81458">
        <ele>279.8</ele>
        <time>2014-03-23T07:32:01Z</time>
      </trkpt>
      <trkpt lat="44.89698" lon="4.81467">
        <ele>280.5</ele>
        <time>2014-03-23T07:32:04Z</time>
      </trkpt>
      <trkpt lat="44.89699" lon="4.8147">
        <ele>280.6</ele>
        <time>2014-03-23T07:32:05Z</time>
      </trkpt>
      <trkpt lat="44.89705" lon="4.81488">
        <ele>282.2</ele>
        <time>2014-03-23T07:32:10Z</time>
      </trkpt>
      <trkpt lat="44.89707" lon="4.81499">
        <ele>282.7</ele>
        <time>2014-03-23T07:32:13Z</time>
      </trkpt>
      <trkpt lat="44.89709" lon="4.8151">
        <ele>283.7</ele>
        <time>2014-03-23T07:32:16Z</time>
      </trkpt>
      <trkpt lat="44.8971" lon="4.81522">
        <ele>283.9</ele>
        <time>2014-03-23T07:32:19Z</time>
      </trkpt>
      <trkpt lat="44.8971" lon="4.81535">
        <ele>284.4</ele>
        <time>2014-03-23T07:32:22Z</time>
      </trkpt>
      <trkpt lat="44.89708" lon="4.81547">
        <ele>285</ele>
        <time>2014-03-23T07:32:25Z</time>
      </trkpt>
      <trkpt lat="44.89706" lon="4.81558">
        <ele>285.1</ele>
        <time>2014-03-23T07:32:28Z</time>
      </trkpt>
      <trkpt lat="44.89701" lon="4.81569">
        <ele>286.1</ele>
        <time>2014-03-23T07:32:31Z</time>
      </trkpt>
      <trkpt lat="44.89695" lon="4.81577">
        <ele>287.1</ele>
        <time>2014-03-23T07:32:34Z</time>
      </trkpt>
      <trkpt lat="44.89689" lon="4.81582">
        <ele>286.9</ele>
        <time>2014-03-23T07:32:37Z</time>
      </trkpt>
      <trkpt lat="44.89682" lon="4.81587">
        <ele>286.9</ele>
        <time>2014-03-23T07:32:40Z</time>
      </trkpt>
      <trkpt lat="44.89675" lon="4.81594">
        <ele>287.1</ele>
        <time>2014-03-23T07:32:44Z</time>
      </trkpt>
      <trkpt lat="44.89667" lon="4.81598">
        <ele>288.2</ele>
        <time>2014-03-23T07:32:53Z</time>
      </trkpt>
      <trkpt lat="44.89665" lon="4.81588">
        <ele>288.9</ele>
        <time>2014-03-23T07:34:37Z</time>
      </trkpt>
      <trkpt lat="44.89665" lon="4.81585">
        <ele>288.9</ele>
        <time>2014-03-23T07:34:38Z</time>
      </trkpt>
      <trkpt lat="44.89666" lon="4.81565">
        <ele>291.2</ele>
        <time>2014-03-23T07:34:46Z</time>
      </trkpt>
      <trkpt lat="44.8967" lon="4.81556">
        <ele>291.7</ele>
        <time>2014-03-23T07:34:51Z</time>
      </trkpt>
      <trkpt lat="44.89674" lon="4.81547">
        <ele>293.1</ele>
        <time>2014-03-23T07:34:56Z</time>
      </trkpt>
      <trkpt lat="44.89678" lon="4.81537">
        <ele>294.2</ele>
        <time>2014-03-23T07:35:00Z</time>
      </trkpt>
      <trkpt lat="44.89679" lon="4.81525">
        <ele>295.5</ele>
        <time>2014-03-23T07:35:05Z</time>
      </trkpt>
      <trkpt lat="44.89676" lon="4.81514">
        <ele>297</ele>
        <time>2014-03-23T07:35:10Z</time>
      </trkpt>
      <trkpt lat="44.89672" lon="4.81504">
        <ele>297.8</ele>
        <time>2014-03-23T07:35:15Z</time>
      </trkpt>
      <trkpt lat="44.89667" lon="4.81494">
        <ele>299.5</ele>
        <time>2014-03-23T07:35:19Z</time>
      </trkpt>
      <trkpt lat="44.89664" lon="4.81484">
        <ele>299.9</ele>
        <time>2014-03-23T07:35:23Z</time>
      </trkpt>
      <trkpt lat="44.89658" lon="4.81474">
        <ele>300.5</ele>
        <time>2014-03-23T07:35:27Z</time>
      </trkpt>
      <trkpt lat="44.89653" lon="4.81464">
        <ele>301.1</ele>
        <time>2014-03-23T07:35:31Z</time>
      </trkpt>
      <trkpt lat="44.89649" lon="4.81454">
        <ele>302</ele>
        <time>2014-03-23T07:35:35Z</time>
      </trkpt>
      <trkpt lat="44.89645" lon="4.81442">
        <ele>302.1</ele>
        <time>2014-03-23T07:35:39Z</time>
      </trkpt>
      <trkpt lat="44.89645" lon="4.81439">
        <ele>302.5</ele>
        <time>2014-03-23T07:35:40Z</time>
      </trkpt>
      <trkpt lat="44.8964" lon="4.81423">
        <ele>303.2</ele>
        <time>2014-03-23T07:35:46Z</time>
      </trkpt>
      <trkpt lat="44.89637" lon="4.81411">
        <ele>304</ele>
        <time>2014-03-23T07:35:50Z</time>
      </trkpt>
      <trkpt lat="44.89634" lon="4.81401">
        <ele>305.3</ele>
        <time>2014-03-23T07:35:54Z</time>
      </trkpt>
      <trkpt lat="44.8963" lon="4.8139">
        <ele>306.5</ele>
        <time>2014-03-23T07:35:58Z</time>
      </trkpt>
      <trkpt lat="44.89625" lon="4.81382">
        <ele>307.8</ele>
        <time>2014-03-23T07:36:02Z</time>
      </trkpt>
      <trkpt lat="44.89618" lon="4.81377">
        <ele>308.7</ele>
        <time>2014-03-23T07:36:07Z</time>
      </trkpt>
      <trkpt lat="44.8961" lon="4.81372">
        <ele>310.6</ele>
        <time>2014-03-23T07:36:12Z</time>
      </trkpt>
      <trkpt lat="44.89604" lon="4.81367">
        <ele>312.3</ele>
        <time>2014-03-23T07:36:17Z</time>
      </trkpt>
      <trkpt lat="44.89596" lon="4.81363">
        <ele>314.1</ele>
        <time>2014-03-23T07:36:22Z</time>
      </trkpt>
      <trkpt lat="44.89588" lon="4.81359">
        <ele>314.6</ele>
        <time>2014-03-23T07:36:27Z</time>
      </trkpt>
      <trkpt lat="44.8958" lon="4.81355">
        <ele>317.2</ele>
        <time>2014-03-23T07:36:33Z</time>
      </trkpt>
      <trkpt lat="44.89574" lon="4.81348">
        <ele>317.9</ele>
        <time>2014-03-23T07:36:37Z</time>
      </trkpt>
      <trkpt lat="44.89568" lon="4.81341">
        <ele>318.5</ele>
        <time>2014-03-23T07:36:42Z</time>
      </trkpt>
      <trkpt lat="44.89567" lon="4.81339">
        <ele>318.2</ele>
        <time>2014-03-23T07:36:43Z</time>
      </trkpt>
      <trkpt lat="44.89561" lon="4.81321">
        <ele>320.8</ele>
        <time>2014-03-23T07:36:52Z</time>
      </trkpt>
      <trkpt lat="44.89559" lon="4.81309">
        <ele>322.5</ele>
        <time>2014-03-23T07:36:57Z</time>
      </trkpt>
      <trkpt lat="44.89558" lon="4.81297">
        <ele>322.7</ele>
        <time>2014-03-23T07:37:03Z</time>
      </trkpt>
      <trkpt lat="44.89557" lon="4.81286">
        <ele>324.2</ele>
        <time>2014-03-23T07:37:09Z</time>
      </trkpt>
      <trkpt lat="44.89556" lon="4.81275">
        <ele>325.6</ele>
        <time>2014-03-23T07:37:14Z</time>
      </trkpt>
      <trkpt lat="44.89554" lon="4.81264">
        <ele>326.9</ele>
        <time>2014-03-23T07:37:20Z</time>
      </trkpt>
      <trkpt lat="44.89552" lon="4.81253">
        <ele>328.3</ele>
        <time>2014-03-23T07:37:25Z</time>
      </trkpt>
      <trkpt lat="44.89548" lon="4.81243">
        <ele>328.4</ele>
        <time>2014-03-23T07:37:30Z</time>
      </trkpt>
      <trkpt lat="44.89543" lon="4.81232">
        <ele>329.6</ele>
        <time>2014-03-23T07:37:35Z</time>
      </trkpt>
      <trkpt lat="44.89538" lon="4.81222">
        <ele>331.5</ele>
        <time>2014-03-23T07:37:40Z</time>
      </trkpt>
      <trkpt lat="44.89533" lon="4.81212">
        <ele>332.8</ele>
        <time>2014-03-23T07:37:46Z</time>
      </trkpt>
      <trkpt lat="44.89532" lon="4.81211">
        <ele>333</ele>
        <time>2014-03-23T07:37:47Z</time>
      </trkpt>
      <trkpt lat="44.89522" lon="4.81195">
        <ele>335.1</ele>
        <time>2014-03-23T07:37:57Z</time>
      </trkpt>
      <trkpt lat="44.89517" lon="4.81186">
        <ele>336.2</ele>
        <time>2014-03-23T07:38:02Z</time>
      </trkpt>
      <trkpt lat="44.8951" lon="4.81177">
        <ele>337.7</ele>
        <time>2014-03-23T07:38:07Z</time>
      </trkpt>
      <trkpt lat="44.89504" lon="4.81169">
        <ele>338.9</ele>
        <time>2014-03-23T07:38:12Z</time>
      </trkpt>
      <trkpt lat="44.895" lon="4.8116">
        <ele>340.1</ele>
        <time>2014-03-23T07:38:17Z</time>
      </trkpt>
      <trkpt lat="44.89494" lon="4.81152">
        <ele>340.7</ele>
        <time>2014-03-23T07:38:22Z</time>
      </trkpt>
      <trkpt lat="44.89488" lon="4.81144">
        <ele>341.1</ele>
        <time>2014-03-23T07:38:27Z</time>
      </trkpt>
      <trkpt lat="44.89483" lon="4.81137">
        <ele>341.7</ele>
        <time>2014-03-23T07:38:31Z</time>
      </trkpt>
      <trkpt lat="44.89477" lon="4.81129">
        <ele>342.8</ele>
        <time>2014-03-23T07:38:35Z</time>
      </trkpt>
      <trkpt lat="44.89473" lon="4.81121">
        <ele>343.2</ele>
        <time>2014-03-23T07:38:39Z</time>
      </trkpt>
      <trkpt lat="44.89466" lon="4.81113">
        <ele>343.7</ele>
        <time>2014-03-23T07:38:44Z</time>
      </trkpt>
      <trkpt lat="44.8946" lon="4.81106">
        <ele>344.5</ele>
        <time>2014-03-23T07:38:48Z</time>
      </trkpt>
      <trkpt lat="44.89459" lon="4.81104">
        <ele>344.5</ele>
        <time>2014-03-23T07:38:49Z</time>
      </trkpt>
      <trkpt lat="44.89449" lon="4.8109">
        <ele>345.7</ele>
        <time>2014-03-23T07:38:56Z</time>
      </trkpt>
      <trkpt lat="44.89443" lon="4.81082">
        <ele>346.2</ele>
        <time>2014-03-23T07:39:00Z</time>
      </trkpt>
      <trkpt lat="44.89437" lon="4.81076">
        <ele>346.6</ele>
        <time>2014-03-23T07:39:04Z</time>
      </trkpt>
      <trkpt lat="44.8943" lon="4.81069">
        <ele>347.7</ele>
        <time>2014-03-23T07:39:08Z</time>
      </trkpt>
      <trkpt lat="44.89424" lon="4.81063">
        <ele>348</ele>
        <time>2014-03-23T07:39:12Z</time>
      </trkpt>
      <trkpt lat="44.89419" lon="4.81054">
        <ele>349</ele>
        <time>2014-03-23T07:39:16Z</time>
      </trkpt>
      <trkpt lat="44.89413" lon="4.81044">
        <ele>350.3</ele>
        <time>2014-03-23T07:39:20Z</time>
      </trkpt>
      <trkpt lat="44.89408" lon="4.81037">
        <ele>350.7</ele>
        <time>2014-03-23T07:39:23Z</time>
      </trkpt>
      <trkpt lat="44.89401" lon="4.8103">
        <ele>351.9</ele>
        <time>2014-03-23T07:39:26Z</time>
      </trkpt>
      <trkpt lat="44.89395" lon="4.81022">
        <ele>352.6</ele>
        <time>2014-03-23T07:39:29Z</time>
      </trkpt>
      <trkpt lat="44.8939" lon="4.81014">
        <ele>353.3</ele>
        <time>2014-03-23T07:39:32Z</time>
      </trkpt>
      <trkpt lat="44.89385" lon="4.81005">
        <ele>353.7</ele>
        <time>2014-03-23T07:39:35Z</time>
      </trkpt>
      <trkpt lat="44.89381" lon="4.80998">
        <ele>354.4</ele>
        <time>2014-03-23T07:39:38Z</time>
      </trkpt>
      <trkpt lat="44.89375" lon="4.8099">
        <ele>354.7</ele>
        <time>2014-03-23T07:39:42Z</time>
      </trkpt>
      <trkpt lat="44.89373" lon="4.8098">
        <ele>355.4</ele>
        <time>2014-03-23T07:39:46Z</time>
      </trkpt>
      <trkpt lat="44.89372" lon="4.80968">
        <ele>357</ele>
        <time>2014-03-23T07:39:51Z</time>
      </trkpt>
      <trkpt lat="44.89371" lon="4.80965">
        <ele>357.4</ele>
        <time>2014-03-23T07:39:52Z</time>
      </trkpt>
      <trkpt lat="44.89366" lon="4.80948">
        <ele>358.4</ele>
        <time>2014-03-23T07:39:58Z</time>
      </trkpt>
      <trkpt lat="44.89364" lon="4.80939">
        <ele>358.6</ele>
        <time>2014-03-23T07:40:01Z</time>
      </trkpt>
      <trkpt lat="44.89361" lon="4.80927">
        <ele>358</ele>
        <time>2014-03-23T07:40:05Z</time>
      </trkpt>
      <trkpt lat="44.89359" lon="4.80915">
        <ele>358.8</ele>
        <time>2014-03-23T07:40:09Z</time>
      </trkpt>
      <trkpt lat="44.89358" lon="4.80903">
        <ele>360.6</ele>
        <time>2014-03-23T07:40:13Z</time>
      </trkpt>
      <trkpt lat="44.89356" lon="4.80892">
        <ele>361.1</ele>
        <time>2014-03-23T07:40:17Z</time>
      </trkpt>
      <trkpt lat="44.89354" lon="4.8088">
        <ele>360.6</ele>
        <time>2014-03-23T07:40:21Z</time>
      </trkpt>
      <trkpt lat="44.89351" lon="4.8087">
        <ele>362.2</ele>
        <time>2014-03-23T07:40:25Z</time>
      </trkpt>
      <trkpt lat="44.89348" lon="4.80859">
        <ele>364</ele>
        <time>2014-03-23T07:40:30Z</time>
      </trkpt>
      <trkpt lat="44.89344" lon="4.8085">
        <ele>364.6</ele>
        <time>2014-03-23T07:40:34Z</time>
      </trkpt>
      <trkpt lat="44.89341" lon="4.80839">
        <ele>365.3</ele>
        <time>2014-03-23T07:40:39Z</time>
      </trkpt>
      <trkpt lat="44.89337" lon="4.80829">
        <ele>366.3</ele>
        <time>2014-03-23T07:40:44Z</time>
      </trkpt>
      <trkpt lat="44.89333" lon="4.80819">
        <ele>368.6</ele>
        <time>2014-03-23T07:40:49Z</time>
      </trkpt>
      <trkpt lat="44.89329" lon="4.80808">
        <ele>368.7</ele>
        <time>2014-03-23T07:40:55Z</time>
      </trkpt>
      <trkpt lat="44.89328" lon="4.80806">
        <ele>369</ele>
        <time>2014-03-23T07:40:56Z</time>
      </trkpt>
      <trkpt lat="44.89319" lon="4.80791">
        <ele>372.4</ele>
        <time>2014-03-23T07:41:05Z</time>
      </trkpt>
      <trkpt lat="44.89313" lon="4.80783">
        <ele>373.5</ele>
        <time>2014-03-23T07:41:10Z</time>
      </trkpt>
      <trkpt lat="44.89308" lon="4.80773">
        <ele>374.4</ele>
        <time>2014-03-23T07:41:15Z</time>
      </trkpt>
      <trkpt lat="44.89303" lon="4.80764">
        <ele>374.2</ele>
        <time>2014-03-23T07:41:20Z</time>
      </trkpt>
      <trkpt lat="44.89298" lon="4.80753">
        <ele>375.1</ele>
        <time>2014-03-23T07:41:25Z</time>
      </trkpt>
      <trkpt lat="44.89293" lon="4.80744">
        <ele>376</ele>
        <time>2014-03-23T07:41:29Z</time>
      </trkpt>
      <trkpt lat="44.89288" lon="4.80734">
        <ele>375.9</ele>
        <time>2014-03-23T07:41:33Z</time>
      </trkpt>
      <trkpt lat="44.89283" lon="4.80726">
        <ele>375.9</ele>
        <time>2014-03-23T07:41:37Z</time>
      </trkpt>
      <trkpt lat="44.89277" lon="4.80717">
        <ele>376.4</ele>
        <time>2014-03-23T07:41:41Z</time>
      </trkpt>
      <trkpt lat="44.89272" lon="4.80709">
        <ele>377</ele>
        <time>2014-03-23T07:41:45Z</time>
      </trkpt>
      <trkpt lat="44.89268" lon="4.80699">
        <ele>377.3</ele>
        <time>2014-03-23T07:41:49Z</time>
      </trkpt>
      <trkpt lat="44.89263" lon="4.8069">
        <ele>377.7</ele>
        <time>2014-03-23T07:41:53Z</time>
      </trkpt>
      <trkpt lat="44.89259" lon="4.80678">
        <ele>378.5</ele>
        <time>2014-03-23T07:41:57Z</time>
      </trkpt>
      <trkpt lat="44.89259" lon="4.80675">
        <ele>378.7</ele>
        <time>2014-03-23T07:41:58Z</time>
      </trkpt>
      <trkpt lat="44.89257" lon="4.80657">
        <ele>378.8</ele>
        <time>2014-03-23T07:42:03Z</time>
      </trkpt>
      <trkpt lat="44.89254" lon="4.80648">
        <ele>378.6</ele>
        <time>2014-03-23T07:42:06Z</time>
      </trkpt>
      <trkpt lat="44.89251" lon="4.80638">
        <ele>378.2</ele>
        <time>2014-03-23T07:42:09Z</time>
      </trkpt>
      <trkpt lat="44.89249" lon="4.80626">
        <ele>378.2</ele>
        <time>2014-03-23T07:42:12Z</time>
      </trkpt>
      <trkpt lat="44.89247" lon="4.80618">
        <ele>378.4</ele>
        <time>2014-03-23T07:42:14Z</time>
      </trkpt>
      <trkpt lat="44.89245" lon="4.80606">
        <ele>379.1</ele>
        <time>2014-03-23T07:42:17Z</time>
      </trkpt>
      <trkpt lat="44.89245" lon="4.80594">
        <ele>378.7</ele>
        <time>2014-03-23T07:42:20Z</time>
      </trkpt>
      <trkpt lat="44.89246" lon="4.80582">
        <ele>379.6</ele>
        <time>2014-03-23T07:42:23Z</time>
      </trkpt>
      <trkpt lat="44.89248" lon="4.80574">
        <ele>379.4</ele>
        <time>2014-03-23T07:42:25Z</time>
      </trkpt>
      <trkpt lat="44.89249" lon="4.80565">
        <ele>379.4</ele>
        <time>2014-03-23T07:42:27Z</time>
      </trkpt>
      <trkpt lat="44.89249" lon="4.80555">
        <ele>379.2</ele>
        <time>2014-03-23T07:42:29Z</time>
      </trkpt>
      <trkpt lat="44.89247" lon="4.80545">
        <ele>379.5</ele>
        <time>2014-03-23T07:42:31Z</time>
      </trkpt>
      <trkpt lat="44.89243" lon="4.80536">
        <ele>379.5</ele>
        <time>2014-03-23T07:42:33Z</time>
      </trkpt>
      <trkpt lat="44.8924" lon="4.80524">
        <ele>379.6</ele>
        <time>2014-03-23T07:42:35Z</time>
      </trkpt>
      <trkpt lat="44.89238" lon="4.80518">
        <ele>379.7</ele>
        <time>2014-03-23T07:42:36Z</time>
      </trkpt>
      <trkpt lat="44.89236" lon="4.80511">
        <ele>379.2</ele>
        <time>2014-03-23T07:42:37Z</time>
      </trkpt>
      <trkpt lat="44.89233" lon="4.80505">
        <ele>378.9</ele>
        <time>2014-03-23T07:42:38Z</time>
      </trkpt>
      <trkpt lat="44.8923" lon="4.80499">
        <ele>378.6</ele>
        <time>2014-03-23T07:42:39Z</time>
      </trkpt>
      <trkpt lat="44.89227" lon="4.80492">
        <ele>378.6</ele>
        <time>2014-03-23T07:42:40Z</time>
      </trkpt>
      <trkpt lat="44.89224" lon="4.80485">
        <ele>378.6</ele>
        <time>2014-03-23T07:42:41Z</time>
      </trkpt>
      <trkpt lat="44.8922" lon="4.80478">
        <ele>378.7</ele>
        <time>2014-03-23T07:42:42Z</time>
      </trkpt>
      <trkpt lat="44.89216" lon="4.80468">
        <ele>378.9</ele>
        <time>2014-03-23T07:42:44Z</time>
      </trkpt>
      <trkpt lat="44.89213" lon="4.80457">
        <ele>378.9</ele>
        <time>2014-03-23T07:42:46Z</time>
      </trkpt>
      <trkpt lat="44.89215" lon="4.80446">
        <ele>379.3</ele>
        <time>2014-03-23T07:42:48Z</time>
      </trkpt>
      <trkpt lat="44.89217" lon="4.80436">
        <ele>379.6</ele>
        <time>2014-03-23T07:42:50Z</time>
      </trkpt>
      <trkpt lat="44.89217" lon="4.80426">
        <ele>379.8</ele>
        <time>2014-03-23T07:42:52Z</time>
      </trkpt>
      <trkpt lat="44.89216" lon="4.80416">
        <ele>380.2</ele>
        <time>2014-03-23T07:42:54Z</time>
      </trkpt>
      <trkpt lat="44.89215" lon="4.80407">
        <ele>380.7</ele>
        <time>2014-03-23T07:42:56Z</time>
      </trkpt>
      <trkpt lat="44.89213" lon="4.80399">
        <ele>381</ele>
        <time>2014-03-23T07:42:58Z</time>
      </trkpt>
      <trkpt lat="44.89212" lon="4.80395">
        <ele>381.4</ele>
        <time>2014-03-23T07:42:59Z</time>
      </trkpt>
      <trkpt lat="44.89206" lon="4.80383">
        <ele>381.5</ele>
        <time>2014-03-23T07:43:02Z</time>
      </trkpt>
      <trkpt lat="44.89202" lon="4.80374">
        <ele>381.4</ele>
        <time>2014-03-23T07:43:04Z</time>
      </trkpt>
      <trkpt lat="44.89198" lon="4.80363">
        <ele>381.5</ele>
        <time>2014-03-23T07:43:06Z</time>
      </trkpt>
      <trkpt lat="44.89196" lon="4.80357">
        <ele>381.5</ele>
        <time>2014-03-23T07:43:07Z</time>
      </trkpt>
      <trkpt lat="44.89194" lon="4.80351">
        <ele>381.6</ele>
        <time>2014-03-23T07:43:08Z</time>
      </trkpt>
      <trkpt lat="44.89191" lon="4.80345">
        <ele>381.7</ele>
        <time>2014-03-23T07:43:09Z</time>
      </trkpt>
      <trkpt lat="44.89187" lon="4.8034">
        <ele>381.7</ele>
        <time>2014-03-23T07:43:10Z</time>
      </trkpt>
      <trkpt lat="44.89184" lon="4.80335">
        <ele>381.8</ele>
        <time>2014-03-23T07:43:11Z</time>
      </trkpt>
      <trkpt lat="44.8918" lon="4.80329">
        <ele>381.9</ele>
        <time>2014-03-23T07:43:12Z</time>
      </trkpt>
      <trkpt lat="44.89176" lon="4.80323">
        <ele>381.3</ele>
        <time>2014-03-23T07:43:13Z</time>
      </trkpt>
      <trkpt lat="44.89171" lon="4.80318">
        <ele>380.8</ele>
        <time>2014-03-23T07:43:14Z</time>
      </trkpt>
      <trkpt lat="44.89167" lon="4.80314">
        <ele>380.5</ele>
        <time>2014-03-23T07:43:15Z</time>
      </trkpt>
      <trkpt lat="44.89162" lon="4.80309">
        <ele>380.2</ele>
        <time>2014-03-23T07:43:16Z</time>
      </trkpt>
      <trkpt lat="44.89157" lon="4.80305">
        <ele>380</ele>
        <time>2014-03-23T07:43:17Z</time>
      </trkpt>
      <trkpt lat="44.89153" lon="4.80301">
        <ele>379.8</ele>
        <time>2014-03-23T07:43:18Z</time>
      </trkpt>
      <trkpt lat="44.89148" lon="4.80297">
        <ele>379.7</ele>
        <time>2014-03-23T07:43:19Z</time>
      </trkpt>
      <trkpt lat="44.89144" lon="4.80293">
        <ele>379.3</ele>
        <time>2014-03-23T07:43:20Z</time>
      </trkpt>
      <trkpt lat="44.89139" lon="4.8029">
        <ele>379</ele>
        <time>2014-03-23T07:43:21Z</time>
      </trkpt>
      <trkpt lat="44.89132" lon="4.80284">
        <ele>378.8</ele>
        <time>2014-03-23T07:43:23Z</time>
      </trkpt>
      <trkpt lat="44.89125" lon="4.80277">
        <ele>379.2</ele>
        <time>2014-03-23T07:43:25Z</time>
      </trkpt>
      <trkpt lat="44.89118" lon="4.80272">
        <ele>379.9</ele>
        <time>2014-03-23T07:43:27Z</time>
      </trkpt>
      <trkpt lat="44.89112" lon="4.80267">
        <ele>380.8</ele>
        <time>2014-03-23T07:43:30Z</time>
      </trkpt>
      <trkpt lat="44.89108" lon="4.80257">
        <ele>383.1</ele>
        <time>2014-03-23T07:43:34Z</time>
      </trkpt>
      <trkpt lat="44.89105" lon="4.80246">
        <ele>385.2</ele>
        <time>2014-03-23T07:43:39Z</time>
      </trkpt>
      <trkpt lat="44.89103" lon="4.80235">
        <ele>386.3</ele>
        <time>2014-03-23T07:43:43Z</time>
      </trkpt>
      <trkpt lat="44.89101" lon="4.80225">
        <ele>386.6</ele>
        <time>2014-03-23T07:43:46Z</time>
      </trkpt>
      <trkpt lat="44.89098" lon="4.80214">
        <ele>387.6</ele>
        <time>2014-03-23T07:43:50Z</time>
      </trkpt>
      <trkpt lat="44.89094" lon="4.80204">
        <ele>387.7</ele>
        <time>2014-03-23T07:43:53Z</time>
      </trkpt>
      <trkpt lat="44.8909" lon="4.80194">
        <ele>387.9</ele>
        <time>2014-03-23T07:43:56Z</time>
      </trkpt>
      <trkpt lat="44.89089" lon="4.80183">
        <ele>388.2</ele>
        <time>2014-03-23T07:43:59Z</time>
      </trkpt>
      <trkpt lat="44.8909" lon="4.8018">
        <ele>388.3</ele>
        <time>2014-03-23T07:44:00Z</time>
      </trkpt>
      <trkpt lat="44.89094" lon="4.80163">
        <ele>387.9</ele>
        <time>2014-03-23T07:44:04Z</time>
      </trkpt>
      <trkpt lat="44.89096" lon="4.80151">
        <ele>389.2</ele>
        <time>2014-03-23T07:44:07Z</time>
      </trkpt>
      <trkpt lat="44.89099" lon="4.8014">
        <ele>387.8</ele>
        <time>2014-03-23T07:44:10Z</time>
      </trkpt>
      <trkpt lat="44.89101" lon="4.80128">
        <ele>387.9</ele>
        <time>2014-03-23T07:44:13Z</time>
      </trkpt>
      <trkpt lat="44.89102" lon="4.80116">
        <ele>388.5</ele>
        <time>2014-03-23T07:44:16Z</time>
      </trkpt>
      <trkpt lat="44.89104" lon="4.80106">
        <ele>389.1</ele>
        <time>2014-03-23T07:44:18Z</time>
      </trkpt>
      <trkpt lat="44.89105" lon="4.80094">
        <ele>389.3</ele>
        <time>2014-03-23T07:44:20Z</time>
      </trkpt>
      <trkpt lat="44.89105" lon="4.80084">
        <ele>389.2</ele>
        <time>2014-03-23T07:44:22Z</time>
      </trkpt>
      <trkpt lat="44.89106" lon="4.80073">
        <ele>388.8</ele>
        <time>2014-03-23T07:44:24Z</time>
      </trkpt>
      <trkpt lat="44.89107" lon="4.80064">
        <ele>388.4</ele>
        <time>2014-03-23T07:44:26Z</time>
      </trkpt>
      <trkpt lat="44.89109" lon="4.80056">
        <ele>388.3</ele>
        <time>2014-03-23T07:44:28Z</time>
      </trkpt>
      <trkpt lat="44.89112" lon="4.80047">
        <ele>388.6</ele>
        <time>2014-03-23T07:44:30Z</time>
      </trkpt>
      <trkpt lat="44.89114" lon="4.80037">
        <ele>388.9</ele>
        <time>2014-03-23T07:44:32Z</time>
      </trkpt>
      <trkpt lat="44.89116" lon="4.80027">
        <ele>389</ele>
        <time>2014-03-23T07:44:34Z</time>
      </trkpt>
      <trkpt lat="44.89116" lon="4.80021">
        <ele>389</ele>
        <time>2014-03-23T07:44:35Z</time>
      </trkpt>
      <trkpt lat="44.89117" lon="4.80014">
        <ele>389.4</ele>
        <time>2014-03-23T07:44:36Z</time>
      </trkpt>
      <trkpt lat="44.89117" lon="4.80007">
        <ele>389.7</ele>
        <time>2014-03-23T07:44:37Z</time>
      </trkpt>
      <trkpt lat="44.89117" lon="4.8">
        <ele>388.8</ele>
        <time>2014-03-23T07:44:38Z</time>
      </trkpt>
      <trkpt lat="44.89117" lon="4.79993">
        <ele>388.1</ele>
        <time>2014-03-23T07:44:39Z</time>
      </trkpt>
      <trkpt lat="44.89117" lon="4.79986">
        <ele>387.5</ele>
        <time>2014-03-23T07:44:40Z</time>
      </trkpt>
      <trkpt lat="44.89118" lon="4.79979">
        <ele>387.3</ele>
        <time>2014-03-23T07:44:41Z</time>
      </trkpt>
      <trkpt lat="44.89118" lon="4.79973">
        <ele>387.1</ele>
        <time>2014-03-23T07:44:42Z</time>
      </trkpt>
      <trkpt lat="44.89119" lon="4.79961">
        <ele>386.8</ele>
        <time>2014-03-23T07:44:44Z</time>
      </trkpt>
      <trkpt lat="44.89121" lon="4.79951">
        <ele>386</ele>
        <time>2014-03-23T07:44:46Z</time>
      </trkpt>
      <trkpt lat="44.89119" lon="4.7994">
        <ele>384.1</ele>
        <time>2014-03-23T07:44:52Z</time>
      </trkpt>
      <trkpt lat="44.89113" lon="4.79932">
        <ele>384.5</ele>
        <time>2014-03-23T07:44:59Z</time>
      </trkpt>
      <trkpt lat="44.89112" lon="4.79943">
        <ele>383.1</ele>
        <time>2014-03-23T07:45:49Z</time>
      </trkpt>
      <trkpt lat="44.89111" lon="4.79945">
        <ele>383</ele>
        <time>2014-03-23T07:45:50Z</time>
      </trkpt>
      <trkpt lat="44.89099" lon="4.79957">
        <ele>385.3</ele>
        <time>2014-03-23T07:46:00Z</time>
      </trkpt>
      <trkpt lat="44.89091" lon="4.7996">
        <ele>385.8</ele>
        <time>2014-03-23T07:46:05Z</time>
      </trkpt>
      <trkpt lat="44.89083" lon="4.79962">
        <ele>387.1</ele>
        <time>2014-03-23T07:46:09Z</time>
      </trkpt>
      <trkpt lat="44.89076" lon="4.79963">
        <ele>388</ele>
        <time>2014-03-23T07:46:13Z</time>
      </trkpt>
      <trkpt lat="44.89068" lon="4.79964">
        <ele>389</ele>
        <time>2014-03-23T07:46:17Z</time>
      </trkpt>
      <trkpt lat="44.8906" lon="4.79964">
        <ele>390.3</ele>
        <time>2014-03-23T07:46:21Z</time>
      </trkpt>
      <trkpt lat="44.89051" lon="4.79966">
        <ele>391</ele>
        <time>2014-03-23T07:46:25Z</time>
      </trkpt>
      <trkpt lat="44.89044" lon="4.79967">
        <ele>391.8</ele>
        <time>2014-03-23T07:46:28Z</time>
      </trkpt>
      <trkpt lat="44.89037" lon="4.79968">
        <ele>392</ele>
        <time>2014-03-23T07:46:31Z</time>
      </trkpt>
      <trkpt lat="44.8903" lon="4.7997">
        <ele>391.2</ele>
        <time>2014-03-23T07:46:34Z</time>
      </trkpt>
      <trkpt lat="44.89023" lon="4.79973">
        <ele>391</ele>
        <time>2014-03-23T07:46:37Z</time>
      </trkpt>
      <trkpt lat="44.89017" lon="4.79978">
        <ele>392</ele>
        <time>2014-03-23T07:46:40Z</time>
      </trkpt>
      <trkpt lat="44.89012" lon="4.79985">
        <ele>392.2</ele>
        <time>2014-03-23T07:46:43Z</time>
      </trkpt>
      <trkpt lat="44.89009" lon="4.79997">
        <ele>392.2</ele>
        <time>2014-03-23T07:46:46Z</time>
      </trkpt>
      <trkpt lat="44.89008" lon="4.80005">
        <ele>392.2</ele>
        <time>2014-03-23T07:46:48Z</time>
      </trkpt>
      <trkpt lat="44.89008" lon="4.80014">
        <ele>392.4</ele>
        <time>2014-03-23T07:46:50Z</time>
      </trkpt>
      <trkpt lat="44.89007" lon="4.80018">
        <ele>392.1</ele>
        <time>2014-03-23T07:46:51Z</time>
      </trkpt>
      <trkpt lat="44.89004" lon="4.80031">
        <ele>391.5</ele>
        <time>2014-03-23T07:46:54Z</time>
      </trkpt>
      <trkpt lat="44.89" lon="4.80038">
        <ele>391.5</ele>
        <time>2014-03-23T07:46:56Z</time>
      </trkpt>
      <trkpt lat="44.88995" lon="4.80043">
        <ele>391.6</ele>
        <time>2014-03-23T07:46:58Z</time>
      </trkpt>
      <trkpt lat="44.88989" lon="4.80046">
        <ele>391.8</ele>
        <time>2014-03-23T07:47:00Z</time>
      </trkpt>
      <trkpt lat="44.8898" lon="4.80048">
        <ele>391.7</ele>
        <time>2014-03-23T07:47:03Z</time>
      </trkpt>
      <trkpt lat="44.88972" lon="4.80049">
        <ele>391.9</ele>
        <time>2014-03-23T07:47:06Z</time>
      </trkpt>
      <trkpt lat="44.88966" lon="4.80049">
        <ele>391.3</ele>
        <time>2014-03-23T07:47:08Z</time>
      </trkpt>
      <trkpt lat="44.8896" lon="4.80049">
        <ele>391.1</ele>
        <time>2014-03-23T07:47:10Z</time>
      </trkpt>
      <trkpt lat="44.88953" lon="4.80049">
        <ele>391.2</ele>
        <time>2014-03-23T07:47:12Z</time>
      </trkpt>
      <trkpt lat="44.88946" lon="4.80049">
        <ele>391.2</ele>
        <time>2014-03-23T07:47:14Z</time>
      </trkpt>
      <trkpt lat="44.88939" lon="4.8005">
        <ele>391.2</ele>
        <time>2014-03-23T07:47:16Z</time>
      </trkpt>
      <trkpt lat="44.88931" lon="4.80049">
        <ele>390.4</ele>
        <time>2014-03-23T07:47:18Z</time>
      </trkpt>
      <trkpt lat="44.88923" lon="4.80048">
        <ele>390.3</ele>
        <time>2014-03-23T07:47:20Z</time>
      </trkpt>
      <trkpt lat="44.88916" lon="4.80048">
        <ele>390.5</ele>
        <time>2014-03-23T07:47:22Z</time>
      </trkpt>
      <trkpt lat="44.88908" lon="4.80048">
        <ele>390.6</ele>
        <time>2014-03-23T07:47:24Z</time>
      </trkpt>
      <trkpt lat="44.88901" lon="4.80048">
        <ele>389.9</ele>
        <time>2014-03-23T07:47:26Z</time>
      </trkpt>
      <trkpt lat="44.88894" lon="4.80048">
        <ele>389.8</ele>
        <time>2014-03-23T07:47:28Z</time>
      </trkpt>
      <trkpt lat="44.88887" lon="4.80049">
        <ele>390</ele>
        <time>2014-03-23T07:47:30Z</time>
      </trkpt>
      <trkpt lat="44.88879" lon="4.80051">
        <ele>389.9</ele>
        <time>2014-03-23T07:47:32Z</time>
      </trkpt>
      <trkpt lat="44.88872" lon="4.80053">
        <ele>389.9</ele>
        <time>2014-03-23T07:47:34Z</time>
      </trkpt>
      <trkpt lat="44.88865" lon="4.80056">
        <ele>390.1</ele>
        <time>2014-03-23T07:47:36Z</time>
      </trkpt>
      <trkpt lat="44.88858" lon="4.80059">
        <ele>390.2</ele>
        <time>2014-03-23T07:47:38Z</time>
      </trkpt>
      <trkpt lat="44.88851" lon="4.80064">
        <ele>391</ele>
        <time>2014-03-23T07:47:40Z</time>
      </trkpt>
      <trkpt lat="44.88844" lon="4.80069">
        <ele>390.7</ele>
        <time>2014-03-23T07:47:42Z</time>
      </trkpt>
      <trkpt lat="44.88838" lon="4.80076">
        <ele>390.6</ele>
        <time>2014-03-23T07:47:44Z</time>
      </trkpt>
      <trkpt lat="44.88832" lon="4.80084">
        <ele>390.1</ele>
        <time>2014-03-23T07:47:46Z</time>
      </trkpt>
      <trkpt lat="44.88826" lon="4.80091">
        <ele>390</ele>
        <time>2014-03-23T07:47:48Z</time>
      </trkpt>
      <trkpt lat="44.88819" lon="4.80097">
        <ele>390.3</ele>
        <time>2014-03-23T07:47:50Z</time>
      </trkpt>
      <trkpt lat="44.88813" lon="4.80102">
        <ele>389.4</ele>
        <time>2014-03-23T07:47:52Z</time>
      </trkpt>
      <trkpt lat="44.8881" lon="4.80105">
        <ele>389.3</ele>
        <time>2014-03-23T07:47:53Z</time>
      </trkpt>
      <trkpt lat="44.88801" lon="4.80114">
        <ele>389.2</ele>
        <time>2014-03-23T07:47:57Z</time>
      </trkpt>
      <trkpt lat="44.88796" lon="4.80119">
        <ele>389.2</ele>
        <time>2014-03-23T07:47:59Z</time>
      </trkpt>
      <trkpt lat="44.88789" lon="4.80126">
        <ele>389.3</ele>
        <time>2014-03-23T07:48:02Z</time>
      </trkpt>
      <trkpt lat="44.88782" lon="4.80134">
        <ele>390.4</ele>
        <time>2014-03-23T07:48:05Z</time>
      </trkpt>
      <trkpt lat="44.88777" lon="4.80142">
        <ele>390.8</ele>
        <time>2014-03-23T07:48:08Z</time>
      </trkpt>
      <trkpt lat="44.88771" lon="4.80151">
        <ele>391.2</ele>
        <time>2014-03-23T07:48:11Z</time>
      </trkpt>
      <trkpt lat="44.88765" lon="4.80159">
        <ele>391.8</ele>
        <time>2014-03-23T07:48:14Z</time>
      </trkpt>
      <trkpt lat="44.8876" lon="4.80168">
        <ele>392.5</ele>
        <time>2014-03-23T07:48:17Z</time>
      </trkpt>
      <trkpt lat="44.88755" lon="4.80175">
        <ele>393.6</ele>
        <time>2014-03-23T07:48:20Z</time>
      </trkpt>
      <trkpt lat="44.88749" lon="4.80184">
        <ele>394.6</ele>
        <time>2014-03-23T07:48:24Z</time>
      </trkpt>
      <trkpt lat="44.88743" lon="4.80193">
        <ele>395.5</ele>
        <time>2014-03-23T07:48:28Z</time>
      </trkpt>
      <trkpt lat="44.88737" lon="4.80203">
        <ele>396.9</ele>
        <time>2014-03-23T07:48:32Z</time>
      </trkpt>
      <trkpt lat="44.88732" lon="4.80213">
        <ele>397.7</ele>
        <time>2014-03-23T07:48:36Z</time>
      </trkpt>
      <trkpt lat="44.88724" lon="4.80229">
        <ele>399</ele>
        <time>2014-03-23T07:48:42Z</time>
      </trkpt>
      <trkpt lat="44.8872" lon="4.80239">
        <ele>400.2</ele>
        <time>2014-03-23T07:48:46Z</time>
      </trkpt>
      <trkpt lat="44.88716" lon="4.80249">
        <ele>400.8</ele>
        <time>2014-03-23T07:48:50Z</time>
      </trkpt>
      <trkpt lat="44.88713" lon="4.80258">
        <ele>400.5</ele>
        <time>2014-03-23T07:48:54Z</time>
      </trkpt>
      <trkpt lat="44.88712" lon="4.8026">
        <ele>400.6</ele>
        <time>2014-03-23T07:48:55Z</time>
      </trkpt>
      <trkpt lat="44.88706" lon="4.80285">
        <ele>403</ele>
        <time>2014-03-23T07:49:03Z</time>
      </trkpt>
      <trkpt lat="44.88704" lon="4.80296">
        <ele>404.6</ele>
        <time>2014-03-23T07:49:07Z</time>
      </trkpt>
      <trkpt lat="44.88701" lon="4.80306">
        <ele>404.5</ele>
        <time>2014-03-23T07:49:10Z</time>
      </trkpt>
      <trkpt lat="44.88697" lon="4.80316">
        <ele>404.9</ele>
        <time>2014-03-23T07:49:13Z</time>
      </trkpt>
      <trkpt lat="44.88694" lon="4.80325">
        <ele>405.5</ele>
        <time>2014-03-23T07:49:16Z</time>
      </trkpt>
      <trkpt lat="44.8869" lon="4.80333">
        <ele>406.1</ele>
        <time>2014-03-23T07:49:19Z</time>
      </trkpt>
      <trkpt lat="44.88684" lon="4.80342">
        <ele>406.4</ele>
        <time>2014-03-23T07:49:22Z</time>
      </trkpt>
      <trkpt lat="44.88679" lon="4.80351">
        <ele>406</ele>
        <time>2014-03-23T07:49:25Z</time>
      </trkpt>
      <trkpt lat="44.88673" lon="4.80359">
        <ele>406.4</ele>
        <time>2014-03-23T07:49:28Z</time>
      </trkpt>
      <trkpt lat="44.88667" lon="4.80367">
        <ele>406.4</ele>
        <time>2014-03-23T07:49:31Z</time>
      </trkpt>
      <trkpt lat="44.88661" lon="4.80375">
        <ele>406.6</ele>
        <time>2014-03-23T07:49:34Z</time>
      </trkpt>
      <trkpt lat="44.88655" lon="4.80383">
        <ele>406.4</ele>
        <time>2014-03-23T07:49:37Z</time>
      </trkpt>
      <trkpt lat="44.88649" lon="4.80392">
        <ele>406.3</ele>
        <time>2014-03-23T07:49:40Z</time>
      </trkpt>
      <trkpt lat="44.88643" lon="4.80398">
        <ele>407</ele>
        <time>2014-03-23T07:49:43Z</time>
      </trkpt>
      <trkpt lat="44.88636" lon="4.80403">
        <ele>407.3</ele>
        <time>2014-03-23T07:49:46Z</time>
      </trkpt>
      <trkpt lat="44.88629" lon="4.80407">
        <ele>407.9</ele>
        <time>2014-03-23T07:49:49Z</time>
      </trkpt>
      <trkpt lat="44.88622" lon="4.80413">
        <ele>408.9</ele>
        <time>2014-03-23T07:49:52Z</time>
      </trkpt>
      <trkpt lat="44.88615" lon="4.80421">
        <ele>409.9</ele>
        <time>2014-03-23T07:49:55Z</time>
      </trkpt>
      <trkpt lat="44.88613" lon="4.80424">
        <ele>410.2</ele>
        <time>2014-03-23T07:49:56Z</time>
      </trkpt>
      <trkpt lat="44.88604" lon="4.80437">
        <ele>410.3</ele>
        <time>2014-03-23T07:50:01Z</time>
      </trkpt>
      <trkpt lat="44.88599" lon="4.80445">
        <ele>410.1</ele>
        <time>2014-03-23T07:50:04Z</time>
      </trkpt>
      <trkpt lat="44.88594" lon="4.80454">
        <ele>410.3</ele>
        <time>2014-03-23T07:50:07Z</time>
      </trkpt>
      <trkpt lat="44.88589" lon="4.80463">
        <ele>410.2</ele>
        <time>2014-03-23T07:50:10Z</time>
      </trkpt>
      <trkpt lat="44.88585" lon="4.80473">
        <ele>410.1</ele>
        <time>2014-03-23T07:50:13Z</time>
      </trkpt>
      <trkpt lat="44.88581" lon="4.80483">
        <ele>410</ele>
        <time>2014-03-23T07:50:16Z</time>
      </trkpt>
      <trkpt lat="44.88579" lon="4.80494">
        <ele>410.1</ele>
        <time>2014-03-23T07:50:19Z</time>
      </trkpt>
      <trkpt lat="44.8858" lon="4.80505">
        <ele>409.6</ele>
        <time>2014-03-23T07:50:22Z</time>
      </trkpt>
      <trkpt lat="44.88585" lon="4.80513">
        <ele>410.4</ele>
        <time>2014-03-23T07:50:25Z</time>
      </trkpt>
      <trkpt lat="44.88593" lon="4.80513">
        <ele>410.8</ele>
        <time>2014-03-23T07:50:28Z</time>
      </trkpt>
      <trkpt lat="44.886" lon="4.80508">
        <ele>411.7</ele>
        <time>2014-03-23T07:50:31Z</time>
      </trkpt>
      <trkpt lat="44.88604" lon="4.80499">
        <ele>411.5</ele>
        <time>2014-03-23T07:50:35Z</time>
      </trkpt>
      <trkpt lat="44.88607" lon="4.80489">
        <ele>411.7</ele>
        <time>2014-03-23T07:50:39Z</time>
      </trkpt>
      <trkpt lat="44.88611" lon="4.80479">
        <ele>412.8</ele>
        <time>2014-03-23T07:50:43Z</time>
      </trkpt>
      <trkpt lat="44.88616" lon="4.80469">
        <ele>413.8</ele>
        <time>2014-03-23T07:50:47Z</time>
      </trkpt>
      <trkpt lat="44.88622" lon="4.80461">
        <ele>415</ele>
        <time>2014-03-23T07:50:51Z</time>
      </trkpt>
      <trkpt lat="44.8863" lon="4.80454">
        <ele>415.7</ele>
        <time>2014-03-23T07:50:55Z</time>
      </trkpt>
      <trkpt lat="44.88638" lon="4.80449">
        <ele>416.2</ele>
        <time>2014-03-23T07:50:59Z</time>
      </trkpt>
      <trkpt lat="44.8864" lon="4.80448">
        <ele>416.3</ele>
        <time>2014-03-23T07:51:00Z</time>
      </trkpt>
      <trkpt lat="44.88653" lon="4.80441">
        <ele>418.7</ele>
        <time>2014-03-23T07:51:07Z</time>
      </trkpt>
      <trkpt lat="44.88661" lon="4.80437">
        <ele>419.6</ele>
        <time>2014-03-23T07:51:11Z</time>
      </trkpt>
      <trkpt lat="44.8867" lon="4.80433">
        <ele>420.7</ele>
        <time>2014-03-23T07:51:15Z</time>
      </trkpt>
      <trkpt lat="44.88678" lon="4.80429">
        <ele>421.3</ele>
        <time>2014-03-23T07:51:19Z</time>
      </trkpt>
      <trkpt lat="44.88686" lon="4.80428">
        <ele>422</ele>
        <time>2014-03-23T07:51:23Z</time>
      </trkpt>
      <trkpt lat="44.88692" lon="4.80435">
        <ele>422.8</ele>
        <time>2014-03-23T07:51:27Z</time>
      </trkpt>
      <trkpt lat="44.88698" lon="4.80444">
        <ele>423.9</ele>
        <time>2014-03-23T07:51:31Z</time>
      </trkpt>
      <trkpt lat="44.88704" lon="4.80452">
        <ele>425.1</ele>
        <time>2014-03-23T07:51:35Z</time>
      </trkpt>
      <trkpt lat="44.88711" lon="4.80458">
        <ele>423.6</ele>
        <time>2014-03-23T07:51:39Z</time>
      </trkpt>
      <trkpt lat="44.88717" lon="4.80464">
        <ele>424</ele>
        <time>2014-03-23T07:51:43Z</time>
      </trkpt>
      <trkpt lat="44.88724" lon="4.8047">
        <ele>424</ele>
        <time>2014-03-23T07:51:46Z</time>
      </trkpt>
      <trkpt lat="44.8873" lon="4.80479">
        <ele>423.3</ele>
        <time>2014-03-23T07:51:49Z</time>
      </trkpt>
      <trkpt lat="44.88736" lon="4.80485">
        <ele>422.8</ele>
        <time>2014-03-23T07:51:52Z</time>
      </trkpt>
      <trkpt lat="44.88742" lon="4.80494">
        <ele>422.9</ele>
        <time>2014-03-23T07:51:55Z</time>
      </trkpt>
      <trkpt lat="44.88746" lon="4.80503">
        <ele>422.8</ele>
        <time>2014-03-23T07:51:57Z</time>
      </trkpt>
      <trkpt lat="44.88751" lon="4.80512">
        <ele>422.3</ele>
        <time>2014-03-23T07:51:59Z</time>
      </trkpt>
      <trkpt lat="44.88754" lon="4.80517">
        <ele>422</ele>
        <time>2014-03-23T07:52:00Z</time>
      </trkpt>
      <trkpt lat="44.88757" lon="4.80522">
        <ele>421.7</ele>
        <time>2014-03-23T07:52:01Z</time>
      </trkpt>
      <trkpt lat="44.88761" lon="4.80526">
        <ele>421.2</ele>
        <time>2014-03-23T07:52:02Z</time>
      </trkpt>
      <trkpt lat="44.88765" lon="4.8053">
        <ele>420.9</ele>
        <time>2014-03-23T07:52:03Z</time>
      </trkpt>
      <trkpt lat="44.8877" lon="4.80534">
        <ele>420.6</ele>
        <time>2014-03-23T07:52:04Z</time>
      </trkpt>
      <trkpt lat="44.88774" lon="4.80536">
        <ele>419.7</ele>
        <time>2014-03-23T07:52:05Z</time>
      </trkpt>
      <trkpt lat="44.88779" lon="4.80539">
        <ele>419.1</ele>
        <time>2014-03-23T07:52:06Z</time>
      </trkpt>
      <trkpt lat="44.88787" lon="4.80542">
        <ele>419</ele>
        <time>2014-03-23T07:52:08Z</time>
      </trkpt>
      <trkpt lat="44.88795" lon="4.80542">
        <ele>418</ele>
        <time>2014-03-23T07:52:11Z</time>
      </trkpt>
      <trkpt lat="44.88802" lon="4.80544">
        <ele>418.6</ele>
        <time>2014-03-23T07:52:14Z</time>
      </trkpt>
      <trkpt lat="44.88809" lon="4.8055">
        <ele>418.7</ele>
        <time>2014-03-23T07:52:17Z</time>
      </trkpt>
      <trkpt lat="44.88815" lon="4.80558">
        <ele>418.4</ele>
        <time>2014-03-23T07:52:20Z</time>
      </trkpt>
      <trkpt lat="44.88814" lon="4.8057">
        <ele>416.1</ele>
        <time>2014-03-23T07:52:26Z</time>
      </trkpt>
      <trkpt lat="44.88818" lon="4.80581">
        <ele>407.6</ele>
        <time>2014-03-23T07:52:37Z</time>
      </trkpt>
      <trkpt lat="44.88825" lon="4.80584">
        <ele>405.2</ele>
        <time>2014-03-23T07:52:43Z</time>
      </trkpt>
      <trkpt lat="44.88833" lon="4.80589">
        <ele>401.4</ele>
        <time>2014-03-23T07:52:58Z</time>
      </trkpt>
      <trkpt lat="44.88839" lon="4.80597">
        <ele>399.9</ele>
        <time>2014-03-23T07:53:05Z</time>
      </trkpt>
      <trkpt lat="44.8884" lon="4.80598">
        <ele>398.8</ele>
        <time>2014-03-23T07:53:06Z</time>
      </trkpt>
      <trkpt lat="44.88843" lon="4.80618">
        <ele>389.5</ele>
        <time>2014-03-23T07:53:17Z</time>
      </trkpt>
      <trkpt lat="44.88851" lon="4.80624">
        <ele>384.8</ele>
        <time>2014-03-23T07:53:22Z</time>
      </trkpt>
      <trkpt lat="44.88859" lon="4.80629">
        <ele>380.4</ele>
        <time>2014-03-23T07:53:27Z</time>
      </trkpt>
      <trkpt lat="44.88864" lon="4.80637">
        <ele>377</ele>
        <time>2014-03-23T07:53:31Z</time>
      </trkpt>
      <trkpt lat="44.88871" lon="4.80646">
        <ele>372.1</ele>
        <time>2014-03-23T07:53:37Z</time>
      </trkpt>
      <trkpt lat="44.88877" lon="4.80651">
        <ele>368.1</ele>
        <time>2014-03-23T07:53:41Z</time>
      </trkpt>
      <trkpt lat="44.88884" lon="4.80652">
        <ele>365.6</ele>
        <time>2014-03-23T07:53:44Z</time>
      </trkpt>
      <trkpt lat="44.88892" lon="4.80655">
        <ele>363.4</ele>
        <time>2014-03-23T07:53:48Z</time>
      </trkpt>
      <trkpt lat="44.88901" lon="4.80652">
        <ele>359.4</ele>
        <time>2014-03-23T07:53:52Z</time>
      </trkpt>
      <trkpt lat="44.88908" lon="4.8065">
        <ele>357.5</ele>
        <time>2014-03-23T07:53:55Z</time>
      </trkpt>
      <trkpt lat="44.88916" lon="4.8065">
        <ele>355.8</ele>
        <time>2014-03-23T07:53:58Z</time>
      </trkpt>
      <trkpt lat="44.88923" lon="4.80654">
        <ele>353.3</ele>
        <time>2014-03-23T07:54:03Z</time>
      </trkpt>
      <trkpt lat="44.88932" lon="4.80657">
        <ele>349.4</ele>
        <time>2014-03-23T07:54:19Z</time>
      </trkpt>
      <trkpt lat="44.88932" lon="4.80657">
        <ele>349</ele>
        <time>2014-03-23T07:54:20Z</time>
      </trkpt>
      <trkpt lat="44.88933" lon="4.80671">
        <ele>342.2</ele>
        <time>2014-03-23T07:56:04Z</time>
      </trkpt>
      <trkpt lat="44.88925" lon="4.80682">
        <ele>339.3</ele>
        <time>2014-03-23T07:56:09Z</time>
      </trkpt>
      <trkpt lat="44.8892" lon="4.8069">
        <ele>337.8</ele>
        <time>2014-03-23T07:56:12Z</time>
      </trkpt>
      <trkpt lat="44.88914" lon="4.80696">
        <ele>336.8</ele>
        <time>2014-03-23T07:56:15Z</time>
      </trkpt>
      <trkpt lat="44.88909" lon="4.80702">
        <ele>334.8</ele>
        <time>2014-03-23T07:56:17Z</time>
      </trkpt>
      <trkpt lat="44.88905" lon="4.80712">
        <ele>332.5</ele>
        <time>2014-03-23T07:56:20Z</time>
      </trkpt>
      <trkpt lat="44.88905" lon="4.80724">
        <ele>325.4</ele>
        <time>2014-03-23T07:56:27Z</time>
      </trkpt>
      <trkpt lat="44.889" lon="4.80733">
        <ele>320.4</ele>
        <time>2014-03-23T07:56:33Z</time>
      </trkpt>
      <trkpt lat="44.88896" lon="4.80741">
        <ele>318.5</ele>
        <time>2014-03-23T07:56:36Z</time>
      </trkpt>
      <trkpt lat="44.88891" lon="4.80751">
        <ele>314.6</ele>
        <time>2014-03-23T07:56:40Z</time>
      </trkpt>
      <trkpt lat="44.88886" lon="4.80758">
        <ele>310.2</ele>
        <time>2014-03-23T07:56:44Z</time>
      </trkpt>
      <trkpt lat="44.8888" lon="4.80766">
        <ele>305.5</ele>
        <time>2014-03-23T07:56:49Z</time>
      </trkpt>
      <trkpt lat="44.88874" lon="4.80774">
        <ele>301.9</ele>
        <time>2014-03-23T07:56:54Z</time>
      </trkpt>
      <trkpt lat="44.88868" lon="4.8078">
        <ele>299.6</ele>
        <time>2014-03-23T07:56:58Z</time>
      </trkpt>
      <trkpt lat="44.88861" lon="4.80786">
        <ele>297.9</ele>
        <time>2014-03-23T07:57:02Z</time>
      </trkpt>
      <trkpt lat="44.88853" lon="4.80789">
        <ele>295.3</ele>
        <time>2014-03-23T07:57:07Z</time>
      </trkpt>
      <trkpt lat="44.8885" lon="4.80789">
        <ele>295.2</ele>
        <time>2014-03-23T07:57:08Z</time>
      </trkpt>
      <trkpt lat="44.8884" lon="4.80798">
        <ele>292</ele>
        <time>2014-03-23T07:57:15Z</time>
      </trkpt>
      <trkpt lat="44.88833" lon="4.80802">
        <ele>291.7</ele>
        <time>2014-03-23T07:57:18Z</time>
      </trkpt>
      <trkpt lat="44.88825" lon="4.80804">
        <ele>290.1</ele>
        <time>2014-03-23T07:57:21Z</time>
      </trkpt>
      <trkpt lat="44.88818" lon="4.80809">
        <ele>288.8</ele>
        <time>2014-03-23T07:57:25Z</time>
      </trkpt>
      <trkpt lat="44.88812" lon="4.80815">
        <ele>286.8</ele>
        <time>2014-03-23T07:57:29Z</time>
      </trkpt>
      <trkpt lat="44.88806" lon="4.80823">
        <ele>284.1</ele>
        <time>2014-03-23T07:57:33Z</time>
      </trkpt>
      <trkpt lat="44.88798" lon="4.80829">
        <ele>282</ele>
        <time>2014-03-23T07:57:36Z</time>
      </trkpt>
      <trkpt lat="44.88791" lon="4.80836">
        <ele>279.5</ele>
        <time>2014-03-23T07:57:41Z</time>
      </trkpt>
      <trkpt lat="44.88784" lon="4.80843">
        <ele>273.9</ele>
        <time>2014-03-23T07:57:46Z</time>
      </trkpt>
      <trkpt lat="44.88783" lon="4.80855">
        <ele>267.9</ele>
        <time>2014-03-23T07:57:53Z</time>
      </trkpt>
      <trkpt lat="44.88787" lon="4.80863">
        <ele>265.7</ele>
        <time>2014-03-23T07:57:56Z</time>
      </trkpt>
      <trkpt lat="44.88789" lon="4.80873">
        <ele>262.2</ele>
        <time>2014-03-23T07:58:02Z</time>
      </trkpt>
      <trkpt lat="44.88784" lon="4.80882">
        <ele>259.7</ele>
        <time>2014-03-23T07:58:07Z</time>
      </trkpt>
      <trkpt lat="44.88777" lon="4.80888">
        <ele>257.8</ele>
        <time>2014-03-23T07:58:11Z</time>
      </trkpt>
      <trkpt lat="44.88777" lon="4.8089">
        <ele>256.7</ele>
        <time>2014-03-23T07:58:12Z</time>
      </trkpt>
      <trkpt lat="44.8878" lon="4.80908">
        <ele>251.7</ele>
        <time>2014-03-23T07:58:21Z</time>
      </trkpt>
      <trkpt lat="44.88781" lon="4.80919">
        <ele>248.7</ele>
        <time>2014-03-23T07:58:25Z</time>
      </trkpt>
      <trkpt lat="44.88784" lon="4.80931">
        <ele>244.1</ele>
        <time>2014-03-23T07:58:31Z</time>
      </trkpt>
      <trkpt lat="44.88787" lon="4.80943">
        <ele>239.9</ele>
        <time>2014-03-23T07:58:36Z</time>
      </trkpt>
      <trkpt lat="44.88789" lon="4.80955">
        <ele>235.3</ele>
        <time>2014-03-23T07:58:47Z</time>
      </trkpt>
      <trkpt lat="44.88791" lon="4.80967">
        <ele>231.4</ele>
        <time>2014-03-23T07:59:04Z</time>
      </trkpt>
      <trkpt lat="44.88785" lon="4.80976">
        <ele>228.1</ele>
        <time>2014-03-23T08:00:38Z</time>
      </trkpt>
      <trkpt lat="44.88783" lon="4.80977">
        <ele>228.1</ele>
        <time>2014-03-23T08:00:39Z</time>
      </trkpt>
      <trkpt lat="44.88772" lon="4.80979">
        <ele>227.9</ele>
        <time>2014-03-23T08:00:43Z</time>
      </trkpt>
      <trkpt lat="44.88765" lon="4.80982">
        <ele>227.2</ele>
        <time>2014-03-23T08:00:45Z</time>
      </trkpt>
      <trkpt lat="44.88758" lon="4.80985">
        <ele>226.5</ele>
        <time>2014-03-23T08:00:47Z</time>
      </trkpt>
      <trkpt lat="44.88751" lon="4.8099">
        <ele>226.1</ele>
        <time>2014-03-23T08:00:49Z</time>
      </trkpt>
      <trkpt lat="44.88744" lon="4.80997">
        <ele>225.5</ele>
        <time>2014-03-23T08:00:51Z</time>
      </trkpt>
      <trkpt lat="44.88737" lon="4.81004">
        <ele>224.8</ele>
        <time>2014-03-23T08:00:53Z</time>
      </trkpt>
      <trkpt lat="44.88729" lon="4.8101">
        <ele>223.9</ele>
        <time>2014-03-23T08:00:55Z</time>
      </trkpt>
      <trkpt lat="44.88723" lon="4.81013">
        <ele>222.4</ele>
        <time>2014-03-23T08:00:57Z</time>
      </trkpt>
      <trkpt lat="44.88716" lon="4.81016">
        <ele>221.6</ele>
        <time>2014-03-23T08:00:59Z</time>
      </trkpt>
      <trkpt lat="44.88708" lon="4.81018">
        <ele>220.3</ele>
        <time>2014-03-23T08:01:02Z</time>
      </trkpt>
      <trkpt lat="44.88701" lon="4.81019">
        <ele>220.6</ele>
        <time>2014-03-23T08:01:04Z</time>
      </trkpt>
      <trkpt lat="44.88695" lon="4.81018">
        <ele>220.2</ele>
        <time>2014-03-23T08:01:06Z</time>
      </trkpt>
      <trkpt lat="44.88687" lon="4.8102">
        <ele>220.6</ele>
        <time>2014-03-23T08:01:09Z</time>
      </trkpt>
      <trkpt lat="44.8868" lon="4.81021">
        <ele>220.9</ele>
        <time>2014-03-23T08:01:12Z</time>
      </trkpt>
      <trkpt lat="44.88671" lon="4.81023">
        <ele>219.8</ele>
        <time>2014-03-23T08:01:15Z</time>
      </trkpt>
      <trkpt lat="44.88663" lon="4.81025">
        <ele>219.2</ele>
        <time>2014-03-23T08:01:18Z</time>
      </trkpt>
      <trkpt lat="44.88655" lon="4.81026">
        <ele>218.8</ele>
        <time>2014-03-23T08:01:21Z</time>
      </trkpt>
      <trkpt lat="44.88648" lon="4.81028">
        <ele>218.7</ele>
        <time>2014-03-23T08:01:24Z</time>
      </trkpt>
      <trkpt lat="44.88641" lon="4.81027">
        <ele>217.8</ele>
        <time>2014-03-23T08:01:27Z</time>
      </trkpt>
      <trkpt lat="44.88634" lon="4.81026">
        <ele>217.2</ele>
        <time>2014-03-23T08:01:30Z</time>
      </trkpt>
      <trkpt lat="44.88625" lon="4.81022">
        <ele>216.6</ele>
        <time>2014-03-23T08:01:34Z</time>
      </trkpt>
      <trkpt lat="44.88618" lon="4.81018">
        <ele>216.2</ele>
        <time>2014-03-23T08:01:37Z</time>
      </trkpt>
      <trkpt lat="44.8861" lon="4.81014">
        <ele>216.9</ele>
        <time>2014-03-23T08:01:40Z</time>
      </trkpt>
      <trkpt lat="44.88608" lon="4.81013">
        <ele>216.5</ele>
        <time>2014-03-23T08:01:41Z</time>
      </trkpt>
      <trkpt lat="44.88595" lon="4.81011">
        <ele>216.3</ele>
        <time>2014-03-23T08:01:46Z</time>
      </trkpt>
      <trkpt lat="44.88589" lon="4.81011">
        <ele>216.5</ele>
        <time>2014-03-23T08:01:48Z</time>
      </trkpt>
      <trkpt lat="44.88583" lon="4.81011">
        <ele>216.4</ele>
        <time>2014-03-23T08:01:50Z</time>
      </trkpt>
      <trkpt lat="44.88576" lon="4.81012">
        <ele>215.9</ele>
        <time>2014-03-23T08:01:52Z</time>
      </trkpt>
      <trkpt lat="44.88568" lon="4.81012">
        <ele>214.9</ele>
        <time>2014-03-23T08:01:54Z</time>
      </trkpt>
      <trkpt lat="44.8856" lon="4.81014">
        <ele>214.2</ele>
        <time>2014-03-23T08:01:56Z</time>
      </trkpt>
      <trkpt lat="44.88554" lon="4.81015">
        <ele>214.1</ele>
        <time>2014-03-23T08:01:58Z</time>
      </trkpt>
      <trkpt lat="44.88547" lon="4.81017">
        <ele>214.2</ele>
        <time>2014-03-23T08:02:00Z</time>
      </trkpt>
      <trkpt lat="44.88541" lon="4.81018">
        <ele>214.1</ele>
        <time>2014-03-23T08:02:02Z</time>
      </trkpt>
      <trkpt lat="44.88532" lon="4.81019">
        <ele>213.6</ele>
        <time>2014-03-23T08:02:05Z</time>
      </trkpt>
      <trkpt lat="44.88524" lon="4.8102">
        <ele>213.4</ele>
        <time>2014-03-23T08:02:08Z</time>
      </trkpt>
      <trkpt lat="44.88517" lon="4.81022">
        <ele>213.5</ele>
        <time>2014-03-23T08:02:10Z</time>
      </trkpt>
      <trkpt lat="44.88511" lon="4.81024">
        <ele>214.3</ele>
        <time>2014-03-23T08:02:12Z</time>
      </trkpt>
      <trkpt lat="44.88504" lon="4.81028">
        <ele>215.6</ele>
        <time>2014-03-23T08:02:15Z</time>
      </trkpt>
      <trkpt lat="44.88496" lon="4.81033">
        <ele>216</ele>
        <time>2014-03-23T08:02:18Z</time>
      </trkpt>
      <trkpt lat="44.88488" lon="4.81036">
        <ele>216.1</ele>
        <time>2014-03-23T08:02:21Z</time>
      </trkpt>
      <trkpt lat="44.8848" lon="4.8104">
        <ele>216.8</ele>
        <time>2014-03-23T08:02:24Z</time>
      </trkpt>
      <trkpt lat="44.88474" lon="4.81043">
        <ele>217.1</ele>
        <time>2014-03-23T08:02:26Z</time>
      </trkpt>
      <trkpt lat="44.88468" lon="4.81045">
        <ele>217.6</ele>
        <time>2014-03-23T08:02:28Z</time>
      </trkpt>
      <trkpt lat="44.88461" lon="4.81048">
        <ele>217.5</ele>
        <time>2014-03-23T08:02:30Z</time>
      </trkpt>
      <trkpt lat="44.88455" lon="4.81051">
        <ele>217.3</ele>
        <time>2014-03-23T08:02:32Z</time>
      </trkpt>
      <trkpt lat="44.88448" lon="4.81051">
        <ele>216.7</ele>
        <time>2014-03-23T08:02:34Z</time>
      </trkpt>
      <trkpt lat="44.88442" lon="4.8105">
        <ele>216.2</ele>
        <time>2014-03-23T08:02:36Z</time>
      </trkpt>
      <trkpt lat="44.88433" lon="4.81046">
        <ele>215.2</ele>
        <time>2014-03-23T08:02:41Z</time>
      </trkpt>
      <trkpt lat="44.88432" lon="4.81045">
        <ele>215</ele>
        <time>2014-03-23T08:02:42Z</time>
      </trkpt>
      <trkpt lat="44.88417" lon="4.81038">
        <ele>214.8</ele>
        <time>2014-03-23T08:02:50Z</time>
      </trkpt>
      <trkpt lat="44.88409" lon="4.81038">
        <ele>213.6</ele>
        <time>2014-03-23T08:02:55Z</time>
      </trkpt>
      <trkpt lat="44.88401" lon="4.81042">
        <ele>209.1</ele>
        <time>2014-03-23T08:03:02Z</time>
      </trkpt>
      <trkpt lat="44.88402" lon="4.81054">
        <ele>205.4</ele>
        <time>2014-03-23T08:03:08Z</time>
      </trkpt>
      <trkpt lat="44.88409" lon="4.81061">
        <ele>202.8</ele>
        <time>2014-03-23T08:03:14Z</time>
      </trkpt>
      <trkpt lat="44.88412" lon="4.81072">
        <ele>201.5</ele>
        <time>2014-03-23T08:03:20Z</time>
      </trkpt>
      <trkpt lat="44.8841" lon="4.81084">
        <ele>198.2</ele>
        <time>2014-03-23T08:03:43Z</time>
      </trkpt>
      <trkpt lat="44.88409" lon="4.81086">
        <ele>198.1</ele>
        <time>2014-03-23T08:03:44Z</time>
      </trkpt>
      <trkpt lat="44.88394" lon="4.81088">
        <ele>193.2</ele>
        <time>2014-03-23T08:03:52Z</time>
      </trkpt>
      <trkpt lat="44.8839" lon="4.811">
        <ele>190.1</ele>
        <time>2014-03-23T08:03:58Z</time>
      </trkpt>
      <trkpt lat="44.88384" lon="4.81106">
        <ele>189</ele>
        <time>2014-03-23T08:04:01Z</time>
      </trkpt>
      <trkpt lat="44.8838" lon="4.81118">
        <ele>186.3</ele>
        <time>2014-03-23T08:04:08Z</time>
      </trkpt>
      <trkpt lat="44.88379" lon="4.81129">
        <ele>184.1</ele>
        <time>2014-03-23T08:04:16Z</time>
      </trkpt>
      <trkpt lat="44.88376" lon="4.81139">
        <ele>184.2</ele>
        <time>2014-03-23T08:04:22Z</time>
      </trkpt>
      <trkpt lat="44.88375" lon="4.81149">
        <ele>183.2</ele>
        <time>2014-03-23T08:04:26Z</time>
      </trkpt>
      <trkpt lat="44.88374" lon="4.81161">
        <ele>182.1</ele>
        <time>2014-03-23T08:04:30Z</time>
      </trkpt>
      <trkpt lat="44.88373" lon="4.81172">
        <ele>181.4</ele>
        <time>2014-03-23T08:04:33Z</time>
      </trkpt>
      <trkpt lat="44.88372" lon="4.81181">
        <ele>180.9</ele>
        <time>2014-03-23T08:04:35Z</time>
      </trkpt>
      <trkpt lat="44.88373" lon="4.81192">
        <ele>180.5</ele>
        <time>2014-03-23T08:04:37Z</time>
      </trkpt>
      <trkpt lat="44.88378" lon="4.81202">
        <ele>179.7</ele>
        <time>2014-03-23T08:04:40Z</time>
      </trkpt>
      <trkpt lat="44.88384" lon="4.8121">
        <ele>179</ele>
        <time>2014-03-23T08:04:43Z</time>
      </trkpt>
      <trkpt lat="44.88391" lon="4.81218">
        <ele>178.8</ele>
        <time>2014-03-23T08:04:46Z</time>
      </trkpt>
      <trkpt lat="44.88392" lon="4.8122">
        <ele>178.8</ele>
        <time>2014-03-23T08:04:47Z</time>
      </trkpt>
      <trkpt lat="44.88395" lon="4.81239">
        <ele>178.9</ele>
        <time>2014-03-23T08:04:52Z</time>
      </trkpt>
      <trkpt lat="44.88393" lon="4.81249">
        <ele>178.8</ele>
        <time>2014-03-23T08:04:54Z</time>
      </trkpt>
      <trkpt lat="44.8839" lon="4.81259">
        <ele>178.4</ele>
        <time>2014-03-23T08:04:56Z</time>
      </trkpt>
      <trkpt lat="44.88389" lon="4.81268">
        <ele>177.6</ele>
        <time>2014-03-23T08:04:58Z</time>
      </trkpt>
      <trkpt lat="44.88388" lon="4.81276">
        <ele>177</ele>
        <time>2014-03-23T08:05:00Z</time>
      </trkpt>
      <trkpt lat="44.88385" lon="4.81284">
        <ele>176.2</ele>
        <time>2014-03-23T08:05:02Z</time>
      </trkpt>
      <trkpt lat="44.88383" lon="4.81294">
        <ele>175.4</ele>
        <time>2014-03-23T08:05:04Z</time>
      </trkpt>
      <trkpt lat="44.88381" lon="4.81304">
        <ele>174.4</ele>
        <time>2014-03-23T08:05:06Z</time>
      </trkpt>
      <trkpt lat="44.88378" lon="4.81315">
        <ele>173.8</ele>
        <time>2014-03-23T08:05:08Z</time>
      </trkpt>
      <trkpt lat="44.88375" lon="4.81327">
        <ele>173</ele>
        <time>2014-03-23T08:05:10Z</time>
      </trkpt>
      <trkpt lat="44.88374" lon="4.81333">
        <ele>172.5</ele>
        <time>2014-03-23T08:05:11Z</time>
      </trkpt>
      <trkpt lat="44.88372" lon="4.8134">
        <ele>172.1</ele>
        <time>2014-03-23T08:05:12Z</time>
      </trkpt>
      <trkpt lat="44.8837" lon="4.81347">
        <ele>171.8</ele>
        <time>2014-03-23T08:05:13Z</time>
      </trkpt>
      <trkpt lat="44.88368" lon="4.81354">
        <ele>171.6</ele>
        <time>2014-03-23T08:05:14Z</time>
      </trkpt>
      <trkpt lat="44.88366" lon="4.81362">
        <ele>170.9</ele>
        <time>2014-03-23T08:05:15Z</time>
      </trkpt>
      <trkpt lat="44.88364" lon="4.8137">
        <ele>170.3</ele>
        <time>2014-03-23T08:05:16Z</time>
      </trkpt>
      <trkpt lat="44.88362" lon="4.81378">
        <ele>169.4</ele>
        <time>2014-03-23T08:05:17Z</time>
      </trkpt>
      <trkpt lat="44.8836" lon="4.81387">
        <ele>168.6</ele>
        <time>2014-03-23T08:05:18Z</time>
      </trkpt>
      <trkpt lat="44.88358" lon="4.81395">
        <ele>168.1</ele>
        <time>2014-03-23T08:05:19Z</time>
      </trkpt>
      <trkpt lat="44.88355" lon="4.81404">
        <ele>167.7</ele>
        <time>2014-03-23T08:05:20Z</time>
      </trkpt>
      <trkpt lat="44.88353" lon="4.81413">
        <ele>167.4</ele>
        <time>2014-03-23T08:05:21Z</time>
      </trkpt>
      <trkpt lat="44.88351" lon="4.81422">
        <ele>166.8</ele>
        <time>2014-03-23T08:05:22Z</time>
      </trkpt>
      <trkpt lat="44.8835" lon="4.8143">
        <ele>166.3</ele>
        <time>2014-03-23T08:05:23Z</time>
      </trkpt>
      <trkpt lat="44.88349" lon="4.81439">
        <ele>165.2</ele>
        <time>2014-03-23T08:05:24Z</time>
      </trkpt>
      <trkpt lat="44.88349" lon="4.81448">
        <ele>164.3</ele>
        <time>2014-03-23T08:05:25Z</time>
      </trkpt>
      <trkpt lat="44.88349" lon="4.81457">
        <ele>163.7</ele>
        <time>2014-03-23T08:05:26Z</time>
      </trkpt>
      <trkpt lat="44.8835" lon="4.81465">
        <ele>163</ele>
        <time>2014-03-23T08:05:27Z</time>
      </trkpt>
      <trkpt lat="44.88351" lon="4.81473">
        <ele>162.5</ele>
        <time>2014-03-23T08:05:28Z</time>
      </trkpt>
      <trkpt lat="44.88352" lon="4.81481">
        <ele>161.6</ele>
        <time>2014-03-23T08:05:29Z</time>
      </trkpt>
      <trkpt lat="44.88352" lon="4.81489">
        <ele>160.9</ele>
        <time>2014-03-23T08:05:30Z</time>
      </trkpt>
      <trkpt lat="44.88351" lon="4.81497">
        <ele>160.4</ele>
        <time>2014-03-23T08:05:31Z</time>
      </trkpt>
      <trkpt lat="44.8835" lon="4.81505">
        <ele>159.4</ele>
        <time>2014-03-23T08:05:32Z</time>
      </trkpt>
      <trkpt lat="44.88349" lon="4.81512">
        <ele>158.6</ele>
        <time>2014-03-23T08:05:33Z</time>
      </trkpt>
      <trkpt lat="44.88347" lon="4.81519">
        <ele>157.8</ele>
        <time>2014-03-23T08:05:34Z</time>
      </trkpt>
      <trkpt lat="44.88345" lon="4.81525">
        <ele>157.2</ele>
        <time>2014-03-23T08:05:35Z</time>
      </trkpt>
      <trkpt lat="44.88345" lon="4.81531">
        <ele>156.4</ele>
        <time>2014-03-23T08:05:36Z</time>
      </trkpt>
      <trkpt lat="44.88346" lon="4.81538">
        <ele>155.8</ele>
        <time>2014-03-23T08:05:37Z</time>
      </trkpt>
      <trkpt lat="44.88347" lon="4.81544">
        <ele>155.3</ele>
        <time>2014-03-23T08:05:38Z</time>
      </trkpt>
      <trkpt lat="44.88351" lon="4.8155">
        <ele>154.7</ele>
        <time>2014-03-23T08:05:39Z</time>
      </trkpt>
      <trkpt lat="44.88355" lon="4.81557">
        <ele>154.3</ele>
        <time>2014-03-23T08:05:40Z</time>
      </trkpt>
      <trkpt lat="44.88357" lon="4.81565">
        <ele>153.3</ele>
        <time>2014-03-23T08:05:41Z</time>
      </trkpt>
      <trkpt lat="44.88359" lon="4.81573">
        <ele>152.6</ele>
        <time>2014-03-23T08:05:42Z</time>
      </trkpt>
      <trkpt lat="44.88358" lon="4.81582">
        <ele>151.1</ele>
        <time>2014-03-23T08:05:43Z</time>
      </trkpt>
      <trkpt lat="44.88355" lon="4.81589">
        <ele>150</ele>
        <time>2014-03-23T08:05:44Z</time>
      </trkpt>
      <trkpt lat="44.8835" lon="4.81594">
        <ele>149.2</ele>
        <time>2014-03-23T08:05:45Z</time>
      </trkpt>
      <trkpt lat="44.88344" lon="4.81598">
        <ele>148</ele>
        <time>2014-03-23T08:05:46Z</time>
      </trkpt>
      <trkpt lat="44.88338" lon="4.81599">
        <ele>147</ele>
        <time>2014-03-23T08:05:47Z</time>
      </trkpt>
      <trkpt lat="44.88331" lon="4.81601">
        <ele>146</ele>
        <time>2014-03-23T08:05:48Z</time>
      </trkpt>
      <trkpt lat="44.88325" lon="4.81605">
        <ele>145.2</ele>
        <time>2014-03-23T08:05:49Z</time>
      </trkpt>
      <trkpt lat="44.88319" lon="4.8161">
        <ele>144.6</ele>
        <time>2014-03-23T08:05:50Z</time>
      </trkpt>
      <trkpt lat="44.88312" lon="4.81615">
        <ele>143.3</ele>
        <time>2014-03-23T08:05:51Z</time>
      </trkpt>
      <trkpt lat="44.88305" lon="4.81621">
        <ele>142.4</ele>
        <time>2014-03-23T08:05:52Z</time>
      </trkpt>
      <trkpt lat="44.88298" lon="4.81626">
        <ele>141.2</ele>
        <time>2014-03-23T08:05:53Z</time>
      </trkpt>
      <trkpt lat="44.88292" lon="4.8163">
        <ele>140.3</ele>
        <time>2014-03-23T08:05:54Z</time>
      </trkpt>
      <trkpt lat="44.88285" lon="4.81635">
        <ele>139.3</ele>
        <time>2014-03-23T08:05:55Z</time>
      </trkpt>
      <trkpt lat="44.88277" lon="4.81639">
        <ele>138.5</ele>
        <time>2014-03-23T08:05:56Z</time>
      </trkpt>
      <trkpt lat="44.8827" lon="4.81643">
        <ele>137.9</ele>
        <time>2014-03-23T08:05:57Z</time>
      </trkpt>
      <trkpt lat="44.88263" lon="4.81647">
        <ele>137.3</ele>
        <time>2014-03-23T08:05:58Z</time>
      </trkpt>
      <trkpt lat="44.88256" lon="4.8165">
        <ele>136.8</ele>
        <time>2014-03-23T08:05:59Z</time>
      </trkpt>
      <trkpt lat="44.88249" lon="4.81654">
        <ele>136.6</ele>
        <time>2014-03-23T08:06:00Z</time>
      </trkpt>
      <trkpt lat="44.88242" lon="4.81657">
        <ele>136.5</ele>
        <time>2014-03-23T08:06:01Z</time>
      </trkpt>
      <trkpt lat="44.88235" lon="4.8166">
        <ele>136.2</ele>
        <time>2014-03-23T08:06:02Z</time>
      </trkpt>
      <trkpt lat="44.88229" lon="4.81664">
        <ele>136</ele>
        <time>2014-03-23T08:06:03Z</time>
      </trkpt>
      <trkpt lat="44.88222" lon="4.81667">
        <ele>135.8</ele>
        <time>2014-03-23T08:06:04Z</time>
      </trkpt>
      <trkpt lat="44.88216" lon="4.81671">
        <ele>135.4</ele>
        <time>2014-03-23T08:06:05Z</time>
      </trkpt>
      <trkpt lat="44.8821" lon="4.81675">
        <ele>135</ele>
        <time>2014-03-23T08:06:06Z</time>
      </trkpt>
      <trkpt lat="44.88205" lon="4.81679">
        <ele>135.1</ele>
        <time>2014-03-23T08:06:07Z</time>
      </trkpt>
      <trkpt lat="44.88199" lon="4.81684">
        <ele>135.2</ele>
        <time>2014-03-23T08:06:08Z</time>
      </trkpt>
      <trkpt lat="44.88194" lon="4.81688">
        <ele>135.2</ele>
        <time>2014-03-23T08:06:09Z</time>
      </trkpt>
      <trkpt lat="44.88188" lon="4.81693">
        <ele>134.6</ele>
        <time>2014-03-23T08:06:10Z</time>
      </trkpt>
      <trkpt lat="44.88183" lon="4.81697">
        <ele>134.2</ele>
        <time>2014-03-23T08:06:11Z</time>
      </trkpt>
      <trkpt lat="44.88177" lon="4.81702">
        <ele>134</ele>
        <time>2014-03-23T08:06:12Z</time>
      </trkpt>
      <trkpt lat="44.88172" lon="4.81707">
        <ele>133.9</ele>
        <time>2014-03-23T08:06:13Z</time>
      </trkpt>
      <trkpt lat="44.88166" lon="4.81712">
        <ele>133.9</ele>
        <time>2014-03-23T08:06:14Z</time>
      </trkpt>
      <trkpt lat="44.88161" lon="4.81716">
        <ele>133.9</ele>
        <time>2014-03-23T08:06:15Z</time>
      </trkpt>
      <trkpt lat="44.88155" lon="4.81721">
        <ele>133.9</ele>
        <time>2014-03-23T08:06:16Z</time>
      </trkpt>
      <trkpt lat="44.8815" lon="4.81726">
        <ele>133.4</ele>
        <time>2014-03-23T08:06:17Z</time>
      </trkpt>
      <trkpt lat="44.88144" lon="4.81731">
        <ele>133</ele>
        <time>2014-03-23T08:06:18Z</time>
      </trkpt>
      <trkpt lat="44.88139" lon="4.81736">
        <ele>133.1</ele>
        <time>2014-03-23T08:06:19Z</time>
      </trkpt>
      <trkpt lat="44.88134" lon="4.81741">
        <ele>133.1</ele>
        <time>2014-03-23T08:06:20Z</time>
      </trkpt>
      <trkpt lat="44.88129" lon="4.81746">
        <ele>132.8</ele>
        <time>2014-03-23T08:06:21Z</time>
      </trkpt>
      <trkpt lat="44.88123" lon="4.8175">
        <ele>132.6</ele>
        <time>2014-03-23T08:06:22Z</time>
      </trkpt>
      <trkpt lat="44.88118" lon="4.81753">
        <ele>132.5</ele>
        <time>2014-03-23T08:06:23Z</time>
      </trkpt>
      <trkpt lat="44.88112" lon="4.81753">
        <ele>132.5</ele>
        <time>2014-03-23T08:06:24Z</time>
      </trkpt>
      <trkpt lat="44.88106" lon="4.81751">
        <ele>132.6</ele>
        <time>2014-03-23T08:06:25Z</time>
      </trkpt>
      <trkpt lat="44.88101" lon="4.81747">
        <ele>132.6</ele>
        <time>2014-03-23T08:06:26Z</time>
      </trkpt>
      <trkpt lat="44.88096" lon="4.81743">
        <ele>132.5</ele>
        <time>2014-03-23T08:06:27Z</time>
      </trkpt>
      <trkpt lat="44.88092" lon="4.81739">
        <ele>132.5</ele>
        <time>2014-03-23T08:06:28Z</time>
      </trkpt>
      <trkpt lat="44.88088" lon="4.81733">
        <ele>132.4</ele>
        <time>2014-03-23T08:06:29Z</time>
      </trkpt>
      <trkpt lat="44.88085" lon="4.81728">
        <ele>132.3</ele>
        <time>2014-03-23T08:06:30Z</time>
      </trkpt>
      <trkpt lat="44.88079" lon="4.81719">
        <ele>131.7</ele>
        <time>2014-03-23T08:06:32Z</time>
      </trkpt>
      <trkpt lat="44.8807" lon="4.81721">
        <ele>131.4</ele>
        <time>2014-03-23T08:06:35Z</time>
      </trkpt>
      <trkpt lat="44.88065" lon="4.81728">
        <ele>130.6</ele>
        <time>2014-03-23T08:06:37Z</time>
      </trkpt>
      <trkpt lat="44.88058" lon="4.81735">
        <ele>130.4</ele>
        <time>2014-03-23T08:06:39Z</time>
      </trkpt>
      <trkpt lat="44.88054" lon="4.81738">
        <ele>130.7</ele>
        <time>2014-03-23T08:06:40Z</time>
      </trkpt>
      <trkpt lat="44.8805" lon="4.81741">
        <ele>131</ele>
        <time>2014-03-23T08:06:41Z</time>
      </trkpt>
      <trkpt lat="44.88046" lon="4.81744">
        <ele>131.1</ele>
        <time>2014-03-23T08:06:42Z</time>
      </trkpt>
      <trkpt lat="44.88042" lon="4.81747">
        <ele>130.9</ele>
        <time>2014-03-23T08:06:43Z</time>
      </trkpt>
      <trkpt lat="44.88038" lon="4.8175">
        <ele>130.6</ele>
        <time>2014-03-23T08:06:44Z</time>
      </trkpt>
      <trkpt lat="44.88033" lon="4.81753">
        <ele>130.4</ele>
        <time>2014-03-23T08:06:45Z</time>
      </trkpt>
      <trkpt lat="44.88029" lon="4.81756">
        <ele>130.3</ele>
        <time>2014-03-23T08:06:46Z</time>
      </trkpt>
      <trkpt lat="44.88024" lon="4.81759">
        <ele>130.2</ele>
        <time>2014-03-23T08:06:47Z</time>
      </trkpt>
      <trkpt lat="44.8802" lon="4.81761">
        <ele>130.1</ele>
        <time>2014-03-23T08:06:48Z</time>
      </trkpt>
      <trkpt lat="44.88016" lon="4.81764">
        <ele>130.1</ele>
        <time>2014-03-23T08:06:49Z</time>
      </trkpt>
      <trkpt lat="44.88011" lon="4.81767">
        <ele>129.7</ele>
        <time>2014-03-23T08:06:50Z</time>
      </trkpt>
      <trkpt lat="44.88007" lon="4.81769">
        <ele>129.4</ele>
        <time>2014-03-23T08:06:51Z</time>
      </trkpt>
      <trkpt lat="44.88002" lon="4.81772">
        <ele>129.6</ele>
        <time>2014-03-23T08:06:52Z</time>
      </trkpt>
      <trkpt lat="44.87998" lon="4.81775">
        <ele>129.7</ele>
        <time>2014-03-23T08:06:53Z</time>
      </trkpt>
      <trkpt lat="44.87993" lon="4.81777">
        <ele>129.8</ele>
        <time>2014-03-23T08:06:54Z</time>
      </trkpt>
      <trkpt lat="44.87989" lon="4.8178">
        <ele>130.3</ele>
        <time>2014-03-23T08:06:55Z</time>
      </trkpt>
      <trkpt lat="44.87985" lon="4.81784">
        <ele>130.7</ele>
        <time>2014-03-23T08:06:56Z</time>
      </trkpt>
      <trkpt lat="44.87981" lon="4.81787">
        <ele>130.7</ele>
        <time>2014-03-23T08:06:57Z</time>
      </trkpt>
      <trkpt lat="44.87974" lon="4.81795">
        <ele>130.8</ele>
        <time>2014-03-23T08:06:59Z</time>
      </trkpt>
      <trkpt lat="44.87968" lon="4.81803">
        <ele>130.9</ele>
        <time>2014-03-23T08:07:01Z</time>
      </trkpt>
      <trkpt lat="44.87964" lon="4.81813">
        <ele>131.1</ele>
        <time>2014-03-23T08:07:03Z</time>
      </trkpt>
      <trkpt lat="44.87959" lon="4.81822">
        <ele>130.8</ele>
        <time>2014-03-23T08:07:05Z</time>
      </trkpt>
      <trkpt lat="44.87955" lon="4.81832">
        <ele>131</ele>
        <time>2014-03-23T08:07:07Z</time>
      </trkpt>
      <trkpt lat="44.87951" lon="4.81842">
        <ele>130.8</ele>
        <time>2014-03-23T08:07:09Z</time>
      </trkpt>
      <trkpt lat="44.87946" lon="4.81852">
        <ele>130.6</ele>
        <time>2014-03-23T08:07:11Z</time>
      </trkpt>
      <trkpt lat="44.87942" lon="4.81862">
        <ele>130.5</ele>
        <time>2014-03-23T08:07:13Z</time>
      </trkpt>
      <trkpt lat="44.87937" lon="4.81871">
        <ele>131.1</ele>
        <time>2014-03-23T08:07:15Z</time>
      </trkpt>
      <trkpt lat="44.87933" lon="4.81881">
        <ele>131.1</ele>
        <time>2014-03-23T08:07:17Z</time>
      </trkpt>
      <trkpt lat="44.87927" lon="4.81891">
        <ele>131.8</ele>
        <time>2014-03-23T08:07:19Z</time>
      </trkpt>
      <trkpt lat="44.87925" lon="4.81897">
        <ele>132.1</ele>
        <time>2014-03-23T08:07:20Z</time>
      </trkpt>
      <trkpt lat="44.87922" lon="4.81902">
        <ele>132.2</ele>
        <time>2014-03-23T08:07:21Z</time>
      </trkpt>
      <trkpt lat="44.87919" lon="4.81908">
        <ele>132.4</ele>
        <time>2014-03-23T08:07:22Z</time>
      </trkpt>
      <trkpt lat="44.87916" lon="4.81914">
        <ele>132</ele>
        <time>2014-03-23T08:07:23Z</time>
      </trkpt>
      <trkpt lat="44.87913" lon="4.8192">
        <ele>131.8</ele>
        <time>2014-03-23T08:07:24Z</time>
      </trkpt>
      <trkpt lat="44.87911" lon="4.81926">
        <ele>132</ele>
        <time>2014-03-23T08:07:25Z</time>
      </trkpt>
      <trkpt lat="44.87908" lon="4.81932">
        <ele>132.1</ele>
        <time>2014-03-23T08:07:26Z</time>
      </trkpt>
      <trkpt lat="44.87905" lon="4.81937">
        <ele>132.2</ele>
        <time>2014-03-23T08:07:27Z</time>
      </trkpt>
      <trkpt lat="44.87903" lon="4.81943">
        <ele>131.9</ele>
        <time>2014-03-23T08:07:28Z</time>
      </trkpt>
      <trkpt lat="44.879" lon="4.81949">
        <ele>131.6</ele>
        <time>2014-03-23T08:07:29Z</time>
      </trkpt>
      <trkpt lat="44.87898" lon="4.81955">
        <ele>131.6</ele>
        <time>2014-03-23T08:07:30Z</time>
      </trkpt>
      <trkpt lat="44.87896" lon="4.81961">
        <ele>131.5</ele>
        <time>2014-03-23T08:07:31Z</time>
      </trkpt>
      <trkpt lat="44.87894" lon="4.81973">
        <ele>131.4</ele>
        <time>2014-03-23T08:07:33Z</time>
      </trkpt>
      <trkpt lat="44.87894" lon="4.81983">
        <ele>131.4</ele>
        <time>2014-03-23T08:07:35Z</time>
      </trkpt>
      <trkpt lat="44.87894" lon="4.81993">
        <ele>131.2</ele>
        <time>2014-03-23T08:07:37Z</time>
      </trkpt>
      <trkpt lat="44.87886" lon="4.81998">
        <ele>131.1</ele>
        <time>2014-03-23T08:07:40Z</time>
      </trkpt>
      <trkpt lat="44.87882" lon="4.81998">
        <ele>131.2</ele>
        <time>2014-03-23T08:07:41Z</time>
      </trkpt>
      <trkpt lat="44.87877" lon="4.81997">
        <ele>130.9</ele>
        <time>2014-03-23T08:07:42Z</time>
      </trkpt>
      <trkpt lat="44.87871" lon="4.81996">
        <ele>130.6</ele>
        <time>2014-03-23T08:07:43Z</time>
      </trkpt>
      <trkpt lat="44.87865" lon="4.81995">
        <ele>129.9</ele>
        <time>2014-03-23T08:07:44Z</time>
      </trkpt>
      <trkpt lat="44.87858" lon="4.81994">
        <ele>129.4</ele>
        <time>2014-03-23T08:07:45Z</time>
      </trkpt>
      <trkpt lat="44.87851" lon="4.81992">
        <ele>129</ele>
        <time>2014-03-23T08:07:46Z</time>
      </trkpt>
      <trkpt lat="44.87844" lon="4.81991">
        <ele>128.1</ele>
        <time>2014-03-23T08:07:47Z</time>
      </trkpt>
      <trkpt lat="44.87836" lon="4.81989">
        <ele>127.4</ele>
        <time>2014-03-23T08:07:48Z</time>
      </trkpt>
      <trkpt lat="44.87828" lon="4.81989">
        <ele>126.7</ele>
        <time>2014-03-23T08:07:49Z</time>
      </trkpt>
      <trkpt lat="44.8782" lon="4.81988">
        <ele>126.1</ele>
        <time>2014-03-23T08:07:50Z</time>
      </trkpt>
      <trkpt lat="44.87812" lon="4.81988">
        <ele>125.6</ele>
        <time>2014-03-23T08:07:51Z</time>
      </trkpt>
      <trkpt lat="44.87804" lon="4.81987">
        <ele>125.1</ele>
        <time>2014-03-23T08:07:52Z</time>
      </trkpt>
      <trkpt lat="44.87795" lon="4.81987">
        <ele>124.6</ele>
        <time>2014-03-23T08:07:53Z</time>
      </trkpt>
      <trkpt lat="44.87787" lon="4.81987">
        <ele>124.3</ele>
        <time>2014-03-23T08:07:54Z</time>
      </trkpt>
      <trkpt lat="44.87779" lon="4.81987">
        <ele>124</ele>
        <time>2014-03-23T08:07:55Z</time>
      </trkpt>
      <trkpt lat="44.8777" lon="4.81986">
        <ele>123.4</ele>
        <time>2014-03-23T08:07:56Z</time>
      </trkpt>
      <trkpt lat="44.87762" lon="4.81986">
        <ele>123</ele>
        <time>2014-03-23T08:07:57Z</time>
      </trkpt>
      <trkpt lat="44.87754" lon="4.81985">
        <ele>122.7</ele>
        <time>2014-03-23T08:07:58Z</time>
      </trkpt>
      <trkpt lat="44.87745" lon="4.81984">
        <ele>122.4</ele>
        <time>2014-03-23T08:07:59Z</time>
      </trkpt>
      <trkpt lat="44.87737" lon="4.81983">
        <ele>122.2</ele>
        <time>2014-03-23T08:08:00Z</time>
      </trkpt>
      <trkpt lat="44.87729" lon="4.81982">
        <ele>121.6</ele>
        <time>2014-03-23T08:08:01Z</time>
      </trkpt>
      <trkpt lat="44.87722" lon="4.81981">
        <ele>121.1</ele>
        <time>2014-03-23T08:08:02Z</time>
      </trkpt>
      <trkpt lat="44.87714" lon="4.81981">
        <ele>120.6</ele>
        <time>2014-03-23T08:08:03Z</time>
      </trkpt>
      <trkpt lat="44.87707" lon="4.8198">
        <ele>120.1</ele>
        <time>2014-03-23T08:08:04Z</time>
      </trkpt>
      <trkpt lat="44.87699" lon="4.81979">
        <ele>119.8</ele>
        <time>2014-03-23T08:08:05Z</time>
      </trkpt>
      <trkpt lat="44.87692" lon="4.81978">
        <ele>119.5</ele>
        <time>2014-03-23T08:08:06Z</time>
      </trkpt>
      <trkpt lat="44.87685" lon="4.81977">
        <ele>119.2</ele>
        <time>2014-03-23T08:08:07Z</time>
      </trkpt>
      <trkpt lat="44.87678" lon="4.81976">
        <ele>119</ele>
        <time>2014-03-23T08:08:08Z</time>
      </trkpt>
      <trkpt lat="44.87671" lon="4.81976">
        <ele>118.8</ele>
        <time>2014-03-23T08:08:09Z</time>
      </trkpt>
      <trkpt lat="44.87665" lon="4.81975">
        <ele>118.7</ele>
        <time>2014-03-23T08:08:10Z</time>
      </trkpt>
      <trkpt lat="44.87659" lon="4.81974">
        <ele>118.8</ele>
        <time>2014-03-23T08:08:11Z</time>
      </trkpt>
      <trkpt lat="44.87651" lon="4.81975">
        <ele>118.3</ele>
        <time>2014-03-23T08:08:13Z</time>
      </trkpt>
      <trkpt lat="44.87644" lon="4.81968">
        <ele>114.3</ele>
        <time>2014-03-23T08:08:40Z</time>
      </trkpt>
      <trkpt lat="44.87637" lon="4.81962">
        <ele>112.8</ele>
        <time>2014-03-23T08:09:07Z</time>
      </trkpt>
      <trkpt lat="44.87637" lon="4.81961">
        <ele>113</ele>
        <time>2014-03-23T08:09:08Z</time>
      </trkpt>
      <trkpt lat="44.87634" lon="4.8195">
        <ele>112.5</ele>
        <time>2014-03-23T08:11:18Z</time>
      </trkpt>
      <trkpt lat="44.87629" lon="4.81939">
        <ele>111.2</ele>
        <time>2014-03-23T08:14:12Z</time>
      </trkpt>
      <trkpt lat="44.87635" lon="4.81919">
        <ele>111.5</ele>
        <time>2014-03-23T08:14:20Z</time>
      </trkpt>
      <trkpt lat="44.87638" lon="4.81907">
        <ele>112.4</ele>
        <time>2014-03-23T08:14:24Z</time>
      </trkpt>
      <trkpt lat="44.87639" lon="4.81896">
        <ele>112.8</ele>
        <time>2014-03-23T08:14:28Z</time>
      </trkpt>
      <trkpt lat="44.87637" lon="4.81884">
        <ele>112.8</ele>
        <time>2014-03-23T08:14:33Z</time>
      </trkpt>
      <trkpt lat="44.87632" lon="4.81875">
        <ele>113.3</ele>
        <time>2014-03-23T08:14:37Z</time>
      </trkpt>
      <trkpt lat="44.87626" lon="4.81866">
        <ele>113.1</ele>
        <time>2014-03-23T08:14:41Z</time>
      </trkpt>
      <trkpt lat="44.8762" lon="4.81859">
        <ele>113.1</ele>
        <time>2014-03-23T08:14:45Z</time>
      </trkpt>
      <trkpt lat="44.87614" lon="4.81851">
        <ele>113.9</ele>
        <time>2014-03-23T08:14:49Z</time>
      </trkpt>
      <trkpt lat="44.87607" lon="4.81844">
        <ele>115.1</ele>
        <time>2014-03-23T08:14:53Z</time>
      </trkpt>
      <trkpt lat="44.876" lon="4.81837">
        <ele>115.9</ele>
        <time>2014-03-23T08:14:57Z</time>
      </trkpt>
      <trkpt lat="44.87594" lon="4.81832">
        <ele>116.5</ele>
        <time>2014-03-23T08:15:01Z</time>
      </trkpt>
      <trkpt lat="44.87587" lon="4.81825">
        <ele>116.6</ele>
        <time>2014-03-23T08:15:05Z</time>
      </trkpt>
      <trkpt lat="44.8758" lon="4.81818">
        <ele>118.2</ele>
        <time>2014-03-23T08:15:09Z</time>
      </trkpt>
      <trkpt lat="44.87575" lon="4.8181">
        <ele>119.4</ele>
        <time>2014-03-23T08:15:13Z</time>
      </trkpt>
      <trkpt lat="44.87574" lon="4.81808">
        <ele>119.6</ele>
        <time>2014-03-23T08:15:14Z</time>
      </trkpt>
      <trkpt lat="44.87565" lon="4.81793">
        <ele>119.2</ele>
        <time>2014-03-23T08:15:21Z</time>
      </trkpt>
      <trkpt lat="44.87562" lon="4.81783">
        <ele>119.7</ele>
        <time>2014-03-23T08:15:25Z</time>
      </trkpt>
      <trkpt lat="44.8756" lon="4.81772">
        <ele>120.7</ele>
        <time>2014-03-23T08:15:29Z</time>
      </trkpt>
      <trkpt lat="44.87557" lon="4.81762">
        <ele>121.5</ele>
        <time>2014-03-23T08:15:33Z</time>
      </trkpt>
      <trkpt lat="44.8755" lon="4.81757">
        <ele>122.7</ele>
        <time>2014-03-23T08:15:38Z</time>
      </trkpt>
      <trkpt lat="44.87542" lon="4.81763">
        <ele>125.5</ele>
        <time>2014-03-23T08:15:48Z</time>
      </trkpt>
      <trkpt lat="44.87535" lon="4.81769">
        <ele>127.2</ele>
        <time>2014-03-23T08:15:55Z</time>
      </trkpt>
      <trkpt lat="44.87528" lon="4.81776">
        <ele>129.3</ele>
        <time>2014-03-23T08:16:01Z</time>
      </trkpt>
      <trkpt lat="44.87522" lon="4.81783">
        <ele>129.5</ele>
        <time>2014-03-23T08:16:06Z</time>
      </trkpt>
      <trkpt lat="44.87515" lon="4.81789">
        <ele>130.1</ele>
        <time>2014-03-23T08:16:10Z</time>
      </trkpt>
      <trkpt lat="44.87508" lon="4.81795">
        <ele>129.8</ele>
        <time>2014-03-23T08:16:14Z</time>
      </trkpt>
      <trkpt lat="44.87506" lon="4.81797">
        <ele>130</ele>
        <time>2014-03-23T08:16:15Z</time>
      </trkpt>
      <trkpt lat="44.87493" lon="4.818">
        <ele>130.2</ele>
        <time>2014-03-23T08:16:20Z</time>
      </trkpt>
      <trkpt lat="44.87486" lon="4.81799">
        <ele>130.4</ele>
        <time>2014-03-23T08:16:23Z</time>
      </trkpt>
      <trkpt lat="44.87479" lon="4.81799">
        <ele>131</ele>
        <time>2014-03-23T08:16:26Z</time>
      </trkpt>
      <trkpt lat="44.87472" lon="4.818">
        <ele>131.7</ele>
        <time>2014-03-23T08:16:29Z</time>
      </trkpt>
      <trkpt lat="44.87466" lon="4.81796">
        <ele>131.7</ele>
        <time>2014-03-23T08:16:32Z</time>
      </trkpt>
      <trkpt lat="44.87459" lon="4.81788">
        <ele>132.1</ele>
        <time>2014-03-23T08:16:36Z</time>
      </trkpt>
      <trkpt lat="44.87454" lon="4.81781">
        <ele>132.9</ele>
        <time>2014-03-23T08:16:40Z</time>
      </trkpt>
      <trkpt lat="44.87448" lon="4.81772">
        <ele>133.7</ele>
        <time>2014-03-23T08:16:44Z</time>
      </trkpt>
      <trkpt lat="44.87443" lon="4.81764">
        <ele>134.1</ele>
        <time>2014-03-23T08:16:48Z</time>
      </trkpt>
      <trkpt lat="44.87437" lon="4.81755">
        <ele>135.3</ele>
        <time>2014-03-23T08:16:52Z</time>
      </trkpt>
      <trkpt lat="44.87432" lon="4.81746">
        <ele>135.6</ele>
        <time>2014-03-23T08:16:56Z</time>
      </trkpt>
      <trkpt lat="44.87426" lon="4.81738">
        <ele>136.1</ele>
        <time>2014-03-23T08:17:00Z</time>
      </trkpt>
      <trkpt lat="44.8742" lon="4.81729">
        <ele>137.4</ele>
        <time>2014-03-23T08:17:04Z</time>
      </trkpt>
      <trkpt lat="44.87415" lon="4.8172">
        <ele>136.6</ele>
        <time>2014-03-23T08:17:08Z</time>
      </trkpt>
      <trkpt lat="44.8741" lon="4.81712">
        <ele>137.5</ele>
        <time>2014-03-23T08:17:12Z</time>
      </trkpt>
      <trkpt lat="44.87404" lon="4.81703">
        <ele>138.8</ele>
        <time>2014-03-23T08:17:16Z</time>
      </trkpt>
      <trkpt lat="44.87403" lon="4.81701">
        <ele>139.2</ele>
        <time>2014-03-23T08:17:17Z</time>
      </trkpt>
      <trkpt lat="44.87394" lon="4.81687">
        <ele>139.9</ele>
        <time>2014-03-23T08:17:24Z</time>
      </trkpt>
      <trkpt lat="44.87388" lon="4.8168">
        <ele>140.9</ele>
        <time>2014-03-23T08:17:28Z</time>
      </trkpt>
      <trkpt lat="44.8738" lon="4.81677">
        <ele>141.9</ele>
        <time>2014-03-23T08:17:32Z</time>
      </trkpt>
      <trkpt lat="44.87372" lon="4.81682">
        <ele>142.1</ele>
        <time>2014-03-23T08:17:37Z</time>
      </trkpt>
      <trkpt lat="44.87365" lon="4.81687">
        <ele>142.5</ele>
        <time>2014-03-23T08:17:41Z</time>
      </trkpt>
      <trkpt lat="44.87358" lon="4.81692">
        <ele>142.9</ele>
        <time>2014-03-23T08:17:45Z</time>
      </trkpt>
      <trkpt lat="44.87349" lon="4.81693">
        <ele>143.5</ele>
        <time>2014-03-23T08:17:49Z</time>
      </trkpt>
      <trkpt lat="44.87342" lon="4.81693">
        <ele>143</ele>
        <time>2014-03-23T08:17:52Z</time>
      </trkpt>
      <trkpt lat="44.87334" lon="4.81692">
        <ele>143.5</ele>
        <time>2014-03-23T08:17:55Z</time>
      </trkpt>
      <trkpt lat="44.87326" lon="4.81688">
        <ele>143.4</ele>
        <time>2014-03-23T08:17:58Z</time>
      </trkpt>
      <trkpt lat="44.87319" lon="4.8168">
        <ele>143.2</ele>
        <time>2014-03-23T08:18:01Z</time>
      </trkpt>
      <trkpt lat="44.87317" lon="4.81671">
        <ele>142.6</ele>
        <time>2014-03-23T08:18:04Z</time>
      </trkpt>
      <trkpt lat="44.87315" lon="4.8166">
        <ele>142.8</ele>
        <time>2014-03-23T08:18:07Z</time>
      </trkpt>
      <trkpt lat="44.87314" lon="4.8165">
        <ele>143.4</ele>
        <time>2014-03-23T08:18:10Z</time>
      </trkpt>
      <trkpt lat="44.87312" lon="4.81641">
        <ele>143.7</ele>
        <time>2014-03-23T08:18:13Z</time>
      </trkpt>
      <trkpt lat="44.8731" lon="4.81632">
        <ele>144.2</ele>
        <time>2014-03-23T08:18:16Z</time>
      </trkpt>
      <trkpt lat="44.87309" lon="4.81622">
        <ele>144.5</ele>
        <time>2014-03-23T08:18:19Z</time>
      </trkpt>
      <trkpt lat="44.87308" lon="4.81618">
        <ele>144.7</ele>
        <time>2014-03-23T08:18:20Z</time>
      </trkpt>
      <trkpt lat="44.87305" lon="4.81601">
        <ele>145.6</ele>
        <time>2014-03-23T08:18:25Z</time>
      </trkpt>
      <trkpt lat="44.87304" lon="4.81591">
        <ele>145.8</ele>
        <time>2014-03-23T08:18:28Z</time>
      </trkpt>
      <trkpt lat="44.87305" lon="4.81582">
        <ele>145.5</ele>
        <time>2014-03-23T08:18:31Z</time>
      </trkpt>
      <trkpt lat="44.87307" lon="4.8157">
        <ele>146.7</ele>
        <time>2014-03-23T08:18:35Z</time>
      </trkpt>
      <trkpt lat="44.87309" lon="4.8156">
        <ele>147.5</ele>
        <time>2014-03-23T08:18:38Z</time>
      </trkpt>
      <trkpt lat="44.87311" lon="4.8155">
        <ele>147.8</ele>
        <time>2014-03-23T08:18:41Z</time>
      </trkpt>
      <trkpt lat="44.87312" lon="4.81541">
        <ele>148.7</ele>
        <time>2014-03-23T08:18:44Z</time>
      </trkpt>
      <trkpt lat="44.87313" lon="4.81529">
        <ele>149.4</ele>
        <time>2014-03-23T08:18:48Z</time>
      </trkpt>
      <trkpt lat="44.87313" lon="4.81517">
        <ele>152.5</ele>
        <time>2014-03-23T08:18:52Z</time>
      </trkpt>
      <trkpt lat="44.87314" lon="4.81506">
        <ele>153.3</ele>
        <time>2014-03-23T08:18:56Z</time>
      </trkpt>
      <trkpt lat="44.87313" lon="4.81494">
        <ele>152.9</ele>
        <time>2014-03-23T08:19:00Z</time>
      </trkpt>
      <trkpt lat="44.87314" lon="4.81483">
        <ele>154.3</ele>
        <time>2014-03-23T08:19:04Z</time>
      </trkpt>
      <trkpt lat="44.87316" lon="4.81471">
        <ele>154.8</ele>
        <time>2014-03-23T08:19:08Z</time>
      </trkpt>
      <trkpt lat="44.87317" lon="4.81461">
        <ele>155.5</ele>
        <time>2014-03-23T08:19:11Z</time>
      </trkpt>
      <trkpt lat="44.87318" lon="4.81449">
        <ele>156.4</ele>
        <time>2014-03-23T08:19:15Z</time>
      </trkpt>
      <trkpt lat="44.87319" lon="4.81438">
        <ele>157.6</ele>
        <time>2014-03-23T08:19:19Z</time>
      </trkpt>
      <trkpt lat="44.87319" lon="4.81427">
        <ele>158.6</ele>
        <time>2014-03-23T08:19:23Z</time>
      </trkpt>
      <trkpt lat="44.87319" lon="4.81425">
        <ele>158.8</ele>
        <time>2014-03-23T08:19:24Z</time>
      </trkpt>
      <trkpt lat="44.87319" lon="4.81405">
        <ele>159.6</ele>
        <time>2014-03-23T08:19:31Z</time>
      </trkpt>
      <trkpt lat="44.87318" lon="4.81394">
        <ele>160.7</ele>
        <time>2014-03-23T08:19:35Z</time>
      </trkpt>
      <trkpt lat="44.87317" lon="4.81382">
        <ele>161.9</ele>
        <time>2014-03-23T08:19:40Z</time>
      </trkpt>
      <trkpt lat="44.87314" lon="4.81371">
        <ele>163.9</ele>
        <time>2014-03-23T08:19:45Z</time>
      </trkpt>
      <trkpt lat="44.8731" lon="4.81362">
        <ele>164.5</ele>
        <time>2014-03-23T08:19:49Z</time>
      </trkpt>
      <trkpt lat="44.87305" lon="4.81354">
        <ele>164.9</ele>
        <time>2014-03-23T08:19:52Z</time>
      </trkpt>
      <trkpt lat="44.87301" lon="4.81346">
        <ele>166.2</ele>
        <time>2014-03-23T08:19:55Z</time>
      </trkpt>
      <trkpt lat="44.87298" lon="4.81337">
        <ele>167.2</ele>
        <time>2014-03-23T08:19:58Z</time>
      </trkpt>
      <trkpt lat="44.87296" lon="4.81328">
        <ele>167.3</ele>
        <time>2014-03-23T08:20:01Z</time>
      </trkpt>
      <trkpt lat="44.87293" lon="4.81319">
        <ele>168.6</ele>
        <time>2014-03-23T08:20:04Z</time>
      </trkpt>
      <trkpt lat="44.8729" lon="4.8131">
        <ele>168.4</ele>
        <time>2014-03-23T08:20:07Z</time>
      </trkpt>
      <trkpt lat="44.87287" lon="4.81301">
        <ele>168.8</ele>
        <time>2014-03-23T08:20:10Z</time>
      </trkpt>
      <trkpt lat="44.87284" lon="4.81289">
        <ele>169.8</ele>
        <time>2014-03-23T08:20:14Z</time>
      </trkpt>
      <trkpt lat="44.87281" lon="4.81278">
        <ele>170.7</ele>
        <time>2014-03-23T08:20:18Z</time>
      </trkpt>
      <trkpt lat="44.87279" lon="4.81268">
        <ele>173</ele>
        <time>2014-03-23T08:20:22Z</time>
      </trkpt>
      <trkpt lat="44.87279" lon="4.81256">
        <ele>173.3</ele>
        <time>2014-03-23T08:20:27Z</time>
      </trkpt>
      <trkpt lat="44.87279" lon="4.81253">
        <ele>173.2</ele>
        <time>2014-03-23T08:20:28Z</time>
      </trkpt>
      <trkpt lat="44.87282" lon="4.81235">
        <ele>176.1</ele>
        <time>2014-03-23T08:20:37Z</time>
      </trkpt>
      <trkpt lat="44.87283" lon="4.81222">
        <ele>177.3</ele>
        <time>2014-03-23T08:20:42Z</time>
      </trkpt>
      <trkpt lat="44.87284" lon="4.81211">
        <ele>177.1</ele>
        <time>2014-03-23T08:20:47Z</time>
      </trkpt>
      <trkpt lat="44.87284" lon="4.81201">
        <ele>179</ele>
        <time>2014-03-23T08:20:51Z</time>
      </trkpt>
      <trkpt lat="44.87284" lon="4.8119">
        <ele>179.8</ele>
        <time>2014-03-23T08:20:55Z</time>
      </trkpt>
      <trkpt lat="44.87285" lon="4.8118">
        <ele>180.4</ele>
        <time>2014-03-23T08:20:59Z</time>
      </trkpt>
      <trkpt lat="44.87286" lon="4.81169">
        <ele>181.3</ele>
        <time>2014-03-23T08:21:03Z</time>
      </trkpt>
      <trkpt lat="44.87286" lon="4.81158">
        <ele>182</ele>
        <time>2014-03-23T08:21:07Z</time>
      </trkpt>
      <trkpt lat="44.87286" lon="4.81148">
        <ele>184</ele>
        <time>2014-03-23T08:21:12Z</time>
      </trkpt>
      <trkpt lat="44.87286" lon="4.81136">
        <ele>186.2</ele>
        <time>2014-03-23T08:21:18Z</time>
      </trkpt>
      <trkpt lat="44.87284" lon="4.81125">
        <ele>187.6</ele>
        <time>2014-03-23T08:21:22Z</time>
      </trkpt>
      <trkpt lat="44.87279" lon="4.81115">
        <ele>188.5</ele>
        <time>2014-03-23T08:21:26Z</time>
      </trkpt>
      <trkpt lat="44.8727" lon="4.81117">
        <ele>189.1</ele>
        <time>2014-03-23T08:21:31Z</time>
      </trkpt>
      <trkpt lat="44.87269" lon="4.81118">
        <ele>189.4</ele>
        <time>2014-03-23T08:21:32Z</time>
      </trkpt>
      <trkpt lat="44.87258" lon="4.81133">
        <ele>190.4</ele>
        <time>2014-03-23T08:21:39Z</time>
      </trkpt>
      <trkpt lat="44.8725" lon="4.81141">
        <ele>190.2</ele>
        <time>2014-03-23T08:21:42Z</time>
      </trkpt>
      <trkpt lat="44.87243" lon="4.81147">
        <ele>189.9</ele>
        <time>2014-03-23T08:21:45Z</time>
      </trkpt>
      <trkpt lat="44.87239" lon="4.81153">
        <ele>190</ele>
        <time>2014-03-23T08:21:47Z</time>
      </trkpt>
      <trkpt lat="44.87231" lon="4.81161">
        <ele>189.4</ele>
        <time>2014-03-23T08:21:49Z</time>
      </trkpt>
      <trkpt lat="44.87227" lon="4.81165">
        <ele>189</ele>
        <time>2014-03-23T08:21:50Z</time>
      </trkpt>
      <trkpt lat="44.87224" lon="4.8117">
        <ele>188.6</ele>
        <time>2014-03-23T08:21:51Z</time>
      </trkpt>
      <trkpt lat="44.87219" lon="4.81174">
        <ele>188.2</ele>
        <time>2014-03-23T08:21:52Z</time>
      </trkpt>
      <trkpt lat="44.87214" lon="4.81179">
        <ele>187.9</ele>
        <time>2014-03-23T08:21:53Z</time>
      </trkpt>
      <trkpt lat="44.8721" lon="4.81185">
        <ele>187.3</ele>
        <time>2014-03-23T08:21:54Z</time>
      </trkpt>
      <trkpt lat="44.87205" lon="4.8119">
        <ele>186.9</ele>
        <time>2014-03-23T08:21:55Z</time>
      </trkpt>
      <trkpt lat="44.87199" lon="4.81194">
        <ele>186</ele>
        <time>2014-03-23T08:21:56Z</time>
      </trkpt>
      <trkpt lat="44.87192" lon="4.81197">
        <ele>185.3</ele>
        <time>2014-03-23T08:21:57Z</time>
      </trkpt>
      <trkpt lat="44.87185" lon="4.81198">
        <ele>184.8</ele>
        <time>2014-03-23T08:21:58Z</time>
      </trkpt>
      <trkpt lat="44.87177" lon="4.81199">
        <ele>183.7</ele>
        <time>2014-03-23T08:21:59Z</time>
      </trkpt>
      <trkpt lat="44.87169" lon="4.81198">
        <ele>182.8</ele>
        <time>2014-03-23T08:22:00Z</time>
      </trkpt>
      <trkpt lat="44.87161" lon="4.81198">
        <ele>181.9</ele>
        <time>2014-03-23T08:22:01Z</time>
      </trkpt>
      <trkpt lat="44.87154" lon="4.81197">
        <ele>181.2</ele>
        <time>2014-03-23T08:22:02Z</time>
      </trkpt>
      <trkpt lat="44.87146" lon="4.81195">
        <ele>180.7</ele>
        <time>2014-03-23T08:22:03Z</time>
      </trkpt>
      <trkpt lat="44.8714" lon="4.8119">
        <ele>179.6</ele>
        <time>2014-03-23T08:22:04Z</time>
      </trkpt>
      <trkpt lat="44.87133" lon="4.81184">
        <ele>178.8</ele>
        <time>2014-03-23T08:22:05Z</time>
      </trkpt>
      <trkpt lat="44.87126" lon="4.81177">
        <ele>177.4</ele>
        <time>2014-03-23T08:22:06Z</time>
      </trkpt>
      <trkpt lat="44.87118" lon="4.81172">
        <ele>176.3</ele>
        <time>2014-03-23T08:22:07Z</time>
      </trkpt>
      <trkpt lat="44.8711" lon="4.81171">
        <ele>173.7</ele>
        <time>2014-03-23T08:22:09Z</time>
      </trkpt>
      <trkpt lat="44.87108" lon="4.81182">
        <ele>171.5</ele>
        <time>2014-03-23T08:22:12Z</time>
      </trkpt>
      <trkpt lat="44.87108" lon="4.81193">
        <ele>169.9</ele>
        <time>2014-03-23T08:22:15Z</time>
      </trkpt>
      <trkpt lat="44.87108" lon="4.81203">
        <ele>169.4</ele>
        <time>2014-03-23T08:22:18Z</time>
      </trkpt>
      <trkpt lat="44.87109" lon="4.81214">
        <ele>169.9</ele>
        <time>2014-03-23T08:22:21Z</time>
      </trkpt>
      <trkpt lat="44.87109" lon="4.81224">
        <ele>170.5</ele>
        <time>2014-03-23T08:22:24Z</time>
      </trkpt>
      <trkpt lat="44.87109" lon="4.81234">
        <ele>170.4</ele>
        <time>2014-03-23T08:22:27Z</time>
      </trkpt>
      <trkpt lat="44.87108" lon="4.81246">
        <ele>170.9</ele>
        <time>2014-03-23T08:22:30Z</time>
      </trkpt>
      <trkpt lat="44.87106" lon="4.81257">
        <ele>171.6</ele>
        <time>2014-03-23T08:22:34Z</time>
      </trkpt>
      <trkpt lat="44.87106" lon="4.8126">
        <ele>171.6</ele>
        <time>2014-03-23T08:22:35Z</time>
      </trkpt>
      <trkpt lat="44.87102" lon="4.8128">
        <ele>174.4</ele>
        <time>2014-03-23T08:22:42Z</time>
      </trkpt>
      <trkpt lat="44.87095" lon="4.81273">
        <ele>175.7</ele>
        <time>2014-03-23T08:22:55Z</time>
      </trkpt>
      <trkpt lat="44.87092" lon="4.81262">
        <ele>176.4</ele>
        <time>2014-03-23T08:23:01Z</time>
      </trkpt>
      <trkpt lat="44.87089" lon="4.81251">
        <ele>178</ele>
        <time>2014-03-23T08:23:06Z</time>
      </trkpt>
      <trkpt lat="44.87087" lon="4.81238">
        <ele>179.8</ele>
        <time>2014-03-23T08:23:11Z</time>
      </trkpt>
      <trkpt lat="44.87086" lon="4.81226">
        <ele>180.1</ele>
        <time>2014-03-23T08:23:16Z</time>
      </trkpt>
      <trkpt lat="44.87081" lon="4.81217">
        <ele>182.8</ele>
        <time>2014-03-23T08:23:21Z</time>
      </trkpt>
      <trkpt lat="44.87073" lon="4.81214">
        <ele>185.5</ele>
        <time>2014-03-23T08:23:27Z</time>
      </trkpt>
      <trkpt lat="44.87065" lon="4.81214">
        <ele>186.6</ele>
        <time>2014-03-23T08:23:32Z</time>
      </trkpt>
      <trkpt lat="44.87058" lon="4.81214">
        <ele>187.6</ele>
        <time>2014-03-23T08:23:36Z</time>
      </trkpt>
      <trkpt lat="44.87056" lon="4.81214">
        <ele>188</ele>
        <time>2014-03-23T08:23:37Z</time>
      </trkpt>
      <trkpt lat="44.87042" lon="4.81215">
        <ele>190.2</ele>
        <time>2014-03-23T08:23:45Z</time>
      </trkpt>
      <trkpt lat="44.87035" lon="4.81213">
        <ele>190.6</ele>
        <time>2014-03-23T08:23:49Z</time>
      </trkpt>
      <trkpt lat="44.87029" lon="4.81206">
        <ele>190.5</ele>
        <time>2014-03-23T08:23:53Z</time>
      </trkpt>
      <trkpt lat="44.87021" lon="4.81208">
        <ele>190.8</ele>
        <time>2014-03-23T08:23:57Z</time>
      </trkpt>
      <trkpt lat="44.87013" lon="4.8121">
        <ele>191.4</ele>
        <time>2014-03-23T08:24:01Z</time>
      </trkpt>
      <trkpt lat="44.87005" lon="4.8121">
        <ele>191.9</ele>
        <time>2014-03-23T08:24:05Z</time>
      </trkpt>
      <trkpt lat="44.86997" lon="4.81212">
        <ele>192.8</ele>
        <time>2014-03-23T08:24:09Z</time>
      </trkpt>
      <trkpt lat="44.87001" lon="4.81202">
        <ele>195.7</ele>
        <time>2014-03-23T08:24:26Z</time>
      </trkpt>
      <trkpt lat="44.87009" lon="4.81199">
        <ele>196.6</ele>
        <time>2014-03-23T08:24:32Z</time>
      </trkpt>
      <trkpt lat="44.87018" lon="4.81197">
        <ele>197.8</ele>
        <time>2014-03-23T08:24:59Z</time>
      </trkpt>
      <trkpt lat="44.87018" lon="4.81197">
        <ele>197.9</ele>
        <time>2014-03-23T08:25:00Z</time>
      </trkpt>
      <trkpt lat="44.8703" lon="4.81194">
        <ele>198.4</ele>
        <time>2014-03-23T08:27:13Z</time>
      </trkpt>
      <trkpt lat="44.87042" lon="4.81189">
        <ele>199.4</ele>
        <time>2014-03-23T08:27:18Z</time>
      </trkpt>
      <trkpt lat="44.87046" lon="4.8118">
        <ele>199.3</ele>
        <time>2014-03-23T08:27:21Z</time>
      </trkpt>
      <trkpt lat="44.87046" lon="4.81169">
        <ele>199.5</ele>
        <time>2014-03-23T08:27:24Z</time>
      </trkpt>
      <trkpt lat="44.87046" lon="4.81159">
        <ele>199.9</ele>
        <time>2014-03-23T08:27:27Z</time>
      </trkpt>
      <trkpt lat="44.87048" lon="4.81147">
        <ele>200.6</ele>
        <time>2014-03-23T08:27:30Z</time>
      </trkpt>
      <trkpt lat="44.87051" lon="4.81136">
        <ele>201.3</ele>
        <time>2014-03-23T08:27:34Z</time>
      </trkpt>
      <trkpt lat="44.87055" lon="4.81128">
        <ele>201.4</ele>
        <time>2014-03-23T08:27:37Z</time>
      </trkpt>
      <trkpt lat="44.87058" lon="4.8112">
        <ele>202.6</ele>
        <time>2014-03-23T08:27:40Z</time>
      </trkpt>
      <trkpt lat="44.87061" lon="4.81108">
        <ele>203.5</ele>
        <time>2014-03-23T08:27:44Z</time>
      </trkpt>
      <trkpt lat="44.87062" lon="4.81098">
        <ele>204.6</ele>
        <time>2014-03-23T08:27:47Z</time>
      </trkpt>
      <trkpt lat="44.87063" lon="4.81086">
        <ele>206</ele>
        <time>2014-03-23T08:27:51Z</time>
      </trkpt>
      <trkpt lat="44.87064" lon="4.81074">
        <ele>206.6</ele>
        <time>2014-03-23T08:27:55Z</time>
      </trkpt>
      <trkpt lat="44.87065" lon="4.81065">
        <ele>207.7</ele>
        <time>2014-03-23T08:27:58Z</time>
      </trkpt>
      <trkpt lat="44.87066" lon="4.81055">
        <ele>207.9</ele>
        <time>2014-03-23T08:28:01Z</time>
      </trkpt>
      <trkpt lat="44.87066" lon="4.81045">
        <ele>207.8</ele>
        <time>2014-03-23T08:28:04Z</time>
      </trkpt>
      <trkpt lat="44.87066" lon="4.81035">
        <ele>208.4</ele>
        <time>2014-03-23T08:28:07Z</time>
      </trkpt>
      <trkpt lat="44.87067" lon="4.81025">
        <ele>209.8</ele>
        <time>2014-03-23T08:28:10Z</time>
      </trkpt>
      <trkpt lat="44.87065" lon="4.81014">
        <ele>210.8</ele>
        <time>2014-03-23T08:28:13Z</time>
      </trkpt>
      <trkpt lat="44.87065" lon="4.81011">
        <ele>210.7</ele>
        <time>2014-03-23T08:28:14Z</time>
      </trkpt>
      <trkpt lat="44.87061" lon="4.8099">
        <ele>211.9</ele>
        <time>2014-03-23T08:28:21Z</time>
      </trkpt>
      <trkpt lat="44.87059" lon="4.80981">
        <ele>212.6</ele>
        <time>2014-03-23T08:28:24Z</time>
      </trkpt>
      <trkpt lat="44.87056" lon="4.80972">
        <ele>213.2</ele>
        <time>2014-03-23T08:28:27Z</time>
      </trkpt>
      <trkpt lat="44.87053" lon="4.80962">
        <ele>214.1</ele>
        <time>2014-03-23T08:28:30Z</time>
      </trkpt>
      <trkpt lat="44.8705" lon="4.80952">
        <ele>214.6</ele>
        <time>2014-03-23T08:28:33Z</time>
      </trkpt>
      <trkpt lat="44.87047" lon="4.80942">
        <ele>214.8</ele>
        <time>2014-03-23T08:28:36Z</time>
      </trkpt>
      <trkpt lat="44.87045" lon="4.80932">
        <ele>214.9</ele>
        <time>2014-03-23T08:28:39Z</time>
      </trkpt>
      <trkpt lat="44.87042" lon="4.80923">
        <ele>216.3</ele>
        <time>2014-03-23T08:28:42Z</time>
      </trkpt>
      <trkpt lat="44.87038" lon="4.80913">
        <ele>217.4</ele>
        <time>2014-03-23T08:28:46Z</time>
      </trkpt>
      <trkpt lat="44.87036" lon="4.80902">
        <ele>218</ele>
        <time>2014-03-23T08:28:51Z</time>
      </trkpt>
      <trkpt lat="44.87035" lon="4.80889">
        <ele>220</ele>
        <time>2014-03-23T08:28:57Z</time>
      </trkpt>
      <trkpt lat="44.87035" lon="4.80879">
        <ele>221.1</ele>
        <time>2014-03-23T08:29:02Z</time>
      </trkpt>
      <trkpt lat="44.87035" lon="4.80867">
        <ele>222.5</ele>
        <time>2014-03-23T08:29:07Z</time>
      </trkpt>
      <trkpt lat="44.87037" lon="4.80856">
        <ele>224</ele>
        <time>2014-03-23T08:29:12Z</time>
      </trkpt>
      <trkpt lat="44.87036" lon="4.80845">
        <ele>225.7</ele>
        <time>2014-03-23T08:29:16Z</time>
      </trkpt>
      <trkpt lat="44.87035" lon="4.80842">
        <ele>225.9</ele>
        <time>2014-03-23T08:29:17Z</time>
      </trkpt>
      <trkpt lat="44.87034" lon="4.80824">
        <ele>226.1</ele>
        <time>2014-03-23T08:29:23Z</time>
      </trkpt>
      <trkpt lat="44.87035" lon="4.80812">
        <ele>227.5</ele>
        <time>2014-03-23T08:29:27Z</time>
      </trkpt>
      <trkpt lat="44.87038" lon="4.80802">
        <ele>227.5</ele>
        <time>2014-03-23T08:29:31Z</time>
      </trkpt>
      <trkpt lat="44.87041" lon="4.80793">
        <ele>228.8</ele>
        <time>2014-03-23T08:29:34Z</time>
      </trkpt>
      <trkpt lat="44.87046" lon="4.80782">
        <ele>229</ele>
        <time>2014-03-23T08:29:38Z</time>
      </trkpt>
      <trkpt lat="44.8705" lon="4.80771">
        <ele>229.8</ele>
        <time>2014-03-23T08:29:42Z</time>
      </trkpt>
      <trkpt lat="44.87053" lon="4.80761">
        <ele>231</ele>
        <time>2014-03-23T08:29:46Z</time>
      </trkpt>
      <trkpt lat="44.87056" lon="4.8075">
        <ele>232.3</ele>
        <time>2014-03-23T08:29:51Z</time>
      </trkpt>
      <trkpt lat="44.8706" lon="4.80739">
        <ele>233.8</ele>
        <time>2014-03-23T08:29:56Z</time>
      </trkpt>
      <trkpt lat="44.87064" lon="4.80728">
        <ele>235.7</ele>
        <time>2014-03-23T08:30:01Z</time>
      </trkpt>
      <trkpt lat="44.87068" lon="4.80719">
        <ele>236.5</ele>
        <time>2014-03-23T08:30:05Z</time>
      </trkpt>
      <trkpt lat="44.87074" lon="4.80711">
        <ele>237.5</ele>
        <time>2014-03-23T08:30:09Z</time>
      </trkpt>
      <trkpt lat="44.87078" lon="4.80702">
        <ele>238.7</ele>
        <time>2014-03-23T08:30:13Z</time>
      </trkpt>
      <trkpt lat="44.87083" lon="4.80694">
        <ele>239.5</ele>
        <time>2014-03-23T08:30:17Z</time>
      </trkpt>
      <trkpt lat="44.87084" lon="4.80692">
        <ele>239.9</ele>
        <time>2014-03-23T08:30:18Z</time>
      </trkpt>
      <trkpt lat="44.87093" lon="4.80674">
        <ele>241.9</ele>
        <time>2014-03-23T08:30:25Z</time>
      </trkpt>
      <trkpt lat="44.87097" lon="4.80667">
        <ele>242.7</ele>
        <time>2014-03-23T08:30:28Z</time>
      </trkpt>
      <trkpt lat="44.871" lon="4.80659">
        <ele>243.3</ele>
        <time>2014-03-23T08:30:31Z</time>
      </trkpt>
      <trkpt lat="44.87104" lon="4.80648">
        <ele>243.3</ele>
        <time>2014-03-23T08:30:35Z</time>
      </trkpt>
      <trkpt lat="44.87108" lon="4.80639">
        <ele>243.7</ele>
        <time>2014-03-23T08:30:38Z</time>
      </trkpt>
      <trkpt lat="44.87111" lon="4.80631">
        <ele>244.9</ele>
        <time>2014-03-23T08:30:41Z</time>
      </trkpt>
      <trkpt lat="44.87116" lon="4.80621">
        <ele>246.9</ele>
        <time>2014-03-23T08:30:45Z</time>
      </trkpt>
      <trkpt lat="44.8712" lon="4.80613">
        <ele>247.6</ele>
        <time>2014-03-23T08:30:48Z</time>
      </trkpt>
      <trkpt lat="44.87125" lon="4.80603">
        <ele>248.6</ele>
        <time>2014-03-23T08:30:52Z</time>
      </trkpt>
      <trkpt lat="44.87128" lon="4.80594">
        <ele>249.4</ele>
        <time>2014-03-23T08:30:55Z</time>
      </trkpt>
      <trkpt lat="44.87131" lon="4.80583">
        <ele>250</ele>
        <time>2014-03-23T08:30:59Z</time>
      </trkpt>
      <trkpt lat="44.87132" lon="4.80573">
        <ele>250.5</ele>
        <time>2014-03-23T08:31:02Z</time>
      </trkpt>
      <trkpt lat="44.87133" lon="4.80564">
        <ele>251.3</ele>
        <time>2014-03-23T08:31:05Z</time>
      </trkpt>
      <trkpt lat="44.87133" lon="4.80554">
        <ele>252.3</ele>
        <time>2014-03-23T08:31:08Z</time>
      </trkpt>
      <trkpt lat="44.87133" lon="4.80543">
        <ele>253</ele>
        <time>2014-03-23T08:31:11Z</time>
      </trkpt>
      <trkpt lat="44.87132" lon="4.80533">
        <ele>253.9</ele>
        <time>2014-03-23T08:31:14Z</time>
      </trkpt>
      <trkpt lat="44.87132" lon="4.80523">
        <ele>254.1</ele>
        <time>2014-03-23T08:31:17Z</time>
      </trkpt>
      <trkpt lat="44.87133" lon="4.80513">
        <ele>254.5</ele>
        <time>2014-03-23T08:31:20Z</time>
      </trkpt>
      <trkpt lat="44.87133" lon="4.8051">
        <ele>254.7</ele>
        <time>2014-03-23T08:31:21Z</time>
      </trkpt>
      <trkpt lat="44.87144" lon="4.80496">
        <ele>256.7</ele>
        <time>2014-03-23T08:31:28Z</time>
      </trkpt>
      <trkpt lat="44.8715" lon="4.80492">
        <ele>257.3</ele>
        <time>2014-03-23T08:31:31Z</time>
      </trkpt>
      <trkpt lat="44.87155" lon="4.80485">
        <ele>258.2</ele>
        <time>2014-03-23T08:31:34Z</time>
      </trkpt>
      <trkpt lat="44.87161" lon="4.80479">
        <ele>259.1</ele>
        <time>2014-03-23T08:31:37Z</time>
      </trkpt>
      <trkpt lat="44.87166" lon="4.80472">
        <ele>259.8</ele>
        <time>2014-03-23T08:31:40Z</time>
      </trkpt>
      <trkpt lat="44.8717" lon="4.80464">
        <ele>259.8</ele>
        <time>2014-03-23T08:31:43Z</time>
      </trkpt>
      <trkpt lat="44.87174" lon="4.80457">
        <ele>260.4</ele>
        <time>2014-03-23T08:31:46Z</time>
      </trkpt>
      <trkpt lat="44.87178" lon="4.80449">
        <ele>261.2</ele>
        <time>2014-03-23T08:31:49Z</time>
      </trkpt>
      <trkpt lat="44.87182" lon="4.80441">
        <ele>262.7</ele>
        <time>2014-03-23T08:31:52Z</time>
      </trkpt>
      <trkpt lat="44.87186" lon="4.8043">
        <ele>263.9</ele>
        <time>2014-03-23T08:31:56Z</time>
      </trkpt>
      <trkpt lat="44.87191" lon="4.80421">
        <ele>264.7</ele>
        <time>2014-03-23T08:32:00Z</time>
      </trkpt>
      <trkpt lat="44.87195" lon="4.80411">
        <ele>265.8</ele>
        <time>2014-03-23T08:32:04Z</time>
      </trkpt>
      <trkpt lat="44.87198" lon="4.80401">
        <ele>266.6</ele>
        <time>2014-03-23T08:32:08Z</time>
      </trkpt>
      <trkpt lat="44.87202" lon="4.8039">
        <ele>268.2</ele>
        <time>2014-03-23T08:32:12Z</time>
      </trkpt>
      <trkpt lat="44.87204" lon="4.80378">
        <ele>269.3</ele>
        <time>2014-03-23T08:32:16Z</time>
      </trkpt>
      <trkpt lat="44.87207" lon="4.80368">
        <ele>269.3</ele>
        <time>2014-03-23T08:32:20Z</time>
      </trkpt>
      <trkpt lat="44.8721" lon="4.80357">
        <ele>271.2</ele>
        <time>2014-03-23T08:32:24Z</time>
      </trkpt>
      <trkpt lat="44.87211" lon="4.80355">
        <ele>271.9</ele>
        <time>2014-03-23T08:32:25Z</time>
      </trkpt>
      <trkpt lat="44.87216" lon="4.80337">
        <ele>273.7</ele>
        <time>2014-03-23T08:32:32Z</time>
      </trkpt>
      <trkpt lat="44.87219" lon="4.80326">
        <ele>275.5</ele>
        <time>2014-03-23T08:32:36Z</time>
      </trkpt>
      <trkpt lat="44.87221" lon="4.80314">
        <ele>276.1</ele>
        <time>2014-03-23T08:32:40Z</time>
      </trkpt>
      <trkpt lat="44.87223" lon="4.80305">
        <ele>276.5</ele>
        <time>2014-03-23T08:32:43Z</time>
      </trkpt>
      <trkpt lat="44.87225" lon="4.80295">
        <ele>277.8</ele>
        <time>2014-03-23T08:32:46Z</time>
      </trkpt>
      <trkpt lat="44.87226" lon="4.80286">
        <ele>278.6</ele>
        <time>2014-03-23T08:32:49Z</time>
      </trkpt>
      <trkpt lat="44.87226" lon="4.80276">
        <ele>279.8</ele>
        <time>2014-03-23T08:32:52Z</time>
      </trkpt>
      <trkpt lat="44.87227" lon="4.80266">
        <ele>279.7</ele>
        <time>2014-03-23T08:32:55Z</time>
      </trkpt>
      <trkpt lat="44.87228" lon="4.80254">
        <ele>279.4</ele>
        <time>2014-03-23T08:32:59Z</time>
      </trkpt>
      <trkpt lat="44.87233" lon="4.80245">
        <ele>281</ele>
        <time>2014-03-23T08:33:03Z</time>
      </trkpt>
      <trkpt lat="44.8724" lon="4.8024">
        <ele>281.7</ele>
        <time>2014-03-23T08:33:07Z</time>
      </trkpt>
      <trkpt lat="44.87248" lon="4.80239">
        <ele>282.7</ele>
        <time>2014-03-23T08:33:10Z</time>
      </trkpt>
      <trkpt lat="44.87256" lon="4.80239">
        <ele>283.5</ele>
        <time>2014-03-23T08:33:13Z</time>
      </trkpt>
      <trkpt lat="44.87263" lon="4.80241">
        <ele>284.6</ele>
        <time>2014-03-23T08:33:16Z</time>
      </trkpt>
      <trkpt lat="44.87272" lon="4.8024">
        <ele>284.6</ele>
        <time>2014-03-23T08:33:19Z</time>
      </trkpt>
      <trkpt lat="44.87279" lon="4.8024">
        <ele>285.9</ele>
        <time>2014-03-23T08:33:22Z</time>
      </trkpt>
      <trkpt lat="44.87286" lon="4.80239">
        <ele>287</ele>
        <time>2014-03-23T08:33:25Z</time>
      </trkpt>
      <trkpt lat="44.87288" lon="4.80238">
        <ele>287.3</ele>
        <time>2014-03-23T08:33:26Z</time>
      </trkpt>
      <trkpt lat="44.873" lon="4.80233">
        <ele>288.9</ele>
        <time>2014-03-23T08:33:32Z</time>
      </trkpt>
      <trkpt lat="44.87307" lon="4.80229">
        <ele>290.7</ele>
        <time>2014-03-23T08:33:36Z</time>
      </trkpt>
      <trkpt lat="44.87313" lon="4.80224">
        <ele>290.9</ele>
        <time>2014-03-23T08:33:40Z</time>
      </trkpt>
      <trkpt lat="44.87321" lon="4.80218">
        <ele>292.1</ele>
        <time>2014-03-23T08:33:45Z</time>
      </trkpt>
      <trkpt lat="44.87327" lon="4.80213">
        <ele>292.2</ele>
        <time>2014-03-23T08:33:49Z</time>
      </trkpt>
      <trkpt lat="44.87333" lon="4.80207">
        <ele>293.2</ele>
        <time>2014-03-23T08:33:53Z</time>
      </trkpt>
      <trkpt lat="44.87339" lon="4.80202">
        <ele>293.8</ele>
        <time>2014-03-23T08:33:56Z</time>
      </trkpt>
      <trkpt lat="44.87345" lon="4.80197">
        <ele>294.4</ele>
        <time>2014-03-23T08:33:59Z</time>
      </trkpt>
      <trkpt lat="44.87353" lon="4.8019">
        <ele>296</ele>
        <time>2014-03-23T08:34:03Z</time>
      </trkpt>
      <trkpt lat="44.8736" lon="4.80183">
        <ele>296.9</ele>
        <time>2014-03-23T08:34:07Z</time>
      </trkpt>
      <trkpt lat="44.87365" lon="4.80177">
        <ele>297.6</ele>
        <time>2014-03-23T08:34:10Z</time>
      </trkpt>
      <trkpt lat="44.87372" lon="4.80169">
        <ele>298.7</ele>
        <time>2014-03-23T08:34:14Z</time>
      </trkpt>
      <trkpt lat="44.87378" lon="4.80162">
        <ele>299.5</ele>
        <time>2014-03-23T08:34:18Z</time>
      </trkpt>
      <trkpt lat="44.87384" lon="4.80153">
        <ele>300.8</ele>
        <time>2014-03-23T08:34:24Z</time>
      </trkpt>
      <trkpt lat="44.87391" lon="4.80146">
        <ele>302.3</ele>
        <time>2014-03-23T08:34:29Z</time>
      </trkpt>
      <trkpt lat="44.87392" lon="4.80145">
        <ele>302.8</ele>
        <time>2014-03-23T08:34:30Z</time>
      </trkpt>
      <trkpt lat="44.87403" lon="4.80136">
        <ele>304.3</ele>
        <time>2014-03-23T08:34:36Z</time>
      </trkpt>
      <trkpt lat="44.87409" lon="4.80131">
        <ele>305.1</ele>
        <time>2014-03-23T08:34:39Z</time>
      </trkpt>
      <trkpt lat="44.87416" lon="4.80127">
        <ele>305.2</ele>
        <time>2014-03-23T08:34:42Z</time>
      </trkpt>
      <trkpt lat="44.87423" lon="4.80122">
        <ele>306.9</ele>
        <time>2014-03-23T08:34:46Z</time>
      </trkpt>
      <trkpt lat="44.87429" lon="4.80114">
        <ele>307</ele>
        <time>2014-03-23T08:34:51Z</time>
      </trkpt>
      <trkpt lat="44.87437" lon="4.80108">
        <ele>308.9</ele>
        <time>2014-03-23T08:34:55Z</time>
      </trkpt>
      <trkpt lat="44.87444" lon="4.80101">
        <ele>310.8</ele>
        <time>2014-03-23T08:34:59Z</time>
      </trkpt>
      <trkpt lat="44.87449" lon="4.80094">
        <ele>311.9</ele>
        <time>2014-03-23T08:35:02Z</time>
      </trkpt>
      <trkpt lat="44.87455" lon="4.80085">
        <ele>312.9</ele>
        <time>2014-03-23T08:35:06Z</time>
      </trkpt>
      <trkpt lat="44.87458" lon="4.80074">
        <ele>314</ele>
        <time>2014-03-23T08:35:10Z</time>
      </trkpt>
      <trkpt lat="44.87458" lon="4.80062">
        <ele>314.6</ele>
        <time>2014-03-23T08:35:14Z</time>
      </trkpt>
      <trkpt lat="44.87458" lon="4.80051">
        <ele>314.6</ele>
        <time>2014-03-23T08:35:18Z</time>
      </trkpt>
      <trkpt lat="44.87457" lon="4.80041">
        <ele>314.9</ele>
        <time>2014-03-23T08:35:22Z</time>
      </trkpt>
      <trkpt lat="44.87458" lon="4.8003">
        <ele>315.5</ele>
        <time>2014-03-23T08:35:26Z</time>
      </trkpt>
      <trkpt lat="44.87457" lon="4.80019">
        <ele>317</ele>
        <time>2014-03-23T08:35:30Z</time>
      </trkpt>
      <trkpt lat="44.87456" lon="4.80016">
        <ele>317.6</ele>
        <time>2014-03-23T08:35:31Z</time>
      </trkpt>
      <trkpt lat="44.87462" lon="4.79999">
        <ele>319.9</ele>
        <time>2014-03-23T08:35:39Z</time>
      </trkpt>
      <trkpt lat="44.87465" lon="4.79991">
        <ele>321.2</ele>
        <time>2014-03-23T08:35:42Z</time>
      </trkpt>
      <trkpt lat="44.87468" lon="4.79982">
        <ele>321.7</ele>
        <time>2014-03-23T08:35:45Z</time>
      </trkpt>
      <trkpt lat="44.87471" lon="4.79973">
        <ele>322.3</ele>
        <time>2014-03-23T08:35:48Z</time>
      </trkpt>
      <trkpt lat="44.87473" lon="4.79964">
        <ele>322.7</ele>
        <time>2014-03-23T08:35:51Z</time>
      </trkpt>
      <trkpt lat="44.87476" lon="4.79952">
        <ele>323.5</ele>
        <time>2014-03-23T08:35:55Z</time>
      </trkpt>
      <trkpt lat="44.87477" lon="4.7994">
        <ele>325</ele>
        <time>2014-03-23T08:35:59Z</time>
      </trkpt>
      <trkpt lat="44.87478" lon="4.79929">
        <ele>326.2</ele>
        <time>2014-03-23T08:36:03Z</time>
      </trkpt>
      <trkpt lat="44.8748" lon="4.79918">
        <ele>326.8</ele>
        <time>2014-03-23T08:36:07Z</time>
      </trkpt>
      <trkpt lat="44.87481" lon="4.79907">
        <ele>326.9</ele>
        <time>2014-03-23T08:36:11Z</time>
      </trkpt>
      <trkpt lat="44.8748" lon="4.79895">
        <ele>327.6</ele>
        <time>2014-03-23T08:36:15Z</time>
      </trkpt>
      <trkpt lat="44.87482" lon="4.79884">
        <ele>329.1</ele>
        <time>2014-03-23T08:36:20Z</time>
      </trkpt>
      <trkpt lat="44.87482" lon="4.79872">
        <ele>329.5</ele>
        <time>2014-03-23T08:36:24Z</time>
      </trkpt>
      <trkpt lat="44.87483" lon="4.79861">
        <ele>330.6</ele>
        <time>2014-03-23T08:36:28Z</time>
      </trkpt>
      <trkpt lat="44.87485" lon="4.79849">
        <ele>331.5</ele>
        <time>2014-03-23T08:36:32Z</time>
      </trkpt>
      <trkpt lat="44.87485" lon="4.79846">
        <ele>331.9</ele>
        <time>2014-03-23T08:36:33Z</time>
      </trkpt>
      <trkpt lat="44.87486" lon="4.79826">
        <ele>334.8</ele>
        <time>2014-03-23T08:36:40Z</time>
      </trkpt>
      <trkpt lat="44.87485" lon="4.79814">
        <ele>335.9</ele>
        <time>2014-03-23T08:36:44Z</time>
      </trkpt>
      <trkpt lat="44.87483" lon="4.79804">
        <ele>337.2</ele>
        <time>2014-03-23T08:36:48Z</time>
      </trkpt>
      <trkpt lat="44.87481" lon="4.79794">
        <ele>338.4</ele>
        <time>2014-03-23T08:36:52Z</time>
      </trkpt>
      <trkpt lat="44.87479" lon="4.79783">
        <ele>339.7</ele>
        <time>2014-03-23T08:36:57Z</time>
      </trkpt>
      <trkpt lat="44.87475" lon="4.79771">
        <ele>340.2</ele>
        <time>2014-03-23T08:37:02Z</time>
      </trkpt>
      <trkpt lat="44.87471" lon="4.7976">
        <ele>342.2</ele>
        <time>2014-03-23T08:37:07Z</time>
      </trkpt>
      <trkpt lat="44.87468" lon="4.79749">
        <ele>343.6</ele>
        <time>2014-03-23T08:37:12Z</time>
      </trkpt>
      <trkpt lat="44.87464" lon="4.7974">
        <ele>344.9</ele>
        <time>2014-03-23T08:37:16Z</time>
      </trkpt>
      <trkpt lat="44.87461" lon="4.79731">
        <ele>346.6</ele>
        <time>2014-03-23T08:37:20Z</time>
      </trkpt>
      <trkpt lat="44.87458" lon="4.79721">
        <ele>346.8</ele>
        <time>2014-03-23T08:37:23Z</time>
      </trkpt>
      <trkpt lat="44.87457" lon="4.7971">
        <ele>348.8</ele>
        <time>2014-03-23T08:37:26Z</time>
      </trkpt>
      <trkpt lat="44.87457" lon="4.79699">
        <ele>349.1</ele>
        <time>2014-03-23T08:37:29Z</time>
      </trkpt>
      <trkpt lat="44.87458" lon="4.79687">
        <ele>348.8</ele>
        <time>2014-03-23T08:37:32Z</time>
      </trkpt>
      <trkpt lat="44.87458" lon="4.79676">
        <ele>349.1</ele>
        <time>2014-03-23T08:37:35Z</time>
      </trkpt>
      <trkpt lat="44.87458" lon="4.79672">
        <ele>349.5</ele>
        <time>2014-03-23T08:37:36Z</time>
      </trkpt>
      <trkpt lat="44.87458" lon="4.79655">
        <ele>349.9</ele>
        <time>2014-03-23T08:37:41Z</time>
      </trkpt>
      <trkpt lat="44.87458" lon="4.79646">
        <ele>350.6</ele>
        <time>2014-03-23T08:37:44Z</time>
      </trkpt>
      <trkpt lat="44.87458" lon="4.79633">
        <ele>351.3</ele>
        <time>2014-03-23T08:37:48Z</time>
      </trkpt>
      <trkpt lat="44.87458" lon="4.79623">
        <ele>351.9</ele>
        <time>2014-03-23T08:37:51Z</time>
      </trkpt>
      <trkpt lat="44.87459" lon="4.79613">
        <ele>352.9</ele>
        <time>2014-03-23T08:37:54Z</time>
      </trkpt>
      <trkpt lat="44.8746" lon="4.79604">
        <ele>353.2</ele>
        <time>2014-03-23T08:37:57Z</time>
      </trkpt>
      <trkpt lat="44.8746" lon="4.79594">
        <ele>354.2</ele>
        <time>2014-03-23T08:38:00Z</time>
      </trkpt>
      <trkpt lat="44.8746" lon="4.79582">
        <ele>354.2</ele>
        <time>2014-03-23T08:38:04Z</time>
      </trkpt>
      <trkpt lat="44.87459" lon="4.79572">
        <ele>355.2</ele>
        <time>2014-03-23T08:38:08Z</time>
      </trkpt>
      <trkpt lat="44.87456" lon="4.7956">
        <ele>356.4</ele>
        <time>2014-03-23T08:38:13Z</time>
      </trkpt>
      <trkpt lat="44.87454" lon="4.79549">
        <ele>357.4</ele>
        <time>2014-03-23T08:38:17Z</time>
      </trkpt>
      <trkpt lat="44.87451" lon="4.79538">
        <ele>358.7</ele>
        <time>2014-03-23T08:38:21Z</time>
      </trkpt>
      <trkpt lat="44.87449" lon="4.79549">
        <ele>361.2</ele>
        <time>2014-03-23T08:38:33Z</time>
      </trkpt>
      <trkpt lat="44.87451" lon="4.7956">
        <ele>362.5</ele>
        <time>2014-03-23T08:38:38Z</time>
      </trkpt>
      <trkpt lat="44.87451" lon="4.79562">
        <ele>362.5</ele>
        <time>2014-03-23T08:38:39Z</time>
      </trkpt>
      <trkpt lat="44.8745" lon="4.79582">
        <ele>364.4</ele>
        <time>2014-03-23T08:38:48Z</time>
      </trkpt>
      <trkpt lat="44.87451" lon="4.79593">
        <ele>366</ele>
        <time>2014-03-23T08:38:53Z</time>
      </trkpt>
      <trkpt lat="44.87451" lon="4.79605">
        <ele>366.8</ele>
        <time>2014-03-23T08:38:58Z</time>
      </trkpt>
      <trkpt lat="44.87449" lon="4.79616">
        <ele>367.7</ele>
        <time>2014-03-23T08:39:03Z</time>
      </trkpt>
      <trkpt lat="44.87448" lon="4.79627">
        <ele>368.1</ele>
        <time>2014-03-23T08:39:07Z</time>
      </trkpt>
      <trkpt lat="44.87446" lon="4.7964">
        <ele>368.9</ele>
        <time>2014-03-23T08:39:11Z</time>
      </trkpt>
      <trkpt lat="44.87443" lon="4.79649">
        <ele>369.1</ele>
        <time>2014-03-23T08:39:14Z</time>
      </trkpt>
      <trkpt lat="44.87441" lon="4.79658">
        <ele>370</ele>
        <time>2014-03-23T08:39:17Z</time>
      </trkpt>
      <trkpt lat="44.87438" lon="4.79669">
        <ele>370.4</ele>
        <time>2014-03-23T08:39:20Z</time>
      </trkpt>
      <trkpt lat="44.87435" lon="4.79681">
        <ele>370.7</ele>
        <time>2014-03-23T08:39:23Z</time>
      </trkpt>
      <trkpt lat="44.87433" lon="4.79692">
        <ele>371.4</ele>
        <time>2014-03-23T08:39:26Z</time>
      </trkpt>
      <trkpt lat="44.87433" lon="4.79705">
        <ele>372.1</ele>
        <time>2014-03-23T08:39:29Z</time>
      </trkpt>
      <trkpt lat="44.87432" lon="4.79716">
        <ele>372.5</ele>
        <time>2014-03-23T08:39:32Z</time>
      </trkpt>
      <trkpt lat="44.87432" lon="4.79725">
        <ele>372.8</ele>
        <time>2014-03-23T08:39:34Z</time>
      </trkpt>
      <trkpt lat="44.87431" lon="4.79735">
        <ele>373.4</ele>
        <time>2014-03-23T08:39:36Z</time>
      </trkpt>
      <trkpt lat="44.8743" lon="4.79747">
        <ele>373.6</ele>
        <time>2014-03-23T08:39:38Z</time>
      </trkpt>
      <trkpt lat="44.87429" lon="4.7976">
        <ele>374.2</ele>
        <time>2014-03-23T08:39:40Z</time>
      </trkpt>
      <trkpt lat="44.87428" lon="4.79765">
        <ele>374.6</ele>
        <time>2014-03-23T08:39:41Z</time>
      </trkpt>
      <trkpt lat="44.87426" lon="4.7978">
        <ele>376.5</ele>
        <time>2014-03-23T08:39:45Z</time>
      </trkpt>
      <trkpt lat="44.87425" lon="4.7979">
        <ele>377.1</ele>
        <time>2014-03-23T08:39:48Z</time>
      </trkpt>
      <trkpt lat="44.87424" lon="4.798">
        <ele>377.5</ele>
        <time>2014-03-23T08:39:51Z</time>
      </trkpt>
      <trkpt lat="44.87421" lon="4.79812">
        <ele>379</ele>
        <time>2014-03-23T08:39:55Z</time>
      </trkpt>
      <trkpt lat="44.87419" lon="4.79824">
        <ele>379.8</ele>
        <time>2014-03-23T08:39:59Z</time>
      </trkpt>
      <trkpt lat="44.87417" lon="4.79833">
        <ele>380.8</ele>
        <time>2014-03-23T08:40:02Z</time>
      </trkpt>
      <trkpt lat="44.87414" lon="4.79842">
        <ele>381.7</ele>
        <time>2014-03-23T08:40:05Z</time>
      </trkpt>
      <trkpt lat="44.8741" lon="4.7985">
        <ele>382.2</ele>
        <time>2014-03-23T08:40:08Z</time>
      </trkpt>
      <trkpt lat="44.87406" lon="4.79858">
        <ele>382.6</ele>
        <time>2014-03-23T08:40:11Z</time>
      </trkpt>
      <trkpt lat="44.874" lon="4.79866">
        <ele>384.2</ele>
        <time>2014-03-23T08:40:15Z</time>
      </trkpt>
      <trkpt lat="44.87394" lon="4.79873">
        <ele>385.7</ele>
        <time>2014-03-23T08:40:19Z</time>
      </trkpt>
      <trkpt lat="44.87388" lon="4.79881">
        <ele>387</ele>
        <time>2014-03-23T08:40:23Z</time>
      </trkpt>
      <trkpt lat="44.87381" lon="4.79887">
        <ele>387.8</ele>
        <time>2014-03-23T08:40:27Z</time>
      </trkpt>
      <trkpt lat="44.87374" lon="4.79895">
        <ele>387.8</ele>
        <time>2014-03-23T08:40:32Z</time>
      </trkpt>
      <trkpt lat="44.87369" lon="4.79903">
        <ele>388</ele>
        <time>2014-03-23T08:40:36Z</time>
      </trkpt>
      <trkpt lat="44.87363" lon="4.7991">
        <ele>388.8</ele>
        <time>2014-03-23T08:40:39Z</time>
      </trkpt>
      <trkpt lat="44.87357" lon="4.79918">
        <ele>390.2</ele>
        <time>2014-03-23T08:40:42Z</time>
      </trkpt>
      <trkpt lat="44.87354" lon="4.7992">
        <ele>390.7</ele>
        <time>2014-03-23T08:40:43Z</time>
      </trkpt>
      <trkpt lat="44.87346" lon="4.79927">
        <ele>391.4</ele>
        <time>2014-03-23T08:40:46Z</time>
      </trkpt>
      <trkpt lat="44.8734" lon="4.79931">
        <ele>392</ele>
        <time>2014-03-23T08:40:48Z</time>
      </trkpt>
      <trkpt lat="44.87332" lon="4.79936">
        <ele>393</ele>
        <time>2014-03-23T08:40:51Z</time>
      </trkpt>
      <trkpt lat="44.87324" lon="4.7994">
        <ele>393.8</ele>
        <time>2014-03-23T08:40:54Z</time>
      </trkpt>
      <trkpt lat="44.87316" lon="4.79943">
        <ele>394.8</ele>
        <time>2014-03-23T08:40:57Z</time>
      </trkpt>
      <trkpt lat="44.87308" lon="4.79944">
        <ele>394.7</ele>
        <time>2014-03-23T08:41:00Z</time>
      </trkpt>
      <trkpt lat="44.873" lon="4.79946">
        <ele>395.1</ele>
        <time>2014-03-23T08:41:03Z</time>
      </trkpt>
      <trkpt lat="44.87291" lon="4.79949">
        <ele>395.2</ele>
        <time>2014-03-23T08:41:06Z</time>
      </trkpt>
      <trkpt lat="44.87283" lon="4.79951">
        <ele>395.9</ele>
        <time>2014-03-23T08:41:09Z</time>
      </trkpt>
      <trkpt lat="44.87286" lon="4.7994">
        <ele>400.2</ele>
        <time>2014-03-23T08:41:24Z</time>
      </trkpt>
      <trkpt lat="44.87294" lon="4.79935">
        <ele>401.6</ele>
        <time>2014-03-23T08:41:30Z</time>
      </trkpt>
      <trkpt lat="44.87301" lon="4.79929">
        <ele>403.3</ele>
        <time>2014-03-23T08:41:35Z</time>
      </trkpt>
      <trkpt lat="44.87307" lon="4.79922">
        <ele>404.9</ele>
        <time>2014-03-23T08:41:40Z</time>
      </trkpt>
      <trkpt lat="44.87314" lon="4.79916">
        <ele>407.1</ele>
        <time>2014-03-23T08:41:45Z</time>
      </trkpt>
      <trkpt lat="44.87315" lon="4.79915">
        <ele>406.9</ele>
        <time>2014-03-23T08:41:46Z</time>
      </trkpt>
      <trkpt lat="44.87322" lon="4.79898">
        <ele>408.2</ele>
        <time>2014-03-23T08:41:55Z</time>
      </trkpt>
      <trkpt lat="44.87323" lon="4.79886">
        <ele>409.8</ele>
        <time>2014-03-23T08:42:00Z</time>
      </trkpt>
      <trkpt lat="44.87324" lon="4.79875">
        <ele>410.6</ele>
        <time>2014-03-23T08:42:05Z</time>
      </trkpt>
      <trkpt lat="44.87328" lon="4.79863">
        <ele>412.8</ele>
        <time>2014-03-23T08:42:16Z</time>
      </trkpt>
      <trkpt lat="44.87337" lon="4.79862">
        <ele>413.4</ele>
        <time>2014-03-23T08:43:00Z</time>
      </trkpt>
      <trkpt lat="44.87337" lon="4.79862">
        <ele>413.4</ele>
        <time>2014-03-23T08:43:01Z</time>
      </trkpt>
      <trkpt lat="44.87346" lon="4.7986">
        <ele>417.9</ele>
        <time>2014-03-23T08:45:44Z</time>
      </trkpt>
      <trkpt lat="44.87359" lon="4.79849">
        <ele>416.2</ele>
        <time>2014-03-23T08:45:55Z</time>
      </trkpt>
      <trkpt lat="44.87362" lon="4.79838">
        <ele>414.8</ele>
        <time>2014-03-23T08:45:58Z</time>
      </trkpt>
      <trkpt lat="44.87365" lon="4.79832">
        <ele>414.3</ele>
        <time>2014-03-23T08:46:00Z</time>
      </trkpt>
      <trkpt lat="44.87369" lon="4.79821">
        <ele>413.9</ele>
        <time>2014-03-23T08:46:02Z</time>
      </trkpt>
      <trkpt lat="44.87371" lon="4.79815">
        <ele>413.8</ele>
        <time>2014-03-23T08:46:03Z</time>
      </trkpt>
      <trkpt lat="44.87373" lon="4.79803">
        <ele>411.9</ele>
        <time>2014-03-23T08:46:05Z</time>
      </trkpt>
      <trkpt lat="44.87374" lon="4.79796">
        <ele>411.3</ele>
        <time>2014-03-23T08:46:06Z</time>
      </trkpt>
      <trkpt lat="44.87375" lon="4.79789">
        <ele>410.7</ele>
        <time>2014-03-23T08:46:07Z</time>
      </trkpt>
      <trkpt lat="44.87376" lon="4.79782">
        <ele>410.3</ele>
        <time>2014-03-23T08:46:08Z</time>
      </trkpt>
      <trkpt lat="44.87376" lon="4.79774">
        <ele>409.4</ele>
        <time>2014-03-23T08:46:09Z</time>
      </trkpt>
      <trkpt lat="44.87377" lon="4.79766">
        <ele>408.7</ele>
        <time>2014-03-23T08:46:10Z</time>
      </trkpt>
      <trkpt lat="44.87377" lon="4.79753">
        <ele>407.6</ele>
        <time>2014-03-23T08:46:12Z</time>
      </trkpt>
      <trkpt lat="44.87377" lon="4.79743">
        <ele>406.4</ele>
        <time>2014-03-23T08:46:14Z</time>
      </trkpt>
      <trkpt lat="44.87377" lon="4.79733">
        <ele>405.2</ele>
        <time>2014-03-23T08:46:16Z</time>
      </trkpt>
      <trkpt lat="44.87378" lon="4.79726">
        <ele>404.8</ele>
        <time>2014-03-23T08:46:17Z</time>
      </trkpt>
      <trkpt lat="44.87378" lon="4.7972">
        <ele>404.5</ele>
        <time>2014-03-23T08:46:18Z</time>
      </trkpt>
      <trkpt lat="44.87378" lon="4.79713">
        <ele>403.6</ele>
        <time>2014-03-23T08:46:19Z</time>
      </trkpt>
      <trkpt lat="44.87379" lon="4.79707">
        <ele>403</ele>
        <time>2014-03-23T08:46:20Z</time>
      </trkpt>
      <trkpt lat="44.87381" lon="4.797">
        <ele>402.8</ele>
        <time>2014-03-23T08:46:21Z</time>
      </trkpt>
      <trkpt lat="44.87384" lon="4.79692">
        <ele>402.7</ele>
        <time>2014-03-23T08:46:22Z</time>
      </trkpt>
      <trkpt lat="44.87387" lon="4.79683">
        <ele>401.8</ele>
        <time>2014-03-23T08:46:23Z</time>
      </trkpt>
      <trkpt lat="44.8739" lon="4.79675">
        <ele>401.1</ele>
        <time>2014-03-23T08:46:24Z</time>
      </trkpt>
      <trkpt lat="44.87393" lon="4.79666">
        <ele>400.6</ele>
        <time>2014-03-23T08:46:25Z</time>
      </trkpt>
      <trkpt lat="44.87396" lon="4.79657">
        <ele>400.7</ele>
        <time>2014-03-23T08:46:26Z</time>
      </trkpt>
      <trkpt lat="44.87397" lon="4.79648">
        <ele>400.7</ele>
        <time>2014-03-23T08:46:27Z</time>
      </trkpt>
      <trkpt lat="44.87398" lon="4.79639">
        <ele>400</ele>
        <time>2014-03-23T08:46:28Z</time>
      </trkpt>
      <trkpt lat="44.874" lon="4.79631">
        <ele>399.5</ele>
        <time>2014-03-23T08:46:29Z</time>
      </trkpt>
      <trkpt lat="44.87402" lon="4.79625">
        <ele>399.1</ele>
        <time>2014-03-23T08:46:30Z</time>
      </trkpt>
      <trkpt lat="44.87403" lon="4.79613">
        <ele>398.4</ele>
        <time>2014-03-23T08:46:32Z</time>
      </trkpt>
      <trkpt lat="44.87405" lon="4.79602">
        <ele>397.7</ele>
        <time>2014-03-23T08:46:34Z</time>
      </trkpt>
      <trkpt lat="44.87409" lon="4.79592">
        <ele>394.2</ele>
        <time>2014-03-23T08:46:43Z</time>
      </trkpt>
      <trkpt lat="44.87412" lon="4.79581">
        <ele>395.3</ele>
        <time>2014-03-23T08:46:51Z</time>
      </trkpt>
      <trkpt lat="44.87411" lon="4.79578">
        <ele>395</ele>
        <time>2014-03-23T08:46:52Z</time>
      </trkpt>
      <trkpt lat="44.87404" lon="4.79559">
        <ele>393.7</ele>
        <time>2014-03-23T08:47:01Z</time>
      </trkpt>
      <trkpt lat="44.874" lon="4.7955">
        <ele>393.5</ele>
        <time>2014-03-23T08:47:04Z</time>
      </trkpt>
      <trkpt lat="44.87399" lon="4.7954">
        <ele>393.4</ele>
        <time>2014-03-23T08:47:06Z</time>
      </trkpt>
      <trkpt lat="44.87397" lon="4.79528">
        <ele>393.2</ele>
        <time>2014-03-23T08:47:08Z</time>
      </trkpt>
      <trkpt lat="44.87405" lon="4.79531">
        <ele>390.5</ele>
        <time>2014-03-23T08:47:18Z</time>
      </trkpt>
      <trkpt lat="44.8741" lon="4.79539">
        <ele>389.9</ele>
        <time>2014-03-23T08:47:22Z</time>
      </trkpt>
      <trkpt lat="44.87414" lon="4.79549">
        <ele>391.3</ele>
        <time>2014-03-23T08:47:26Z</time>
      </trkpt>
      <trkpt lat="44.87419" lon="4.7956">
        <ele>391.6</ele>
        <time>2014-03-23T08:47:30Z</time>
      </trkpt>
      <trkpt lat="44.87423" lon="4.79568">
        <ele>392.4</ele>
        <time>2014-03-23T08:47:33Z</time>
      </trkpt>
      <trkpt lat="44.87428" lon="4.79577">
        <ele>391.7</ele>
        <time>2014-03-23T08:47:38Z</time>
      </trkpt>
      <trkpt lat="44.87431" lon="4.79587">
        <ele>391.6</ele>
        <time>2014-03-23T08:47:41Z</time>
      </trkpt>
      <trkpt lat="44.87434" lon="4.79593">
        <ele>390</ele>
        <time>2014-03-23T08:47:43Z</time>
      </trkpt>
      <trkpt lat="44.87437" lon="4.79602">
        <ele>388.2</ele>
        <time>2014-03-23T08:47:45Z</time>
      </trkpt>
      <trkpt lat="44.87437" lon="4.79613">
        <ele>386.5</ele>
        <time>2014-03-23T08:47:48Z</time>
      </trkpt>
      <trkpt lat="44.87436" lon="4.79624">
        <ele>386.3</ele>
        <time>2014-03-23T08:47:50Z</time>
      </trkpt>
      <trkpt lat="44.87435" lon="4.79633">
        <ele>386.1</ele>
        <time>2014-03-23T08:47:52Z</time>
      </trkpt>
      <trkpt lat="44.87434" lon="4.79642">
        <ele>386.3</ele>
        <time>2014-03-23T08:47:54Z</time>
      </trkpt>
      <trkpt lat="44.87434" lon="4.79646">
        <ele>386.4</ele>
        <time>2014-03-23T08:47:55Z</time>
      </trkpt>
      <trkpt lat="44.87432" lon="4.79666">
        <ele>386.8</ele>
        <time>2014-03-23T08:48:00Z</time>
      </trkpt>
      <trkpt lat="44.87431" lon="4.79676">
        <ele>388.4</ele>
        <time>2014-03-23T08:48:03Z</time>
      </trkpt>
      <trkpt lat="44.8743" lon="4.79686">
        <ele>388.7</ele>
        <time>2014-03-23T08:48:06Z</time>
      </trkpt>
      <trkpt lat="44.87431" lon="4.79697">
        <ele>388.9</ele>
        <time>2014-03-23T08:48:09Z</time>
      </trkpt>
      <trkpt lat="44.87431" lon="4.79708">
        <ele>389.9</ele>
        <time>2014-03-23T08:48:12Z</time>
      </trkpt>
      <trkpt lat="44.87431" lon="4.7972">
        <ele>390.7</ele>
        <time>2014-03-23T08:48:15Z</time>
      </trkpt>
      <trkpt lat="44.87431" lon="4.79731">
        <ele>390.8</ele>
        <time>2014-03-23T08:48:18Z</time>
      </trkpt>
      <trkpt lat="44.87431" lon="4.79743">
        <ele>391.1</ele>
        <time>2014-03-23T08:48:21Z</time>
      </trkpt>
      <trkpt lat="44.8743" lon="4.79754">
        <ele>391.7</ele>
        <time>2014-03-23T08:48:24Z</time>
      </trkpt>
      <trkpt lat="44.8743" lon="4.79766">
        <ele>392.2</ele>
        <time>2014-03-23T08:48:27Z</time>
      </trkpt>
      <trkpt lat="44.87429" lon="4.79777">
        <ele>393.1</ele>
        <time>2014-03-23T08:48:30Z</time>
      </trkpt>
      <trkpt lat="44.87427" lon="4.79788">
        <ele>393.4</ele>
        <time>2014-03-23T08:48:33Z</time>
      </trkpt>
      <trkpt lat="44.87425" lon="4.798">
        <ele>394.1</ele>
        <time>2014-03-23T08:48:37Z</time>
      </trkpt>
      <trkpt lat="44.87424" lon="4.79812">
        <ele>395.7</ele>
        <time>2014-03-23T08:48:41Z</time>
      </trkpt>
      <trkpt lat="44.87421" lon="4.79823">
        <ele>396.2</ele>
        <time>2014-03-23T08:48:45Z</time>
      </trkpt>
      <trkpt lat="44.87419" lon="4.79833">
        <ele>396.7</ele>
        <time>2014-03-23T08:48:48Z</time>
      </trkpt>
      <trkpt lat="44.87416" lon="4.79844">
        <ele>397.7</ele>
        <time>2014-03-23T08:48:52Z</time>
      </trkpt>
      <trkpt lat="44.87412" lon="4.79854">
        <ele>398.2</ele>
        <time>2014-03-23T08:48:56Z</time>
      </trkpt>
      <trkpt lat="44.87411" lon="4.79856">
        <ele>398.3</ele>
        <time>2014-03-23T08:48:57Z</time>
      </trkpt>
      <trkpt lat="44.87402" lon="4.79872">
        <ele>400.7</ele>
        <time>2014-03-23T08:49:04Z</time>
      </trkpt>
      <trkpt lat="44.87395" lon="4.79879">
        <ele>401.7</ele>
        <time>2014-03-23T08:49:08Z</time>
      </trkpt>
      <trkpt lat="44.87389" lon="4.79887">
        <ele>403.7</ele>
        <time>2014-03-23T08:49:13Z</time>
      </trkpt>
      <trkpt lat="44.87383" lon="4.79895">
        <ele>404.5</ele>
        <time>2014-03-23T08:49:18Z</time>
      </trkpt>
      <trkpt lat="44.87376" lon="4.79902">
        <ele>404.9</ele>
        <time>2014-03-23T08:49:22Z</time>
      </trkpt>
      <trkpt lat="44.87371" lon="4.79909">
        <ele>405.2</ele>
        <time>2014-03-23T08:49:25Z</time>
      </trkpt>
      <trkpt lat="44.87365" lon="4.79915">
        <ele>405.9</ele>
        <time>2014-03-23T08:49:28Z</time>
      </trkpt>
      <trkpt lat="44.87358" lon="4.79921">
        <ele>406.8</ele>
        <time>2014-03-23T08:49:31Z</time>
      </trkpt>
      <trkpt lat="44.8735" lon="4.79927">
        <ele>407.5</ele>
        <time>2014-03-23T08:49:34Z</time>
      </trkpt>
      <trkpt lat="44.87342" lon="4.79932">
        <ele>408.8</ele>
        <time>2014-03-23T08:49:37Z</time>
      </trkpt>
      <trkpt lat="44.87334" lon="4.79936">
        <ele>410</ele>
        <time>2014-03-23T08:49:40Z</time>
      </trkpt>
      <trkpt lat="44.87328" lon="4.7994">
        <ele>411</ele>
        <time>2014-03-23T08:49:43Z</time>
      </trkpt>
      <trkpt lat="44.8732" lon="4.79943">
        <ele>411.5</ele>
        <time>2014-03-23T08:49:46Z</time>
      </trkpt>
      <trkpt lat="44.87313" lon="4.79944">
        <ele>412.1</ele>
        <time>2014-03-23T08:49:49Z</time>
      </trkpt>
      <trkpt lat="44.87304" lon="4.79945">
        <ele>412.3</ele>
        <time>2014-03-23T08:49:52Z</time>
      </trkpt>
      <trkpt lat="44.87298" lon="4.79946">
        <ele>412.6</ele>
        <time>2014-03-23T08:49:54Z</time>
      </trkpt>
      <trkpt lat="44.87292" lon="4.79948">
        <ele>412.6</ele>
        <time>2014-03-23T08:49:56Z</time>
      </trkpt>
      <trkpt lat="44.8729" lon="4.7995">
        <ele>412.9</ele>
        <time>2014-03-23T08:49:57Z</time>
      </trkpt>
      <trkpt lat="44.87276" lon="4.79953">
        <ele>413.7</ele>
        <time>2014-03-23T08:50:02Z</time>
      </trkpt>
      <trkpt lat="44.8727" lon="4.79955">
        <ele>413.7</ele>
        <time>2014-03-23T08:50:04Z</time>
      </trkpt>
      <trkpt lat="44.87262" lon="4.79956">
        <ele>413.6</ele>
        <time>2014-03-23T08:50:06Z</time>
      </trkpt>
      <trkpt lat="44.87254" lon="4.79958">
        <ele>413.5</ele>
        <time>2014-03-23T08:50:08Z</time>
      </trkpt>
      <trkpt lat="44.87246" lon="4.79958">
        <ele>414.5</ele>
        <time>2014-03-23T08:50:10Z</time>
      </trkpt>
      <trkpt lat="44.87238" lon="4.79959">
        <ele>413.9</ele>
        <time>2014-03-23T08:50:12Z</time>
      </trkpt>
      <trkpt lat="44.8723" lon="4.79959">
        <ele>414.1</ele>
        <time>2014-03-23T08:50:14Z</time>
      </trkpt>
      <trkpt lat="44.87223" lon="4.79959">
        <ele>414.6</ele>
        <time>2014-03-23T08:50:16Z</time>
      </trkpt>
      <trkpt lat="44.87215" lon="4.79958">
        <ele>414.6</ele>
        <time>2014-03-23T08:50:18Z</time>
      </trkpt>
      <trkpt lat="44.87207" lon="4.79957">
        <ele>414.3</ele>
        <time>2014-03-23T08:50:20Z</time>
      </trkpt>
      <trkpt lat="44.872" lon="4.79957">
        <ele>414.5</ele>
        <time>2014-03-23T08:50:22Z</time>
      </trkpt>
      <trkpt lat="44.87193" lon="4.79956">
        <ele>414.2</ele>
        <time>2014-03-23T08:50:24Z</time>
      </trkpt>
      <trkpt lat="44.87187" lon="4.79955">
        <ele>414.7</ele>
        <time>2014-03-23T08:50:26Z</time>
      </trkpt>
      <trkpt lat="44.8718" lon="4.79955">
        <ele>415.4</ele>
        <time>2014-03-23T08:50:28Z</time>
      </trkpt>
      <trkpt lat="44.87173" lon="4.79954">
        <ele>416</ele>
        <time>2014-03-23T08:50:30Z</time>
      </trkpt>
      <trkpt lat="44.87166" lon="4.79954">
        <ele>416.4</ele>
        <time>2014-03-23T08:50:32Z</time>
      </trkpt>
      <trkpt lat="44.8716" lon="4.79954">
        <ele>416.8</ele>
        <time>2014-03-23T08:50:34Z</time>
      </trkpt>
      <trkpt lat="44.87153" lon="4.79954">
        <ele>416.6</ele>
        <time>2014-03-23T08:50:36Z</time>
      </trkpt>
      <trkpt lat="44.87147" lon="4.79956">
        <ele>417.6</ele>
        <time>2014-03-23T08:50:38Z</time>
      </trkpt>
      <trkpt lat="44.8714" lon="4.79958">
        <ele>417.7</ele>
        <time>2014-03-23T08:50:40Z</time>
      </trkpt>
      <trkpt lat="44.87133" lon="4.7996">
        <ele>417.8</ele>
        <time>2014-03-23T08:50:42Z</time>
      </trkpt>
      <trkpt lat="44.87126" lon="4.79962">
        <ele>418</ele>
        <time>2014-03-23T08:50:44Z</time>
      </trkpt>
      <trkpt lat="44.87119" lon="4.79966">
        <ele>418.1</ele>
        <time>2014-03-23T08:50:46Z</time>
      </trkpt>
      <trkpt lat="44.87113" lon="4.79968">
        <ele>417.6</ele>
        <time>2014-03-23T08:50:48Z</time>
      </trkpt>
      <trkpt lat="44.87106" lon="4.7997">
        <ele>417.8</ele>
        <time>2014-03-23T08:50:50Z</time>
      </trkpt>
      <trkpt lat="44.871" lon="4.79972">
        <ele>417.9</ele>
        <time>2014-03-23T08:50:52Z</time>
      </trkpt>
      <trkpt lat="44.87093" lon="4.79974">
        <ele>418</ele>
        <time>2014-03-23T08:50:54Z</time>
      </trkpt>
      <trkpt lat="44.87086" lon="4.79977">
        <ele>418.2</ele>
        <time>2014-03-23T08:50:56Z</time>
      </trkpt>
      <trkpt lat="44.8708" lon="4.79981">
        <ele>418.6</ele>
        <time>2014-03-23T08:50:58Z</time>
      </trkpt>
      <trkpt lat="44.87077" lon="4.79984">
        <ele>418.5</ele>
        <time>2014-03-23T08:50:59Z</time>
      </trkpt>
      <trkpt lat="44.87067" lon="4.7999">
        <ele>418.1</ele>
        <time>2014-03-23T08:51:02Z</time>
      </trkpt>
      <trkpt lat="44.87061" lon="4.79994">
        <ele>419</ele>
        <time>2014-03-23T08:51:04Z</time>
      </trkpt>
      <trkpt lat="44.87054" lon="4.79999">
        <ele>419.1</ele>
        <time>2014-03-23T08:51:06Z</time>
      </trkpt>
      <trkpt lat="44.87047" lon="4.80003">
        <ele>419.5</ele>
        <time>2014-03-23T08:51:08Z</time>
      </trkpt>
      <trkpt lat="44.87041" lon="4.80009">
        <ele>420.2</ele>
        <time>2014-03-23T08:51:10Z</time>
      </trkpt>
      <trkpt lat="44.87035" lon="4.80016">
        <ele>420.4</ele>
        <time>2014-03-23T08:51:12Z</time>
      </trkpt>
      <trkpt lat="44.87029" lon="4.80023">
        <ele>420.4</ele>
        <time>2014-03-23T08:51:14Z</time>
      </trkpt>
      <trkpt lat="44.87023" lon="4.80031">
        <ele>421.1</ele>
        <time>2014-03-23T08:51:16Z</time>
      </trkpt>
      <trkpt lat="44.87018" lon="4.80038">
        <ele>421.2</ele>
        <time>2014-03-23T08:51:18Z</time>
      </trkpt>
      <trkpt lat="44.87013" lon="4.80046">
        <ele>421.2</ele>
        <time>2014-03-23T08:51:20Z</time>
      </trkpt>
      <trkpt lat="44.87008" lon="4.80053">
        <ele>421.5</ele>
        <time>2014-03-23T08:51:22Z</time>
      </trkpt>
      <trkpt lat="44.87003" lon="4.80063">
        <ele>421.6</ele>
        <time>2014-03-23T08:51:24Z</time>
      </trkpt>
      <trkpt lat="44.86999" lon="4.80072">
        <ele>421.8</ele>
        <time>2014-03-23T08:51:26Z</time>
      </trkpt>
      <trkpt lat="44.86995" lon="4.8008">
        <ele>422.5</ele>
        <time>2014-03-23T08:51:28Z</time>
      </trkpt>
      <trkpt lat="44.86992" lon="4.80088">
        <ele>422.5</ele>
        <time>2014-03-23T08:51:30Z</time>
      </trkpt>
      <trkpt lat="44.86989" lon="4.80096">
        <ele>422.7</ele>
        <time>2014-03-23T08:51:32Z</time>
      </trkpt>
      <trkpt lat="44.86985" lon="4.80104">
        <ele>423.2</ele>
        <time>2014-03-23T08:51:34Z</time>
      </trkpt>
      <trkpt lat="44.86982" lon="4.80114">
        <ele>423.7</ele>
        <time>2014-03-23T08:51:36Z</time>
      </trkpt>
      <trkpt lat="44.86979" lon="4.80124">
        <ele>423.5</ele>
        <time>2014-03-23T08:51:38Z</time>
      </trkpt>
      <trkpt lat="44.86976" lon="4.80133">
        <ele>423.6</ele>
        <time>2014-03-23T08:51:40Z</time>
      </trkpt>
      <trkpt lat="44.86973" lon="4.80143">
        <ele>424.5</ele>
        <time>2014-03-23T08:51:42Z</time>
      </trkpt>
      <trkpt lat="44.8697" lon="4.80151">
        <ele>424.6</ele>
        <time>2014-03-23T08:51:44Z</time>
      </trkpt>
      <trkpt lat="44.86965" lon="4.80162">
        <ele>425.7</ele>
        <time>2014-03-23T08:51:47Z</time>
      </trkpt>
      <trkpt lat="44.8696" lon="4.80171">
        <ele>425.6</ele>
        <time>2014-03-23T08:51:50Z</time>
      </trkpt>
      <trkpt lat="44.86956" lon="4.8018">
        <ele>426.2</ele>
        <time>2014-03-23T08:51:53Z</time>
      </trkpt>
      <trkpt lat="44.8695" lon="4.80189">
        <ele>427.1</ele>
        <time>2014-03-23T08:51:56Z</time>
      </trkpt>
      <trkpt lat="44.86945" lon="4.80199">
        <ele>427.5</ele>
        <time>2014-03-23T08:51:59Z</time>
      </trkpt>
      <trkpt lat="44.86943" lon="4.80202">
        <ele>427.4</ele>
        <time>2014-03-23T08:52:00Z</time>
      </trkpt>
      <trkpt lat="44.86937" lon="4.80212">
        <ele>427.6</ele>
        <time>2014-03-23T08:52:03Z</time>
      </trkpt>
      <trkpt lat="44.86933" lon="4.80218">
        <ele>427.8</ele>
        <time>2014-03-23T08:52:05Z</time>
      </trkpt>
      <trkpt lat="44.8693" lon="4.80225">
        <ele>427.6</ele>
        <time>2014-03-23T08:52:07Z</time>
      </trkpt>
      <trkpt lat="44.86925" lon="4.80232">
        <ele>427.3</ele>
        <time>2014-03-23T08:52:09Z</time>
      </trkpt>
      <trkpt lat="44.86921" lon="4.80239">
        <ele>427.9</ele>
        <time>2014-03-23T08:52:11Z</time>
      </trkpt>
      <trkpt lat="44.86915" lon="4.80245">
        <ele>427.4</ele>
        <time>2014-03-23T08:52:13Z</time>
      </trkpt>
      <trkpt lat="44.86909" lon="4.80252">
        <ele>427.2</ele>
        <time>2014-03-23T08:52:15Z</time>
      </trkpt>
      <trkpt lat="44.86904" lon="4.80262">
        <ele>426.8</ele>
        <time>2014-03-23T08:52:17Z</time>
      </trkpt>
      <trkpt lat="44.869" lon="4.80266">
        <ele>426.5</ele>
        <time>2014-03-23T08:52:18Z</time>
      </trkpt>
      <trkpt lat="44.86897" lon="4.8027">
        <ele>426.1</ele>
        <time>2014-03-23T08:52:19Z</time>
      </trkpt>
      <trkpt lat="44.86893" lon="4.80275">
        <ele>425.8</ele>
        <time>2014-03-23T08:52:20Z</time>
      </trkpt>
      <trkpt lat="44.8689" lon="4.8028">
        <ele>425.6</ele>
        <time>2014-03-23T08:52:21Z</time>
      </trkpt>
      <trkpt lat="44.86886" lon="4.80286">
        <ele>425.6</ele>
        <time>2014-03-23T08:52:22Z</time>
      </trkpt>
      <trkpt lat="44.86883" lon="4.80292">
        <ele>425.6</ele>
        <time>2014-03-23T08:52:23Z</time>
      </trkpt>
      <trkpt lat="44.8688" lon="4.80299">
        <ele>424.8</ele>
        <time>2014-03-23T08:52:24Z</time>
      </trkpt>
      <trkpt lat="44.86877" lon="4.80305">
        <ele>424.2</ele>
        <time>2014-03-23T08:52:25Z</time>
      </trkpt>
      <trkpt lat="44.86875" lon="4.80311">
        <ele>423.7</ele>
        <time>2014-03-23T08:52:26Z</time>
      </trkpt>
      <trkpt lat="44.86874" lon="4.80318">
        <ele>423.6</ele>
        <time>2014-03-23T08:52:27Z</time>
      </trkpt>
      <trkpt lat="44.86873" lon="4.80325">
        <ele>423.5</ele>
        <time>2014-03-23T08:52:28Z</time>
      </trkpt>
      <trkpt lat="44.86872" lon="4.80337">
        <ele>422.8</ele>
        <time>2014-03-23T08:52:30Z</time>
      </trkpt>
      <trkpt lat="44.86869" lon="4.80347">
        <ele>421</ele>
        <time>2014-03-23T08:52:35Z</time>
      </trkpt>
      <trkpt lat="44.86867" lon="4.80359">
        <ele>420.7</ele>
        <time>2014-03-23T08:52:41Z</time>
      </trkpt>
      <trkpt lat="44.86864" lon="4.8037">
        <ele>420.6</ele>
        <time>2014-03-23T08:52:45Z</time>
      </trkpt>
      <trkpt lat="44.86861" lon="4.8038">
        <ele>420.3</ele>
        <time>2014-03-23T08:52:48Z</time>
      </trkpt>
      <trkpt lat="44.86856" lon="4.80388">
        <ele>419.7</ele>
        <time>2014-03-23T08:52:51Z</time>
      </trkpt>
      <trkpt lat="44.86853" lon="4.80396">
        <ele>419.5</ele>
        <time>2014-03-23T08:52:53Z</time>
      </trkpt>
      <trkpt lat="44.8685" lon="4.80404">
        <ele>418.9</ele>
        <time>2014-03-23T08:52:55Z</time>
      </trkpt>
      <trkpt lat="44.86845" lon="4.80413">
        <ele>417.7</ele>
        <time>2014-03-23T08:52:58Z</time>
      </trkpt>
      <trkpt lat="44.86839" lon="4.8042">
        <ele>417.4</ele>
        <time>2014-03-23T08:53:00Z</time>
      </trkpt>
      <trkpt lat="44.86833" lon="4.80428">
        <ele>417.3</ele>
        <time>2014-03-23T08:53:02Z</time>
      </trkpt>
      <trkpt lat="44.86829" lon="4.80432">
        <ele>417.2</ele>
        <time>2014-03-23T08:53:03Z</time>
      </trkpt>
      <trkpt lat="44.86825" lon="4.80437">
        <ele>416.6</ele>
        <time>2014-03-23T08:53:04Z</time>
      </trkpt>
      <trkpt lat="44.86821" lon="4.8044">
        <ele>416.2</ele>
        <time>2014-03-23T08:53:05Z</time>
      </trkpt>
      <trkpt lat="44.86817" lon="4.80443">
        <ele>415.9</ele>
        <time>2014-03-23T08:53:06Z</time>
      </trkpt>
      <trkpt lat="44.86808" lon="4.80446">
        <ele>415.7</ele>
        <time>2014-03-23T08:53:08Z</time>
      </trkpt>
      <trkpt lat="44.86799" lon="4.80445">
        <ele>415.6</ele>
        <time>2014-03-23T08:53:10Z</time>
      </trkpt>
      <trkpt lat="44.86794" lon="4.80455">
        <ele>414.1</ele>
        <time>2014-03-23T08:53:23Z</time>
      </trkpt>
      <trkpt lat="44.86793" lon="4.80467">
        <ele>414</ele>
        <time>2014-03-23T08:53:29Z</time>
      </trkpt>
      <trkpt lat="44.86786" lon="4.80475">
        <ele>413.6</ele>
        <time>2014-03-23T08:53:44Z</time>
      </trkpt>
      <trkpt lat="44.86782" lon="4.80486">
        <ele>413.7</ele>
        <time>2014-03-23T08:53:53Z</time>
      </trkpt>
      <trkpt lat="44.86773" lon="4.80487">
        <ele>413.9</ele>
        <time>2014-03-23T08:53:56Z</time>
      </trkpt>
      <trkpt lat="44.86768" lon="4.80482">
        <ele>413.7</ele>
        <time>2014-03-23T08:53:58Z</time>
      </trkpt>
      <trkpt lat="44.86762" lon="4.80475">
        <ele>413.1</ele>
        <time>2014-03-23T08:54:01Z</time>
      </trkpt>
      <trkpt lat="44.86754" lon="4.80474">
        <ele>412.3</ele>
        <time>2014-03-23T08:54:04Z</time>
      </trkpt>
      <trkpt lat="44.86752" lon="4.80475">
        <ele>412.1</ele>
        <time>2014-03-23T08:54:05Z</time>
      </trkpt>
      <trkpt lat="44.86741" lon="4.80475">
        <ele>411.6</ele>
        <time>2014-03-23T08:54:08Z</time>
      </trkpt>
      <trkpt lat="44.86736" lon="4.80483">
        <ele>409.7</ele>
        <time>2014-03-23T08:54:12Z</time>
      </trkpt>
      <trkpt lat="44.86731" lon="4.80493">
        <ele>408.4</ele>
        <time>2014-03-23T08:54:19Z</time>
      </trkpt>
      <trkpt lat="44.86727" lon="4.80502">
        <ele>407.8</ele>
        <time>2014-03-23T08:54:29Z</time>
      </trkpt>
      <trkpt lat="44.86721" lon="4.80511">
        <ele>408.6</ele>
        <time>2014-03-23T08:54:49Z</time>
      </trkpt>
      <trkpt lat="44.86716" lon="4.80522">
        <ele>408.3</ele>
        <time>2014-03-23T08:54:55Z</time>
      </trkpt>
      <trkpt lat="44.86711" lon="4.8053">
        <ele>406.8</ele>
        <time>2014-03-23T08:55:04Z</time>
      </trkpt>
      <trkpt lat="44.86706" lon="4.80533">
        <ele>406.8</ele>
        <time>2014-03-23T08:55:06Z</time>
      </trkpt>
      <trkpt lat="44.86702" lon="4.80536">
        <ele>406.9</ele>
        <time>2014-03-23T08:55:07Z</time>
      </trkpt>
      <trkpt lat="44.86697" lon="4.80539">
        <ele>406.3</ele>
        <time>2014-03-23T08:55:08Z</time>
      </trkpt>
      <trkpt lat="44.86692" lon="4.80543">
        <ele>405.8</ele>
        <time>2014-03-23T08:55:09Z</time>
      </trkpt>
      <trkpt lat="44.86688" lon="4.80548">
        <ele>404.9</ele>
        <time>2014-03-23T08:55:10Z</time>
      </trkpt>
      <trkpt lat="44.86686" lon="4.80553">
        <ele>404.2</ele>
        <time>2014-03-23T08:55:11Z</time>
      </trkpt>
      <trkpt lat="44.86683" lon="4.80565">
        <ele>403.3</ele>
        <time>2014-03-23T08:55:13Z</time>
      </trkpt>
      <trkpt lat="44.86683" lon="4.80572">
        <ele>403</ele>
        <time>2014-03-23T08:55:14Z</time>
      </trkpt>
      <trkpt lat="44.86683" lon="4.8058">
        <ele>402.4</ele>
        <time>2014-03-23T08:55:15Z</time>
      </trkpt>
      <trkpt lat="44.86685" lon="4.80592">
        <ele>400.9</ele>
        <time>2014-03-23T08:55:18Z</time>
      </trkpt>
      <trkpt lat="44.86686" lon="4.80604">
        <ele>398.2</ele>
        <time>2014-03-23T08:55:23Z</time>
      </trkpt>
      <trkpt lat="44.86687" lon="4.80615">
        <ele>396.5</ele>
        <time>2014-03-23T08:55:29Z</time>
      </trkpt>
      <trkpt lat="44.86686" lon="4.80627">
        <ele>397.1</ele>
        <time>2014-03-23T08:55:50Z</time>
      </trkpt>
      <trkpt lat="44.86689" lon="4.80639">
        <ele>395.2</ele>
        <time>2014-03-23T08:56:31Z</time>
      </trkpt>
      <trkpt lat="44.86689" lon="4.8064">
        <ele>395.4</ele>
        <time>2014-03-23T08:56:32Z</time>
      </trkpt>
      <trkpt lat="44.86691" lon="4.80661">
        <ele>396.1</ele>
        <time>2014-03-23T08:57:00Z</time>
      </trkpt>
      <trkpt lat="44.86697" lon="4.80669">
        <ele>395.8</ele>
        <time>2014-03-23T08:57:02Z</time>
      </trkpt>
      <trkpt lat="44.86701" lon="4.80673">
        <ele>395.6</ele>
        <time>2014-03-23T08:57:03Z</time>
      </trkpt>
      <trkpt lat="44.86705" lon="4.80677">
        <ele>395</ele>
        <time>2014-03-23T08:57:04Z</time>
      </trkpt>
      <trkpt lat="44.86712" lon="4.80685">
        <ele>394.2</ele>
        <time>2014-03-23T08:57:06Z</time>
      </trkpt>
      <trkpt lat="44.86716" lon="4.80689">
        <ele>394.1</ele>
        <time>2014-03-23T08:57:07Z</time>
      </trkpt>
      <trkpt lat="44.86719" lon="4.80694">
        <ele>394</ele>
        <time>2014-03-23T08:57:08Z</time>
      </trkpt>
      <trkpt lat="44.86722" lon="4.807">
        <ele>393.6</ele>
        <time>2014-03-23T08:57:09Z</time>
      </trkpt>
      <trkpt lat="44.86725" lon="4.80707">
        <ele>393.3</ele>
        <time>2014-03-23T08:57:10Z</time>
      </trkpt>
      <trkpt lat="44.86728" lon="4.80715">
        <ele>392.7</ele>
        <time>2014-03-23T08:57:11Z</time>
      </trkpt>
      <trkpt lat="44.86732" lon="4.80723">
        <ele>392.3</ele>
        <time>2014-03-23T08:57:12Z</time>
      </trkpt>
      <trkpt lat="44.86736" lon="4.8073">
        <ele>391.9</ele>
        <time>2014-03-23T08:57:13Z</time>
      </trkpt>
      <trkpt lat="44.86739" lon="4.80737">
        <ele>390.9</ele>
        <time>2014-03-23T08:57:14Z</time>
      </trkpt>
      <trkpt lat="44.8674" lon="4.80744">
        <ele>390.2</ele>
        <time>2014-03-23T08:57:15Z</time>
      </trkpt>
      <trkpt lat="44.86741" lon="4.80756">
        <ele>388.1</ele>
        <time>2014-03-23T08:57:17Z</time>
      </trkpt>
      <trkpt lat="44.8674" lon="4.80766">
        <ele>386.5</ele>
        <time>2014-03-23T08:57:19Z</time>
      </trkpt>
      <trkpt lat="44.86739" lon="4.80778">
        <ele>382.2</ele>
        <time>2014-03-23T08:57:23Z</time>
      </trkpt>
      <trkpt lat="44.86733" lon="4.80785">
        <ele>378.9</ele>
        <time>2014-03-23T08:57:29Z</time>
      </trkpt>
      <trkpt lat="44.86725" lon="4.80788">
        <ele>377.4</ele>
        <time>2014-03-23T08:57:32Z</time>
      </trkpt>
      <trkpt lat="44.86717" lon="4.80788">
        <ele>376</ele>
        <time>2014-03-23T08:57:35Z</time>
      </trkpt>
      <trkpt lat="44.86714" lon="4.80788">
        <ele>375.6</ele>
        <time>2014-03-23T08:57:36Z</time>
      </trkpt>
      <trkpt lat="44.867" lon="4.80784">
        <ele>374</ele>
        <time>2014-03-23T08:57:42Z</time>
      </trkpt>
      <trkpt lat="44.86693" lon="4.80778">
        <ele>373.5</ele>
        <time>2014-03-23T08:57:46Z</time>
      </trkpt>
      <trkpt lat="44.86687" lon="4.80774">
        <ele>373.4</ele>
        <time>2014-03-23T08:57:48Z</time>
      </trkpt>
      <trkpt lat="44.86681" lon="4.80769">
        <ele>373.2</ele>
        <time>2014-03-23T08:57:50Z</time>
      </trkpt>
      <trkpt lat="44.86675" lon="4.80763">
        <ele>373.3</ele>
        <time>2014-03-23T08:57:52Z</time>
      </trkpt>
      <trkpt lat="44.86668" lon="4.80758">
        <ele>373.2</ele>
        <time>2014-03-23T08:57:54Z</time>
      </trkpt>
      <trkpt lat="44.86662" lon="4.80753">
        <ele>373.2</ele>
        <time>2014-03-23T08:57:56Z</time>
      </trkpt>
      <trkpt lat="44.86656" lon="4.80749">
        <ele>373.6</ele>
        <time>2014-03-23T08:57:59Z</time>
      </trkpt>
      <trkpt lat="44.86651" lon="4.80745">
        <ele>373.3</ele>
        <time>2014-03-23T08:58:01Z</time>
      </trkpt>
      <trkpt lat="44.86644" lon="4.80737">
        <ele>372.6</ele>
        <time>2014-03-23T08:58:03Z</time>
      </trkpt>
      <trkpt lat="44.8664" lon="4.80729">
        <ele>372</ele>
        <time>2014-03-23T08:58:05Z</time>
      </trkpt>
      <trkpt lat="44.86635" lon="4.80722">
        <ele>370.3</ele>
        <time>2014-03-23T08:58:07Z</time>
      </trkpt>
      <trkpt lat="44.8663" lon="4.80715">
        <ele>369.1</ele>
        <time>2014-03-23T08:58:09Z</time>
      </trkpt>
      <trkpt lat="44.86627" lon="4.80705">
        <ele>367.9</ele>
        <time>2014-03-23T08:58:11Z</time>
      </trkpt>
      <trkpt lat="44.86623" lon="4.80696">
        <ele>367.2</ele>
        <time>2014-03-23T08:58:13Z</time>
      </trkpt>
      <trkpt lat="44.86618" lon="4.80689">
        <ele>366.9</ele>
        <time>2014-03-23T08:58:15Z</time>
      </trkpt>
      <trkpt lat="44.86613" lon="4.80684">
        <ele>366.7</ele>
        <time>2014-03-23T08:58:17Z</time>
      </trkpt>
      <trkpt lat="44.86607" lon="4.8068">
        <ele>366.3</ele>
        <time>2014-03-23T08:58:19Z</time>
      </trkpt>
      <trkpt lat="44.866" lon="4.80677">
        <ele>364.9</ele>
        <time>2014-03-23T08:58:22Z</time>
      </trkpt>
      <trkpt lat="44.86594" lon="4.80671">
        <ele>362.6</ele>
        <time>2014-03-23T08:58:26Z</time>
      </trkpt>
      <trkpt lat="44.86588" lon="4.80667">
        <ele>361.3</ele>
        <time>2014-03-23T08:58:28Z</time>
      </trkpt>
      <trkpt lat="44.86582" lon="4.80659">
        <ele>359.6</ele>
        <time>2014-03-23T08:58:31Z</time>
      </trkpt>
      <trkpt lat="44.86576" lon="4.80652">
        <ele>357.6</ele>
        <time>2014-03-23T08:58:34Z</time>
      </trkpt>
      <trkpt lat="44.8657" lon="4.80647">
        <ele>356.7</ele>
        <time>2014-03-23T08:58:36Z</time>
      </trkpt>
      <trkpt lat="44.86564" lon="4.8064">
        <ele>356.3</ele>
        <time>2014-03-23T08:58:38Z</time>
      </trkpt>
      <trkpt lat="44.86561" lon="4.80636">
        <ele>355.3</ele>
        <time>2014-03-23T08:58:39Z</time>
      </trkpt>
      <trkpt lat="44.86557" lon="4.80621">
        <ele>352.9</ele>
        <time>2014-03-23T08:58:43Z</time>
      </trkpt>
      <trkpt lat="44.86555" lon="4.80613">
        <ele>351.9</ele>
        <time>2014-03-23T08:58:45Z</time>
      </trkpt>
      <trkpt lat="44.86552" lon="4.80605">
        <ele>349.8</ele>
        <time>2014-03-23T08:58:47Z</time>
      </trkpt>
      <trkpt lat="44.86551" lon="4.80595">
        <ele>348.2</ele>
        <time>2014-03-23T08:58:49Z</time>
      </trkpt>
      <trkpt lat="44.86551" lon="4.80584">
        <ele>347</ele>
        <time>2014-03-23T08:58:51Z</time>
      </trkpt>
      <trkpt lat="44.86549" lon="4.80575">
        <ele>345.9</ele>
        <time>2014-03-23T08:58:53Z</time>
      </trkpt>
      <trkpt lat="44.86548" lon="4.80563">
        <ele>343.8</ele>
        <time>2014-03-23T08:58:56Z</time>
      </trkpt>
      <trkpt lat="44.86547" lon="4.80553">
        <ele>342</ele>
        <time>2014-03-23T08:58:59Z</time>
      </trkpt>
      <trkpt lat="44.86547" lon="4.80544">
        <ele>340.3</ele>
        <time>2014-03-23T08:59:01Z</time>
      </trkpt>
      <trkpt lat="44.86546" lon="4.80533">
        <ele>338.2</ele>
        <time>2014-03-23T08:59:03Z</time>
      </trkpt>
      <trkpt lat="44.86546" lon="4.80522">
        <ele>335.9</ele>
        <time>2014-03-23T08:59:06Z</time>
      </trkpt>
      <trkpt lat="44.86545" lon="4.8051">
        <ele>333</ele>
        <time>2014-03-23T08:59:09Z</time>
      </trkpt>
      <trkpt lat="44.86542" lon="4.80499">
        <ele>329</ele>
        <time>2014-03-23T08:59:14Z</time>
      </trkpt>
      <trkpt lat="44.86538" lon="4.80489">
        <ele>323.9</ele>
        <time>2014-03-23T08:59:20Z</time>
      </trkpt>
      <trkpt lat="44.86533" lon="4.80481">
        <ele>322.1</ele>
        <time>2014-03-23T08:59:26Z</time>
      </trkpt>
      <trkpt lat="44.86526" lon="4.80473">
        <ele>324.3</ele>
        <time>2014-03-23T08:59:38Z</time>
      </trkpt>
      <trkpt lat="44.86517" lon="4.80472">
        <ele>325.6</ele>
        <time>2014-03-23T08:59:53Z</time>
      </trkpt>
      <trkpt lat="44.86516" lon="4.80472">
        <ele>325.9</ele>
        <time>2014-03-23T08:59:54Z</time>
      </trkpt>
      <trkpt lat="44.86501" lon="4.8048">
        <ele>326.4</ele>
        <time>2014-03-23T09:00:06Z</time>
      </trkpt>
      <trkpt lat="44.86494" lon="4.80482">
        <ele>327</ele>
        <time>2014-03-23T09:00:10Z</time>
      </trkpt>
      <trkpt lat="44.86487" lon="4.80485">
        <ele>327.5</ele>
        <time>2014-03-23T09:00:13Z</time>
      </trkpt>
      <trkpt lat="44.8648" lon="4.80489">
        <ele>328</ele>
        <time>2014-03-23T09:00:16Z</time>
      </trkpt>
      <trkpt lat="44.86473" lon="4.80493">
        <ele>329.1</ele>
        <time>2014-03-23T09:00:19Z</time>
      </trkpt>
      <trkpt lat="44.86465" lon="4.80498">
        <ele>329.2</ele>
        <time>2014-03-23T09:00:23Z</time>
      </trkpt>
      <trkpt lat="44.86456" lon="4.805">
        <ele>331.4</ele>
        <time>2014-03-23T09:00:29Z</time>
      </trkpt>
      <trkpt lat="44.86449" lon="4.80507">
        <ele>331.8</ele>
        <time>2014-03-23T09:00:40Z</time>
      </trkpt>
      <trkpt lat="44.86444" lon="4.80517">
        <ele>330.7</ele>
        <time>2014-03-23T09:02:02Z</time>
      </trkpt>
      <trkpt lat="44.86444" lon="4.80518">
        <ele>330.8</ele>
        <time>2014-03-23T09:02:03Z</time>
      </trkpt>
      <trkpt lat="44.86457" lon="4.80503">
        <ele>333</ele>
        <time>2014-03-23T09:02:50Z</time>
      </trkpt>
      <trkpt lat="44.86462" lon="4.80494">
        <ele>334.1</ele>
        <time>2014-03-23T09:02:55Z</time>
      </trkpt>
      <trkpt lat="44.86468" lon="4.80487">
        <ele>335.4</ele>
        <time>2014-03-23T09:03:01Z</time>
      </trkpt>
      <trkpt lat="44.86471" lon="4.80477">
        <ele>337.3</ele>
        <time>2014-03-23T09:03:06Z</time>
      </trkpt>
      <trkpt lat="44.86472" lon="4.80475">
        <ele>337.5</ele>
        <time>2014-03-23T09:03:07Z</time>
      </trkpt>
      <trkpt lat="44.86481" lon="4.80457">
        <ele>339.3</ele>
        <time>2014-03-23T09:03:18Z</time>
      </trkpt>
      <trkpt lat="44.86485" lon="4.80447">
        <ele>340.2</ele>
        <time>2014-03-23T09:03:24Z</time>
      </trkpt>
      <trkpt lat="44.86488" lon="4.80435">
        <ele>341.4</ele>
        <time>2014-03-23T09:03:30Z</time>
      </trkpt>
      <trkpt lat="44.86491" lon="4.80424">
        <ele>343.3</ele>
        <time>2014-03-23T09:03:37Z</time>
      </trkpt>
      <trkpt lat="44.86494" lon="4.80412">
        <ele>345.2</ele>
        <time>2014-03-23T09:03:44Z</time>
      </trkpt>
      <trkpt lat="44.86497" lon="4.80401">
        <ele>347.6</ele>
        <time>2014-03-23T09:03:51Z</time>
      </trkpt>
      <trkpt lat="44.865" lon="4.80389">
        <ele>350.1</ele>
        <time>2014-03-23T09:03:58Z</time>
      </trkpt>
      <trkpt lat="44.86507" lon="4.80381">
        <ele>351.4</ele>
        <time>2014-03-23T09:04:05Z</time>
      </trkpt>
      <trkpt lat="44.86513" lon="4.80373">
        <ele>352.2</ele>
        <time>2014-03-23T09:04:11Z</time>
      </trkpt>
      <trkpt lat="44.86514" lon="4.80371">
        <ele>352.3</ele>
        <time>2014-03-23T09:04:12Z</time>
      </trkpt>
      <trkpt lat="44.86523" lon="4.80354">
        <ele>354.6</ele>
        <time>2014-03-23T09:04:23Z</time>
      </trkpt>
      <trkpt lat="44.86527" lon="4.80343">
        <ele>355.2</ele>
        <time>2014-03-23T09:04:29Z</time>
      </trkpt>
      <trkpt lat="44.86531" lon="4.80333">
        <ele>355.9</ele>
        <time>2014-03-23T09:04:36Z</time>
      </trkpt>
      <trkpt lat="44.86535" lon="4.80324">
        <ele>357.8</ele>
        <time>2014-03-23T09:04:42Z</time>
      </trkpt>
      <trkpt lat="44.8654" lon="4.80315">
        <ele>359.7</ele>
        <time>2014-03-23T09:04:47Z</time>
      </trkpt>
      <trkpt lat="44.86545" lon="4.80306">
        <ele>362.3</ele>
        <time>2014-03-23T09:04:52Z</time>
      </trkpt>
      <trkpt lat="44.86551" lon="4.80297">
        <ele>360.8</ele>
        <time>2014-03-23T09:04:57Z</time>
      </trkpt>
      <trkpt lat="44.86556" lon="4.80288">
        <ele>360.9</ele>
        <time>2014-03-23T09:05:02Z</time>
      </trkpt>
      <trkpt lat="44.86561" lon="4.80277">
        <ele>361.8</ele>
        <time>2014-03-23T09:05:07Z</time>
      </trkpt>
      <trkpt lat="44.86565" lon="4.80268">
        <ele>362.6</ele>
        <time>2014-03-23T09:05:11Z</time>
      </trkpt>
      <trkpt lat="44.86571" lon="4.80259">
        <ele>363.5</ele>
        <time>2014-03-23T09:05:16Z</time>
      </trkpt>
      <trkpt lat="44.86572" lon="4.80257">
        <ele>363.5</ele>
        <time>2014-03-23T09:05:17Z</time>
      </trkpt>
      <trkpt lat="44.86577" lon="4.80236">
        <ele>364.9</ele>
        <time>2014-03-23T09:05:28Z</time>
      </trkpt>
      <trkpt lat="44.86581" lon="4.80226">
        <ele>365.9</ele>
        <time>2014-03-23T09:05:33Z</time>
      </trkpt>
      <trkpt lat="44.86584" lon="4.80217">
        <ele>366.7</ele>
        <time>2014-03-23T09:05:37Z</time>
      </trkpt>
      <trkpt lat="44.86589" lon="4.80206">
        <ele>368.1</ele>
        <time>2014-03-23T09:05:42Z</time>
      </trkpt>
      <trkpt lat="44.86593" lon="4.80195">
        <ele>369.4</ele>
        <time>2014-03-23T09:05:47Z</time>
      </trkpt>
      <trkpt lat="44.86595" lon="4.80183">
        <ele>369.9</ele>
        <time>2014-03-23T09:05:52Z</time>
      </trkpt>
      <trkpt lat="44.86596" lon="4.80172">
        <ele>371.2</ele>
        <time>2014-03-23T09:05:57Z</time>
      </trkpt>
      <trkpt lat="44.86597" lon="4.80161">
        <ele>370.7</ele>
        <time>2014-03-23T09:06:01Z</time>
      </trkpt>
      <trkpt lat="44.86597" lon="4.80149">
        <ele>371.5</ele>
        <time>2014-03-23T09:06:06Z</time>
      </trkpt>
      <trkpt lat="44.86599" lon="4.80138">
        <ele>373.4</ele>
        <time>2014-03-23T09:06:12Z</time>
      </trkpt>
      <trkpt lat="44.866" lon="4.80126">
        <ele>375</ele>
        <time>2014-03-23T09:06:18Z</time>
      </trkpt>
      <trkpt lat="44.866" lon="4.80123">
        <ele>375.4</ele>
        <time>2014-03-23T09:06:19Z</time>
      </trkpt>
      <trkpt lat="44.86603" lon="4.80102">
        <ele>377.8</ele>
        <time>2014-03-23T09:06:28Z</time>
      </trkpt>
      <trkpt lat="44.86605" lon="4.80091">
        <ele>378.9</ele>
        <time>2014-03-23T09:06:32Z</time>
      </trkpt>
      <trkpt lat="44.86607" lon="4.80079">
        <ele>380.1</ele>
        <time>2014-03-23T09:06:36Z</time>
      </trkpt>
      <trkpt lat="44.86608" lon="4.80068">
        <ele>381.2</ele>
        <time>2014-03-23T09:06:40Z</time>
      </trkpt>
      <trkpt lat="44.86609" lon="4.80058">
        <ele>382.7</ele>
        <time>2014-03-23T09:06:44Z</time>
      </trkpt>
      <trkpt lat="44.86609" lon="4.80046">
        <ele>383.1</ele>
        <time>2014-03-23T09:06:49Z</time>
      </trkpt>
      <trkpt lat="44.86608" lon="4.80035">
        <ele>384.4</ele>
        <time>2014-03-23T09:06:54Z</time>
      </trkpt>
      <trkpt lat="44.86607" lon="4.80023">
        <ele>385.1</ele>
        <time>2014-03-23T09:06:59Z</time>
      </trkpt>
      <trkpt lat="44.86607" lon="4.80011">
        <ele>386.4</ele>
        <time>2014-03-23T09:07:04Z</time>
      </trkpt>
      <trkpt lat="44.86606" lon="4.79999">
        <ele>388.6</ele>
        <time>2014-03-23T09:07:09Z</time>
      </trkpt>
      <trkpt lat="44.86607" lon="4.79987">
        <ele>388.9</ele>
        <time>2014-03-23T09:07:14Z</time>
      </trkpt>
      <trkpt lat="44.86608" lon="4.79976">
        <ele>389.6</ele>
        <time>2014-03-23T09:07:19Z</time>
      </trkpt>
      <trkpt lat="44.86608" lon="4.79974">
        <ele>389.8</ele>
        <time>2014-03-23T09:07:20Z</time>
      </trkpt>
      <trkpt lat="44.86609" lon="4.79953">
        <ele>392</ele>
        <time>2014-03-23T09:07:30Z</time>
      </trkpt>
      <trkpt lat="44.86611" lon="4.79942">
        <ele>393.6</ele>
        <time>2014-03-23T09:07:35Z</time>
      </trkpt>
      <trkpt lat="44.86612" lon="4.7993">
        <ele>395.1</ele>
        <time>2014-03-23T09:07:41Z</time>
      </trkpt>
      <trkpt lat="44.86615" lon="4.79919">
        <ele>395.2</ele>
        <time>2014-03-23T09:07:46Z</time>
      </trkpt>
      <trkpt lat="44.86617" lon="4.79908">
        <ele>397.9</ele>
        <time>2014-03-23T09:07:51Z</time>
      </trkpt>
      <trkpt lat="44.86619" lon="4.79896">
        <ele>399.1</ele>
        <time>2014-03-23T09:07:57Z</time>
      </trkpt>
      <trkpt lat="44.86624" lon="4.79886">
        <ele>401.3</ele>
        <time>2014-03-23T09:08:03Z</time>
      </trkpt>
      <trkpt lat="44.86628" lon="4.79875">
        <ele>401.7</ele>
        <time>2014-03-23T09:08:08Z</time>
      </trkpt>
      <trkpt lat="44.86632" lon="4.79863">
        <ele>402.6</ele>
        <time>2014-03-23T09:08:14Z</time>
      </trkpt>
      <trkpt lat="44.86635" lon="4.79853">
        <ele>404.5</ele>
        <time>2014-03-23T09:08:19Z</time>
      </trkpt>
      <trkpt lat="44.86638" lon="4.79843">
        <ele>405.2</ele>
        <time>2014-03-23T09:08:24Z</time>
      </trkpt>
      <trkpt lat="44.86638" lon="4.79841">
        <ele>405</ele>
        <time>2014-03-23T09:08:25Z</time>
      </trkpt>
      <trkpt lat="44.86642" lon="4.79818">
        <ele>408.2</ele>
        <time>2014-03-23T09:08:36Z</time>
      </trkpt>
      <trkpt lat="44.86645" lon="4.79807">
        <ele>410.5</ele>
        <time>2014-03-23T09:08:41Z</time>
      </trkpt>
      <trkpt lat="44.86647" lon="4.79796">
        <ele>409.1</ele>
        <time>2014-03-23T09:08:46Z</time>
      </trkpt>
      <trkpt lat="44.86648" lon="4.79786">
        <ele>413.8</ele>
        <time>2014-03-23T09:08:51Z</time>
      </trkpt>
      <trkpt lat="44.86648" lon="4.79773">
        <ele>413.4</ele>
        <time>2014-03-23T09:08:57Z</time>
      </trkpt>
      <trkpt lat="44.86651" lon="4.79762">
        <ele>414</ele>
        <time>2014-03-23T09:09:02Z</time>
      </trkpt>
      <trkpt lat="44.86654" lon="4.79753">
        <ele>414.7</ele>
        <time>2014-03-23T09:09:06Z</time>
      </trkpt>
      <trkpt lat="44.86656" lon="4.79742">
        <ele>415.9</ele>
        <time>2014-03-23T09:09:10Z</time>
      </trkpt>
      <trkpt lat="44.86658" lon="4.79732">
        <ele>417.5</ele>
        <time>2014-03-23T09:09:14Z</time>
      </trkpt>
      <trkpt lat="44.86659" lon="4.7972">
        <ele>418.7</ele>
        <time>2014-03-23T09:09:19Z</time>
      </trkpt>
      <trkpt lat="44.86662" lon="4.79708">
        <ele>420.2</ele>
        <time>2014-03-23T09:09:24Z</time>
      </trkpt>
      <trkpt lat="44.86664" lon="4.79698">
        <ele>421.2</ele>
        <time>2014-03-23T09:09:28Z</time>
      </trkpt>
      <trkpt lat="44.86665" lon="4.79696">
        <ele>421.2</ele>
        <time>2014-03-23T09:09:29Z</time>
      </trkpt>
      <trkpt lat="44.8667" lon="4.79677">
        <ele>423</ele>
        <time>2014-03-23T09:09:36Z</time>
      </trkpt>
      <trkpt lat="44.86666" lon="4.79666">
        <ele>424</ele>
        <time>2014-03-23T09:09:41Z</time>
      </trkpt>
      <trkpt lat="44.86659" lon="4.79658">
        <ele>425.1</ele>
        <time>2014-03-23T09:10:26Z</time>
      </trkpt>
      <trkpt lat="44.86655" lon="4.79668">
        <ele>425</ele>
        <time>2014-03-23T09:12:18Z</time>
      </trkpt>
      <trkpt lat="44.86654" lon="4.7967">
        <ele>425.3</ele>
        <time>2014-03-23T09:12:19Z</time>
      </trkpt>
      <trkpt lat="44.86648" lon="4.79687">
        <ele>426.4</ele>
        <time>2014-03-23T09:12:27Z</time>
      </trkpt>
      <trkpt lat="44.86643" lon="4.79695">
        <ele>426.7</ele>
        <time>2014-03-23T09:12:30Z</time>
      </trkpt>
      <trkpt lat="44.86639" lon="4.79704">
        <ele>427.1</ele>
        <time>2014-03-23T09:12:33Z</time>
      </trkpt>
      <trkpt lat="44.86634" lon="4.79712">
        <ele>427.9</ele>
        <time>2014-03-23T09:12:36Z</time>
      </trkpt>
      <trkpt lat="44.86629" lon="4.7972">
        <ele>428.3</ele>
        <time>2014-03-23T09:12:39Z</time>
      </trkpt>
      <trkpt lat="44.86623" lon="4.79728">
        <ele>428.5</ele>
        <time>2014-03-23T09:12:43Z</time>
      </trkpt>
      <trkpt lat="44.86616" lon="4.79735">
        <ele>428.9</ele>
        <time>2014-03-23T09:12:48Z</time>
      </trkpt>
      <trkpt lat="44.86611" lon="4.79742">
        <ele>429.7</ele>
        <time>2014-03-23T09:12:52Z</time>
      </trkpt>
      <trkpt lat="44.86606" lon="4.79751">
        <ele>430.6</ele>
        <time>2014-03-23T09:12:57Z</time>
      </trkpt>
      <trkpt lat="44.86599" lon="4.79758">
        <ele>431.1</ele>
        <time>2014-03-23T09:13:02Z</time>
      </trkpt>
      <trkpt lat="44.86592" lon="4.79764">
        <ele>432.1</ele>
        <time>2014-03-23T09:13:06Z</time>
      </trkpt>
      <trkpt lat="44.86586" lon="4.7977">
        <ele>432.7</ele>
        <time>2014-03-23T09:13:10Z</time>
      </trkpt>
      <trkpt lat="44.8658" lon="4.79775">
        <ele>434.3</ele>
        <time>2014-03-23T09:13:14Z</time>
      </trkpt>
      <trkpt lat="44.86572" lon="4.79779">
        <ele>435.5</ele>
        <time>2014-03-23T09:13:18Z</time>
      </trkpt>
      <trkpt lat="44.86566" lon="4.79782">
        <ele>436.4</ele>
        <time>2014-03-23T09:13:21Z</time>
      </trkpt>
      <trkpt lat="44.86564" lon="4.79783">
        <ele>436.5</ele>
        <time>2014-03-23T09:13:22Z</time>
      </trkpt>
      <trkpt lat="44.86553" lon="4.79789">
        <ele>437.3</ele>
        <time>2014-03-23T09:13:27Z</time>
      </trkpt>
      <trkpt lat="44.86546" lon="4.7979">
        <ele>437.6</ele>
        <time>2014-03-23T09:13:30Z</time>
      </trkpt>
      <trkpt lat="44.86539" lon="4.79792">
        <ele>438.3</ele>
        <time>2014-03-23T09:13:33Z</time>
      </trkpt>
      <trkpt lat="44.86532" lon="4.79794">
        <ele>438.7</ele>
        <time>2014-03-23T09:13:36Z</time>
      </trkpt>
      <trkpt lat="44.86524" lon="4.79796">
        <ele>439.2</ele>
        <time>2014-03-23T09:13:40Z</time>
      </trkpt>
      <trkpt lat="44.86517" lon="4.79797">
        <ele>440</ele>
        <time>2014-03-23T09:13:43Z</time>
      </trkpt>
      <trkpt lat="44.8651" lon="4.79798">
        <ele>440.7</ele>
        <time>2014-03-23T09:13:46Z</time>
      </trkpt>
      <trkpt lat="44.86503" lon="4.79799">
        <ele>440.7</ele>
        <time>2014-03-23T09:13:49Z</time>
      </trkpt>
      <trkpt lat="44.86496" lon="4.798">
        <ele>440.9</ele>
        <time>2014-03-23T09:13:52Z</time>
      </trkpt>
      <trkpt lat="44.86487" lon="4.79803">
        <ele>442.3</ele>
        <time>2014-03-23T09:13:56Z</time>
      </trkpt>
      <trkpt lat="44.8648" lon="4.79805">
        <ele>443.2</ele>
        <time>2014-03-23T09:13:59Z</time>
      </trkpt>
      <trkpt lat="44.86474" lon="4.79809">
        <ele>444</ele>
        <time>2014-03-23T09:14:02Z</time>
      </trkpt>
      <trkpt lat="44.86466" lon="4.79813">
        <ele>444.5</ele>
        <time>2014-03-23T09:14:06Z</time>
      </trkpt>
      <trkpt lat="44.86458" lon="4.79816">
        <ele>445.2</ele>
        <time>2014-03-23T09:14:10Z</time>
      </trkpt>
      <trkpt lat="44.86449" lon="4.79818">
        <ele>445.8</ele>
        <time>2014-03-23T09:14:14Z</time>
      </trkpt>
      <trkpt lat="44.86441" lon="4.79818">
        <ele>447.4</ele>
        <time>2014-03-23T09:14:18Z</time>
      </trkpt>
      <trkpt lat="44.86432" lon="4.79818">
        <ele>449.1</ele>
        <time>2014-03-23T09:14:22Z</time>
      </trkpt>
      <trkpt lat="44.8643" lon="4.79818">
        <ele>449.5</ele>
        <time>2014-03-23T09:14:23Z</time>
      </trkpt>
      <trkpt lat="44.86417" lon="4.79818">
        <ele>452.2</ele>
        <time>2014-03-23T09:14:29Z</time>
      </trkpt>
      <trkpt lat="44.86408" lon="4.79817">
        <ele>452</ele>
        <time>2014-03-23T09:14:33Z</time>
      </trkpt>
      <trkpt lat="44.864" lon="4.79817">
        <ele>452.5</ele>
        <time>2014-03-23T09:14:37Z</time>
      </trkpt>
      <trkpt lat="44.86391" lon="4.79817">
        <ele>452.5</ele>
        <time>2014-03-23T09:14:41Z</time>
      </trkpt>
      <trkpt lat="44.86383" lon="4.79814">
        <ele>452.8</ele>
        <time>2014-03-23T09:14:45Z</time>
      </trkpt>
      <trkpt lat="44.86378" lon="4.79804">
        <ele>453.5</ele>
        <time>2014-03-23T09:14:50Z</time>
      </trkpt>
      <trkpt lat="44.86383" lon="4.79794">
        <ele>454.2</ele>
        <time>2014-03-23T09:14:56Z</time>
      </trkpt>
      <trkpt lat="44.86388" lon="4.79785">
        <ele>453.9</ele>
        <time>2014-03-23T09:15:01Z</time>
      </trkpt>
      <trkpt lat="44.86393" lon="4.79776">
        <ele>456.3</ele>
        <time>2014-03-23T09:15:05Z</time>
      </trkpt>
      <trkpt lat="44.86399" lon="4.79768">
        <ele>456.8</ele>
        <time>2014-03-23T09:15:09Z</time>
      </trkpt>
      <trkpt lat="44.86404" lon="4.79759">
        <ele>456.7</ele>
        <time>2014-03-23T09:15:13Z</time>
      </trkpt>
      <trkpt lat="44.86409" lon="4.79751">
        <ele>457.7</ele>
        <time>2014-03-23T09:15:17Z</time>
      </trkpt>
      <trkpt lat="44.86415" lon="4.79743">
        <ele>458.8</ele>
        <time>2014-03-23T09:15:21Z</time>
      </trkpt>
      <trkpt lat="44.8642" lon="4.79734">
        <ele>459.4</ele>
        <time>2014-03-23T09:15:25Z</time>
      </trkpt>
      <trkpt lat="44.86421" lon="4.79732">
        <ele>459.7</ele>
        <time>2014-03-23T09:15:26Z</time>
      </trkpt>
      <trkpt lat="44.8643" lon="4.79715">
        <ele>460.2</ele>
        <time>2014-03-23T09:15:33Z</time>
      </trkpt>
      <trkpt lat="44.86435" lon="4.79707">
        <ele>460.8</ele>
        <time>2014-03-23T09:15:37Z</time>
      </trkpt>
      <trkpt lat="44.8644" lon="4.79698">
        <ele>461.3</ele>
        <time>2014-03-23T09:15:41Z</time>
      </trkpt>
      <trkpt lat="44.86446" lon="4.79689">
        <ele>461.9</ele>
        <time>2014-03-23T09:15:45Z</time>
      </trkpt>
      <trkpt lat="44.86453" lon="4.79682">
        <ele>463.8</ele>
        <time>2014-03-23T09:15:49Z</time>
      </trkpt>
      <trkpt lat="44.86458" lon="4.79675">
        <ele>465.5</ele>
        <time>2014-03-23T09:15:52Z</time>
      </trkpt>
      <trkpt lat="44.86464" lon="4.79668">
        <ele>465.3</ele>
        <time>2014-03-23T09:15:55Z</time>
      </trkpt>
      <trkpt lat="44.8647" lon="4.79662">
        <ele>465.8</ele>
        <time>2014-03-23T09:15:58Z</time>
      </trkpt>
      <trkpt lat="44.86474" lon="4.79655">
        <ele>465.8</ele>
        <time>2014-03-23T09:16:01Z</time>
      </trkpt>
      <trkpt lat="44.86479" lon="4.79649">
        <ele>465.5</ele>
        <time>2014-03-23T09:16:04Z</time>
      </trkpt>
      <trkpt lat="44.86484" lon="4.79642">
        <ele>466.3</ele>
        <time>2014-03-23T09:16:07Z</time>
      </trkpt>
      <trkpt lat="44.8649" lon="4.79635">
        <ele>467</ele>
        <time>2014-03-23T09:16:10Z</time>
      </trkpt>
      <trkpt lat="44.86496" lon="4.79629">
        <ele>467.5</ele>
        <time>2014-03-23T09:16:13Z</time>
      </trkpt>
      <trkpt lat="44.86503" lon="4.79623">
        <ele>468.7</ele>
        <time>2014-03-23T09:16:16Z</time>
      </trkpt>
      <trkpt lat="44.86509" lon="4.79618">
        <ele>469.1</ele>
        <time>2014-03-23T09:16:19Z</time>
      </trkpt>
      <trkpt lat="44.86516" lon="4.79612">
        <ele>469</ele>
        <time>2014-03-23T09:16:22Z</time>
      </trkpt>
      <trkpt lat="44.86521" lon="4.79604">
        <ele>469.8</ele>
        <time>2014-03-23T09:16:25Z</time>
      </trkpt>
      <trkpt lat="44.86525" lon="4.79594">
        <ele>470.6</ele>
        <time>2014-03-23T09:16:28Z</time>
      </trkpt>
      <trkpt lat="44.86526" lon="4.79591">
        <ele>470.8</ele>
        <time>2014-03-23T09:16:29Z</time>
      </trkpt>
      <trkpt lat="44.86528" lon="4.79573">
        <ele>471.4</ele>
        <time>2014-03-23T09:16:34Z</time>
      </trkpt>
      <trkpt lat="44.86529" lon="4.79563">
        <ele>472.4</ele>
        <time>2014-03-23T09:16:37Z</time>
      </trkpt>
      <trkpt lat="44.8653" lon="4.79551">
        <ele>474.4</ele>
        <time>2014-03-23T09:16:41Z</time>
      </trkpt>
      <trkpt lat="44.86531" lon="4.7954">
        <ele>474.5</ele>
        <time>2014-03-23T09:16:45Z</time>
      </trkpt>
      <trkpt lat="44.86532" lon="4.79531">
        <ele>474.3</ele>
        <time>2014-03-23T09:16:48Z</time>
      </trkpt>
      <trkpt lat="44.86533" lon="4.7952">
        <ele>474.9</ele>
        <time>2014-03-23T09:16:51Z</time>
      </trkpt>
      <trkpt lat="44.86535" lon="4.7951">
        <ele>475.7</ele>
        <time>2014-03-23T09:16:54Z</time>
      </trkpt>
      <trkpt lat="44.86536" lon="4.795">
        <ele>476.5</ele>
        <time>2014-03-23T09:16:57Z</time>
      </trkpt>
      <trkpt lat="44.86538" lon="4.7949">
        <ele>477.1</ele>
        <time>2014-03-23T09:17:00Z</time>
      </trkpt>
      <trkpt lat="44.86542" lon="4.79478">
        <ele>478.5</ele>
        <time>2014-03-23T09:17:04Z</time>
      </trkpt>
      <trkpt lat="44.86544" lon="4.79469">
        <ele>477.9</ele>
        <time>2014-03-23T09:17:07Z</time>
      </trkpt>
      <trkpt lat="44.86546" lon="4.7946">
        <ele>478.9</ele>
        <time>2014-03-23T09:17:10Z</time>
      </trkpt>
      <trkpt lat="44.86549" lon="4.7945">
        <ele>479.1</ele>
        <time>2014-03-23T09:17:13Z</time>
      </trkpt>
      <trkpt lat="44.86551" lon="4.79441">
        <ele>480.3</ele>
        <time>2014-03-23T09:17:16Z</time>
      </trkpt>
      <trkpt lat="44.86553" lon="4.79431">
        <ele>480.5</ele>
        <time>2014-03-23T09:17:19Z</time>
      </trkpt>
      <trkpt lat="44.86556" lon="4.79422">
        <ele>481.8</ele>
        <time>2014-03-23T09:17:22Z</time>
      </trkpt>
      <trkpt lat="44.86557" lon="4.7941">
        <ele>482.8</ele>
        <time>2014-03-23T09:17:27Z</time>
      </trkpt>
      <trkpt lat="44.8656" lon="4.79399">
        <ele>482.5</ele>
        <time>2014-03-23T09:17:35Z</time>
      </trkpt>
      <trkpt lat="44.86561" lon="4.79397">
        <ele>482.5</ele>
        <time>2014-03-23T09:17:36Z</time>
      </trkpt>
      <trkpt lat="44.86566" lon="4.79377">
        <ele>482.5</ele>
        <time>2014-03-23T09:17:45Z</time>
      </trkpt>
      <trkpt lat="44.86567" lon="4.79367">
        <ele>482.9</ele>
        <time>2014-03-23T09:17:49Z</time>
      </trkpt>
      <trkpt lat="44.86568" lon="4.79357">
        <ele>483.6</ele>
        <time>2014-03-23T09:17:52Z</time>
      </trkpt>
      <trkpt lat="44.86569" lon="4.79347">
        <ele>484.3</ele>
        <time>2014-03-23T09:17:55Z</time>
      </trkpt>
      <trkpt lat="44.86569" lon="4.79336">
        <ele>484.4</ele>
        <time>2014-03-23T09:17:58Z</time>
      </trkpt>
      <trkpt lat="44.86569" lon="4.79324">
        <ele>484.6</ele>
        <time>2014-03-23T09:18:01Z</time>
      </trkpt>
      <trkpt lat="44.8657" lon="4.79312">
        <ele>485.9</ele>
        <time>2014-03-23T09:18:04Z</time>
      </trkpt>
      <trkpt lat="44.8657" lon="4.79303">
        <ele>486.3</ele>
        <time>2014-03-23T09:18:06Z</time>
      </trkpt>
      <trkpt lat="44.86572" lon="4.79291">
        <ele>485.5</ele>
        <time>2014-03-23T09:18:09Z</time>
      </trkpt>
      <trkpt lat="44.86574" lon="4.79279">
        <ele>485</ele>
        <time>2014-03-23T09:18:12Z</time>
      </trkpt>
      <trkpt lat="44.86575" lon="4.79269">
        <ele>484.9</ele>
        <time>2014-03-23T09:18:14Z</time>
      </trkpt>
      <trkpt lat="44.86576" lon="4.79257">
        <ele>484.7</ele>
        <time>2014-03-23T09:18:16Z</time>
      </trkpt>
      <trkpt lat="44.86578" lon="4.79251">
        <ele>484.5</ele>
        <time>2014-03-23T09:18:17Z</time>
      </trkpt>
      <trkpt lat="44.86581" lon="4.7924">
        <ele>484.2</ele>
        <time>2014-03-23T09:18:19Z</time>
      </trkpt>
      <trkpt lat="44.86584" lon="4.7923">
        <ele>484.1</ele>
        <time>2014-03-23T09:18:21Z</time>
      </trkpt>
      <trkpt lat="44.86588" lon="4.79222">
        <ele>484.2</ele>
        <time>2014-03-23T09:18:23Z</time>
      </trkpt>
      <trkpt lat="44.86592" lon="4.79214">
        <ele>483.6</ele>
        <time>2014-03-23T09:18:25Z</time>
      </trkpt>
      <trkpt lat="44.86596" lon="4.79207">
        <ele>483.7</ele>
        <time>2014-03-23T09:18:27Z</time>
      </trkpt>
      <trkpt lat="44.86601" lon="4.792">
        <ele>483.9</ele>
        <time>2014-03-23T09:18:29Z</time>
      </trkpt>
      <trkpt lat="44.86606" lon="4.7919">
        <ele>484.4</ele>
        <time>2014-03-23T09:18:32Z</time>
      </trkpt>
      <trkpt lat="44.86611" lon="4.79181">
        <ele>484.9</ele>
        <time>2014-03-23T09:18:35Z</time>
      </trkpt>
      <trkpt lat="44.86616" lon="4.79171">
        <ele>485.1</ele>
        <time>2014-03-23T09:18:38Z</time>
      </trkpt>
      <trkpt lat="44.86618" lon="4.79169">
        <ele>485.3</ele>
        <time>2014-03-23T09:18:39Z</time>
      </trkpt>
      <trkpt lat="44.86628" lon="4.79153">
        <ele>486.5</ele>
        <time>2014-03-23T09:18:44Z</time>
      </trkpt>
      <trkpt lat="44.86633" lon="4.79145">
        <ele>487.2</ele>
        <time>2014-03-23T09:18:47Z</time>
      </trkpt>
      <trkpt lat="44.86638" lon="4.79137">
        <ele>489.1</ele>
        <time>2014-03-23T09:18:50Z</time>
      </trkpt>
      <trkpt lat="44.86642" lon="4.79129">
        <ele>490.9</ele>
        <time>2014-03-23T09:18:53Z</time>
      </trkpt>
      <trkpt lat="44.86646" lon="4.79121">
        <ele>491.2</ele>
        <time>2014-03-23T09:18:56Z</time>
      </trkpt>
      <trkpt lat="44.86648" lon="4.79111">
        <ele>490.9</ele>
        <time>2014-03-23T09:18:59Z</time>
      </trkpt>
      <trkpt lat="44.86651" lon="4.79101">
        <ele>491.1</ele>
        <time>2014-03-23T09:19:02Z</time>
      </trkpt>
      <trkpt lat="44.86654" lon="4.79091">
        <ele>491.8</ele>
        <time>2014-03-23T09:19:05Z</time>
      </trkpt>
      <trkpt lat="44.86657" lon="4.79082">
        <ele>492.8</ele>
        <time>2014-03-23T09:19:08Z</time>
      </trkpt>
      <trkpt lat="44.8666" lon="4.79071">
        <ele>493.1</ele>
        <time>2014-03-23T09:19:12Z</time>
      </trkpt>
      <trkpt lat="44.86663" lon="4.79059">
        <ele>494.1</ele>
        <time>2014-03-23T09:19:16Z</time>
      </trkpt>
      <trkpt lat="44.86666" lon="4.79051">
        <ele>494.6</ele>
        <time>2014-03-23T09:19:19Z</time>
      </trkpt>
      <trkpt lat="44.86669" lon="4.79042">
        <ele>495.5</ele>
        <time>2014-03-23T09:19:22Z</time>
      </trkpt>
      <trkpt lat="44.86672" lon="4.79033">
        <ele>496.3</ele>
        <time>2014-03-23T09:19:25Z</time>
      </trkpt>
      <trkpt lat="44.86675" lon="4.79024">
        <ele>496.5</ele>
        <time>2014-03-23T09:19:28Z</time>
      </trkpt>
      <trkpt lat="44.86679" lon="4.79015">
        <ele>496.8</ele>
        <time>2014-03-23T09:19:31Z</time>
      </trkpt>
      <trkpt lat="44.86683" lon="4.79004">
        <ele>496.9</ele>
        <time>2014-03-23T09:19:35Z</time>
      </trkpt>
      <trkpt lat="44.86684" lon="4.78991">
        <ele>497.4</ele>
        <time>2014-03-23T09:19:53Z</time>
      </trkpt>
      <trkpt lat="44.86684" lon="4.78991">
        <ele>497.6</ele>
        <time>2014-03-23T09:19:54Z</time>
      </trkpt>
      <trkpt lat="44.86693" lon="4.78974">
        <ele>499.7</ele>
        <time>2014-03-23T09:20:14Z</time>
      </trkpt>
      <trkpt lat="44.86696" lon="4.78965">
        <ele>499.8</ele>
        <time>2014-03-23T09:20:17Z</time>
      </trkpt>
      <trkpt lat="44.86698" lon="4.78955">
        <ele>501.5</ele>
        <time>2014-03-23T09:20:20Z</time>
      </trkpt>
      <trkpt lat="44.86701" lon="4.78943">
        <ele>503.1</ele>
        <time>2014-03-23T09:20:24Z</time>
      </trkpt>
      <trkpt lat="44.86702" lon="4.78932">
        <ele>502.6</ele>
        <time>2014-03-23T09:20:28Z</time>
      </trkpt>
      <trkpt lat="44.86705" lon="4.7892">
        <ele>502.8</ele>
        <time>2014-03-23T09:20:33Z</time>
      </trkpt>
      <trkpt lat="44.86706" lon="4.78909">
        <ele>503</ele>
        <time>2014-03-23T09:20:37Z</time>
      </trkpt>
      <trkpt lat="44.86708" lon="4.78899">
        <ele>502.9</ele>
        <time>2014-03-23T09:20:41Z</time>
      </trkpt>
      <trkpt lat="44.86707" lon="4.78887">
        <ele>506.5</ele>
        <time>2014-03-23T09:20:55Z</time>
      </trkpt>
      <trkpt lat="44.86707" lon="4.78886">
        <ele>506.3</ele>
        <time>2014-03-23T09:20:56Z</time>
      </trkpt>
      <trkpt lat="44.8671" lon="4.78863">
        <ele>502.9</ele>
        <time>2014-03-23T09:21:13Z</time>
      </trkpt>
      <trkpt lat="44.8671" lon="4.7885">
        <ele>505.1</ele>
        <time>2014-03-23T09:21:26Z</time>
      </trkpt>
      <trkpt lat="44.86704" lon="4.78842">
        <ele>507.2</ele>
        <time>2014-03-23T09:21:36Z</time>
      </trkpt>
      <trkpt lat="44.86697" lon="4.78834">
        <ele>505.3</ele>
        <time>2014-03-23T09:21:41Z</time>
      </trkpt>
      <trkpt lat="44.86691" lon="4.78827">
        <ele>504.6</ele>
        <time>2014-03-23T09:21:47Z</time>
      </trkpt>
      <trkpt lat="44.86683" lon="4.78822">
        <ele>503.2</ele>
        <time>2014-03-23T09:21:52Z</time>
      </trkpt>
      <trkpt lat="44.86677" lon="4.78818">
        <ele>503.1</ele>
        <time>2014-03-23T09:21:55Z</time>
      </trkpt>
      <trkpt lat="44.86671" lon="4.78814">
        <ele>502.8</ele>
        <time>2014-03-23T09:21:58Z</time>
      </trkpt>
      <trkpt lat="44.86669" lon="4.78813">
        <ele>502.8</ele>
        <time>2014-03-23T09:21:59Z</time>
      </trkpt>
      <trkpt lat="44.86656" lon="4.78803">
        <ele>502.6</ele>
        <time>2014-03-23T09:22:04Z</time>
      </trkpt>
      <trkpt lat="44.86649" lon="4.78798">
        <ele>502.6</ele>
        <time>2014-03-23T09:22:07Z</time>
      </trkpt>
      <trkpt lat="44.86643" lon="4.78794">
        <ele>503.8</ele>
        <time>2014-03-23T09:22:09Z</time>
      </trkpt>
      <trkpt lat="44.86637" lon="4.7879">
        <ele>504</ele>
        <time>2014-03-23T09:22:11Z</time>
      </trkpt>
      <trkpt lat="44.8663" lon="4.78785">
        <ele>503.7</ele>
        <time>2014-03-23T09:22:13Z</time>
      </trkpt>
      <trkpt lat="44.86624" lon="4.7878">
        <ele>503.6</ele>
        <time>2014-03-23T09:22:15Z</time>
      </trkpt>
      <trkpt lat="44.86618" lon="4.78776">
        <ele>504</ele>
        <time>2014-03-23T09:22:17Z</time>
      </trkpt>
      <trkpt lat="44.86611" lon="4.7877">
        <ele>503.9</ele>
        <time>2014-03-23T09:22:19Z</time>
      </trkpt>
      <trkpt lat="44.86604" lon="4.78766">
        <ele>503.4</ele>
        <time>2014-03-23T09:22:21Z</time>
      </trkpt>
      <trkpt lat="44.86597" lon="4.78761">
        <ele>502.6</ele>
        <time>2014-03-23T09:22:23Z</time>
      </trkpt>
      <trkpt lat="44.86592" lon="4.78754">
        <ele>501.9</ele>
        <time>2014-03-23T09:22:25Z</time>
      </trkpt>
      <trkpt lat="44.86586" lon="4.78749">
        <ele>501.4</ele>
        <time>2014-03-23T09:22:27Z</time>
      </trkpt>
      <trkpt lat="44.86581" lon="4.78743">
        <ele>501</ele>
        <time>2014-03-23T09:22:29Z</time>
      </trkpt>
      <trkpt lat="44.86575" lon="4.7874">
        <ele>500.6</ele>
        <time>2014-03-23T09:22:31Z</time>
      </trkpt>
      <trkpt lat="44.86568" lon="4.78735">
        <ele>500.3</ele>
        <time>2014-03-23T09:22:33Z</time>
      </trkpt>
      <trkpt lat="44.86562" lon="4.78729">
        <ele>499.2</ele>
        <time>2014-03-23T09:22:36Z</time>
      </trkpt>
      <trkpt lat="44.86555" lon="4.78727">
        <ele>498.3</ele>
        <time>2014-03-23T09:22:39Z</time>
      </trkpt>
      <trkpt lat="44.86547" lon="4.78725">
        <ele>498.9</ele>
        <time>2014-03-23T09:22:42Z</time>
      </trkpt>
      <trkpt lat="44.8654" lon="4.7872">
        <ele>498.5</ele>
        <time>2014-03-23T09:22:46Z</time>
      </trkpt>
      <trkpt lat="44.86534" lon="4.78717">
        <ele>497.6</ele>
        <time>2014-03-23T09:22:48Z</time>
      </trkpt>
      <trkpt lat="44.86527" lon="4.78709">
        <ele>495.2</ele>
        <time>2014-03-23T09:22:54Z</time>
      </trkpt>
      <trkpt lat="44.86519" lon="4.78704">
        <ele>493.5</ele>
        <time>2014-03-23T09:23:17Z</time>
      </trkpt>
      <trkpt lat="44.86516" lon="4.78701">
        <ele>493.3</ele>
        <time>2014-03-23T09:23:18Z</time>
      </trkpt>
      <trkpt lat="44.86505" lon="4.78688">
        <ele>491</ele>
        <time>2014-03-23T09:23:24Z</time>
      </trkpt>
      <trkpt lat="44.86498" lon="4.78681">
        <ele>487.8</ele>
        <time>2014-03-23T09:23:28Z</time>
      </trkpt>
      <trkpt lat="44.8649" lon="4.78678">
        <ele>484.9</ele>
        <time>2014-03-23T09:23:32Z</time>
      </trkpt>
      <trkpt lat="44.86482" lon="4.78683">
        <ele>482.6</ele>
        <time>2014-03-23T09:23:36Z</time>
      </trkpt>
      <trkpt lat="44.86474" lon="4.78687">
        <ele>479</ele>
        <time>2014-03-23T09:23:59Z</time>
      </trkpt>
      <trkpt lat="44.86466" lon="4.78688">
        <ele>477.5</ele>
        <time>2014-03-23T09:24:11Z</time>
      </trkpt>
      <trkpt lat="44.86458" lon="4.78687">
        <ele>474.6</ele>
        <time>2014-03-23T09:24:15Z</time>
      </trkpt>
      <trkpt lat="44.86449" lon="4.78688">
        <ele>470.5</ele>
        <time>2014-03-23T09:24:21Z</time>
      </trkpt>
      <trkpt lat="44.86448" lon="4.78688">
        <ele>469.8</ele>
        <time>2014-03-23T09:24:22Z</time>
      </trkpt>
      <trkpt lat="44.86434" lon="4.78686">
        <ele>463.2</ele>
        <time>2014-03-23T09:24:30Z</time>
      </trkpt>
      <trkpt lat="44.86427" lon="4.78682">
        <ele>453.5</ele>
        <time>2014-03-23T09:24:50Z</time>
      </trkpt>
      <trkpt lat="44.86421" lon="4.78675">
        <ele>451.2</ele>
        <time>2014-03-23T09:24:56Z</time>
      </trkpt>
      <trkpt lat="44.86415" lon="4.78667">
        <ele>447.9</ele>
        <time>2014-03-23T09:25:00Z</time>
      </trkpt>
      <trkpt lat="44.8641" lon="4.78659">
        <ele>444</ele>
        <time>2014-03-23T09:25:04Z</time>
      </trkpt>
      <trkpt lat="44.86408" lon="4.7865">
        <ele>441.2</ele>
        <time>2014-03-23T09:25:08Z</time>
      </trkpt>
      <trkpt lat="44.86407" lon="4.78639">
        <ele>438</ele>
        <time>2014-03-23T09:25:12Z</time>
      </trkpt>
      <trkpt lat="44.86408" lon="4.78627">
        <ele>435.8</ele>
        <time>2014-03-23T09:25:21Z</time>
      </trkpt>
      <trkpt lat="44.8641" lon="4.78615">
        <ele>437</ele>
        <time>2014-03-23T09:25:31Z</time>
      </trkpt>
      <trkpt lat="44.86411" lon="4.78613">
        <ele>436.9</ele>
        <time>2014-03-23T09:25:32Z</time>
      </trkpt>
      <trkpt lat="44.86411" lon="4.78593">
        <ele>434.7</ele>
        <time>2014-03-23T09:25:47Z</time>
      </trkpt>
      <trkpt lat="44.86413" lon="4.78581">
        <ele>432.8</ele>
        <time>2014-03-23T09:25:53Z</time>
      </trkpt>
      <trkpt lat="44.86409" lon="4.7857">
        <ele>427.4</ele>
        <time>2014-03-23T09:26:10Z</time>
      </trkpt>
      <trkpt lat="44.86401" lon="4.78568">
        <ele>425.2</ele>
        <time>2014-03-23T09:26:25Z</time>
      </trkpt>
      <trkpt lat="44.86396" lon="4.78573">
        <ele>423.3</ele>
        <time>2014-03-23T09:26:28Z</time>
      </trkpt>
      <trkpt lat="44.86389" lon="4.7858">
        <ele>419.9</ele>
        <time>2014-03-23T09:26:32Z</time>
      </trkpt>
      <trkpt lat="44.86387" lon="4.78582">
        <ele>419</ele>
        <time>2014-03-23T09:26:33Z</time>
      </trkpt>
      <trkpt lat="44.86377" lon="4.78593">
        <ele>415.1</ele>
        <time>2014-03-23T09:26:39Z</time>
      </trkpt>
      <trkpt lat="44.86369" lon="4.78597">
        <ele>411.7</ele>
        <time>2014-03-23T09:26:45Z</time>
      </trkpt>
      <trkpt lat="44.86363" lon="4.78601">
        <ele>410.4</ele>
        <time>2014-03-23T09:26:48Z</time>
      </trkpt>
      <trkpt lat="44.86356" lon="4.78606">
        <ele>409</ele>
        <time>2014-03-23T09:26:52Z</time>
      </trkpt>
      <trkpt lat="44.86348" lon="4.78608">
        <ele>405.6</ele>
        <time>2014-03-23T09:26:57Z</time>
      </trkpt>
      <trkpt lat="44.8634" lon="4.78602">
        <ele>402.2</ele>
        <time>2014-03-23T09:27:03Z</time>
      </trkpt>
      <trkpt lat="44.86333" lon="4.78605">
        <ele>400.2</ele>
        <time>2014-03-23T09:27:07Z</time>
      </trkpt>
      <trkpt lat="44.86327" lon="4.78604">
        <ele>398.1</ele>
        <time>2014-03-23T09:27:09Z</time>
      </trkpt>
      <trkpt lat="44.86318" lon="4.78604">
        <ele>396.6</ele>
        <time>2014-03-23T09:27:11Z</time>
      </trkpt>
      <trkpt lat="44.86313" lon="4.78601">
        <ele>395.3</ele>
        <time>2014-03-23T09:27:13Z</time>
      </trkpt>
      <trkpt lat="44.86309" lon="4.786">
        <ele>394.7</ele>
        <time>2014-03-23T09:27:14Z</time>
      </trkpt>
      <trkpt lat="44.86304" lon="4.78599">
        <ele>393.2</ele>
        <time>2014-03-23T09:27:15Z</time>
      </trkpt>
      <trkpt lat="44.86298" lon="4.78599">
        <ele>392.1</ele>
        <time>2014-03-23T09:27:16Z</time>
      </trkpt>
      <trkpt lat="44.86292" lon="4.78599">
        <ele>391.2</ele>
        <time>2014-03-23T09:27:17Z</time>
      </trkpt>
      <trkpt lat="44.86286" lon="4.786">
        <ele>390.4</ele>
        <time>2014-03-23T09:27:18Z</time>
      </trkpt>
      <trkpt lat="44.86279" lon="4.78597">
        <ele>387.5</ele>
        <time>2014-03-23T09:27:22Z</time>
      </trkpt>
      <trkpt lat="44.8627" lon="4.78594">
        <ele>385.6</ele>
        <time>2014-03-23T09:27:25Z</time>
      </trkpt>
      <trkpt lat="44.86267" lon="4.78592">
        <ele>384.9</ele>
        <time>2014-03-23T09:27:26Z</time>
      </trkpt>
      <trkpt lat="44.86262" lon="4.78589">
        <ele>384.2</ele>
        <time>2014-03-23T09:27:27Z</time>
      </trkpt>
      <trkpt lat="44.86258" lon="4.78588">
        <ele>383.6</ele>
        <time>2014-03-23T09:27:28Z</time>
      </trkpt>
      <trkpt lat="44.8625" lon="4.78586">
        <ele>381.9</ele>
        <time>2014-03-23T09:27:30Z</time>
      </trkpt>
      <trkpt lat="44.86245" lon="4.7858">
        <ele>379.8</ele>
        <time>2014-03-23T09:27:33Z</time>
      </trkpt>
      <trkpt lat="44.86243" lon="4.78577">
        <ele>379.4</ele>
        <time>2014-03-23T09:27:34Z</time>
      </trkpt>
      <trkpt lat="44.8623" lon="4.78571">
        <ele>377.5</ele>
        <time>2014-03-23T09:27:40Z</time>
      </trkpt>
      <trkpt lat="44.86223" lon="4.78564">
        <ele>376.5</ele>
        <time>2014-03-23T09:27:44Z</time>
      </trkpt>
      <trkpt lat="44.86217" lon="4.78559">
        <ele>375.5</ele>
        <time>2014-03-23T09:27:46Z</time>
      </trkpt>
      <trkpt lat="44.86208" lon="4.78559">
        <ele>373.4</ele>
        <time>2014-03-23T09:27:52Z</time>
      </trkpt>
      <trkpt lat="44.86201" lon="4.78567">
        <ele>372.9</ele>
        <time>2014-03-23T09:29:17Z</time>
      </trkpt>
      <trkpt lat="44.86202" lon="4.78569">
        <ele>372.9</ele>
        <time>2014-03-23T09:29:18Z</time>
      </trkpt>
      <trkpt lat="44.86209" lon="4.78586">
        <ele>372.8</ele>
        <time>2014-03-23T09:29:24Z</time>
      </trkpt>
      <trkpt lat="44.86216" lon="4.78592">
        <ele>372.7</ele>
        <time>2014-03-23T09:29:27Z</time>
      </trkpt>
      <trkpt lat="44.86221" lon="4.78598">
        <ele>371.9</ele>
        <time>2014-03-23T09:29:29Z</time>
      </trkpt>
      <trkpt lat="44.86225" lon="4.78605">
        <ele>371.4</ele>
        <time>2014-03-23T09:29:31Z</time>
      </trkpt>
      <trkpt lat="44.8623" lon="4.78614">
        <ele>370.8</ele>
        <time>2014-03-23T09:29:33Z</time>
      </trkpt>
      <trkpt lat="44.86234" lon="4.78624">
        <ele>370.4</ele>
        <time>2014-03-23T09:29:35Z</time>
      </trkpt>
      <trkpt lat="44.86236" lon="4.7863">
        <ele>370.4</ele>
        <time>2014-03-23T09:29:36Z</time>
      </trkpt>
      <trkpt lat="44.86239" lon="4.78636">
        <ele>370.4</ele>
        <time>2014-03-23T09:29:37Z</time>
      </trkpt>
      <trkpt lat="44.86242" lon="4.78641">
        <ele>370.2</ele>
        <time>2014-03-23T09:29:38Z</time>
      </trkpt>
      <trkpt lat="44.86246" lon="4.78645">
        <ele>370.1</ele>
        <time>2014-03-23T09:29:39Z</time>
      </trkpt>
      <trkpt lat="44.86251" lon="4.78649">
        <ele>369.8</ele>
        <time>2014-03-23T09:29:40Z</time>
      </trkpt>
      <trkpt lat="44.86256" lon="4.78652">
        <ele>369.6</ele>
        <time>2014-03-23T09:29:41Z</time>
      </trkpt>
      <trkpt lat="44.86261" lon="4.78654">
        <ele>369.7</ele>
        <time>2014-03-23T09:29:42Z</time>
      </trkpt>
      <trkpt lat="44.86266" lon="4.78655">
        <ele>369.8</ele>
        <time>2014-03-23T09:29:43Z</time>
      </trkpt>
      <trkpt lat="44.86272" lon="4.78657">
        <ele>369.8</ele>
        <time>2014-03-23T09:29:44Z</time>
      </trkpt>
      <trkpt lat="44.86277" lon="4.78659">
        <ele>369.4</ele>
        <time>2014-03-23T09:29:45Z</time>
      </trkpt>
      <trkpt lat="44.86282" lon="4.78663">
        <ele>369.1</ele>
        <time>2014-03-23T09:29:46Z</time>
      </trkpt>
      <trkpt lat="44.86286" lon="4.78669">
        <ele>368.6</ele>
        <time>2014-03-23T09:29:47Z</time>
      </trkpt>
      <trkpt lat="44.8629" lon="4.78676">
        <ele>368.3</ele>
        <time>2014-03-23T09:29:48Z</time>
      </trkpt>
      <trkpt lat="44.86292" lon="4.78683">
        <ele>368</ele>
        <time>2014-03-23T09:29:49Z</time>
      </trkpt>
      <trkpt lat="44.86294" lon="4.78691">
        <ele>368.4</ele>
        <time>2014-03-23T09:29:50Z</time>
      </trkpt>
      <trkpt lat="44.86294" lon="4.787">
        <ele>368.7</ele>
        <time>2014-03-23T09:29:51Z</time>
      </trkpt>
      <trkpt lat="44.86294" lon="4.78708">
        <ele>369.8</ele>
        <time>2014-03-23T09:29:52Z</time>
      </trkpt>
      <trkpt lat="44.86293" lon="4.78717">
        <ele>370.6</ele>
        <time>2014-03-23T09:29:53Z</time>
      </trkpt>
      <trkpt lat="44.86291" lon="4.78726">
        <ele>369.9</ele>
        <time>2014-03-23T09:29:54Z</time>
      </trkpt>
      <trkpt lat="44.8629" lon="4.78735">
        <ele>369.3</ele>
        <time>2014-03-23T09:29:55Z</time>
      </trkpt>
      <trkpt lat="44.86288" lon="4.78743">
        <ele>368.9</ele>
        <time>2014-03-23T09:29:56Z</time>
      </trkpt>
      <trkpt lat="44.86286" lon="4.78752">
        <ele>367.8</ele>
        <time>2014-03-23T09:29:57Z</time>
      </trkpt>
      <trkpt lat="44.86285" lon="4.78761">
        <ele>367</ele>
        <time>2014-03-23T09:29:58Z</time>
      </trkpt>
      <trkpt lat="44.86285" lon="4.7877">
        <ele>366.5</ele>
        <time>2014-03-23T09:29:59Z</time>
      </trkpt>
      <trkpt lat="44.86284" lon="4.78779">
        <ele>366.1</ele>
        <time>2014-03-23T09:30:00Z</time>
      </trkpt>
      <trkpt lat="44.86283" lon="4.78788">
        <ele>365.9</ele>
        <time>2014-03-23T09:30:01Z</time>
      </trkpt>
      <trkpt lat="44.86283" lon="4.78797">
        <ele>365.8</ele>
        <time>2014-03-23T09:30:02Z</time>
      </trkpt>
      <trkpt lat="44.86283" lon="4.78806">
        <ele>365.7</ele>
        <time>2014-03-23T09:30:03Z</time>
      </trkpt>
      <trkpt lat="44.86284" lon="4.78815">
        <ele>365.5</ele>
        <time>2014-03-23T09:30:04Z</time>
      </trkpt>
      <trkpt lat="44.86286" lon="4.78823">
        <ele>365.3</ele>
        <time>2014-03-23T09:30:05Z</time>
      </trkpt>
      <trkpt lat="44.8629" lon="4.7883">
        <ele>364.8</ele>
        <time>2014-03-23T09:30:06Z</time>
      </trkpt>
      <trkpt lat="44.86295" lon="4.78836">
        <ele>364.4</ele>
        <time>2014-03-23T09:30:07Z</time>
      </trkpt>
      <trkpt lat="44.863" lon="4.78842">
        <ele>364.1</ele>
        <time>2014-03-23T09:30:08Z</time>
      </trkpt>
      <trkpt lat="44.86304" lon="4.78848">
        <ele>363.5</ele>
        <time>2014-03-23T09:30:09Z</time>
      </trkpt>
      <trkpt lat="44.86309" lon="4.78855">
        <ele>363.1</ele>
        <time>2014-03-23T09:30:10Z</time>
      </trkpt>
      <trkpt lat="44.86312" lon="4.78862">
        <ele>362.5</ele>
        <time>2014-03-23T09:30:11Z</time>
      </trkpt>
      <trkpt lat="44.86315" lon="4.7887">
        <ele>362.1</ele>
        <time>2014-03-23T09:30:12Z</time>
      </trkpt>
      <trkpt lat="44.86318" lon="4.78878">
        <ele>362</ele>
        <time>2014-03-23T09:30:13Z</time>
      </trkpt>
      <trkpt lat="44.8632" lon="4.78886">
        <ele>361.9</ele>
        <time>2014-03-23T09:30:14Z</time>
      </trkpt>
      <trkpt lat="44.86323" lon="4.78894">
        <ele>361.8</ele>
        <time>2014-03-23T09:30:15Z</time>
      </trkpt>
      <trkpt lat="44.86325" lon="4.78902">
        <ele>361.4</ele>
        <time>2014-03-23T09:30:16Z</time>
      </trkpt>
      <trkpt lat="44.86329" lon="4.7891">
        <ele>361.2</ele>
        <time>2014-03-23T09:30:17Z</time>
      </trkpt>
      <trkpt lat="44.86332" lon="4.78918">
        <ele>361.2</ele>
        <time>2014-03-23T09:30:18Z</time>
      </trkpt>
      <trkpt lat="44.86334" lon="4.78926">
        <ele>361.2</ele>
        <time>2014-03-23T09:30:19Z</time>
      </trkpt>
      <trkpt lat="44.86337" lon="4.78934">
        <ele>360.7</ele>
        <time>2014-03-23T09:30:20Z</time>
      </trkpt>
      <trkpt lat="44.8634" lon="4.78942">
        <ele>360.4</ele>
        <time>2014-03-23T09:30:21Z</time>
      </trkpt>
      <trkpt lat="44.86343" lon="4.7895">
        <ele>360.2</ele>
        <time>2014-03-23T09:30:22Z</time>
      </trkpt>
      <trkpt lat="44.86346" lon="4.78958">
        <ele>359.9</ele>
        <time>2014-03-23T09:30:23Z</time>
      </trkpt>
      <trkpt lat="44.86348" lon="4.78967">
        <ele>359.7</ele>
        <time>2014-03-23T09:30:24Z</time>
      </trkpt>
      <trkpt lat="44.8635" lon="4.78975">
        <ele>359.3</ele>
        <time>2014-03-23T09:30:25Z</time>
      </trkpt>
      <trkpt lat="44.8635" lon="4.78985">
        <ele>359.1</ele>
        <time>2014-03-23T09:30:26Z</time>
      </trkpt>
      <trkpt lat="44.86348" lon="4.78993">
        <ele>358.7</ele>
        <time>2014-03-23T09:30:27Z</time>
      </trkpt>
      <trkpt lat="44.86344" lon="4.79">
        <ele>358.5</ele>
        <time>2014-03-23T09:30:28Z</time>
      </trkpt>
      <trkpt lat="44.86339" lon="4.79006">
        <ele>358.3</ele>
        <time>2014-03-23T09:30:29Z</time>
      </trkpt>
      <trkpt lat="44.86334" lon="4.7901">
        <ele>358.2</ele>
        <time>2014-03-23T09:30:30Z</time>
      </trkpt>
      <trkpt lat="44.86328" lon="4.79013">
        <ele>358.1</ele>
        <time>2014-03-23T09:30:31Z</time>
      </trkpt>
      <trkpt lat="44.86321" lon="4.79015">
        <ele>357.6</ele>
        <time>2014-03-23T09:30:32Z</time>
      </trkpt>
      <trkpt lat="44.86315" lon="4.79017">
        <ele>357.3</ele>
        <time>2014-03-23T09:30:33Z</time>
      </trkpt>
      <trkpt lat="44.86309" lon="4.79019">
        <ele>357</ele>
        <time>2014-03-23T09:30:34Z</time>
      </trkpt>
      <trkpt lat="44.86304" lon="4.79024">
        <ele>356.6</ele>
        <time>2014-03-23T09:30:35Z</time>
      </trkpt>
      <trkpt lat="44.863" lon="4.79029">
        <ele>356.3</ele>
        <time>2014-03-23T09:30:36Z</time>
      </trkpt>
      <trkpt lat="44.86294" lon="4.79036">
        <ele>356.3</ele>
        <time>2014-03-23T09:30:38Z</time>
      </trkpt>
      <trkpt lat="44.86287" lon="4.79042">
        <ele>359.6</ele>
        <time>2014-03-23T09:30:41Z</time>
      </trkpt>
      <trkpt lat="44.86281" lon="4.7905">
        <ele>359.4</ele>
        <time>2014-03-23T09:30:44Z</time>
      </trkpt>
      <trkpt lat="44.86276" lon="4.79059">
        <ele>360.6</ele>
        <time>2014-03-23T09:30:48Z</time>
      </trkpt>
      <trkpt lat="44.86283" lon="4.79066">
        <ele>362.2</ele>
        <time>2014-03-23T09:30:56Z</time>
      </trkpt>
      <trkpt lat="44.8629" lon="4.79062">
        <ele>363.5</ele>
        <time>2014-03-23T09:31:02Z</time>
      </trkpt>
      <trkpt lat="44.86295" lon="4.79072">
        <ele>365</ele>
        <time>2014-03-23T09:31:09Z</time>
      </trkpt>
      <trkpt lat="44.86288" lon="4.79077">
        <ele>366.3</ele>
        <time>2014-03-23T09:31:14Z</time>
      </trkpt>
      <trkpt lat="44.86283" lon="4.79088">
        <ele>368.7</ele>
        <time>2014-03-23T09:31:20Z</time>
      </trkpt>
      <trkpt lat="44.86283" lon="4.7909">
        <ele>369.2</ele>
        <time>2014-03-23T09:31:21Z</time>
      </trkpt>
      <trkpt lat="44.86281" lon="4.7911">
        <ele>371.2</ele>
        <time>2014-03-23T09:31:31Z</time>
      </trkpt>
      <trkpt lat="44.86283" lon="4.79122">
        <ele>372.5</ele>
        <time>2014-03-23T09:31:36Z</time>
      </trkpt>
      <trkpt lat="44.86284" lon="4.79131">
        <ele>374.1</ele>
        <time>2014-03-23T09:31:41Z</time>
      </trkpt>
      <trkpt lat="44.86283" lon="4.79142">
        <ele>375.1</ele>
        <time>2014-03-23T09:31:46Z</time>
      </trkpt>
      <trkpt lat="44.86278" lon="4.79153">
        <ele>378.6</ele>
        <time>2014-03-23T09:31:52Z</time>
      </trkpt>
      <trkpt lat="44.86275" lon="4.79164">
        <ele>378.8</ele>
        <time>2014-03-23T09:31:58Z</time>
      </trkpt>
      <trkpt lat="44.86272" lon="4.79175">
        <ele>379.5</ele>
        <time>2014-03-23T09:32:04Z</time>
      </trkpt>
      <trkpt lat="44.8627" lon="4.79188">
        <ele>381.3</ele>
        <time>2014-03-23T09:32:11Z</time>
      </trkpt>
      <trkpt lat="44.86268" lon="4.79199">
        <ele>383.8</ele>
        <time>2014-03-23T09:32:18Z</time>
      </trkpt>
      <trkpt lat="44.86266" lon="4.79211">
        <ele>384.5</ele>
        <time>2014-03-23T09:32:25Z</time>
      </trkpt>
      <trkpt lat="44.86266" lon="4.79213">
        <ele>384.8</ele>
        <time>2014-03-23T09:32:26Z</time>
      </trkpt>
      <trkpt lat="44.86261" lon="4.79234">
        <ele>387.1</ele>
        <time>2014-03-23T09:32:38Z</time>
      </trkpt>
      <trkpt lat="44.86257" lon="4.79245">
        <ele>388.8</ele>
        <time>2014-03-23T09:32:45Z</time>
      </trkpt>
      <trkpt lat="44.86253" lon="4.79256">
        <ele>390.5</ele>
        <time>2014-03-23T09:32:51Z</time>
      </trkpt>
      <trkpt lat="44.86249" lon="4.79266">
        <ele>391.5</ele>
        <time>2014-03-23T09:32:57Z</time>
      </trkpt>
      <trkpt lat="44.86245" lon="4.79277">
        <ele>392.1</ele>
        <time>2014-03-23T09:33:03Z</time>
      </trkpt>
      <trkpt lat="44.86239" lon="4.79286">
        <ele>395</ele>
        <time>2014-03-23T09:33:10Z</time>
      </trkpt>
      <trkpt lat="44.86235" lon="4.79295">
        <ele>396.2</ele>
        <time>2014-03-23T09:33:17Z</time>
      </trkpt>
      <trkpt lat="44.86229" lon="4.79305">
        <ele>399.7</ele>
        <time>2014-03-23T09:33:25Z</time>
      </trkpt>
      <trkpt lat="44.86225" lon="4.79315">
        <ele>401.2</ele>
        <time>2014-03-23T09:33:31Z</time>
      </trkpt>
      <trkpt lat="44.86224" lon="4.79316">
        <ele>401.4</ele>
        <time>2014-03-23T09:33:32Z</time>
      </trkpt>
      <trkpt lat="44.86216" lon="4.79334">
        <ele>402.9</ele>
        <time>2014-03-23T09:33:43Z</time>
      </trkpt>
      <trkpt lat="44.86213" lon="4.79345">
        <ele>403.7</ele>
        <time>2014-03-23T09:33:49Z</time>
      </trkpt>
      <trkpt lat="44.86209" lon="4.79357">
        <ele>405.8</ele>
        <time>2014-03-23T09:33:55Z</time>
      </trkpt>
      <trkpt lat="44.86205" lon="4.79366">
        <ele>406.1</ele>
        <time>2014-03-23T09:34:00Z</time>
      </trkpt>
      <trkpt lat="44.86199" lon="4.79375">
        <ele>406.8</ele>
        <time>2014-03-23T09:34:05Z</time>
      </trkpt>
      <trkpt lat="44.86193" lon="4.79382">
        <ele>408.5</ele>
        <time>2014-03-23T09:34:10Z</time>
      </trkpt>
      <trkpt lat="44.86188" lon="4.79389">
        <ele>409.6</ele>
        <time>2014-03-23T09:34:15Z</time>
      </trkpt>
      <trkpt lat="44.86182" lon="4.79398">
        <ele>411</ele>
        <time>2014-03-23T09:34:20Z</time>
      </trkpt>
      <trkpt lat="44.86176" lon="4.79405">
        <ele>411.2</ele>
        <time>2014-03-23T09:34:25Z</time>
      </trkpt>
      <trkpt lat="44.8617" lon="4.7941">
        <ele>411.9</ele>
        <time>2014-03-23T09:34:30Z</time>
      </trkpt>
      <trkpt lat="44.86164" lon="4.79418">
        <ele>413.4</ele>
        <time>2014-03-23T09:34:35Z</time>
      </trkpt>
      <trkpt lat="44.86162" lon="4.7942">
        <ele>413.7</ele>
        <time>2014-03-23T09:34:36Z</time>
      </trkpt>
      <trkpt lat="44.86151" lon="4.79433">
        <ele>415.2</ele>
        <time>2014-03-23T09:34:43Z</time>
      </trkpt>
      <trkpt lat="44.86147" lon="4.79442">
        <ele>415.9</ele>
        <time>2014-03-23T09:34:47Z</time>
      </trkpt>
      <trkpt lat="44.86143" lon="4.79451">
        <ele>418.8</ele>
        <time>2014-03-23T09:34:52Z</time>
      </trkpt>
      <trkpt lat="44.86139" lon="4.79462">
        <ele>419.3</ele>
        <time>2014-03-23T09:34:57Z</time>
      </trkpt>
      <trkpt lat="44.86132" lon="4.79469">
        <ele>421</ele>
        <time>2014-03-23T09:35:02Z</time>
      </trkpt>
      <trkpt lat="44.86125" lon="4.79475">
        <ele>422.7</ele>
        <time>2014-03-23T09:35:08Z</time>
      </trkpt>
      <trkpt lat="44.86119" lon="4.79484">
        <ele>423.8</ele>
        <time>2014-03-23T09:35:14Z</time>
      </trkpt>
      <trkpt lat="44.86126" lon="4.79489">
        <ele>426.2</ele>
        <time>2014-03-23T09:35:25Z</time>
      </trkpt>
      <trkpt lat="44.86134" lon="4.79485">
        <ele>427.8</ele>
        <time>2014-03-23T09:35:32Z</time>
      </trkpt>
      <trkpt lat="44.86143" lon="4.79484">
        <ele>428.7</ele>
        <time>2014-03-23T09:35:39Z</time>
      </trkpt>
      <trkpt lat="44.86144" lon="4.79484">
        <ele>428.8</ele>
        <time>2014-03-23T09:35:40Z</time>
      </trkpt>
      <trkpt lat="44.8616" lon="4.79482">
        <ele>431.5</ele>
        <time>2014-03-23T09:35:51Z</time>
      </trkpt>
      <trkpt lat="44.86168" lon="4.7948">
        <ele>432.8</ele>
        <time>2014-03-23T09:35:57Z</time>
      </trkpt>
      <trkpt lat="44.86177" lon="4.79478">
        <ele>434.1</ele>
        <time>2014-03-23T09:36:03Z</time>
      </trkpt>
      <trkpt lat="44.86184" lon="4.79476">
        <ele>434.6</ele>
        <time>2014-03-23T09:36:08Z</time>
      </trkpt>
      <trkpt lat="44.86193" lon="4.79473">
        <ele>435.8</ele>
        <time>2014-03-23T09:36:14Z</time>
      </trkpt>
      <trkpt lat="44.86201" lon="4.79471">
        <ele>437.2</ele>
        <time>2014-03-23T09:36:19Z</time>
      </trkpt>
      <trkpt lat="44.86209" lon="4.7947">
        <ele>438.7</ele>
        <time>2014-03-23T09:36:25Z</time>
      </trkpt>
      <trkpt lat="44.86217" lon="4.79468">
        <ele>439.6</ele>
        <time>2014-03-23T09:36:30Z</time>
      </trkpt>
      <trkpt lat="44.86225" lon="4.79464">
        <ele>441.8</ele>
        <time>2014-03-23T09:36:36Z</time>
      </trkpt>
      <trkpt lat="44.86233" lon="4.79462">
        <ele>443.8</ele>
        <time>2014-03-23T09:36:42Z</time>
      </trkpt>
      <trkpt lat="44.86235" lon="4.79462">
        <ele>444</ele>
        <time>2014-03-23T09:36:43Z</time>
      </trkpt>
      <trkpt lat="44.86249" lon="4.79456">
        <ele>447.3</ele>
        <time>2014-03-23T09:36:54Z</time>
      </trkpt>
      <trkpt lat="44.86258" lon="4.79456">
        <ele>449</ele>
        <time>2014-03-23T09:37:01Z</time>
      </trkpt>
      <trkpt lat="44.86255" lon="4.79467">
        <ele>451.8</ele>
        <time>2014-03-23T09:37:10Z</time>
      </trkpt>
      <trkpt lat="44.86248" lon="4.79475">
        <ele>451.4</ele>
        <time>2014-03-23T09:37:16Z</time>
      </trkpt>
      <trkpt lat="44.86242" lon="4.79481">
        <ele>450.9</ele>
        <time>2014-03-23T09:37:21Z</time>
      </trkpt>
      <trkpt lat="44.86235" lon="4.79489">
        <ele>451.6</ele>
        <time>2014-03-23T09:37:26Z</time>
      </trkpt>
      <trkpt lat="44.86229" lon="4.79497">
        <ele>452.2</ele>
        <time>2014-03-23T09:37:31Z</time>
      </trkpt>
      <trkpt lat="44.86223" lon="4.79506">
        <ele>452.2</ele>
        <time>2014-03-23T09:37:37Z</time>
      </trkpt>
      <trkpt lat="44.86216" lon="4.79512">
        <ele>453.5</ele>
        <time>2014-03-23T09:37:42Z</time>
      </trkpt>
      <trkpt lat="44.86208" lon="4.79515">
        <ele>452.4</ele>
        <time>2014-03-23T09:37:46Z</time>
      </trkpt>
      <trkpt lat="44.86205" lon="4.79515">
        <ele>452.1</ele>
        <time>2014-03-23T09:37:47Z</time>
      </trkpt>
      <trkpt lat="44.86192" lon="4.79518">
        <ele>451.8</ele>
        <time>2014-03-23T09:37:54Z</time>
      </trkpt>
      <trkpt lat="44.86186" lon="4.79522">
        <ele>452</ele>
        <time>2014-03-23T09:37:57Z</time>
      </trkpt>
      <trkpt lat="44.86179" lon="4.79527">
        <ele>451.8</ele>
        <time>2014-03-23T09:38:00Z</time>
      </trkpt>
      <trkpt lat="44.86172" lon="4.79532">
        <ele>451.8</ele>
        <time>2014-03-23T09:38:03Z</time>
      </trkpt>
      <trkpt lat="44.86165" lon="4.79536">
        <ele>451.8</ele>
        <time>2014-03-23T09:38:06Z</time>
      </trkpt>
      <trkpt lat="44.86158" lon="4.79542">
        <ele>451.4</ele>
        <time>2014-03-23T09:38:09Z</time>
      </trkpt>
      <trkpt lat="44.86152" lon="4.79548">
        <ele>450.5</ele>
        <time>2014-03-23T09:38:12Z</time>
      </trkpt>
      <trkpt lat="44.86145" lon="4.79555">
        <ele>450.4</ele>
        <time>2014-03-23T09:38:16Z</time>
      </trkpt>
      <trkpt lat="44.8614" lon="4.79561">
        <ele>451.2</ele>
        <time>2014-03-23T09:38:19Z</time>
      </trkpt>
      <trkpt lat="44.86135" lon="4.79571">
        <ele>451.1</ele>
        <time>2014-03-23T09:38:22Z</time>
      </trkpt>
      <trkpt lat="44.8613" lon="4.79582">
        <ele>451.1</ele>
        <time>2014-03-23T09:38:25Z</time>
      </trkpt>
      <trkpt lat="44.86126" lon="4.79592">
        <ele>450.5</ele>
        <time>2014-03-23T09:38:28Z</time>
      </trkpt>
      <trkpt lat="44.86124" lon="4.79604">
        <ele>450.7</ele>
        <time>2014-03-23T09:38:31Z</time>
      </trkpt>
      <trkpt lat="44.86124" lon="4.79612">
        <ele>451.7</ele>
        <time>2014-03-23T09:38:33Z</time>
      </trkpt>
      <trkpt lat="44.86124" lon="4.79624">
        <ele>450.8</ele>
        <time>2014-03-23T09:38:36Z</time>
      </trkpt>
      <trkpt lat="44.86128" lon="4.79635">
        <ele>447.9</ele>
        <time>2014-03-23T09:38:49Z</time>
      </trkpt>
      <trkpt lat="44.86128" lon="4.79635">
        <ele>447.8</ele>
        <time>2014-03-23T09:38:50Z</time>
      </trkpt>
      <trkpt lat="44.86143" lon="4.79641">
        <ele>448.7</ele>
        <time>2014-03-23T09:41:59Z</time>
      </trkpt>
      <trkpt lat="44.86144" lon="4.79642">
        <ele>448.7</ele>
        <time>2014-03-23T09:42:00Z</time>
      </trkpt>
      <trkpt lat="44.86155" lon="4.79654">
        <ele>448.9</ele>
        <time>2014-03-23T09:42:07Z</time>
      </trkpt>
      <trkpt lat="44.8616" lon="4.7966">
        <ele>449.6</ele>
        <time>2014-03-23T09:42:10Z</time>
      </trkpt>
      <trkpt lat="44.86166" lon="4.79666">
        <ele>450.6</ele>
        <time>2014-03-23T09:42:13Z</time>
      </trkpt>
      <trkpt lat="44.86171" lon="4.79673">
        <ele>451.3</ele>
        <time>2014-03-23T09:42:16Z</time>
      </trkpt>
      <trkpt lat="44.86176" lon="4.7968">
        <ele>451</ele>
        <time>2014-03-23T09:42:18Z</time>
      </trkpt>
      <trkpt lat="44.8618" lon="4.79687">
        <ele>450.6</ele>
        <time>2014-03-23T09:42:20Z</time>
      </trkpt>
      <trkpt lat="44.86185" lon="4.79694">
        <ele>450.3</ele>
        <time>2014-03-23T09:42:22Z</time>
      </trkpt>
      <trkpt lat="44.86191" lon="4.79703">
        <ele>449.2</ele>
        <time>2014-03-23T09:42:25Z</time>
      </trkpt>
      <trkpt lat="44.86197" lon="4.79711">
        <ele>448.9</ele>
        <time>2014-03-23T09:42:28Z</time>
      </trkpt>
      <trkpt lat="44.86202" lon="4.79719">
        <ele>448.2</ele>
        <time>2014-03-23T09:42:31Z</time>
      </trkpt>
      <trkpt lat="44.86208" lon="4.79728">
        <ele>448.4</ele>
        <time>2014-03-23T09:42:34Z</time>
      </trkpt>
      <trkpt lat="44.86213" lon="4.79735">
        <ele>448.9</ele>
        <time>2014-03-23T09:42:36Z</time>
      </trkpt>
      <trkpt lat="44.86217" lon="4.79741">
        <ele>449.2</ele>
        <time>2014-03-23T09:42:38Z</time>
      </trkpt>
      <trkpt lat="44.86221" lon="4.79748">
        <ele>448.7</ele>
        <time>2014-03-23T09:42:40Z</time>
      </trkpt>
      <trkpt lat="44.86226" lon="4.79755">
        <ele>449.2</ele>
        <time>2014-03-23T09:42:42Z</time>
      </trkpt>
      <trkpt lat="44.86231" lon="4.79762">
        <ele>448.5</ele>
        <time>2014-03-23T09:42:44Z</time>
      </trkpt>
      <trkpt lat="44.86237" lon="4.79769">
        <ele>448.3</ele>
        <time>2014-03-23T09:42:46Z</time>
      </trkpt>
      <trkpt lat="44.86243" lon="4.79776">
        <ele>448.3</ele>
        <time>2014-03-23T09:42:48Z</time>
      </trkpt>
      <trkpt lat="44.86248" lon="4.79785">
        <ele>448.1</ele>
        <time>2014-03-23T09:42:51Z</time>
      </trkpt>
      <trkpt lat="44.86254" lon="4.7979">
        <ele>448</ele>
        <time>2014-03-23T09:42:53Z</time>
      </trkpt>
      <trkpt lat="44.86261" lon="4.79797">
        <ele>445.9</ele>
        <time>2014-03-23T09:42:56Z</time>
      </trkpt>
      <trkpt lat="44.86266" lon="4.79803">
        <ele>446.9</ele>
        <time>2014-03-23T09:42:58Z</time>
      </trkpt>
      <trkpt lat="44.8627" lon="4.79812">
        <ele>447.9</ele>
        <time>2014-03-23T09:43:00Z</time>
      </trkpt>
      <trkpt lat="44.86272" lon="4.79817">
        <ele>447.7</ele>
        <time>2014-03-23T09:43:01Z</time>
      </trkpt>
      <trkpt lat="44.86282" lon="4.79829">
        <ele>447.3</ele>
        <time>2014-03-23T09:43:04Z</time>
      </trkpt>
      <trkpt lat="44.86287" lon="4.79836">
        <ele>447.6</ele>
        <time>2014-03-23T09:43:06Z</time>
      </trkpt>
      <trkpt lat="44.86292" lon="4.79842">
        <ele>448</ele>
        <time>2014-03-23T09:43:08Z</time>
      </trkpt>
      <trkpt lat="44.86299" lon="4.79849">
        <ele>448.1</ele>
        <time>2014-03-23T09:43:11Z</time>
      </trkpt>
      <trkpt lat="44.86307" lon="4.79856">
        <ele>448.5</ele>
        <time>2014-03-23T09:43:14Z</time>
      </trkpt>
      <trkpt lat="44.86313" lon="4.79863">
        <ele>448.8</ele>
        <time>2014-03-23T09:43:17Z</time>
      </trkpt>
      <trkpt lat="44.86317" lon="4.79873">
        <ele>448.7</ele>
        <time>2014-03-23T09:43:21Z</time>
      </trkpt>
      <trkpt lat="44.86317" lon="4.79882">
        <ele>448.5</ele>
        <time>2014-03-23T09:43:24Z</time>
      </trkpt>
      <trkpt lat="44.86317" lon="4.79893">
        <ele>449.3</ele>
        <time>2014-03-23T09:43:27Z</time>
      </trkpt>
      <trkpt lat="44.86316" lon="4.79905">
        <ele>448.6</ele>
        <time>2014-03-23T09:43:30Z</time>
      </trkpt>
      <trkpt lat="44.86315" lon="4.79915">
        <ele>448.7</ele>
        <time>2014-03-23T09:43:32Z</time>
      </trkpt>
      <trkpt lat="44.86313" lon="4.79925">
        <ele>450</ele>
        <time>2014-03-23T09:43:34Z</time>
      </trkpt>
      <trkpt lat="44.86312" lon="4.79931">
        <ele>450.4</ele>
        <time>2014-03-23T09:43:35Z</time>
      </trkpt>
      <trkpt lat="44.86311" lon="4.79938">
        <ele>450.1</ele>
        <time>2014-03-23T09:43:36Z</time>
      </trkpt>
      <trkpt lat="44.8631" lon="4.79944">
        <ele>449.9</ele>
        <time>2014-03-23T09:43:37Z</time>
      </trkpt>
      <trkpt lat="44.86309" lon="4.79951">
        <ele>449.5</ele>
        <time>2014-03-23T09:43:38Z</time>
      </trkpt>
      <trkpt lat="44.86307" lon="4.79958">
        <ele>449.2</ele>
        <time>2014-03-23T09:43:39Z</time>
      </trkpt>
      <trkpt lat="44.86306" lon="4.79964">
        <ele>448.4</ele>
        <time>2014-03-23T09:43:40Z</time>
      </trkpt>
      <trkpt lat="44.86304" lon="4.79976">
        <ele>447.4</ele>
        <time>2014-03-23T09:43:42Z</time>
      </trkpt>
      <trkpt lat="44.86301" lon="4.79986">
        <ele>446.8</ele>
        <time>2014-03-23T09:43:44Z</time>
      </trkpt>
      <trkpt lat="44.86298" lon="4.79996">
        <ele>446</ele>
        <time>2014-03-23T09:43:46Z</time>
      </trkpt>
      <trkpt lat="44.86295" lon="4.80008">
        <ele>445.3</ele>
        <time>2014-03-23T09:43:49Z</time>
      </trkpt>
      <trkpt lat="44.86292" lon="4.80015">
        <ele>445.5</ele>
        <time>2014-03-23T09:43:51Z</time>
      </trkpt>
      <trkpt lat="44.86288" lon="4.80023">
        <ele>445.7</ele>
        <time>2014-03-23T09:43:53Z</time>
      </trkpt>
      <trkpt lat="44.86284" lon="4.80031">
        <ele>445.9</ele>
        <time>2014-03-23T09:43:55Z</time>
      </trkpt>
      <trkpt lat="44.86281" lon="4.80041">
        <ele>445.7</ele>
        <time>2014-03-23T09:43:57Z</time>
      </trkpt>
      <trkpt lat="44.86278" lon="4.80046">
        <ele>445.5</ele>
        <time>2014-03-23T09:43:58Z</time>
      </trkpt>
      <trkpt lat="44.86276" lon="4.80053">
        <ele>445.4</ele>
        <time>2014-03-23T09:43:59Z</time>
      </trkpt>
      <trkpt lat="44.86274" lon="4.80059">
        <ele>445.3</ele>
        <time>2014-03-23T09:44:00Z</time>
      </trkpt>
      <trkpt lat="44.86272" lon="4.80066">
        <ele>445.2</ele>
        <time>2014-03-23T09:44:01Z</time>
      </trkpt>
      <trkpt lat="44.8627" lon="4.80071">
        <ele>444.7</ele>
        <time>2014-03-23T09:44:02Z</time>
      </trkpt>
      <trkpt lat="44.86268" lon="4.80077">
        <ele>444.3</ele>
        <time>2014-03-23T09:44:03Z</time>
      </trkpt>
      <trkpt lat="44.86265" lon="4.80088">
        <ele>443.3</ele>
        <time>2014-03-23T09:44:05Z</time>
      </trkpt>
      <trkpt lat="44.86261" lon="4.80099">
        <ele>446.6</ele>
        <time>2014-03-23T09:44:07Z</time>
      </trkpt>
      <trkpt lat="44.86256" lon="4.80109">
        <ele>445.9</ele>
        <time>2014-03-23T09:44:09Z</time>
      </trkpt>
      <trkpt lat="44.86252" lon="4.80119">
        <ele>442.9</ele>
        <time>2014-03-23T09:44:11Z</time>
      </trkpt>
      <trkpt lat="44.86249" lon="4.80124">
        <ele>441.7</ele>
        <time>2014-03-23T09:44:12Z</time>
      </trkpt>
      <trkpt lat="44.86245" lon="4.80135">
        <ele>440.4</ele>
        <time>2014-03-23T09:44:14Z</time>
      </trkpt>
      <trkpt lat="44.86236" lon="4.80135">
        <ele>438.2</ele>
        <time>2014-03-23T09:44:17Z</time>
      </trkpt>
      <trkpt lat="44.8623" lon="4.80127">
        <ele>436.6</ele>
        <time>2014-03-23T09:44:19Z</time>
      </trkpt>
      <trkpt lat="44.86232" lon="4.80118">
        <ele>435.9</ele>
        <time>2014-03-23T09:44:21Z</time>
      </trkpt>
      <trkpt lat="44.86234" lon="4.80108">
        <ele>435.2</ele>
        <time>2014-03-23T09:44:23Z</time>
      </trkpt>
      <trkpt lat="44.86238" lon="4.80098">
        <ele>434.2</ele>
        <time>2014-03-23T09:44:25Z</time>
      </trkpt>
      <trkpt lat="44.86231" lon="4.8009">
        <ele>429</ele>
        <time>2014-03-23T09:44:35Z</time>
      </trkpt>
      <trkpt lat="44.86223" lon="4.80093">
        <ele>427.4</ele>
        <time>2014-03-23T09:44:38Z</time>
      </trkpt>
      <trkpt lat="44.86217" lon="4.80099">
        <ele>426.1</ele>
        <time>2014-03-23T09:44:40Z</time>
      </trkpt>
      <trkpt lat="44.86212" lon="4.80102">
        <ele>425.4</ele>
        <time>2014-03-23T09:44:41Z</time>
      </trkpt>
      <trkpt lat="44.86208" lon="4.80105">
        <ele>423.9</ele>
        <time>2014-03-23T09:44:42Z</time>
      </trkpt>
      <trkpt lat="44.86203" lon="4.80107">
        <ele>422.7</ele>
        <time>2014-03-23T09:44:43Z</time>
      </trkpt>
      <trkpt lat="44.86198" lon="4.80107">
        <ele>421.3</ele>
        <time>2014-03-23T09:44:44Z</time>
      </trkpt>
      <trkpt lat="44.86193" lon="4.8011">
        <ele>420.3</ele>
        <time>2014-03-23T09:44:45Z</time>
      </trkpt>
      <trkpt lat="44.86188" lon="4.80115">
        <ele>419.5</ele>
        <time>2014-03-23T09:44:46Z</time>
      </trkpt>
      <trkpt lat="44.86183" lon="4.80119">
        <ele>418.5</ele>
        <time>2014-03-23T09:44:47Z</time>
      </trkpt>
      <trkpt lat="44.86177" lon="4.80123">
        <ele>417.7</ele>
        <time>2014-03-23T09:44:48Z</time>
      </trkpt>
      <trkpt lat="44.86171" lon="4.80128">
        <ele>416.1</ele>
        <time>2014-03-23T09:44:49Z</time>
      </trkpt>
      <trkpt lat="44.86165" lon="4.80134">
        <ele>414.9</ele>
        <time>2014-03-23T09:44:50Z</time>
      </trkpt>
      <trkpt lat="44.8616" lon="4.80139">
        <ele>413.5</ele>
        <time>2014-03-23T09:44:51Z</time>
      </trkpt>
      <trkpt lat="44.86154" lon="4.80145">
        <ele>412.5</ele>
        <time>2014-03-23T09:44:52Z</time>
      </trkpt>
      <trkpt lat="44.86149" lon="4.80151">
        <ele>411.7</ele>
        <time>2014-03-23T09:44:53Z</time>
      </trkpt>
      <trkpt lat="44.86143" lon="4.80157">
        <ele>411</ele>
        <time>2014-03-23T09:44:54Z</time>
      </trkpt>
      <trkpt lat="44.86138" lon="4.80164">
        <ele>410.5</ele>
        <time>2014-03-23T09:44:55Z</time>
      </trkpt>
      <trkpt lat="44.86132" lon="4.80171">
        <ele>409.4</ele>
        <time>2014-03-23T09:44:56Z</time>
      </trkpt>
      <trkpt lat="44.86127" lon="4.80177">
        <ele>408.6</ele>
        <time>2014-03-23T09:44:57Z</time>
      </trkpt>
      <trkpt lat="44.86122" lon="4.80182">
        <ele>408</ele>
        <time>2014-03-23T09:44:58Z</time>
      </trkpt>
      <trkpt lat="44.86118" lon="4.80186">
        <ele>407.6</ele>
        <time>2014-03-23T09:44:59Z</time>
      </trkpt>
      <trkpt lat="44.86116" lon="4.80192">
        <ele>407.3</ele>
        <time>2014-03-23T09:45:00Z</time>
      </trkpt>
      <trkpt lat="44.86113" lon="4.80198">
        <ele>406.4</ele>
        <time>2014-03-23T09:45:01Z</time>
      </trkpt>
      <trkpt lat="44.8611" lon="4.80204">
        <ele>405.7</ele>
        <time>2014-03-23T09:45:02Z</time>
      </trkpt>
      <trkpt lat="44.86106" lon="4.8021">
        <ele>404.9</ele>
        <time>2014-03-23T09:45:03Z</time>
      </trkpt>
      <trkpt lat="44.86102" lon="4.80216">
        <ele>404.3</ele>
        <time>2014-03-23T09:45:04Z</time>
      </trkpt>
      <trkpt lat="44.86099" lon="4.80222">
        <ele>403.9</ele>
        <time>2014-03-23T09:45:05Z</time>
      </trkpt>
      <trkpt lat="44.86097" lon="4.8023">
        <ele>403.7</ele>
        <time>2014-03-23T09:45:06Z</time>
      </trkpt>
      <trkpt lat="44.86095" lon="4.80237">
        <ele>403.6</ele>
        <time>2014-03-23T09:45:07Z</time>
      </trkpt>
      <trkpt lat="44.86092" lon="4.80245">
        <ele>402.6</ele>
        <time>2014-03-23T09:45:08Z</time>
      </trkpt>
      <trkpt lat="44.86088" lon="4.80251">
        <ele>401.9</ele>
        <time>2014-03-23T09:45:09Z</time>
      </trkpt>
      <trkpt lat="44.86085" lon="4.80258">
        <ele>400.7</ele>
        <time>2014-03-23T09:45:10Z</time>
      </trkpt>
      <trkpt lat="44.86084" lon="4.80268">
        <ele>399.1</ele>
        <time>2014-03-23T09:45:12Z</time>
      </trkpt>
      <trkpt lat="44.86086" lon="4.80278">
        <ele>399.3</ele>
        <time>2014-03-23T09:45:15Z</time>
      </trkpt>
      <trkpt lat="44.86089" lon="4.8029">
        <ele>397.8</ele>
        <time>2014-03-23T09:45:20Z</time>
      </trkpt>
      <trkpt lat="44.86088" lon="4.80302">
        <ele>392.3</ele>
        <time>2014-03-23T09:45:39Z</time>
      </trkpt>
      <trkpt lat="44.8608" lon="4.80308">
        <ele>387</ele>
        <time>2014-03-23T09:46:18Z</time>
      </trkpt>
      <trkpt lat="44.8608" lon="4.80308">
        <ele>386.9</ele>
        <time>2014-03-23T09:46:19Z</time>
      </trkpt>
      <trkpt lat="44.86082" lon="4.8032">
        <ele>383.1</ele>
        <time>2014-03-23T09:46:43Z</time>
      </trkpt>
      <trkpt lat="44.86091" lon="4.80318">
        <ele>385.7</ele>
        <time>2014-03-23T09:46:52Z</time>
      </trkpt>
      <trkpt lat="44.86083" lon="4.80319">
        <ele>384.5</ele>
        <time>2014-03-23T09:48:32Z</time>
      </trkpt>
      <trkpt lat="44.86081" lon="4.80319">
        <ele>384.4</ele>
        <time>2014-03-23T09:48:33Z</time>
      </trkpt>
      <trkpt lat="44.86067" lon="4.80323">
        <ele>381.5</ele>
        <time>2014-03-23T09:48:40Z</time>
      </trkpt>
      <trkpt lat="44.86061" lon="4.80319">
        <ele>381</ele>
        <time>2014-03-23T09:48:43Z</time>
      </trkpt>
      <trkpt lat="44.86054" lon="4.80313">
        <ele>381.4</ele>
        <time>2014-03-23T09:48:46Z</time>
      </trkpt>
      <trkpt lat="44.86047" lon="4.8032">
        <ele>381.2</ele>
        <time>2014-03-23T09:48:51Z</time>
      </trkpt>
      <trkpt lat="44.8604" lon="4.80326">
        <ele>380.8</ele>
        <time>2014-03-23T09:48:54Z</time>
      </trkpt>
      <trkpt lat="44.86033" lon="4.80323">
        <ele>379.9</ele>
        <time>2014-03-23T09:48:59Z</time>
      </trkpt>
      <trkpt lat="44.86025" lon="4.80323">
        <ele>379.3</ele>
        <time>2014-03-23T09:49:03Z</time>
      </trkpt>
      <trkpt lat="44.86018" lon="4.80321">
        <ele>378.6</ele>
        <time>2014-03-23T09:49:06Z</time>
      </trkpt>
      <trkpt lat="44.86011" lon="4.80324">
        <ele>377.2</ele>
        <time>2014-03-23T09:49:09Z</time>
      </trkpt>
      <trkpt lat="44.86003" lon="4.8033">
        <ele>375.4</ele>
        <time>2014-03-23T09:49:11Z</time>
      </trkpt>
      <trkpt lat="44.85998" lon="4.80332">
        <ele>374.4</ele>
        <time>2014-03-23T09:49:12Z</time>
      </trkpt>
      <trkpt lat="44.8599" lon="4.80334">
        <ele>373.2</ele>
        <time>2014-03-23T09:49:14Z</time>
      </trkpt>
      <trkpt lat="44.85982" lon="4.80334">
        <ele>371.3</ele>
        <time>2014-03-23T09:49:16Z</time>
      </trkpt>
      <trkpt lat="44.85975" lon="4.80336">
        <ele>369.3</ele>
        <time>2014-03-23T09:49:18Z</time>
      </trkpt>
      <trkpt lat="44.8597" lon="4.80339">
        <ele>368.7</ele>
        <time>2014-03-23T09:49:19Z</time>
      </trkpt>
      <trkpt lat="44.85965" lon="4.8034">
        <ele>367.4</ele>
        <time>2014-03-23T09:49:20Z</time>
      </trkpt>
      <trkpt lat="44.85956" lon="4.80342">
        <ele>365.1</ele>
        <time>2014-03-23T09:49:22Z</time>
      </trkpt>
      <trkpt lat="44.8595" lon="4.80342">
        <ele>362.9</ele>
        <time>2014-03-23T09:49:24Z</time>
      </trkpt>
      <trkpt lat="44.85942" lon="4.80339">
        <ele>361.2</ele>
        <time>2014-03-23T09:49:26Z</time>
      </trkpt>
      <trkpt lat="44.85938" lon="4.80338">
        <ele>359.8</ele>
        <time>2014-03-23T09:49:27Z</time>
      </trkpt>
      <trkpt lat="44.85933" lon="4.80337">
        <ele>358.8</ele>
        <time>2014-03-23T09:49:28Z</time>
      </trkpt>
      <trkpt lat="44.85929" lon="4.80337">
        <ele>357.5</ele>
        <time>2014-03-23T09:49:29Z</time>
      </trkpt>
      <trkpt lat="44.85924" lon="4.80336">
        <ele>356.6</ele>
        <time>2014-03-23T09:49:30Z</time>
      </trkpt>
      <trkpt lat="44.85916" lon="4.80333">
        <ele>355.8</ele>
        <time>2014-03-23T09:49:32Z</time>
      </trkpt>
      <trkpt lat="44.85907" lon="4.80334">
        <ele>354.6</ele>
        <time>2014-03-23T09:49:34Z</time>
      </trkpt>
      <trkpt lat="44.85904" lon="4.80336">
        <ele>353.9</ele>
        <time>2014-03-23T09:49:35Z</time>
      </trkpt>
      <trkpt lat="44.85896" lon="4.80341">
        <ele>351.7</ele>
        <time>2014-03-23T09:49:37Z</time>
      </trkpt>
      <trkpt lat="44.8589" lon="4.80343">
        <ele>351</ele>
        <time>2014-03-23T09:49:38Z</time>
      </trkpt>
      <trkpt lat="44.85885" lon="4.80346">
        <ele>349.6</ele>
        <time>2014-03-23T09:49:39Z</time>
      </trkpt>
      <trkpt lat="44.85881" lon="4.80349">
        <ele>348.6</ele>
        <time>2014-03-23T09:49:40Z</time>
      </trkpt>
      <trkpt lat="44.85876" lon="4.80353">
        <ele>347.1</ele>
        <time>2014-03-23T09:49:41Z</time>
      </trkpt>
      <trkpt lat="44.85872" lon="4.80356">
        <ele>346</ele>
        <time>2014-03-23T09:49:42Z</time>
      </trkpt>
      <trkpt lat="44.85867" lon="4.8036">
        <ele>344.3</ele>
        <time>2014-03-23T09:49:43Z</time>
      </trkpt>
      <trkpt lat="44.85863" lon="4.80363">
        <ele>343</ele>
        <time>2014-03-23T09:49:44Z</time>
      </trkpt>
      <trkpt lat="44.85859" lon="4.80367">
        <ele>342</ele>
        <time>2014-03-23T09:49:45Z</time>
      </trkpt>
      <trkpt lat="44.85855" lon="4.80369">
        <ele>340.4</ele>
        <time>2014-03-23T09:49:46Z</time>
      </trkpt>
      <trkpt lat="44.8585" lon="4.80372">
        <ele>339.3</ele>
        <time>2014-03-23T09:49:47Z</time>
      </trkpt>
      <trkpt lat="44.85843" lon="4.80376">
        <ele>335.9</ele>
        <time>2014-03-23T09:49:49Z</time>
      </trkpt>
      <trkpt lat="44.85835" lon="4.80379">
        <ele>332.6</ele>
        <time>2014-03-23T09:49:51Z</time>
      </trkpt>
      <trkpt lat="44.85828" lon="4.80375">
        <ele>327.6</ele>
        <time>2014-03-23T09:49:54Z</time>
      </trkpt>
      <trkpt lat="44.8582" lon="4.80372">
        <ele>323.3</ele>
        <time>2014-03-23T09:49:57Z</time>
      </trkpt>
      <trkpt lat="44.85814" lon="4.80373">
        <ele>321.7</ele>
        <time>2014-03-23T09:49:59Z</time>
      </trkpt>
      <trkpt lat="44.85809" lon="4.8038">
        <ele>319.2</ele>
        <time>2014-03-23T09:50:01Z</time>
      </trkpt>
      <trkpt lat="44.85802" lon="4.80384">
        <ele>316.9</ele>
        <time>2014-03-23T09:50:03Z</time>
      </trkpt>
      <trkpt lat="44.85798" lon="4.80384">
        <ele>316.1</ele>
        <time>2014-03-23T09:50:04Z</time>
      </trkpt>
      <trkpt lat="44.85793" lon="4.80385">
        <ele>314.7</ele>
        <time>2014-03-23T09:50:05Z</time>
      </trkpt>
      <trkpt lat="44.85784" lon="4.80386">
        <ele>312</ele>
        <time>2014-03-23T09:50:07Z</time>
      </trkpt>
      <trkpt lat="44.85778" lon="4.80383">
        <ele>308.8</ele>
        <time>2014-03-23T09:50:09Z</time>
      </trkpt>
      <trkpt lat="44.8577" lon="4.80383">
        <ele>306.2</ele>
        <time>2014-03-23T09:50:11Z</time>
      </trkpt>
      <trkpt lat="44.85766" lon="4.80382">
        <ele>304.1</ele>
        <time>2014-03-23T09:50:12Z</time>
      </trkpt>
      <trkpt lat="44.85757" lon="4.80379">
        <ele>301</ele>
        <time>2014-03-23T09:50:14Z</time>
      </trkpt>
      <trkpt lat="44.85749" lon="4.80383">
        <ele>298.9</ele>
        <time>2014-03-23T09:50:16Z</time>
      </trkpt>
      <trkpt lat="44.85744" lon="4.80387">
        <ele>297.6</ele>
        <time>2014-03-23T09:50:17Z</time>
      </trkpt>
      <trkpt lat="44.85737" lon="4.80392">
        <ele>295</ele>
        <time>2014-03-23T09:50:19Z</time>
      </trkpt>
      <trkpt lat="44.8573" lon="4.80385">
        <ele>291.2</ele>
        <time>2014-03-23T09:50:22Z</time>
      </trkpt>
      <trkpt lat="44.85722" lon="4.80384">
        <ele>288.4</ele>
        <time>2014-03-23T09:50:25Z</time>
      </trkpt>
      <trkpt lat="44.85713" lon="4.80382">
        <ele>284.9</ele>
        <time>2014-03-23T09:50:29Z</time>
      </trkpt>
      <trkpt lat="44.85706" lon="4.80376">
        <ele>280.2</ele>
        <time>2014-03-23T09:50:52Z</time>
      </trkpt>
      <trkpt lat="44.85705" lon="4.80376">
        <ele>280.1</ele>
        <time>2014-03-23T09:50:53Z</time>
      </trkpt>
      <trkpt lat="44.85696" lon="4.80367">
        <ele>278.6</ele>
        <time>2014-03-23T09:51:43Z</time>
      </trkpt>
      <trkpt lat="44.85691" lon="4.80369">
        <ele>278.5</ele>
        <time>2014-03-23T09:51:45Z</time>
      </trkpt>
      <trkpt lat="44.85684" lon="4.80372">
        <ele>277.6</ele>
        <time>2014-03-23T09:51:47Z</time>
      </trkpt>
      <trkpt lat="44.85677" lon="4.80371">
        <ele>277.8</ele>
        <time>2014-03-23T09:51:49Z</time>
      </trkpt>
      <trkpt lat="44.85669" lon="4.80368">
        <ele>279</ele>
        <time>2014-03-23T09:51:51Z</time>
      </trkpt>
      <trkpt lat="44.85662" lon="4.80362">
        <ele>278.1</ele>
        <time>2014-03-23T09:51:53Z</time>
      </trkpt>
      <trkpt lat="44.85659" lon="4.80359">
        <ele>277.6</ele>
        <time>2014-03-23T09:51:54Z</time>
      </trkpt>
      <trkpt lat="44.85649" lon="4.80349">
        <ele>277.2</ele>
        <time>2014-03-23T09:51:57Z</time>
      </trkpt>
      <trkpt lat="44.85642" lon="4.80342">
        <ele>276.8</ele>
        <time>2014-03-23T09:51:59Z</time>
      </trkpt>
      <trkpt lat="44.85634" lon="4.80336">
        <ele>276.4</ele>
        <time>2014-03-23T09:52:01Z</time>
      </trkpt>
      <trkpt lat="44.8563" lon="4.80333">
        <ele>276.3</ele>
        <time>2014-03-23T09:52:02Z</time>
      </trkpt>
      <trkpt lat="44.85625" lon="4.80332">
        <ele>276</ele>
        <time>2014-03-23T09:52:03Z</time>
      </trkpt>
      <trkpt lat="44.85621" lon="4.80332">
        <ele>275.8</ele>
        <time>2014-03-23T09:52:04Z</time>
      </trkpt>
      <trkpt lat="44.85616" lon="4.80333">
        <ele>275.7</ele>
        <time>2014-03-23T09:52:05Z</time>
      </trkpt>
      <trkpt lat="44.85611" lon="4.80335">
        <ele>275.8</ele>
        <time>2014-03-23T09:52:06Z</time>
      </trkpt>
      <trkpt lat="44.85607" lon="4.80337">
        <ele>275.9</ele>
        <time>2014-03-23T09:52:07Z</time>
      </trkpt>
      <trkpt lat="44.85602" lon="4.80341">
        <ele>275.4</ele>
        <time>2014-03-23T09:52:08Z</time>
      </trkpt>
      <trkpt lat="44.85598" lon="4.80345">
        <ele>274.9</ele>
        <time>2014-03-23T09:52:09Z</time>
      </trkpt>
      <trkpt lat="44.85594" lon="4.80349">
        <ele>274.6</ele>
        <time>2014-03-23T09:52:10Z</time>
      </trkpt>
      <trkpt lat="44.8559" lon="4.80354">
        <ele>274.3</ele>
        <time>2014-03-23T09:52:11Z</time>
      </trkpt>
      <trkpt lat="44.85587" lon="4.8036">
        <ele>274.2</ele>
        <time>2014-03-23T09:52:12Z</time>
      </trkpt>
      <trkpt lat="44.85585" lon="4.80367">
        <ele>274</ele>
        <time>2014-03-23T09:52:13Z</time>
      </trkpt>
      <trkpt lat="44.85585" lon="4.80375">
        <ele>273.9</ele>
        <time>2014-03-23T09:52:14Z</time>
      </trkpt>
      <trkpt lat="44.85585" lon="4.80382">
        <ele>273.7</ele>
        <time>2014-03-23T09:52:15Z</time>
      </trkpt>
      <trkpt lat="44.85587" lon="4.80389">
        <ele>273.5</ele>
        <time>2014-03-23T09:52:16Z</time>
      </trkpt>
      <trkpt lat="44.8559" lon="4.80395">
        <ele>273.4</ele>
        <time>2014-03-23T09:52:17Z</time>
      </trkpt>
      <trkpt lat="44.85593" lon="4.80402">
        <ele>273.2</ele>
        <time>2014-03-23T09:52:18Z</time>
      </trkpt>
      <trkpt lat="44.85596" lon="4.80409">
        <ele>273.1</ele>
        <time>2014-03-23T09:52:19Z</time>
      </trkpt>
      <trkpt lat="44.85599" lon="4.80415">
        <ele>273</ele>
        <time>2014-03-23T09:52:20Z</time>
      </trkpt>
      <trkpt lat="44.85603" lon="4.80422">
        <ele>272.9</ele>
        <time>2014-03-23T09:52:21Z</time>
      </trkpt>
      <trkpt lat="44.85607" lon="4.80428">
        <ele>273.5</ele>
        <time>2014-03-23T09:52:22Z</time>
      </trkpt>
      <trkpt lat="44.85611" lon="4.80435">
        <ele>274</ele>
        <time>2014-03-23T09:52:23Z</time>
      </trkpt>
      <trkpt lat="44.85615" lon="4.80442">
        <ele>274.3</ele>
        <time>2014-03-23T09:52:24Z</time>
      </trkpt>
      <trkpt lat="44.8562" lon="4.80448">
        <ele>273.6</ele>
        <time>2014-03-23T09:52:25Z</time>
      </trkpt>
      <trkpt lat="44.85624" lon="4.80454">
        <ele>273.1</ele>
        <time>2014-03-23T09:52:26Z</time>
      </trkpt>
      <trkpt lat="44.85629" lon="4.80458">
        <ele>272.3</ele>
        <time>2014-03-23T09:52:27Z</time>
      </trkpt>
      <trkpt lat="44.85634" lon="4.8046">
        <ele>271.7</ele>
        <time>2014-03-23T09:52:28Z</time>
      </trkpt>
      <trkpt lat="44.85639" lon="4.80459">
        <ele>271.3</ele>
        <time>2014-03-23T09:52:29Z</time>
      </trkpt>
      <trkpt lat="44.85644" lon="4.80457">
        <ele>270.6</ele>
        <time>2014-03-23T09:52:30Z</time>
      </trkpt>
      <trkpt lat="44.85648" lon="4.80455">
        <ele>270.1</ele>
        <time>2014-03-23T09:52:31Z</time>
      </trkpt>
      <trkpt lat="44.85652" lon="4.80453">
        <ele>270</ele>
        <time>2014-03-23T09:52:32Z</time>
      </trkpt>
      <trkpt lat="44.85656" lon="4.80449">
        <ele>269.9</ele>
        <time>2014-03-23T09:52:33Z</time>
      </trkpt>
      <trkpt lat="44.85661" lon="4.80446">
        <ele>269.3</ele>
        <time>2014-03-23T09:52:34Z</time>
      </trkpt>
      <trkpt lat="44.85666" lon="4.80444">
        <ele>268.8</ele>
        <time>2014-03-23T09:52:35Z</time>
      </trkpt>
      <trkpt lat="44.8567" lon="4.80441">
        <ele>268.5</ele>
        <time>2014-03-23T09:52:36Z</time>
      </trkpt>
      <trkpt lat="44.85679" lon="4.80441">
        <ele>267.7</ele>
        <time>2014-03-23T09:52:38Z</time>
      </trkpt>
      <trkpt lat="44.85683" lon="4.80443">
        <ele>267.7</ele>
        <time>2014-03-23T09:52:39Z</time>
      </trkpt>
      <trkpt lat="44.85688" lon="4.80446">
        <ele>267.7</ele>
        <time>2014-03-23T09:52:40Z</time>
      </trkpt>
      <trkpt lat="44.85696" lon="4.80452">
        <ele>266.7</ele>
        <time>2014-03-23T09:52:42Z</time>
      </trkpt>
      <trkpt lat="44.85702" lon="4.80458">
        <ele>266.3</ele>
        <time>2014-03-23T09:52:44Z</time>
      </trkpt>
      <trkpt lat="44.85708" lon="4.80464">
        <ele>265.8</ele>
        <time>2014-03-23T09:52:46Z</time>
      </trkpt>
      <trkpt lat="44.85715" lon="4.80471">
        <ele>265.1</ele>
        <time>2014-03-23T09:52:48Z</time>
      </trkpt>
      <trkpt lat="44.85718" lon="4.80474">
        <ele>264.9</ele>
        <time>2014-03-23T09:52:49Z</time>
      </trkpt>
      <trkpt lat="44.85722" lon="4.80477">
        <ele>264.8</ele>
        <time>2014-03-23T09:52:50Z</time>
      </trkpt>
      <trkpt lat="44.85727" lon="4.8048">
        <ele>264.3</ele>
        <time>2014-03-23T09:52:51Z</time>
      </trkpt>
      <trkpt lat="44.85732" lon="4.80483">
        <ele>263.9</ele>
        <time>2014-03-23T09:52:52Z</time>
      </trkpt>
      <trkpt lat="44.85737" lon="4.80486">
        <ele>263.7</ele>
        <time>2014-03-23T09:52:53Z</time>
      </trkpt>
      <trkpt lat="44.85742" lon="4.80489">
        <ele>263.5</ele>
        <time>2014-03-23T09:52:54Z</time>
      </trkpt>
      <trkpt lat="44.85748" lon="4.80492">
        <ele>263.4</ele>
        <time>2014-03-23T09:52:55Z</time>
      </trkpt>
      <trkpt lat="44.85754" lon="4.80496">
        <ele>262.9</ele>
        <time>2014-03-23T09:52:56Z</time>
      </trkpt>
      <trkpt lat="44.8576" lon="4.805">
        <ele>262.5</ele>
        <time>2014-03-23T09:52:57Z</time>
      </trkpt>
      <trkpt lat="44.85765" lon="4.80505">
        <ele>262.3</ele>
        <time>2014-03-23T09:52:58Z</time>
      </trkpt>
      <trkpt lat="44.85771" lon="4.80511">
        <ele>262.2</ele>
        <time>2014-03-23T09:52:59Z</time>
      </trkpt>
      <trkpt lat="44.85776" lon="4.80516">
        <ele>261.9</ele>
        <time>2014-03-23T09:53:00Z</time>
      </trkpt>
      <trkpt lat="44.85783" lon="4.80521">
        <ele>261.6</ele>
        <time>2014-03-23T09:53:01Z</time>
      </trkpt>
      <trkpt lat="44.85789" lon="4.80526">
        <ele>261.4</ele>
        <time>2014-03-23T09:53:02Z</time>
      </trkpt>
      <trkpt lat="44.85796" lon="4.8053">
        <ele>262.3</ele>
        <time>2014-03-23T09:53:03Z</time>
      </trkpt>
      <trkpt lat="44.85803" lon="4.80534">
        <ele>262.9</ele>
        <time>2014-03-23T09:53:04Z</time>
      </trkpt>
      <trkpt lat="44.8581" lon="4.80538">
        <ele>262.1</ele>
        <time>2014-03-23T09:53:05Z</time>
      </trkpt>
      <trkpt lat="44.85817" lon="4.80542">
        <ele>261.5</ele>
        <time>2014-03-23T09:53:06Z</time>
      </trkpt>
      <trkpt lat="44.85824" lon="4.80546">
        <ele>261</ele>
        <time>2014-03-23T09:53:07Z</time>
      </trkpt>
      <trkpt lat="44.85831" lon="4.8055">
        <ele>260.2</ele>
        <time>2014-03-23T09:53:08Z</time>
      </trkpt>
      <trkpt lat="44.85838" lon="4.80555">
        <ele>259.6</ele>
        <time>2014-03-23T09:53:09Z</time>
      </trkpt>
      <trkpt lat="44.85845" lon="4.80562">
        <ele>259</ele>
        <time>2014-03-23T09:53:10Z</time>
      </trkpt>
      <trkpt lat="44.8585" lon="4.80571">
        <ele>258.5</ele>
        <time>2014-03-23T09:53:11Z</time>
      </trkpt>
      <trkpt lat="44.85855" lon="4.8058">
        <ele>257.6</ele>
        <time>2014-03-23T09:53:12Z</time>
      </trkpt>
      <trkpt lat="44.8586" lon="4.80588">
        <ele>256.9</ele>
        <time>2014-03-23T09:53:13Z</time>
      </trkpt>
      <trkpt lat="44.85867" lon="4.80595">
        <ele>256.4</ele>
        <time>2014-03-23T09:53:14Z</time>
      </trkpt>
      <trkpt lat="44.85873" lon="4.80601">
        <ele>255.8</ele>
        <time>2014-03-23T09:53:15Z</time>
      </trkpt>
      <trkpt lat="44.8588" lon="4.80607">
        <ele>255.4</ele>
        <time>2014-03-23T09:53:16Z</time>
      </trkpt>
      <trkpt lat="44.85886" lon="4.80612">
        <ele>254.5</ele>
        <time>2014-03-23T09:53:17Z</time>
      </trkpt>
      <trkpt lat="44.85893" lon="4.80617">
        <ele>253.8</ele>
        <time>2014-03-23T09:53:18Z</time>
      </trkpt>
      <trkpt lat="44.859" lon="4.80622">
        <ele>253.2</ele>
        <time>2014-03-23T09:53:19Z</time>
      </trkpt>
      <trkpt lat="44.85906" lon="4.80624">
        <ele>252.7</ele>
        <time>2014-03-23T09:53:20Z</time>
      </trkpt>
      <trkpt lat="44.85913" lon="4.80625">
        <ele>252.3</ele>
        <time>2014-03-23T09:53:21Z</time>
      </trkpt>
      <trkpt lat="44.85919" lon="4.80625">
        <ele>251.5</ele>
        <time>2014-03-23T09:53:22Z</time>
      </trkpt>
      <trkpt lat="44.85925" lon="4.80624">
        <ele>251</ele>
        <time>2014-03-23T09:53:23Z</time>
      </trkpt>
      <trkpt lat="44.85931" lon="4.80623">
        <ele>250.5</ele>
        <time>2014-03-23T09:53:24Z</time>
      </trkpt>
      <trkpt lat="44.85937" lon="4.80623">
        <ele>250.1</ele>
        <time>2014-03-23T09:53:25Z</time>
      </trkpt>
      <trkpt lat="44.85943" lon="4.80623">
        <ele>249.9</ele>
        <time>2014-03-23T09:53:26Z</time>
      </trkpt>
      <trkpt lat="44.8595" lon="4.80625">
        <ele>249.5</ele>
        <time>2014-03-23T09:53:27Z</time>
      </trkpt>
      <trkpt lat="44.85956" lon="4.80629">
        <ele>249.3</ele>
        <time>2014-03-23T09:53:28Z</time>
      </trkpt>
      <trkpt lat="44.85961" lon="4.80635">
        <ele>248.6</ele>
        <time>2014-03-23T09:53:29Z</time>
      </trkpt>
      <trkpt lat="44.85965" lon="4.80642">
        <ele>248.1</ele>
        <time>2014-03-23T09:53:30Z</time>
      </trkpt>
      <trkpt lat="44.85969" lon="4.80651">
        <ele>247.8</ele>
        <time>2014-03-23T09:53:31Z</time>
      </trkpt>
      <trkpt lat="44.85972" lon="4.80659">
        <ele>247.7</ele>
        <time>2014-03-23T09:53:32Z</time>
      </trkpt>
      <trkpt lat="44.85975" lon="4.80668">
        <ele>247.5</ele>
        <time>2014-03-23T09:53:33Z</time>
      </trkpt>
      <trkpt lat="44.85977" lon="4.80678">
        <ele>246.9</ele>
        <time>2014-03-23T09:53:34Z</time>
      </trkpt>
      <trkpt lat="44.85979" lon="4.80687">
        <ele>246.4</ele>
        <time>2014-03-23T09:53:35Z</time>
      </trkpt>
      <trkpt lat="44.85981" lon="4.80696">
        <ele>246</ele>
        <time>2014-03-23T09:53:36Z</time>
      </trkpt>
      <trkpt lat="44.85983" lon="4.80705">
        <ele>245.7</ele>
        <time>2014-03-23T09:53:37Z</time>
      </trkpt>
      <trkpt lat="44.85984" lon="4.80714">
        <ele>245.6</ele>
        <time>2014-03-23T09:53:38Z</time>
      </trkpt>
      <trkpt lat="44.85985" lon="4.80723">
        <ele>245.4</ele>
        <time>2014-03-23T09:53:39Z</time>
      </trkpt>
      <trkpt lat="44.85985" lon="4.80732">
        <ele>245.3</ele>
        <time>2014-03-23T09:53:40Z</time>
      </trkpt>
      <trkpt lat="44.85985" lon="4.80741">
        <ele>245.7</ele>
        <time>2014-03-23T09:53:41Z</time>
      </trkpt>
      <trkpt lat="44.85984" lon="4.8075">
        <ele>245.9</ele>
        <time>2014-03-23T09:53:42Z</time>
      </trkpt>
      <trkpt lat="44.85984" lon="4.80758">
        <ele>245.6</ele>
        <time>2014-03-23T09:53:43Z</time>
      </trkpt>
      <trkpt lat="44.85984" lon="4.80766">
        <ele>245.4</ele>
        <time>2014-03-23T09:53:44Z</time>
      </trkpt>
      <trkpt lat="44.85984" lon="4.80774">
        <ele>245.2</ele>
        <time>2014-03-23T09:53:45Z</time>
      </trkpt>
      <trkpt lat="44.85983" lon="4.80781">
        <ele>245.1</ele>
        <time>2014-03-23T09:53:46Z</time>
      </trkpt>
      <trkpt lat="44.85983" lon="4.80788">
        <ele>245</ele>
        <time>2014-03-23T09:53:47Z</time>
      </trkpt>
      <trkpt lat="44.85983" lon="4.80795">
        <ele>244.9</ele>
        <time>2014-03-23T09:53:48Z</time>
      </trkpt>
      <trkpt lat="44.85982" lon="4.80807">
        <ele>245.1</ele>
        <time>2014-03-23T09:53:50Z</time>
      </trkpt>
      <trkpt lat="44.85982" lon="4.80818">
        <ele>245.4</ele>
        <time>2014-03-23T09:53:52Z</time>
      </trkpt>
      <trkpt lat="44.85983" lon="4.80829">
        <ele>245.7</ele>
        <time>2014-03-23T09:53:54Z</time>
      </trkpt>
      <trkpt lat="44.85984" lon="4.8084">
        <ele>245.9</ele>
        <time>2014-03-23T09:53:56Z</time>
      </trkpt>
      <trkpt lat="44.85985" lon="4.80845">
        <ele>245.8</ele>
        <time>2014-03-23T09:53:57Z</time>
      </trkpt>
      <trkpt lat="44.8599" lon="4.80861">
        <ele>245.9</ele>
        <time>2014-03-23T09:54:00Z</time>
      </trkpt>
      <trkpt lat="44.85994" lon="4.80872">
        <ele>246.2</ele>
        <time>2014-03-23T09:54:02Z</time>
      </trkpt>
      <trkpt lat="44.85997" lon="4.80877">
        <ele>246.3</ele>
        <time>2014-03-23T09:54:03Z</time>
      </trkpt>
      <trkpt lat="44.86" lon="4.80882">
        <ele>246</ele>
        <time>2014-03-23T09:54:04Z</time>
      </trkpt>
      <trkpt lat="44.86004" lon="4.80886">
        <ele>245.8</ele>
        <time>2014-03-23T09:54:05Z</time>
      </trkpt>
      <trkpt lat="44.86008" lon="4.8089">
        <ele>245.7</ele>
        <time>2014-03-23T09:54:06Z</time>
      </trkpt>
      <trkpt lat="44.86012" lon="4.80893">
        <ele>245.1</ele>
        <time>2014-03-23T09:54:07Z</time>
      </trkpt>
      <trkpt lat="44.86016" lon="4.80897">
        <ele>244.7</ele>
        <time>2014-03-23T09:54:08Z</time>
      </trkpt>
      <trkpt lat="44.86023" lon="4.80904">
        <ele>245.1</ele>
        <time>2014-03-23T09:54:10Z</time>
      </trkpt>
      <trkpt lat="44.8603" lon="4.8091">
        <ele>245.5</ele>
        <time>2014-03-23T09:54:12Z</time>
      </trkpt>
      <trkpt lat="44.86038" lon="4.80917">
        <ele>245.3</ele>
        <time>2014-03-23T09:54:14Z</time>
      </trkpt>
      <trkpt lat="44.86046" lon="4.80923">
        <ele>244.6</ele>
        <time>2014-03-23T09:54:16Z</time>
      </trkpt>
      <trkpt lat="44.86054" lon="4.80927">
        <ele>244.2</ele>
        <time>2014-03-23T09:54:18Z</time>
      </trkpt>
      <trkpt lat="44.86061" lon="4.80931">
        <ele>243.8</ele>
        <time>2014-03-23T09:54:20Z</time>
      </trkpt>
      <trkpt lat="44.86068" lon="4.80936">
        <ele>243.2</ele>
        <time>2014-03-23T09:54:22Z</time>
      </trkpt>
      <trkpt lat="44.86074" lon="4.80942">
        <ele>243.5</ele>
        <time>2014-03-23T09:54:24Z</time>
      </trkpt>
      <trkpt lat="44.86078" lon="4.8095">
        <ele>243.5</ele>
        <time>2014-03-23T09:54:26Z</time>
      </trkpt>
      <trkpt lat="44.86084" lon="4.80958">
        <ele>243.5</ele>
        <time>2014-03-23T09:54:28Z</time>
      </trkpt>
      <trkpt lat="44.8609" lon="4.80966">
        <ele>243.7</ele>
        <time>2014-03-23T09:54:30Z</time>
      </trkpt>
      <trkpt lat="44.86097" lon="4.80975">
        <ele>244</ele>
        <time>2014-03-23T09:54:32Z</time>
      </trkpt>
      <trkpt lat="44.86103" lon="4.80982">
        <ele>243.6</ele>
        <time>2014-03-23T09:54:34Z</time>
      </trkpt>
      <trkpt lat="44.86111" lon="4.80989">
        <ele>243.7</ele>
        <time>2014-03-23T09:54:36Z</time>
      </trkpt>
      <trkpt lat="44.86118" lon="4.80995">
        <ele>243.4</ele>
        <time>2014-03-23T09:54:38Z</time>
      </trkpt>
      <trkpt lat="44.86122" lon="4.80998">
        <ele>243.2</ele>
        <time>2014-03-23T09:54:39Z</time>
      </trkpt>
      <trkpt lat="44.86126" lon="4.81002">
        <ele>242.7</ele>
        <time>2014-03-23T09:54:40Z</time>
      </trkpt>
      <trkpt lat="44.8613" lon="4.81005">
        <ele>242.3</ele>
        <time>2014-03-23T09:54:41Z</time>
      </trkpt>
      <trkpt lat="44.86134" lon="4.81009">
        <ele>241.9</ele>
        <time>2014-03-23T09:54:42Z</time>
      </trkpt>
      <trkpt lat="44.86138" lon="4.81013">
        <ele>241.5</ele>
        <time>2014-03-23T09:54:43Z</time>
      </trkpt>
      <trkpt lat="44.86143" lon="4.81017">
        <ele>241.3</ele>
        <time>2014-03-23T09:54:44Z</time>
      </trkpt>
      <trkpt lat="44.86147" lon="4.81021">
        <ele>241.1</ele>
        <time>2014-03-23T09:54:45Z</time>
      </trkpt>
      <trkpt lat="44.86152" lon="4.81025">
        <ele>241</ele>
        <time>2014-03-23T09:54:46Z</time>
      </trkpt>
      <trkpt lat="44.86157" lon="4.81029">
        <ele>240.8</ele>
        <time>2014-03-23T09:54:47Z</time>
      </trkpt>
      <trkpt lat="44.86161" lon="4.81034">
        <ele>240.7</ele>
        <time>2014-03-23T09:54:48Z</time>
      </trkpt>
      <trkpt lat="44.86166" lon="4.8104">
        <ele>240.7</ele>
        <time>2014-03-23T09:54:49Z</time>
      </trkpt>
      <trkpt lat="44.8617" lon="4.81047">
        <ele>239.9</ele>
        <time>2014-03-23T09:54:50Z</time>
      </trkpt>
      <trkpt lat="44.86176" lon="4.81053">
        <ele>239.4</ele>
        <time>2014-03-23T09:54:51Z</time>
      </trkpt>
      <trkpt lat="44.86182" lon="4.81058">
        <ele>238.7</ele>
        <time>2014-03-23T09:54:52Z</time>
      </trkpt>
      <trkpt lat="44.86188" lon="4.81062">
        <ele>238.3</ele>
        <time>2014-03-23T09:54:53Z</time>
      </trkpt>
      <trkpt lat="44.86195" lon="4.81065">
        <ele>237.7</ele>
        <time>2014-03-23T09:54:54Z</time>
      </trkpt>
      <trkpt lat="44.86201" lon="4.8107">
        <ele>237.3</ele>
        <time>2014-03-23T09:54:55Z</time>
      </trkpt>
      <trkpt lat="44.86206" lon="4.81075">
        <ele>237</ele>
        <time>2014-03-23T09:54:56Z</time>
      </trkpt>
      <trkpt lat="44.86212" lon="4.81083">
        <ele>235.9</ele>
        <time>2014-03-23T09:54:57Z</time>
      </trkpt>
      <trkpt lat="44.86217" lon="4.81091">
        <ele>235.1</ele>
        <time>2014-03-23T09:54:58Z</time>
      </trkpt>
      <trkpt lat="44.86222" lon="4.811">
        <ele>234</ele>
        <time>2014-03-23T09:54:59Z</time>
      </trkpt>
      <trkpt lat="44.86228" lon="4.81108">
        <ele>233.2</ele>
        <time>2014-03-23T09:55:00Z</time>
      </trkpt>
      <trkpt lat="44.86234" lon="4.81116">
        <ele>232.8</ele>
        <time>2014-03-23T09:55:01Z</time>
      </trkpt>
      <trkpt lat="44.8624" lon="4.81124">
        <ele>232.5</ele>
        <time>2014-03-23T09:55:02Z</time>
      </trkpt>
      <trkpt lat="44.86244" lon="4.81132">
        <ele>232.3</ele>
        <time>2014-03-23T09:55:03Z</time>
      </trkpt>
      <trkpt lat="44.86247" lon="4.81141">
        <ele>231.9</ele>
        <time>2014-03-23T09:55:04Z</time>
      </trkpt>
      <trkpt lat="44.86251" lon="4.81149">
        <ele>231.6</ele>
        <time>2014-03-23T09:55:05Z</time>
      </trkpt>
      <trkpt lat="44.86256" lon="4.81155">
        <ele>231.2</ele>
        <time>2014-03-23T09:55:06Z</time>
      </trkpt>
      <trkpt lat="44.8626" lon="4.8116">
        <ele>230.8</ele>
        <time>2014-03-23T09:55:07Z</time>
      </trkpt>
      <trkpt lat="44.86265" lon="4.81164">
        <ele>230.6</ele>
        <time>2014-03-23T09:55:08Z</time>
      </trkpt>
      <trkpt lat="44.86269" lon="4.81169">
        <ele>230.4</ele>
        <time>2014-03-23T09:55:09Z</time>
      </trkpt>
      <trkpt lat="44.86277" lon="4.81173">
        <ele>230.3</ele>
        <time>2014-03-23T09:55:11Z</time>
      </trkpt>
      <trkpt lat="44.86285" lon="4.81177">
        <ele>230.2</ele>
        <time>2014-03-23T09:55:13Z</time>
      </trkpt>
      <trkpt lat="44.86293" lon="4.81181">
        <ele>230</ele>
        <time>2014-03-23T09:55:15Z</time>
      </trkpt>
      <trkpt lat="44.86297" lon="4.81184">
        <ele>229.5</ele>
        <time>2014-03-23T09:55:16Z</time>
      </trkpt>
      <trkpt lat="44.86302" lon="4.81188">
        <ele>229.2</ele>
        <time>2014-03-23T09:55:17Z</time>
      </trkpt>
      <trkpt lat="44.86306" lon="4.81191">
        <ele>229.1</ele>
        <time>2014-03-23T09:55:18Z</time>
      </trkpt>
      <trkpt lat="44.86311" lon="4.81195">
        <ele>229.1</ele>
        <time>2014-03-23T09:55:19Z</time>
      </trkpt>
      <trkpt lat="44.86316" lon="4.81198">
        <ele>228.3</ele>
        <time>2014-03-23T09:55:20Z</time>
      </trkpt>
      <trkpt lat="44.86321" lon="4.81198">
        <ele>227.7</ele>
        <time>2014-03-23T09:55:21Z</time>
      </trkpt>
      <trkpt lat="44.86325" lon="4.81195">
        <ele>227.2</ele>
        <time>2014-03-23T09:55:22Z</time>
      </trkpt>
      <trkpt lat="44.8633" lon="4.81191">
        <ele>227.2</ele>
        <time>2014-03-23T09:55:23Z</time>
      </trkpt>
      <trkpt lat="44.86333" lon="4.81187">
        <ele>227.1</ele>
        <time>2014-03-23T09:55:24Z</time>
      </trkpt>
      <trkpt lat="44.8634" lon="4.81179">
        <ele>227.2</ele>
        <time>2014-03-23T09:55:26Z</time>
      </trkpt>
      <trkpt lat="44.86347" lon="4.81172">
        <ele>226.7</ele>
        <time>2014-03-23T09:55:28Z</time>
      </trkpt>
      <trkpt lat="44.86355" lon="4.81171">
        <ele>226.7</ele>
        <time>2014-03-23T09:55:30Z</time>
      </trkpt>
      <trkpt lat="44.8636" lon="4.81171">
        <ele>226.9</ele>
        <time>2014-03-23T09:55:31Z</time>
      </trkpt>
      <trkpt lat="44.86364" lon="4.81171">
        <ele>227</ele>
        <time>2014-03-23T09:55:32Z</time>
      </trkpt>
      <trkpt lat="44.86369" lon="4.81173">
        <ele>227.1</ele>
        <time>2014-03-23T09:55:33Z</time>
      </trkpt>
      <trkpt lat="44.86373" lon="4.81174">
        <ele>227.1</ele>
        <time>2014-03-23T09:55:34Z</time>
      </trkpt>
      <trkpt lat="44.86382" lon="4.81178">
        <ele>227.7</ele>
        <time>2014-03-23T09:55:36Z</time>
      </trkpt>
      <trkpt lat="44.86389" lon="4.81182">
        <ele>227.7</ele>
        <time>2014-03-23T09:55:38Z</time>
      </trkpt>
      <trkpt lat="44.86397" lon="4.81185">
        <ele>229</ele>
        <time>2014-03-23T09:55:40Z</time>
      </trkpt>
      <trkpt lat="44.86404" lon="4.81189">
        <ele>229.1</ele>
        <time>2014-03-23T09:55:42Z</time>
      </trkpt>
      <trkpt lat="44.86411" lon="4.81192">
        <ele>229</ele>
        <time>2014-03-23T09:55:44Z</time>
      </trkpt>
      <trkpt lat="44.86418" lon="4.81195">
        <ele>228.9</ele>
        <time>2014-03-23T09:55:46Z</time>
      </trkpt>
      <trkpt lat="44.86423" lon="4.81198">
        <ele>228.7</ele>
        <time>2014-03-23T09:55:48Z</time>
      </trkpt>
      <trkpt lat="44.8643" lon="4.81202">
        <ele>229.2</ele>
        <time>2014-03-23T09:55:50Z</time>
      </trkpt>
      <trkpt lat="44.86437" lon="4.81205">
        <ele>229.3</ele>
        <time>2014-03-23T09:55:52Z</time>
      </trkpt>
      <trkpt lat="44.86443" lon="4.81209">
        <ele>229.6</ele>
        <time>2014-03-23T09:55:54Z</time>
      </trkpt>
      <trkpt lat="44.8645" lon="4.81212">
        <ele>230.1</ele>
        <time>2014-03-23T09:55:56Z</time>
      </trkpt>
      <trkpt lat="44.86457" lon="4.81215">
        <ele>230.9</ele>
        <time>2014-03-23T09:55:58Z</time>
      </trkpt>
      <trkpt lat="44.8646" lon="4.81216">
        <ele>231.2</ele>
        <time>2014-03-23T09:55:59Z</time>
      </trkpt>
      <trkpt lat="44.8647" lon="4.81221">
        <ele>230.9</ele>
        <time>2014-03-23T09:56:02Z</time>
      </trkpt>
      <trkpt lat="44.86477" lon="4.81224">
        <ele>230.5</ele>
        <time>2014-03-23T09:56:04Z</time>
      </trkpt>
      <trkpt lat="44.86484" lon="4.81227">
        <ele>230.5</ele>
        <time>2014-03-23T09:56:06Z</time>
      </trkpt>
      <trkpt lat="44.86491" lon="4.81231">
        <ele>230.7</ele>
        <time>2014-03-23T09:56:08Z</time>
      </trkpt>
      <trkpt lat="44.86498" lon="4.81235">
        <ele>231.1</ele>
        <time>2014-03-23T09:56:10Z</time>
      </trkpt>
      <trkpt lat="44.86505" lon="4.81238">
        <ele>231.4</ele>
        <time>2014-03-23T09:56:12Z</time>
      </trkpt>
      <trkpt lat="44.86511" lon="4.81242">
        <ele>231.6</ele>
        <time>2014-03-23T09:56:14Z</time>
      </trkpt>
      <trkpt lat="44.86519" lon="4.81244">
        <ele>231.9</ele>
        <time>2014-03-23T09:56:16Z</time>
      </trkpt>
      <trkpt lat="44.86526" lon="4.81248">
        <ele>231.7</ele>
        <time>2014-03-23T09:56:18Z</time>
      </trkpt>
      <trkpt lat="44.86534" lon="4.81251">
        <ele>232</ele>
        <time>2014-03-23T09:56:20Z</time>
      </trkpt>
      <trkpt lat="44.86541" lon="4.81254">
        <ele>232.6</ele>
        <time>2014-03-23T09:56:22Z</time>
      </trkpt>
      <trkpt lat="44.86549" lon="4.81257">
        <ele>233.2</ele>
        <time>2014-03-23T09:56:24Z</time>
      </trkpt>
      <trkpt lat="44.86556" lon="4.8126">
        <ele>233.2</ele>
        <time>2014-03-23T09:56:26Z</time>
      </trkpt>
      <trkpt lat="44.86563" lon="4.81263">
        <ele>232.9</ele>
        <time>2014-03-23T09:56:28Z</time>
      </trkpt>
      <trkpt lat="44.86569" lon="4.81266">
        <ele>233.6</ele>
        <time>2014-03-23T09:56:30Z</time>
      </trkpt>
      <trkpt lat="44.86575" lon="4.81269">
        <ele>234.1</ele>
        <time>2014-03-23T09:56:32Z</time>
      </trkpt>
      <trkpt lat="44.86582" lon="4.81272">
        <ele>234.4</ele>
        <time>2014-03-23T09:56:34Z</time>
      </trkpt>
      <trkpt lat="44.86589" lon="4.81275">
        <ele>234.7</ele>
        <time>2014-03-23T09:56:36Z</time>
      </trkpt>
      <trkpt lat="44.86595" lon="4.81278">
        <ele>235</ele>
        <time>2014-03-23T09:56:38Z</time>
      </trkpt>
      <trkpt lat="44.86601" lon="4.8128">
        <ele>235.1</ele>
        <time>2014-03-23T09:56:40Z</time>
      </trkpt>
      <trkpt lat="44.86607" lon="4.81283">
        <ele>235.4</ele>
        <time>2014-03-23T09:56:42Z</time>
      </trkpt>
      <trkpt lat="44.86614" lon="4.81285">
        <ele>236.7</ele>
        <time>2014-03-23T09:56:44Z</time>
      </trkpt>
      <trkpt lat="44.86621" lon="4.81288">
        <ele>237.1</ele>
        <time>2014-03-23T09:56:46Z</time>
      </trkpt>
      <trkpt lat="44.86627" lon="4.81291">
        <ele>237.5</ele>
        <time>2014-03-23T09:56:48Z</time>
      </trkpt>
      <trkpt lat="44.86634" lon="4.81294">
        <ele>237.9</ele>
        <time>2014-03-23T09:56:50Z</time>
      </trkpt>
      <trkpt lat="44.8664" lon="4.81297">
        <ele>238.5</ele>
        <time>2014-03-23T09:56:52Z</time>
      </trkpt>
      <trkpt lat="44.86647" lon="4.81299">
        <ele>238.9</ele>
        <time>2014-03-23T09:56:54Z</time>
      </trkpt>
      <trkpt lat="44.86655" lon="4.81302">
        <ele>238.6</ele>
        <time>2014-03-23T09:56:56Z</time>
      </trkpt>
      <trkpt lat="44.86662" lon="4.81305">
        <ele>238.6</ele>
        <time>2014-03-23T09:56:58Z</time>
      </trkpt>
      <trkpt lat="44.86669" lon="4.81308">
        <ele>238.6</ele>
        <time>2014-03-23T09:57:00Z</time>
      </trkpt>
      <trkpt lat="44.86673" lon="4.81309">
        <ele>238.5</ele>
        <time>2014-03-23T09:57:01Z</time>
      </trkpt>
      <trkpt lat="44.86683" lon="4.81312">
        <ele>238.5</ele>
        <time>2014-03-23T09:57:04Z</time>
      </trkpt>
      <trkpt lat="44.86691" lon="4.81313">
        <ele>238.5</ele>
        <time>2014-03-23T09:57:06Z</time>
      </trkpt>
      <trkpt lat="44.86699" lon="4.81314">
        <ele>238.6</ele>
        <time>2014-03-23T09:57:08Z</time>
      </trkpt>
      <trkpt lat="44.86705" lon="4.81316">
        <ele>238.5</ele>
        <time>2014-03-23T09:57:10Z</time>
      </trkpt>
      <trkpt lat="44.86714" lon="4.81317">
        <ele>238.9</ele>
        <time>2014-03-23T09:57:12Z</time>
      </trkpt>
      <trkpt lat="44.86722" lon="4.81317">
        <ele>239.5</ele>
        <time>2014-03-23T09:57:14Z</time>
      </trkpt>
      <trkpt lat="44.86731" lon="4.81318">
        <ele>239.7</ele>
        <time>2014-03-23T09:57:16Z</time>
      </trkpt>
      <trkpt lat="44.8674" lon="4.81319">
        <ele>240</ele>
        <time>2014-03-23T09:57:18Z</time>
      </trkpt>
      <trkpt lat="44.86748" lon="4.81317">
        <ele>239.8</ele>
        <time>2014-03-23T09:57:20Z</time>
      </trkpt>
      <trkpt lat="44.86756" lon="4.81316">
        <ele>240.1</ele>
        <time>2014-03-23T09:57:22Z</time>
      </trkpt>
      <trkpt lat="44.86764" lon="4.81314">
        <ele>240.5</ele>
        <time>2014-03-23T09:57:24Z</time>
      </trkpt>
      <trkpt lat="44.86772" lon="4.81312">
        <ele>240.7</ele>
        <time>2014-03-23T09:57:26Z</time>
      </trkpt>
      <trkpt lat="44.8678" lon="4.8131">
        <ele>240.8</ele>
        <time>2014-03-23T09:57:28Z</time>
      </trkpt>
      <trkpt lat="44.86787" lon="4.81307">
        <ele>240.7</ele>
        <time>2014-03-23T09:57:30Z</time>
      </trkpt>
      <trkpt lat="44.86795" lon="4.81306">
        <ele>241.3</ele>
        <time>2014-03-23T09:57:32Z</time>
      </trkpt>
      <trkpt lat="44.86803" lon="4.81303">
        <ele>241.6</ele>
        <time>2014-03-23T09:57:34Z</time>
      </trkpt>
      <trkpt lat="44.86811" lon="4.81301">
        <ele>241.7</ele>
        <time>2014-03-23T09:57:36Z</time>
      </trkpt>
      <trkpt lat="44.86818" lon="4.81299">
        <ele>242</ele>
        <time>2014-03-23T09:57:38Z</time>
      </trkpt>
      <trkpt lat="44.86826" lon="4.81297">
        <ele>242.6</ele>
        <time>2014-03-23T09:57:40Z</time>
      </trkpt>
      <trkpt lat="44.86833" lon="4.81294">
        <ele>243</ele>
        <time>2014-03-23T09:57:42Z</time>
      </trkpt>
      <trkpt lat="44.86841" lon="4.81291">
        <ele>243.1</ele>
        <time>2014-03-23T09:57:44Z</time>
      </trkpt>
      <trkpt lat="44.8685" lon="4.81289">
        <ele>243.1</ele>
        <time>2014-03-23T09:57:46Z</time>
      </trkpt>
      <trkpt lat="44.86858" lon="4.81287">
        <ele>243.2</ele>
        <time>2014-03-23T09:57:48Z</time>
      </trkpt>
      <trkpt lat="44.86866" lon="4.81285">
        <ele>243.3</ele>
        <time>2014-03-23T09:57:50Z</time>
      </trkpt>
      <trkpt lat="44.86873" lon="4.81283">
        <ele>243.7</ele>
        <time>2014-03-23T09:57:52Z</time>
      </trkpt>
      <trkpt lat="44.86881" lon="4.81281">
        <ele>244.1</ele>
        <time>2014-03-23T09:57:54Z</time>
      </trkpt>
      <trkpt lat="44.86888" lon="4.81279">
        <ele>244.1</ele>
        <time>2014-03-23T09:57:56Z</time>
      </trkpt>
      <trkpt lat="44.86895" lon="4.81277">
        <ele>243.8</ele>
        <time>2014-03-23T09:57:58Z</time>
      </trkpt>
      <trkpt lat="44.86903" lon="4.81275">
        <ele>244.3</ele>
        <time>2014-03-23T09:58:00Z</time>
      </trkpt>
      <trkpt lat="44.86909" lon="4.81273">
        <ele>244.8</ele>
        <time>2014-03-23T09:58:02Z</time>
      </trkpt>
      <trkpt lat="44.86913" lon="4.81272">
        <ele>245.1</ele>
        <time>2014-03-23T09:58:03Z</time>
      </trkpt>
      <trkpt lat="44.86923" lon="4.81269">
        <ele>245.8</ele>
        <time>2014-03-23T09:58:06Z</time>
      </trkpt>
      <trkpt lat="44.8693" lon="4.81267">
        <ele>245.5</ele>
        <time>2014-03-23T09:58:08Z</time>
      </trkpt>
      <trkpt lat="44.86937" lon="4.81264">
        <ele>246</ele>
        <time>2014-03-23T09:58:10Z</time>
      </trkpt>
      <trkpt lat="44.86944" lon="4.81259">
        <ele>246.4</ele>
        <time>2014-03-23T09:58:12Z</time>
      </trkpt>
      <trkpt lat="44.86948" lon="4.81251">
        <ele>247</ele>
        <time>2014-03-23T09:58:14Z</time>
      </trkpt>
      <trkpt lat="44.86953" lon="4.81242">
        <ele>247.9</ele>
        <time>2014-03-23T09:58:17Z</time>
      </trkpt>
      <trkpt lat="44.86959" lon="4.81236">
        <ele>248.6</ele>
        <time>2014-03-23T09:58:20Z</time>
      </trkpt>
      <trkpt lat="44.86965" lon="4.81232">
        <ele>249.6</ele>
        <time>2014-03-23T09:58:23Z</time>
      </trkpt>
      <trkpt lat="44.86971" lon="4.81227">
        <ele>250.3</ele>
        <time>2014-03-23T09:58:26Z</time>
      </trkpt>
      <trkpt lat="44.86978" lon="4.8122">
        <ele>251.1</ele>
        <time>2014-03-23T09:58:31Z</time>
      </trkpt>
      <trkpt lat="44.86984" lon="4.81215">
        <ele>252.2</ele>
        <time>2014-03-23T09:58:35Z</time>
      </trkpt>
      <trkpt lat="44.8699" lon="4.81212">
        <ele>252.7</ele>
        <time>2014-03-23T09:58:38Z</time>
      </trkpt>
      <trkpt lat="44.86997" lon="4.81208">
        <ele>253.5</ele>
        <time>2014-03-23T09:58:41Z</time>
      </trkpt>
      <trkpt lat="44.87004" lon="4.81205">
        <ele>254.7</ele>
        <time>2014-03-23T09:58:44Z</time>
      </trkpt>
      <trkpt lat="44.87013" lon="4.81203">
        <ele>255.5</ele>
        <time>2014-03-23T09:58:47Z</time>
      </trkpt>
      <trkpt lat="44.87019" lon="4.81202">
        <ele>255.7</ele>
        <time>2014-03-23T09:58:49Z</time>
      </trkpt>
      <trkpt lat="44.87026" lon="4.812">
        <ele>255.7</ele>
        <time>2014-03-23T09:58:51Z</time>
      </trkpt>
      <trkpt lat="44.87032" lon="4.81196">
        <ele>256.5</ele>
        <time>2014-03-23T09:58:53Z</time>
      </trkpt>
      <trkpt lat="44.87037" lon="4.81191">
        <ele>257.3</ele>
        <time>2014-03-23T09:58:55Z</time>
      </trkpt>
      <trkpt lat="44.87041" lon="4.8118">
        <ele>257.4</ele>
        <time>2014-03-23T09:58:58Z</time>
      </trkpt>
      <trkpt lat="44.87043" lon="4.8117">
        <ele>258.1</ele>
        <time>2014-03-23T09:59:01Z</time>
      </trkpt>
      <trkpt lat="44.87044" lon="4.81159">
        <ele>258.2</ele>
        <time>2014-03-23T09:59:04Z</time>
      </trkpt>
      <trkpt lat="44.87045" lon="4.81156">
        <ele>258.2</ele>
        <time>2014-03-23T09:59:05Z</time>
      </trkpt>
      <trkpt lat="44.87051" lon="4.81139">
        <ele>259.8</ele>
        <time>2014-03-23T09:59:11Z</time>
      </trkpt>
      <trkpt lat="44.87055" lon="4.81129">
        <ele>260.2</ele>
        <time>2014-03-23T09:59:15Z</time>
      </trkpt>
      <trkpt lat="44.87058" lon="4.81117">
        <ele>261.4</ele>
        <time>2014-03-23T09:59:20Z</time>
      </trkpt>
      <trkpt lat="44.87063" lon="4.81106">
        <ele>262.4</ele>
        <time>2014-03-23T09:59:25Z</time>
      </trkpt>
      <trkpt lat="44.87066" lon="4.81096">
        <ele>262.9</ele>
        <time>2014-03-23T09:59:29Z</time>
      </trkpt>
      <trkpt lat="44.8707" lon="4.81086">
        <ele>263.9</ele>
        <time>2014-03-23T09:59:33Z</time>
      </trkpt>
      <trkpt lat="44.87073" lon="4.81076">
        <ele>265.2</ele>
        <time>2014-03-23T09:59:37Z</time>
      </trkpt>
      <trkpt lat="44.87075" lon="4.81067">
        <ele>265.3</ele>
        <time>2014-03-23T09:59:40Z</time>
      </trkpt>
      <trkpt lat="44.87076" lon="4.81057">
        <ele>265.3</ele>
        <time>2014-03-23T09:59:43Z</time>
      </trkpt>
      <trkpt lat="44.87077" lon="4.81046">
        <ele>266.5</ele>
        <time>2014-03-23T09:59:46Z</time>
      </trkpt>
      <trkpt lat="44.87077" lon="4.81036">
        <ele>267.6</ele>
        <time>2014-03-23T09:59:49Z</time>
      </trkpt>
      <trkpt lat="44.87077" lon="4.81026">
        <ele>268</ele>
        <time>2014-03-23T09:59:52Z</time>
      </trkpt>
      <trkpt lat="44.87077" lon="4.81016">
        <ele>268.9</ele>
        <time>2014-03-23T09:59:55Z</time>
      </trkpt>
      <trkpt lat="44.87075" lon="4.81007">
        <ele>270.1</ele>
        <time>2014-03-23T09:59:58Z</time>
      </trkpt>
      <trkpt lat="44.87073" lon="4.80995">
        <ele>270.4</ele>
        <time>2014-03-23T10:00:02Z</time>
      </trkpt>
      <trkpt lat="44.87069" lon="4.80983">
        <ele>271.2</ele>
        <time>2014-03-23T10:00:06Z</time>
      </trkpt>
      <trkpt lat="44.87068" lon="4.8098">
        <ele>271.3</ele>
        <time>2014-03-23T10:00:07Z</time>
      </trkpt>
      <trkpt lat="44.87063" lon="4.80964">
        <ele>272.5</ele>
        <time>2014-03-23T10:00:12Z</time>
      </trkpt>
      <trkpt lat="44.8706" lon="4.80954">
        <ele>272.9</ele>
        <time>2014-03-23T10:00:15Z</time>
      </trkpt>
      <trkpt lat="44.87057" lon="4.80945">
        <ele>273</ele>
        <time>2014-03-23T10:00:18Z</time>
      </trkpt>
      <trkpt lat="44.87054" lon="4.80936">
        <ele>273.2</ele>
        <time>2014-03-23T10:00:21Z</time>
      </trkpt>
      <trkpt lat="44.87051" lon="4.80927">
        <ele>273.8</ele>
        <time>2014-03-23T10:00:24Z</time>
      </trkpt>
      <trkpt lat="44.87048" lon="4.80918">
        <ele>274.6</ele>
        <time>2014-03-23T10:00:27Z</time>
      </trkpt>
      <trkpt lat="44.87044" lon="4.80907">
        <ele>275.7</ele>
        <time>2014-03-23T10:00:31Z</time>
      </trkpt>
      <trkpt lat="44.87041" lon="4.80895">
        <ele>276.7</ele>
        <time>2014-03-23T10:00:35Z</time>
      </trkpt>
      <trkpt lat="44.8704" lon="4.80884">
        <ele>278.6</ele>
        <time>2014-03-23T10:00:39Z</time>
      </trkpt>
      <trkpt lat="44.87039" lon="4.80872">
        <ele>280.3</ele>
        <time>2014-03-23T10:00:44Z</time>
      </trkpt>
      <trkpt lat="44.87039" lon="4.80862">
        <ele>281.2</ele>
        <time>2014-03-23T10:00:48Z</time>
      </trkpt>
      <trkpt lat="44.87039" lon="4.80852">
        <ele>281.8</ele>
        <time>2014-03-23T10:00:51Z</time>
      </trkpt>
      <trkpt lat="44.87038" lon="4.80842">
        <ele>282.6</ele>
        <time>2014-03-23T10:00:54Z</time>
      </trkpt>
      <trkpt lat="44.87038" lon="4.80829">
        <ele>283.7</ele>
        <time>2014-03-23T10:00:58Z</time>
      </trkpt>
      <trkpt lat="44.8704" lon="4.80817">
        <ele>284.8</ele>
        <time>2014-03-23T10:01:02Z</time>
      </trkpt>
      <trkpt lat="44.87043" lon="4.80806">
        <ele>285.7</ele>
        <time>2014-03-23T10:01:06Z</time>
      </trkpt>
      <trkpt lat="44.87047" lon="4.80795">
        <ele>286.3</ele>
        <time>2014-03-23T10:01:10Z</time>
      </trkpt>
      <trkpt lat="44.87048" lon="4.80793">
        <ele>286.5</ele>
        <time>2014-03-23T10:01:11Z</time>
      </trkpt>
      <trkpt lat="44.87055" lon="4.80774">
        <ele>287.6</ele>
        <time>2014-03-23T10:01:18Z</time>
      </trkpt>
      <trkpt lat="44.87057" lon="4.80761">
        <ele>289.3</ele>
        <time>2014-03-23T10:01:22Z</time>
      </trkpt>
      <trkpt lat="44.87058" lon="4.8075">
        <ele>289.9</ele>
        <time>2014-03-23T10:01:26Z</time>
      </trkpt>
      <trkpt lat="44.87059" lon="4.80738">
        <ele>290.8</ele>
        <time>2014-03-23T10:01:30Z</time>
      </trkpt>
      <trkpt lat="44.87062" lon="4.80728">
        <ele>291.9</ele>
        <time>2014-03-23T10:01:34Z</time>
      </trkpt>
      <trkpt lat="44.87066" lon="4.80719">
        <ele>292.6</ele>
        <time>2014-03-23T10:01:38Z</time>
      </trkpt>
      <trkpt lat="44.8707" lon="4.80711">
        <ele>293.5</ele>
        <time>2014-03-23T10:01:42Z</time>
      </trkpt>
      <trkpt lat="44.87075" lon="4.80702">
        <ele>294.8</ele>
        <time>2014-03-23T10:01:46Z</time>
      </trkpt>
      <trkpt lat="44.8708" lon="4.80695">
        <ele>296</ele>
        <time>2014-03-23T10:01:50Z</time>
      </trkpt>
      <trkpt lat="44.87085" lon="4.80686">
        <ele>297.3</ele>
        <time>2014-03-23T10:01:54Z</time>
      </trkpt>
      <trkpt lat="44.8709" lon="4.80678">
        <ele>298.1</ele>
        <time>2014-03-23T10:01:58Z</time>
      </trkpt>
      <trkpt lat="44.87095" lon="4.80668">
        <ele>299.2</ele>
        <time>2014-03-23T10:02:02Z</time>
      </trkpt>
      <trkpt lat="44.871" lon="4.80659">
        <ele>300.2</ele>
        <time>2014-03-23T10:02:06Z</time>
      </trkpt>
      <trkpt lat="44.87104" lon="4.80648">
        <ele>301.7</ele>
        <time>2014-03-23T10:02:10Z</time>
      </trkpt>
      <trkpt lat="44.87109" lon="4.80639">
        <ele>302.2</ele>
        <time>2014-03-23T10:02:14Z</time>
      </trkpt>
      <trkpt lat="44.8711" lon="4.80636">
        <ele>302.2</ele>
        <time>2014-03-23T10:02:15Z</time>
      </trkpt>
      <trkpt lat="44.87117" lon="4.80622">
        <ele>302.8</ele>
        <time>2014-03-23T10:02:20Z</time>
      </trkpt>
      <trkpt lat="44.87121" lon="4.80614">
        <ele>303.5</ele>
        <time>2014-03-23T10:02:23Z</time>
      </trkpt>
      <trkpt lat="44.87125" lon="4.80603">
        <ele>304.3</ele>
        <time>2014-03-23T10:02:27Z</time>
      </trkpt>
      <trkpt lat="44.8713" lon="4.80592">
        <ele>305.2</ele>
        <time>2014-03-23T10:02:31Z</time>
      </trkpt>
      <trkpt lat="44.87133" lon="4.80581">
        <ele>305.7</ele>
        <time>2014-03-23T10:02:35Z</time>
      </trkpt>
      <trkpt lat="44.87136" lon="4.8057">
        <ele>306.5</ele>
        <time>2014-03-23T10:02:39Z</time>
      </trkpt>
      <trkpt lat="44.87137" lon="4.80558">
        <ele>307.5</ele>
        <time>2014-03-23T10:02:43Z</time>
      </trkpt>
      <trkpt lat="44.87138" lon="4.80548">
        <ele>308.8</ele>
        <time>2014-03-23T10:02:46Z</time>
      </trkpt>
      <trkpt lat="44.87139" lon="4.80536">
        <ele>309</ele>
        <time>2014-03-23T10:02:50Z</time>
      </trkpt>
      <trkpt lat="44.87141" lon="4.80524">
        <ele>310</ele>
        <time>2014-03-23T10:02:54Z</time>
      </trkpt>
      <trkpt lat="44.87143" lon="4.80515">
        <ele>310.7</ele>
        <time>2014-03-23T10:02:57Z</time>
      </trkpt>
      <trkpt lat="44.87147" lon="4.80503">
        <ele>311.5</ele>
        <time>2014-03-23T10:03:01Z</time>
      </trkpt>
      <trkpt lat="44.87152" lon="4.80497">
        <ele>311.9</ele>
        <time>2014-03-23T10:03:04Z</time>
      </trkpt>
      <trkpt lat="44.8716" lon="4.80491">
        <ele>312.8</ele>
        <time>2014-03-23T10:03:08Z</time>
      </trkpt>
      <trkpt lat="44.87166" lon="4.80483">
        <ele>313.7</ele>
        <time>2014-03-23T10:03:12Z</time>
      </trkpt>
      <trkpt lat="44.87171" lon="4.80476">
        <ele>314.7</ele>
        <time>2014-03-23T10:03:15Z</time>
      </trkpt>
      <trkpt lat="44.87173" lon="4.80473">
        <ele>315</ele>
        <time>2014-03-23T10:03:16Z</time>
      </trkpt>
      <trkpt lat="44.8718" lon="4.8046">
        <ele>315.7</ele>
        <time>2014-03-23T10:03:21Z</time>
      </trkpt>
      <trkpt lat="44.87184" lon="4.80452">
        <ele>315.8</ele>
        <time>2014-03-23T10:03:24Z</time>
      </trkpt>
      <trkpt lat="44.87187" lon="4.80443">
        <ele>316.5</ele>
        <time>2014-03-23T10:03:27Z</time>
      </trkpt>
      <trkpt lat="44.87191" lon="4.80435">
        <ele>317.8</ele>
        <time>2014-03-23T10:03:30Z</time>
      </trkpt>
      <trkpt lat="44.87194" lon="4.80426">
        <ele>319.3</ele>
        <time>2014-03-23T10:03:33Z</time>
      </trkpt>
      <trkpt lat="44.87197" lon="4.80417">
        <ele>320.5</ele>
        <time>2014-03-23T10:03:36Z</time>
      </trkpt>
      <trkpt lat="44.872" lon="4.80406">
        <ele>320.8</ele>
        <time>2014-03-23T10:03:40Z</time>
      </trkpt>
      <trkpt lat="44.87203" lon="4.80397">
        <ele>321.3</ele>
        <time>2014-03-23T10:03:43Z</time>
      </trkpt>
      <trkpt lat="44.87206" lon="4.80389">
        <ele>322.9</ele>
        <time>2014-03-23T10:03:46Z</time>
      </trkpt>
      <trkpt lat="44.87209" lon="4.8038">
        <ele>323.6</ele>
        <time>2014-03-23T10:03:49Z</time>
      </trkpt>
      <trkpt lat="44.87213" lon="4.80371">
        <ele>324.4</ele>
        <time>2014-03-23T10:03:52Z</time>
      </trkpt>
      <trkpt lat="44.87216" lon="4.80363">
        <ele>325.2</ele>
        <time>2014-03-23T10:03:55Z</time>
      </trkpt>
      <trkpt lat="44.87219" lon="4.80354">
        <ele>325.9</ele>
        <time>2014-03-23T10:03:58Z</time>
      </trkpt>
      <trkpt lat="44.87222" lon="4.80343">
        <ele>326.8</ele>
        <time>2014-03-23T10:04:02Z</time>
      </trkpt>
      <trkpt lat="44.87226" lon="4.80332">
        <ele>327.8</ele>
        <time>2014-03-23T10:04:06Z</time>
      </trkpt>
      <trkpt lat="44.87229" lon="4.80323">
        <ele>328.6</ele>
        <time>2014-03-23T10:04:09Z</time>
      </trkpt>
      <trkpt lat="44.87231" lon="4.80314">
        <ele>329</ele>
        <time>2014-03-23T10:04:12Z</time>
      </trkpt>
      <trkpt lat="44.87234" lon="4.80305">
        <ele>330.2</ele>
        <time>2014-03-23T10:04:15Z</time>
      </trkpt>
      <trkpt lat="44.87236" lon="4.80295">
        <ele>330.9</ele>
        <time>2014-03-23T10:04:18Z</time>
      </trkpt>
      <trkpt lat="44.87236" lon="4.80292">
        <ele>330.8</ele>
        <time>2014-03-23T10:04:19Z</time>
      </trkpt>
      <trkpt lat="44.87239" lon="4.80275">
        <ele>330.7</ele>
        <time>2014-03-23T10:04:24Z</time>
      </trkpt>
      <trkpt lat="44.87239" lon="4.80265">
        <ele>331.3</ele>
        <time>2014-03-23T10:04:27Z</time>
      </trkpt>
      <trkpt lat="44.8724" lon="4.80255">
        <ele>331.2</ele>
        <time>2014-03-23T10:04:30Z</time>
      </trkpt>
      <trkpt lat="44.87244" lon="4.80246">
        <ele>331.9</ele>
        <time>2014-03-23T10:04:33Z</time>
      </trkpt>
      <trkpt lat="44.8725" lon="4.80238">
        <ele>332.7</ele>
        <time>2014-03-23T10:04:37Z</time>
      </trkpt>
      <trkpt lat="44.87258" lon="4.80234">
        <ele>334.6</ele>
        <time>2014-03-23T10:04:41Z</time>
      </trkpt>
      <trkpt lat="44.87267" lon="4.80234">
        <ele>335.7</ele>
        <time>2014-03-23T10:04:45Z</time>
      </trkpt>
      <trkpt lat="44.87275" lon="4.80235">
        <ele>336.6</ele>
        <time>2014-03-23T10:04:49Z</time>
      </trkpt>
      <trkpt lat="44.87283" lon="4.80236">
        <ele>337.2</ele>
        <time>2014-03-23T10:04:53Z</time>
      </trkpt>
      <trkpt lat="44.8729" lon="4.80235">
        <ele>338.5</ele>
        <time>2014-03-23T10:04:57Z</time>
      </trkpt>
      <trkpt lat="44.87298" lon="4.80232">
        <ele>340.2</ele>
        <time>2014-03-23T10:05:01Z</time>
      </trkpt>
      <trkpt lat="44.87306" lon="4.80229">
        <ele>339.7</ele>
        <time>2014-03-23T10:05:05Z</time>
      </trkpt>
      <trkpt lat="44.87314" lon="4.80224">
        <ele>339.9</ele>
        <time>2014-03-23T10:05:09Z</time>
      </trkpt>
      <trkpt lat="44.87322" lon="4.80219">
        <ele>341.6</ele>
        <time>2014-03-23T10:05:13Z</time>
      </trkpt>
      <trkpt lat="44.87329" lon="4.80214">
        <ele>342.4</ele>
        <time>2014-03-23T10:05:17Z</time>
      </trkpt>
      <trkpt lat="44.87336" lon="4.80209">
        <ele>343.8</ele>
        <time>2014-03-23T10:05:21Z</time>
      </trkpt>
      <trkpt lat="44.87338" lon="4.80208">
        <ele>343.9</ele>
        <time>2014-03-23T10:05:22Z</time>
      </trkpt>
      <trkpt lat="44.87351" lon="4.80201">
        <ele>346</ele>
        <time>2014-03-23T10:05:30Z</time>
      </trkpt>
      <trkpt lat="44.87356" lon="4.80199">
        <ele>346.3</ele>
        <time>2014-03-23T10:05:32Z</time>
      </trkpt>
      <trkpt lat="44.87362" lon="4.80195">
        <ele>345.6</ele>
        <time>2014-03-23T10:05:34Z</time>
      </trkpt>
      <trkpt lat="44.8737" lon="4.80189">
        <ele>345</ele>
        <time>2014-03-23T10:05:37Z</time>
      </trkpt>
      <trkpt lat="44.87376" lon="4.80184">
        <ele>344.9</ele>
        <time>2014-03-23T10:05:39Z</time>
      </trkpt>
      <trkpt lat="44.87382" lon="4.8018">
        <ele>344.9</ele>
        <time>2014-03-23T10:05:41Z</time>
      </trkpt>
      <trkpt lat="44.87389" lon="4.80177">
        <ele>344.5</ele>
        <time>2014-03-23T10:05:44Z</time>
      </trkpt>
      <trkpt lat="44.87397" lon="4.80173">
        <ele>344.9</ele>
        <time>2014-03-23T10:05:47Z</time>
      </trkpt>
      <trkpt lat="44.87403" lon="4.8017">
        <ele>345.3</ele>
        <time>2014-03-23T10:05:49Z</time>
      </trkpt>
      <trkpt lat="44.87412" lon="4.80166">
        <ele>345.7</ele>
        <time>2014-03-23T10:05:52Z</time>
      </trkpt>
      <trkpt lat="44.87417" lon="4.80163">
        <ele>345.5</ele>
        <time>2014-03-23T10:05:55Z</time>
      </trkpt>
      <trkpt lat="44.87425" lon="4.80159">
        <ele>345.8</ele>
        <time>2014-03-23T10:05:58Z</time>
      </trkpt>
      <trkpt lat="44.87433" lon="4.80155">
        <ele>346</ele>
        <time>2014-03-23T10:06:01Z</time>
      </trkpt>
      <trkpt lat="44.8744" lon="4.8015">
        <ele>345.5</ele>
        <time>2014-03-23T10:06:03Z</time>
      </trkpt>
      <trkpt lat="44.87444" lon="4.80146">
        <ele>345.4</ele>
        <time>2014-03-23T10:06:04Z</time>
      </trkpt>
      <trkpt lat="44.87448" lon="4.80143">
        <ele>345.3</ele>
        <time>2014-03-23T10:06:05Z</time>
      </trkpt>
      <trkpt lat="44.87453" lon="4.8014">
        <ele>345.1</ele>
        <time>2014-03-23T10:06:06Z</time>
      </trkpt>
      <trkpt lat="44.87457" lon="4.80138">
        <ele>345</ele>
        <time>2014-03-23T10:06:07Z</time>
      </trkpt>
      <trkpt lat="44.87465" lon="4.80133">
        <ele>345</ele>
        <time>2014-03-23T10:06:09Z</time>
      </trkpt>
      <trkpt lat="44.87472" lon="4.80129">
        <ele>344.7</ele>
        <time>2014-03-23T10:06:11Z</time>
      </trkpt>
      <trkpt lat="44.8748" lon="4.80124">
        <ele>344.3</ele>
        <time>2014-03-23T10:06:13Z</time>
      </trkpt>
      <trkpt lat="44.87488" lon="4.8012">
        <ele>344.1</ele>
        <time>2014-03-23T10:06:15Z</time>
      </trkpt>
      <trkpt lat="44.87496" lon="4.80117">
        <ele>342.9</ele>
        <time>2014-03-23T10:06:19Z</time>
      </trkpt>
      <trkpt lat="44.87505" lon="4.80114">
        <ele>341.5</ele>
        <time>2014-03-23T10:06:28Z</time>
      </trkpt>
      <trkpt lat="44.87505" lon="4.80114">
        <ele>341.5</ele>
        <time>2014-03-23T10:06:29Z</time>
      </trkpt>
      <trkpt lat="44.87516" lon="4.80123">
        <ele>341</ele>
        <time>2014-03-23T10:07:29Z</time>
      </trkpt>
      <trkpt lat="44.87515" lon="4.80125">
        <ele>340.8</ele>
        <time>2014-03-23T10:07:30Z</time>
      </trkpt>
      <trkpt lat="44.87507" lon="4.80141">
        <ele>340.9</ele>
        <time>2014-03-23T10:07:40Z</time>
      </trkpt>
      <trkpt lat="44.87502" lon="4.80152">
        <ele>342.3</ele>
        <time>2014-03-23T10:07:46Z</time>
      </trkpt>
      <trkpt lat="44.87498" lon="4.80162">
        <ele>344.6</ele>
        <time>2014-03-23T10:07:52Z</time>
      </trkpt>
      <trkpt lat="44.87496" lon="4.80173">
        <ele>346.5</ele>
        <time>2014-03-23T10:07:58Z</time>
      </trkpt>
      <trkpt lat="44.87494" lon="4.80184">
        <ele>348</ele>
        <time>2014-03-23T10:08:04Z</time>
      </trkpt>
      <trkpt lat="44.87492" lon="4.80196">
        <ele>349.5</ele>
        <time>2014-03-23T10:08:11Z</time>
      </trkpt>
      <trkpt lat="44.87489" lon="4.80208">
        <ele>351.4</ele>
        <time>2014-03-23T10:08:18Z</time>
      </trkpt>
      <trkpt lat="44.87485" lon="4.80218">
        <ele>353.2</ele>
        <time>2014-03-23T10:08:26Z</time>
      </trkpt>
      <trkpt lat="44.87481" lon="4.80228">
        <ele>354.9</ele>
        <time>2014-03-23T10:08:33Z</time>
      </trkpt>
      <trkpt lat="44.8748" lon="4.8023">
        <ele>355</ele>
        <time>2014-03-23T10:08:34Z</time>
      </trkpt>
      <trkpt lat="44.87473" lon="4.80249">
        <ele>357.5</ele>
        <time>2014-03-23T10:08:48Z</time>
      </trkpt>
      <trkpt lat="44.87469" lon="4.8026">
        <ele>360.1</ele>
        <time>2014-03-23T10:08:55Z</time>
      </trkpt>
      <trkpt lat="44.87466" lon="4.80271">
        <ele>362.1</ele>
        <time>2014-03-23T10:09:02Z</time>
      </trkpt>
      <trkpt lat="44.87463" lon="4.80282">
        <ele>363.6</ele>
        <time>2014-03-23T10:09:09Z</time>
      </trkpt>
      <trkpt lat="44.87459" lon="4.80292">
        <ele>365.3</ele>
        <time>2014-03-23T10:09:16Z</time>
      </trkpt>
      <trkpt lat="44.87454" lon="4.80302">
        <ele>366.9</ele>
        <time>2014-03-23T10:09:23Z</time>
      </trkpt>
      <trkpt lat="44.87449" lon="4.80312">
        <ele>367.7</ele>
        <time>2014-03-23T10:09:30Z</time>
      </trkpt>
      <trkpt lat="44.87445" lon="4.80322">
        <ele>368.9</ele>
        <time>2014-03-23T10:09:36Z</time>
      </trkpt>
      <trkpt lat="44.87444" lon="4.80323">
        <ele>369.3</ele>
        <time>2014-03-23T10:09:37Z</time>
      </trkpt>
      <trkpt lat="44.87437" lon="4.80343">
        <ele>371.7</ele>
        <time>2014-03-23T10:09:49Z</time>
      </trkpt>
      <trkpt lat="44.87433" lon="4.80353">
        <ele>373.2</ele>
        <time>2014-03-23T10:09:55Z</time>
      </trkpt>
      <trkpt lat="44.87429" lon="4.80363">
        <ele>374.6</ele>
        <time>2014-03-23T10:10:01Z</time>
      </trkpt>
      <trkpt lat="44.87425" lon="4.80373">
        <ele>375.8</ele>
        <time>2014-03-23T10:10:07Z</time>
      </trkpt>
      <trkpt lat="44.87421" lon="4.80382">
        <ele>376.9</ele>
        <time>2014-03-23T10:10:13Z</time>
      </trkpt>
      <trkpt lat="44.87417" lon="4.80394">
        <ele>378.7</ele>
        <time>2014-03-23T10:10:20Z</time>
      </trkpt>
      <trkpt lat="44.87413" lon="4.80404">
        <ele>379.8</ele>
        <time>2014-03-23T10:10:26Z</time>
      </trkpt>
      <trkpt lat="44.8741" lon="4.80414">
        <ele>380.1</ele>
        <time>2014-03-23T10:10:31Z</time>
      </trkpt>
      <trkpt lat="44.87405" lon="4.80424">
        <ele>382.8</ele>
        <time>2014-03-23T10:10:45Z</time>
      </trkpt>
      <trkpt lat="44.87405" lon="4.80426">
        <ele>382.9</ele>
        <time>2014-03-23T10:10:46Z</time>
      </trkpt>
      <trkpt lat="44.8741" lon="4.80435">
        <ele>386.7</ele>
        <time>2014-03-23T10:11:07Z</time>
      </trkpt>
      <trkpt lat="44.87417" lon="4.80431">
        <ele>387.8</ele>
        <time>2014-03-23T10:11:14Z</time>
      </trkpt>
      <trkpt lat="44.87424" lon="4.80425">
        <ele>389.6</ele>
        <time>2014-03-23T10:11:21Z</time>
      </trkpt>
      <trkpt lat="44.87432" lon="4.80419">
        <ele>391.5</ele>
        <time>2014-03-23T10:11:28Z</time>
      </trkpt>
      <trkpt lat="44.8744" lon="4.80416">
        <ele>392.9</ele>
        <time>2014-03-23T10:11:35Z</time>
      </trkpt>
      <trkpt lat="44.87448" lon="4.80415">
        <ele>394.8</ele>
        <time>2014-03-23T10:11:41Z</time>
      </trkpt>
      <trkpt lat="44.87456" lon="4.80415">
        <ele>396.4</ele>
        <time>2014-03-23T10:11:47Z</time>
      </trkpt>
      <trkpt lat="44.87457" lon="4.80414">
        <ele>396.9</ele>
        <time>2014-03-23T10:11:48Z</time>
      </trkpt>
      <trkpt lat="44.87472" lon="4.80408">
        <ele>400.6</ele>
        <time>2014-03-23T10:12:02Z</time>
      </trkpt>
      <trkpt lat="44.8748" lon="4.80403">
        <ele>402.4</ele>
        <time>2014-03-23T10:12:11Z</time>
      </trkpt>
      <trkpt lat="44.87489" lon="4.804">
        <ele>403.9</ele>
        <time>2014-03-23T10:12:20Z</time>
      </trkpt>
      <trkpt lat="44.87497" lon="4.80395">
        <ele>405.2</ele>
        <time>2014-03-23T10:12:28Z</time>
      </trkpt>
      <trkpt lat="44.87505" lon="4.80392">
        <ele>406.6</ele>
        <time>2014-03-23T10:12:36Z</time>
      </trkpt>
      <trkpt lat="44.87513" lon="4.8039">
        <ele>407.9</ele>
        <time>2014-03-23T10:12:44Z</time>
      </trkpt>
      <trkpt lat="44.87521" lon="4.80387">
        <ele>409.6</ele>
        <time>2014-03-23T10:12:52Z</time>
      </trkpt>
      <trkpt lat="44.87522" lon="4.80386">
        <ele>409.9</ele>
        <time>2014-03-23T10:12:53Z</time>
      </trkpt>
      <trkpt lat="44.87537" lon="4.80378">
        <ele>413.3</ele>
        <time>2014-03-23T10:13:07Z</time>
      </trkpt>
      <trkpt lat="44.87537" lon="4.80391">
        <ele>417.9</ele>
        <time>2014-03-23T10:13:26Z</time>
      </trkpt>
      <trkpt lat="44.87534" lon="4.80402">
        <ele>419.6</ele>
        <time>2014-03-23T10:13:36Z</time>
      </trkpt>
      <trkpt lat="44.87531" lon="4.80413">
        <ele>421.5</ele>
        <time>2014-03-23T10:13:45Z</time>
      </trkpt>
      <trkpt lat="44.87527" lon="4.80424">
        <ele>424.8</ele>
        <time>2014-03-23T10:13:53Z</time>
      </trkpt>
      <trkpt lat="44.87527" lon="4.80425">
        <ele>424.6</ele>
        <time>2014-03-23T10:13:54Z</time>
      </trkpt>
      <trkpt lat="44.87532" lon="4.80447">
        <ele>424.3</ele>
        <time>2014-03-23T10:15:59Z</time>
      </trkpt>
      <trkpt lat="44.87531" lon="4.80448">
        <ele>424.6</ele>
        <time>2014-03-23T10:16:00Z</time>
      </trkpt>
      <trkpt lat="44.87526" lon="4.80469">
        <ele>426.3</ele>
        <time>2014-03-23T10:16:11Z</time>
      </trkpt>
      <trkpt lat="44.87523" lon="4.8048">
        <ele>426.4</ele>
        <time>2014-03-23T10:16:15Z</time>
      </trkpt>
      <trkpt lat="44.8752" lon="4.8049">
        <ele>426.8</ele>
        <time>2014-03-23T10:16:19Z</time>
      </trkpt>
      <trkpt lat="44.87516" lon="4.805">
        <ele>428.3</ele>
        <time>2014-03-23T10:16:23Z</time>
      </trkpt>
      <trkpt lat="44.87513" lon="4.80509">
        <ele>429.4</ele>
        <time>2014-03-23T10:16:27Z</time>
      </trkpt>
      <trkpt lat="44.87508" lon="4.80518">
        <ele>430.6</ele>
        <time>2014-03-23T10:16:31Z</time>
      </trkpt>
      <trkpt lat="44.87504" lon="4.80526">
        <ele>430.7</ele>
        <time>2014-03-23T10:16:34Z</time>
      </trkpt>
      <trkpt lat="44.87498" lon="4.80535">
        <ele>430.5</ele>
        <time>2014-03-23T10:16:37Z</time>
      </trkpt>
      <trkpt lat="44.87497" lon="4.80546">
        <ele>430.7</ele>
        <time>2014-03-23T10:16:40Z</time>
      </trkpt>
      <trkpt lat="44.87495" lon="4.80555">
        <ele>430.4</ele>
        <time>2014-03-23T10:16:43Z</time>
      </trkpt>
      <trkpt lat="44.87495" lon="4.80567">
        <ele>430.2</ele>
        <time>2014-03-23T10:16:46Z</time>
      </trkpt>
      <trkpt lat="44.87497" lon="4.80579">
        <ele>429.7</ele>
        <time>2014-03-23T10:16:49Z</time>
      </trkpt>
      <trkpt lat="44.87496" lon="4.80587">
        <ele>429.6</ele>
        <time>2014-03-23T10:16:51Z</time>
      </trkpt>
      <trkpt lat="44.87496" lon="4.80594">
        <ele>429.5</ele>
        <time>2014-03-23T10:16:52Z</time>
      </trkpt>
      <trkpt lat="44.87495" lon="4.80601">
        <ele>429.4</ele>
        <time>2014-03-23T10:16:53Z</time>
      </trkpt>
      <trkpt lat="44.87496" lon="4.80608">
        <ele>428.8</ele>
        <time>2014-03-23T10:16:54Z</time>
      </trkpt>
      <trkpt lat="44.87498" lon="4.80615">
        <ele>428.4</ele>
        <time>2014-03-23T10:16:55Z</time>
      </trkpt>
      <trkpt lat="44.87499" lon="4.80622">
        <ele>427.4</ele>
        <time>2014-03-23T10:16:56Z</time>
      </trkpt>
      <trkpt lat="44.87502" lon="4.80634">
        <ele>426.1</ele>
        <time>2014-03-23T10:16:58Z</time>
      </trkpt>
      <trkpt lat="44.87508" lon="4.80642">
        <ele>424.7</ele>
        <time>2014-03-23T10:17:00Z</time>
      </trkpt>
      <trkpt lat="44.87511" lon="4.80645">
        <ele>424</ele>
        <time>2014-03-23T10:17:01Z</time>
      </trkpt>
      <trkpt lat="44.87519" lon="4.80658">
        <ele>423.2</ele>
        <time>2014-03-23T10:17:05Z</time>
      </trkpt>
      <trkpt lat="44.87523" lon="4.80668">
        <ele>422.7</ele>
        <time>2014-03-23T10:17:08Z</time>
      </trkpt>
      <trkpt lat="44.8753" lon="4.80676">
        <ele>422.7</ele>
        <time>2014-03-23T10:17:11Z</time>
      </trkpt>
      <trkpt lat="44.87536" lon="4.80681">
        <ele>422.5</ele>
        <time>2014-03-23T10:17:14Z</time>
      </trkpt>
      <trkpt lat="44.87543" lon="4.80686">
        <ele>423.3</ele>
        <time>2014-03-23T10:17:17Z</time>
      </trkpt>
      <trkpt lat="44.87549" lon="4.80691">
        <ele>423.4</ele>
        <time>2014-03-23T10:17:20Z</time>
      </trkpt>
      <trkpt lat="44.87558" lon="4.80694">
        <ele>423.7</ele>
        <time>2014-03-23T10:17:24Z</time>
      </trkpt>
      <trkpt lat="44.87565" lon="4.80692">
        <ele>424.6</ele>
        <time>2014-03-23T10:17:28Z</time>
      </trkpt>
      <trkpt lat="44.87572" lon="4.80685">
        <ele>424.8</ele>
        <time>2014-03-23T10:17:33Z</time>
      </trkpt>
      <trkpt lat="44.87579" lon="4.80678">
        <ele>426.2</ele>
        <time>2014-03-23T10:17:37Z</time>
      </trkpt>
      <trkpt lat="44.87585" lon="4.80671">
        <ele>427.1</ele>
        <time>2014-03-23T10:17:41Z</time>
      </trkpt>
      <trkpt lat="44.87593" lon="4.80668">
        <ele>427.9</ele>
        <time>2014-03-23T10:17:47Z</time>
      </trkpt>
      <trkpt lat="44.87602" lon="4.8067">
        <ele>426.8</ele>
        <time>2014-03-23T10:17:59Z</time>
      </trkpt>
      <trkpt lat="44.87607" lon="4.80676">
        <ele>427.1</ele>
        <time>2014-03-23T10:18:02Z</time>
      </trkpt>
      <trkpt lat="44.87609" lon="4.80679">
        <ele>427.1</ele>
        <time>2014-03-23T10:18:03Z</time>
      </trkpt>
      <trkpt lat="44.87619" lon="4.80685">
        <ele>425.3</ele>
        <time>2014-03-23T10:18:07Z</time>
      </trkpt>
      <trkpt lat="44.87627" lon="4.80679">
        <ele>424.1</ele>
        <time>2014-03-23T10:18:10Z</time>
      </trkpt>
      <trkpt lat="44.87634" lon="4.80679">
        <ele>422.8</ele>
        <time>2014-03-23T10:18:13Z</time>
      </trkpt>
      <trkpt lat="44.87643" lon="4.80681">
        <ele>420.6</ele>
        <time>2014-03-23T10:18:17Z</time>
      </trkpt>
      <trkpt lat="44.87651" lon="4.80681">
        <ele>418.1</ele>
        <time>2014-03-23T10:18:21Z</time>
      </trkpt>
      <trkpt lat="44.87656" lon="4.80688">
        <ele>415</ele>
        <time>2014-03-23T10:18:25Z</time>
      </trkpt>
      <trkpt lat="44.87658" lon="4.80696">
        <ele>414</ele>
        <time>2014-03-23T10:18:27Z</time>
      </trkpt>
      <trkpt lat="44.87661" lon="4.80706">
        <ele>411.3</ele>
        <time>2014-03-23T10:18:31Z</time>
      </trkpt>
      <trkpt lat="44.87666" lon="4.80714">
        <ele>409.3</ele>
        <time>2014-03-23T10:18:34Z</time>
      </trkpt>
      <trkpt lat="44.87673" lon="4.80719">
        <ele>403.4</ele>
        <time>2014-03-23T10:18:41Z</time>
      </trkpt>
      <trkpt lat="44.87681" lon="4.80725">
        <ele>401.9</ele>
        <time>2014-03-23T10:18:47Z</time>
      </trkpt>
      <trkpt lat="44.87686" lon="4.80733">
        <ele>400.7</ele>
        <time>2014-03-23T10:18:50Z</time>
      </trkpt>
      <trkpt lat="44.87688" lon="4.80745">
        <ele>398</ele>
        <time>2014-03-23T10:18:54Z</time>
      </trkpt>
      <trkpt lat="44.87687" lon="4.80756">
        <ele>396.1</ele>
        <time>2014-03-23T10:18:57Z</time>
      </trkpt>
      <trkpt lat="44.87686" lon="4.80766">
        <ele>395.7</ele>
        <time>2014-03-23T10:18:59Z</time>
      </trkpt>
      <trkpt lat="44.87688" lon="4.80778">
        <ele>395</ele>
        <time>2014-03-23T10:19:01Z</time>
      </trkpt>
      <trkpt lat="44.8769" lon="4.80787">
        <ele>393.9</ele>
        <time>2014-03-23T10:19:03Z</time>
      </trkpt>
      <trkpt lat="44.87691" lon="4.80791">
        <ele>393.5</ele>
        <time>2014-03-23T10:19:04Z</time>
      </trkpt>
      <trkpt lat="44.87696" lon="4.80807">
        <ele>390</ele>
        <time>2014-03-23T10:19:08Z</time>
      </trkpt>
      <trkpt lat="44.877" lon="4.80818">
        <ele>387.7</ele>
        <time>2014-03-23T10:19:11Z</time>
      </trkpt>
      <trkpt lat="44.87704" lon="4.80828">
        <ele>383</ele>
        <time>2014-03-23T10:19:21Z</time>
      </trkpt>
      <trkpt lat="44.87709" lon="4.80835">
        <ele>381.5</ele>
        <time>2014-03-23T10:19:26Z</time>
      </trkpt>
      <trkpt lat="44.87713" lon="4.80846">
        <ele>376.6</ele>
        <time>2014-03-23T10:19:33Z</time>
      </trkpt>
      <trkpt lat="44.87718" lon="4.80856">
        <ele>374.5</ele>
        <time>2014-03-23T10:19:36Z</time>
      </trkpt>
      <trkpt lat="44.87722" lon="4.80868">
        <ele>371.6</ele>
        <time>2014-03-23T10:19:39Z</time>
      </trkpt>
      <trkpt lat="44.87727" lon="4.80877">
        <ele>369.6</ele>
        <time>2014-03-23T10:19:41Z</time>
      </trkpt>
      <trkpt lat="44.87731" lon="4.80885">
        <ele>367.3</ele>
        <time>2014-03-23T10:19:43Z</time>
      </trkpt>
      <trkpt lat="44.87738" lon="4.80894">
        <ele>358.7</ele>
        <time>2014-03-23T10:19:52Z</time>
      </trkpt>
      <trkpt lat="44.87741" lon="4.80903">
        <ele>357</ele>
        <time>2014-03-23T10:19:55Z</time>
      </trkpt>
      <trkpt lat="44.87744" lon="4.80914">
        <ele>355.6</ele>
        <time>2014-03-23T10:19:57Z</time>
      </trkpt>
      <trkpt lat="44.87747" lon="4.80924">
        <ele>353.6</ele>
        <time>2014-03-23T10:19:59Z</time>
      </trkpt>
      <trkpt lat="44.87753" lon="4.80932">
        <ele>349.4</ele>
        <time>2014-03-23T10:20:02Z</time>
      </trkpt>
      <trkpt lat="44.87758" lon="4.8094">
        <ele>345.6</ele>
        <time>2014-03-23T10:20:05Z</time>
      </trkpt>
      <trkpt lat="44.8776" lon="4.80943">
        <ele>344.1</ele>
        <time>2014-03-23T10:20:06Z</time>
      </trkpt>
      <trkpt lat="44.87762" lon="4.80965">
        <ele>339</ele>
        <time>2014-03-23T10:20:11Z</time>
      </trkpt>
      <trkpt lat="44.87766" lon="4.80974">
        <ele>336.3</ele>
        <time>2014-03-23T10:20:14Z</time>
      </trkpt>
      <trkpt lat="44.87769" lon="4.80985">
        <ele>333.5</ele>
        <time>2014-03-23T10:20:17Z</time>
      </trkpt>
      <trkpt lat="44.87773" lon="4.80995">
        <ele>331.6</ele>
        <time>2014-03-23T10:20:19Z</time>
      </trkpt>
      <trkpt lat="44.87777" lon="4.81003">
        <ele>329.2</ele>
        <time>2014-03-23T10:20:21Z</time>
      </trkpt>
      <trkpt lat="44.87779" lon="4.81013">
        <ele>326.5</ele>
        <time>2014-03-23T10:20:23Z</time>
      </trkpt>
      <trkpt lat="44.87782" lon="4.8102">
        <ele>323.2</ele>
        <time>2014-03-23T10:20:25Z</time>
      </trkpt>
      <trkpt lat="44.87785" lon="4.8103">
        <ele>321</ele>
        <time>2014-03-23T10:20:27Z</time>
      </trkpt>
      <trkpt lat="44.87789" lon="4.81041">
        <ele>318.1</ele>
        <time>2014-03-23T10:20:29Z</time>
      </trkpt>
      <trkpt lat="44.87791" lon="4.81051">
        <ele>314.8</ele>
        <time>2014-03-23T10:20:31Z</time>
      </trkpt>
      <trkpt lat="44.87794" lon="4.8106">
        <ele>311.3</ele>
        <time>2014-03-23T10:20:33Z</time>
      </trkpt>
      <trkpt lat="44.87797" lon="4.8107">
        <ele>308.3</ele>
        <time>2014-03-23T10:20:35Z</time>
      </trkpt>
      <trkpt lat="44.87803" lon="4.81079">
        <ele>300.5</ele>
        <time>2014-03-23T10:20:41Z</time>
      </trkpt>
      <trkpt lat="44.87808" lon="4.8109">
        <ele>293.6</ele>
        <time>2014-03-23T10:20:55Z</time>
      </trkpt>
      <trkpt lat="44.87813" lon="4.81097">
        <ele>292.7</ele>
        <time>2014-03-23T10:21:12Z</time>
      </trkpt>
      <trkpt lat="44.87815" lon="4.81099">
        <ele>292.7</ele>
        <time>2014-03-23T10:21:13Z</time>
      </trkpt>
      <trkpt lat="44.87816" lon="4.81117">
        <ele>291.5</ele>
        <time>2014-03-23T10:21:18Z</time>
      </trkpt>
      <trkpt lat="44.87812" lon="4.81126">
        <ele>290.4</ele>
        <time>2014-03-23T10:21:20Z</time>
      </trkpt>
      <trkpt lat="44.87807" lon="4.81136">
        <ele>289.1</ele>
        <time>2014-03-23T10:21:23Z</time>
      </trkpt>
      <trkpt lat="44.87806" lon="4.81144">
        <ele>288.1</ele>
        <time>2014-03-23T10:21:26Z</time>
      </trkpt>
      <trkpt lat="44.87808" lon="4.81155">
        <ele>287.4</ele>
        <time>2014-03-23T10:21:28Z</time>
      </trkpt>
      <trkpt lat="44.87809" lon="4.81164">
        <ele>285.2</ele>
        <time>2014-03-23T10:21:30Z</time>
      </trkpt>
      <trkpt lat="44.87813" lon="4.81172">
        <ele>283.7</ele>
        <time>2014-03-23T10:21:32Z</time>
      </trkpt>
      <trkpt lat="44.87815" lon="4.81179">
        <ele>283.2</ele>
        <time>2014-03-23T10:21:33Z</time>
      </trkpt>
      <trkpt lat="44.87814" lon="4.81191">
        <ele>281.5</ele>
        <time>2014-03-23T10:21:35Z</time>
      </trkpt>
      <trkpt lat="44.87811" lon="4.81202">
        <ele>279</ele>
        <time>2014-03-23T10:21:37Z</time>
      </trkpt>
      <trkpt lat="44.87807" lon="4.81213">
        <ele>277.1</ele>
        <time>2014-03-23T10:21:39Z</time>
      </trkpt>
      <trkpt lat="44.87801" lon="4.81217">
        <ele>275.1</ele>
        <time>2014-03-23T10:21:41Z</time>
      </trkpt>
      <trkpt lat="44.87796" lon="4.81224">
        <ele>273.5</ele>
        <time>2014-03-23T10:21:43Z</time>
      </trkpt>
      <trkpt lat="44.87792" lon="4.81233">
        <ele>271.4</ele>
        <time>2014-03-23T10:21:45Z</time>
      </trkpt>
      <trkpt lat="44.87787" lon="4.81238">
        <ele>268.1</ele>
        <time>2014-03-23T10:21:47Z</time>
      </trkpt>
      <trkpt lat="44.87782" lon="4.81245">
        <ele>264.9</ele>
        <time>2014-03-23T10:21:49Z</time>
      </trkpt>
      <trkpt lat="44.87775" lon="4.81249">
        <ele>261.7</ele>
        <time>2014-03-23T10:21:52Z</time>
      </trkpt>
      <trkpt lat="44.87768" lon="4.81254">
        <ele>257.6</ele>
        <time>2014-03-23T10:21:55Z</time>
      </trkpt>
      <trkpt lat="44.87763" lon="4.81256">
        <ele>255.7</ele>
        <time>2014-03-23T10:21:57Z</time>
      </trkpt>
      <trkpt lat="44.87756" lon="4.81258">
        <ele>253.1</ele>
        <time>2014-03-23T10:21:59Z</time>
      </trkpt>
      <trkpt lat="44.87749" lon="4.8126">
        <ele>251.6</ele>
        <time>2014-03-23T10:22:01Z</time>
      </trkpt>
      <trkpt lat="44.87742" lon="4.81266">
        <ele>250.4</ele>
        <time>2014-03-23T10:22:03Z</time>
      </trkpt>
      <trkpt lat="44.87737" lon="4.81274">
        <ele>249.5</ele>
        <time>2014-03-23T10:22:05Z</time>
      </trkpt>
      <trkpt lat="44.87732" lon="4.81282">
        <ele>249</ele>
        <time>2014-03-23T10:22:07Z</time>
      </trkpt>
      <trkpt lat="44.87726" lon="4.81289">
        <ele>248.6</ele>
        <time>2014-03-23T10:22:09Z</time>
      </trkpt>
      <trkpt lat="44.87719" lon="4.81297">
        <ele>248.1</ele>
        <time>2014-03-23T10:22:11Z</time>
      </trkpt>
      <trkpt lat="44.87716" lon="4.81301">
        <ele>247.7</ele>
        <time>2014-03-23T10:22:12Z</time>
      </trkpt>
      <trkpt lat="44.87713" lon="4.81306">
        <ele>247.4</ele>
        <time>2014-03-23T10:22:13Z</time>
      </trkpt>
      <trkpt lat="44.8771" lon="4.81313">
        <ele>247.2</ele>
        <time>2014-03-23T10:22:14Z</time>
      </trkpt>
      <trkpt lat="44.87709" lon="4.81321">
        <ele>247.1</ele>
        <time>2014-03-23T10:22:15Z</time>
      </trkpt>
      <trkpt lat="44.87706" lon="4.81331">
        <ele>247</ele>
        <time>2014-03-23T10:22:16Z</time>
      </trkpt>
      <trkpt lat="44.87703" lon="4.81341">
        <ele>246</ele>
        <time>2014-03-23T10:22:17Z</time>
      </trkpt>
      <trkpt lat="44.877" lon="4.81352">
        <ele>245.3</ele>
        <time>2014-03-23T10:22:18Z</time>
      </trkpt>
      <trkpt lat="44.87695" lon="4.81364">
        <ele>243.9</ele>
        <time>2014-03-23T10:22:19Z</time>
      </trkpt>
      <trkpt lat="44.8769" lon="4.81374">
        <ele>242.8</ele>
        <time>2014-03-23T10:22:20Z</time>
      </trkpt>
      <trkpt lat="44.87684" lon="4.81382">
        <ele>242</ele>
        <time>2014-03-23T10:22:21Z</time>
      </trkpt>
      <trkpt lat="44.87678" lon="4.81389">
        <ele>240.6</ele>
        <time>2014-03-23T10:22:22Z</time>
      </trkpt>
      <trkpt lat="44.87671" lon="4.81398">
        <ele>239.5</ele>
        <time>2014-03-23T10:22:23Z</time>
      </trkpt>
      <trkpt lat="44.87664" lon="4.81407">
        <ele>237.4</ele>
        <time>2014-03-23T10:22:24Z</time>
      </trkpt>
      <trkpt lat="44.87657" lon="4.81416">
        <ele>235.8</ele>
        <time>2014-03-23T10:22:25Z</time>
      </trkpt>
      <trkpt lat="44.87653" lon="4.81424">
        <ele>233.9</ele>
        <time>2014-03-23T10:22:26Z</time>
      </trkpt>
      <trkpt lat="44.87649" lon="4.81433">
        <ele>232.5</ele>
        <time>2014-03-23T10:22:27Z</time>
      </trkpt>
      <trkpt lat="44.87645" lon="4.81443">
        <ele>231.4</ele>
        <time>2014-03-23T10:22:28Z</time>
      </trkpt>
      <trkpt lat="44.8764" lon="4.81452">
        <ele>229.7</ele>
        <time>2014-03-23T10:22:29Z</time>
      </trkpt>
      <trkpt lat="44.87635" lon="4.81461">
        <ele>228.4</ele>
        <time>2014-03-23T10:22:30Z</time>
      </trkpt>
      <trkpt lat="44.87629" lon="4.81468">
        <ele>226.7</ele>
        <time>2014-03-23T10:22:31Z</time>
      </trkpt>
      <trkpt lat="44.87623" lon="4.81473">
        <ele>225.5</ele>
        <time>2014-03-23T10:22:32Z</time>
      </trkpt>
      <trkpt lat="44.87615" lon="4.81478">
        <ele>224.6</ele>
        <time>2014-03-23T10:22:33Z</time>
      </trkpt>
      <trkpt lat="44.87609" lon="4.81484">
        <ele>223.9</ele>
        <time>2014-03-23T10:22:34Z</time>
      </trkpt>
      <trkpt lat="44.87603" lon="4.81491">
        <ele>223.3</ele>
        <time>2014-03-23T10:22:35Z</time>
      </trkpt>
      <trkpt lat="44.87597" lon="4.81497">
        <ele>221.8</ele>
        <time>2014-03-23T10:22:36Z</time>
      </trkpt>
      <trkpt lat="44.87593" lon="4.81502">
        <ele>220.6</ele>
        <time>2014-03-23T10:22:37Z</time>
      </trkpt>
      <trkpt lat="44.87589" lon="4.8151">
        <ele>218</ele>
        <time>2014-03-23T10:22:39Z</time>
      </trkpt>
      <trkpt lat="44.87587" lon="4.81518">
        <ele>216.2</ele>
        <time>2014-03-23T10:22:41Z</time>
      </trkpt>
      <trkpt lat="44.87586" lon="4.81529">
        <ele>214.6</ele>
        <time>2014-03-23T10:22:43Z</time>
      </trkpt>
      <trkpt lat="44.87581" lon="4.81539">
        <ele>213.2</ele>
        <time>2014-03-23T10:22:45Z</time>
      </trkpt>
      <trkpt lat="44.87575" lon="4.81548">
        <ele>212.1</ele>
        <time>2014-03-23T10:22:47Z</time>
      </trkpt>
      <trkpt lat="44.87574" lon="4.81553">
        <ele>211.4</ele>
        <time>2014-03-23T10:22:48Z</time>
      </trkpt>
      <trkpt lat="44.87573" lon="4.8156">
        <ele>210.9</ele>
        <time>2014-03-23T10:22:49Z</time>
      </trkpt>
      <trkpt lat="44.87572" lon="4.81568">
        <ele>210.6</ele>
        <time>2014-03-23T10:22:50Z</time>
      </trkpt>
      <trkpt lat="44.87572" lon="4.81575">
        <ele>210.4</ele>
        <time>2014-03-23T10:22:51Z</time>
      </trkpt>
      <trkpt lat="44.87572" lon="4.81582">
        <ele>209.7</ele>
        <time>2014-03-23T10:22:52Z</time>
      </trkpt>
      <trkpt lat="44.87574" lon="4.8159">
        <ele>209.1</ele>
        <time>2014-03-23T10:22:53Z</time>
      </trkpt>
      <trkpt lat="44.87575" lon="4.81598">
        <ele>208.7</ele>
        <time>2014-03-23T10:22:54Z</time>
      </trkpt>
      <trkpt lat="44.87576" lon="4.81606">
        <ele>207.8</ele>
        <time>2014-03-23T10:22:55Z</time>
      </trkpt>
      <trkpt lat="44.87577" lon="4.81613">
        <ele>207.1</ele>
        <time>2014-03-23T10:22:56Z</time>
      </trkpt>
      <trkpt lat="44.87579" lon="4.81619">
        <ele>206.8</ele>
        <time>2014-03-23T10:22:57Z</time>
      </trkpt>
      <trkpt lat="44.87582" lon="4.81625">
        <ele>206.6</ele>
        <time>2014-03-23T10:22:58Z</time>
      </trkpt>
      <trkpt lat="44.87584" lon="4.8163">
        <ele>206.4</ele>
        <time>2014-03-23T10:22:59Z</time>
      </trkpt>
      <trkpt lat="44.87585" lon="4.81638">
        <ele>205.7</ele>
        <time>2014-03-23T10:23:00Z</time>
      </trkpt>
      <trkpt lat="44.87587" lon="4.81646">
        <ele>205.1</ele>
        <time>2014-03-23T10:23:01Z</time>
      </trkpt>
      <trkpt lat="44.87588" lon="4.81654">
        <ele>204.6</ele>
        <time>2014-03-23T10:23:02Z</time>
      </trkpt>
      <trkpt lat="44.8759" lon="4.81662">
        <ele>204.2</ele>
        <time>2014-03-23T10:23:03Z</time>
      </trkpt>
      <trkpt lat="44.8759" lon="4.8167">
        <ele>203.1</ele>
        <time>2014-03-23T10:23:04Z</time>
      </trkpt>
      <trkpt lat="44.87592" lon="4.81678">
        <ele>202.4</ele>
        <time>2014-03-23T10:23:05Z</time>
      </trkpt>
      <trkpt lat="44.87594" lon="4.81686">
        <ele>201.8</ele>
        <time>2014-03-23T10:23:06Z</time>
      </trkpt>
      <trkpt lat="44.87598" lon="4.81697">
        <ele>200.5</ele>
        <time>2014-03-23T10:23:08Z</time>
      </trkpt>
      <trkpt lat="44.87599" lon="4.81707">
        <ele>198.5</ele>
        <time>2014-03-23T10:23:10Z</time>
      </trkpt>
      <trkpt lat="44.87598" lon="4.81717">
        <ele>195.6</ele>
        <time>2014-03-23T10:23:12Z</time>
      </trkpt>
      <trkpt lat="44.87596" lon="4.81726">
        <ele>193.8</ele>
        <time>2014-03-23T10:23:14Z</time>
      </trkpt>
      <trkpt lat="44.87595" lon="4.81733">
        <ele>193.2</ele>
        <time>2014-03-23T10:23:15Z</time>
      </trkpt>
      <trkpt lat="44.87594" lon="4.81739">
        <ele>192.5</ele>
        <time>2014-03-23T10:23:16Z</time>
      </trkpt>
      <trkpt lat="44.87592" lon="4.81747">
        <ele>192</ele>
        <time>2014-03-23T10:23:17Z</time>
      </trkpt>
      <trkpt lat="44.87591" lon="4.81754">
        <ele>191.6</ele>
        <time>2014-03-23T10:23:18Z</time>
      </trkpt>
      <trkpt lat="44.8759" lon="4.81762">
        <ele>190.4</ele>
        <time>2014-03-23T10:23:19Z</time>
      </trkpt>
      <trkpt lat="44.87588" lon="4.81769">
        <ele>189.4</ele>
        <time>2014-03-23T10:23:20Z</time>
      </trkpt>
      <trkpt lat="44.87585" lon="4.81781">
        <ele>185.6</ele>
        <time>2014-03-23T10:23:24Z</time>
      </trkpt>
      <trkpt lat="44.87584" lon="4.81791">
        <ele>182.4</ele>
        <time>2014-03-23T10:23:31Z</time>
      </trkpt>
      <trkpt lat="44.87583" lon="4.81804">
        <ele>182.1</ele>
        <time>2014-03-23T10:23:40Z</time>
      </trkpt>
      <trkpt lat="44.87585" lon="4.81816">
        <ele>182.3</ele>
        <time>2014-03-23T10:24:04Z</time>
      </trkpt>
      <trkpt lat="44.87589" lon="4.81827">
        <ele>181.8</ele>
        <time>2014-03-23T10:24:17Z</time>
      </trkpt>
      <trkpt lat="44.87591" lon="4.81829">
        <ele>181.8</ele>
        <time>2014-03-23T10:24:18Z</time>
      </trkpt>
      <trkpt lat="44.87604" lon="4.81839">
        <ele>180.7</ele>
        <time>2014-03-23T10:24:23Z</time>
      </trkpt>
      <trkpt lat="44.87611" lon="4.81847">
        <ele>180.2</ele>
        <time>2014-03-23T10:24:26Z</time>
      </trkpt>
      <trkpt lat="44.87617" lon="4.81851">
        <ele>180</ele>
        <time>2014-03-23T10:24:28Z</time>
      </trkpt>
      <trkpt lat="44.87623" lon="4.81859">
        <ele>179.5</ele>
        <time>2014-03-23T10:24:30Z</time>
      </trkpt>
      <trkpt lat="44.87626" lon="4.81863">
        <ele>179.2</ele>
        <time>2014-03-23T10:24:31Z</time>
      </trkpt>
      <trkpt lat="44.8763" lon="4.81867">
        <ele>178.7</ele>
        <time>2014-03-23T10:24:32Z</time>
      </trkpt>
      <trkpt lat="44.87633" lon="4.81872">
        <ele>178.3</ele>
        <time>2014-03-23T10:24:33Z</time>
      </trkpt>
      <trkpt lat="44.87637" lon="4.81882">
        <ele>177.6</ele>
        <time>2014-03-23T10:24:35Z</time>
      </trkpt>
      <trkpt lat="44.8764" lon="4.81892">
        <ele>176.9</ele>
        <time>2014-03-23T10:24:39Z</time>
      </trkpt>
      <trkpt lat="44.87641" lon="4.81904">
        <ele>176.5</ele>
        <time>2014-03-23T10:24:44Z</time>
      </trkpt>
      <trkpt lat="44.87639" lon="4.81915">
        <ele>176.3</ele>
        <time>2014-03-23T10:24:47Z</time>
      </trkpt>
      <trkpt lat="44.87638" lon="4.81924">
        <ele>175.9</ele>
        <time>2014-03-23T10:24:49Z</time>
      </trkpt>
      <trkpt lat="44.87635" lon="4.81932">
        <ele>175.6</ele>
        <time>2014-03-23T10:24:51Z</time>
      </trkpt>
      <trkpt lat="44.87633" lon="4.81941">
        <ele>175.6</ele>
        <time>2014-03-23T10:24:53Z</time>
      </trkpt>
      <trkpt lat="44.87631" lon="4.81951">
        <ele>175.5</ele>
        <time>2014-03-23T10:24:56Z</time>
      </trkpt>
      <trkpt lat="44.87627" lon="4.81961">
        <ele>175.6</ele>
        <time>2014-03-23T10:25:00Z</time>
      </trkpt>
      <trkpt lat="44.87635" lon="4.81958">
        <ele>177.6</ele>
        <time>2014-03-23T10:25:34Z</time>
      </trkpt>
      <trkpt lat="44.87636" lon="4.81958">
        <ele>177.6</ele>
        <time>2014-03-23T10:25:35Z</time>
      </trkpt>
      <trkpt lat="44.87649" lon="4.81973">
        <ele>174.7</ele>
        <time>2014-03-23T10:26:56Z</time>
      </trkpt>
      <trkpt lat="44.87649" lon="4.81974">
        <ele>174.7</ele>
        <time>2014-03-23T10:26:57Z</time>
      </trkpt>
      <trkpt lat="44.87666" lon="4.81975">
        <ele>178</ele>
        <time>2014-03-23T10:27:17Z</time>
      </trkpt>
      <trkpt lat="44.87673" lon="4.81974">
        <ele>179</ele>
        <time>2014-03-23T10:27:22Z</time>
      </trkpt>
      <trkpt lat="44.87681" lon="4.81975">
        <ele>177.9</ele>
        <time>2014-03-23T10:27:25Z</time>
      </trkpt>
      <trkpt lat="44.87689" lon="4.81976">
        <ele>177</ele>
        <time>2014-03-23T10:27:28Z</time>
      </trkpt>
      <trkpt lat="44.87695" lon="4.81977">
        <ele>177.6</ele>
        <time>2014-03-23T10:27:30Z</time>
      </trkpt>
      <trkpt lat="44.87702" lon="4.81978">
        <ele>178.5</ele>
        <time>2014-03-23T10:27:32Z</time>
      </trkpt>
      <trkpt lat="44.87708" lon="4.81978">
        <ele>179.1</ele>
        <time>2014-03-23T10:27:34Z</time>
      </trkpt>
      <trkpt lat="44.87714" lon="4.81979">
        <ele>178.5</ele>
        <time>2014-03-23T10:27:36Z</time>
      </trkpt>
      <trkpt lat="44.8772" lon="4.81979">
        <ele>178.5</ele>
        <time>2014-03-23T10:27:38Z</time>
      </trkpt>
      <trkpt lat="44.87726" lon="4.81981">
        <ele>178.6</ele>
        <time>2014-03-23T10:27:40Z</time>
      </trkpt>
      <trkpt lat="44.87735" lon="4.81982">
        <ele>179</ele>
        <time>2014-03-23T10:27:43Z</time>
      </trkpt>
      <trkpt lat="44.87741" lon="4.81983">
        <ele>179.1</ele>
        <time>2014-03-23T10:27:45Z</time>
      </trkpt>
      <trkpt lat="44.87747" lon="4.81984">
        <ele>179.4</ele>
        <time>2014-03-23T10:27:47Z</time>
      </trkpt>
      <trkpt lat="44.87754" lon="4.81985">
        <ele>179.6</ele>
        <time>2014-03-23T10:27:49Z</time>
      </trkpt>
      <trkpt lat="44.8776" lon="4.81985">
        <ele>179.7</ele>
        <time>2014-03-23T10:27:51Z</time>
      </trkpt>
      <trkpt lat="44.87766" lon="4.81986">
        <ele>179.9</ele>
        <time>2014-03-23T10:27:53Z</time>
      </trkpt>
      <trkpt lat="44.87772" lon="4.81987">
        <ele>180.5</ele>
        <time>2014-03-23T10:27:55Z</time>
      </trkpt>
      <trkpt lat="44.87778" lon="4.81988">
        <ele>180.3</ele>
        <time>2014-03-23T10:27:57Z</time>
      </trkpt>
      <trkpt lat="44.87781" lon="4.81988">
        <ele>180.3</ele>
        <time>2014-03-23T10:27:58Z</time>
      </trkpt>
      <trkpt lat="44.87791" lon="4.81988">
        <ele>180.2</ele>
        <time>2014-03-23T10:28:01Z</time>
      </trkpt>
      <trkpt lat="44.87797" lon="4.81988">
        <ele>180.4</ele>
        <time>2014-03-23T10:28:03Z</time>
      </trkpt>
      <trkpt lat="44.87803" lon="4.81989">
        <ele>180.9</ele>
        <time>2014-03-23T10:28:05Z</time>
      </trkpt>
      <trkpt lat="44.87809" lon="4.8199">
        <ele>181.1</ele>
        <time>2014-03-23T10:28:07Z</time>
      </trkpt>
      <trkpt lat="44.87815" lon="4.8199">
        <ele>181.3</ele>
        <time>2014-03-23T10:28:09Z</time>
      </trkpt>
      <trkpt lat="44.87821" lon="4.81991">
        <ele>181.4</ele>
        <time>2014-03-23T10:28:11Z</time>
      </trkpt>
      <trkpt lat="44.8783" lon="4.81991">
        <ele>181.8</ele>
        <time>2014-03-23T10:28:14Z</time>
      </trkpt>
      <trkpt lat="44.87837" lon="4.81992">
        <ele>181.7</ele>
        <time>2014-03-23T10:28:17Z</time>
      </trkpt>
      <trkpt lat="44.87844" lon="4.81993">
        <ele>182.8</ele>
        <time>2014-03-23T10:28:20Z</time>
      </trkpt>
      <trkpt lat="44.87851" lon="4.81995">
        <ele>183.7</ele>
        <time>2014-03-23T10:28:23Z</time>
      </trkpt>
      <trkpt lat="44.87859" lon="4.81996">
        <ele>184.4</ele>
        <time>2014-03-23T10:28:26Z</time>
      </trkpt>
      <trkpt lat="44.87866" lon="4.81997">
        <ele>184.8</ele>
        <time>2014-03-23T10:28:29Z</time>
      </trkpt>
      <trkpt lat="44.87873" lon="4.81998">
        <ele>185.4</ele>
        <time>2014-03-23T10:28:32Z</time>
      </trkpt>
      <trkpt lat="44.87882" lon="4.81998">
        <ele>186.4</ele>
        <time>2014-03-23T10:28:36Z</time>
      </trkpt>
      <trkpt lat="44.87888" lon="4.81989">
        <ele>187.8</ele>
        <time>2014-03-23T10:28:39Z</time>
      </trkpt>
      <trkpt lat="44.8789" lon="4.81978">
        <ele>188.5</ele>
        <time>2014-03-23T10:28:42Z</time>
      </trkpt>
      <trkpt lat="44.87893" lon="4.81967">
        <ele>189.5</ele>
        <time>2014-03-23T10:28:45Z</time>
      </trkpt>
      <trkpt lat="44.87896" lon="4.81959">
        <ele>189.7</ele>
        <time>2014-03-23T10:28:47Z</time>
      </trkpt>
      <trkpt lat="44.87899" lon="4.81951">
        <ele>189.8</ele>
        <time>2014-03-23T10:28:49Z</time>
      </trkpt>
      <trkpt lat="44.87902" lon="4.81943">
        <ele>190.1</ele>
        <time>2014-03-23T10:28:51Z</time>
      </trkpt>
      <trkpt lat="44.87906" lon="4.81935">
        <ele>190.3</ele>
        <time>2014-03-23T10:28:53Z</time>
      </trkpt>
      <trkpt lat="44.8791" lon="4.81928">
        <ele>190.2</ele>
        <time>2014-03-23T10:28:55Z</time>
      </trkpt>
      <trkpt lat="44.87913" lon="4.8192">
        <ele>190.5</ele>
        <time>2014-03-23T10:28:57Z</time>
      </trkpt>
      <trkpt lat="44.87917" lon="4.81912">
        <ele>190.6</ele>
        <time>2014-03-23T10:28:59Z</time>
      </trkpt>
      <trkpt lat="44.87919" lon="4.81908">
        <ele>190.7</ele>
        <time>2014-03-23T10:29:00Z</time>
      </trkpt>
      <trkpt lat="44.87924" lon="4.81896">
        <ele>190.7</ele>
        <time>2014-03-23T10:29:03Z</time>
      </trkpt>
      <trkpt lat="44.87928" lon="4.81889">
        <ele>191</ele>
        <time>2014-03-23T10:29:05Z</time>
      </trkpt>
      <trkpt lat="44.87931" lon="4.81881">
        <ele>191.4</ele>
        <time>2014-03-23T10:29:07Z</time>
      </trkpt>
      <trkpt lat="44.87935" lon="4.81873">
        <ele>191.4</ele>
        <time>2014-03-23T10:29:09Z</time>
      </trkpt>
      <trkpt lat="44.8794" lon="4.81865">
        <ele>191.8</ele>
        <time>2014-03-23T10:29:11Z</time>
      </trkpt>
      <trkpt lat="44.87945" lon="4.81857">
        <ele>191.6</ele>
        <time>2014-03-23T10:29:13Z</time>
      </trkpt>
      <trkpt lat="44.8795" lon="4.81848">
        <ele>191.5</ele>
        <time>2014-03-23T10:29:15Z</time>
      </trkpt>
      <trkpt lat="44.87954" lon="4.8184">
        <ele>191.3</ele>
        <time>2014-03-23T10:29:17Z</time>
      </trkpt>
      <trkpt lat="44.87958" lon="4.81831">
        <ele>191.1</ele>
        <time>2014-03-23T10:29:19Z</time>
      </trkpt>
      <trkpt lat="44.87963" lon="4.81822">
        <ele>191.1</ele>
        <time>2014-03-23T10:29:21Z</time>
      </trkpt>
      <trkpt lat="44.87968" lon="4.81812">
        <ele>191.4</ele>
        <time>2014-03-23T10:29:23Z</time>
      </trkpt>
      <trkpt lat="44.87971" lon="4.81807">
        <ele>191</ele>
        <time>2014-03-23T10:29:24Z</time>
      </trkpt>
      <trkpt lat="44.87974" lon="4.81802">
        <ele>190.6</ele>
        <time>2014-03-23T10:29:25Z</time>
      </trkpt>
      <trkpt lat="44.87978" lon="4.81797">
        <ele>190.7</ele>
        <time>2014-03-23T10:29:26Z</time>
      </trkpt>
      <trkpt lat="44.87982" lon="4.81793">
        <ele>190.8</ele>
        <time>2014-03-23T10:29:27Z</time>
      </trkpt>
      <trkpt lat="44.87986" lon="4.81789">
        <ele>190.8</ele>
        <time>2014-03-23T10:29:28Z</time>
      </trkpt>
      <trkpt lat="44.87991" lon="4.81785">
        <ele>190.7</ele>
        <time>2014-03-23T10:29:29Z</time>
      </trkpt>
      <trkpt lat="44.87995" lon="4.81782">
        <ele>190.6</ele>
        <time>2014-03-23T10:29:30Z</time>
      </trkpt>
      <trkpt lat="44.88" lon="4.81779">
        <ele>190</ele>
        <time>2014-03-23T10:29:31Z</time>
      </trkpt>
      <trkpt lat="44.88004" lon="4.81776">
        <ele>189.5</ele>
        <time>2014-03-23T10:29:32Z</time>
      </trkpt>
      <trkpt lat="44.88012" lon="4.81771">
        <ele>189</ele>
        <time>2014-03-23T10:29:34Z</time>
      </trkpt>
      <trkpt lat="44.8802" lon="4.81766">
        <ele>188.8</ele>
        <time>2014-03-23T10:29:36Z</time>
      </trkpt>
      <trkpt lat="44.88027" lon="4.81761">
        <ele>188.9</ele>
        <time>2014-03-23T10:29:38Z</time>
      </trkpt>
      <trkpt lat="44.88035" lon="4.81756">
        <ele>189.1</ele>
        <time>2014-03-23T10:29:40Z</time>
      </trkpt>
      <trkpt lat="44.88042" lon="4.8175">
        <ele>189</ele>
        <time>2014-03-23T10:29:42Z</time>
      </trkpt>
      <trkpt lat="44.8805" lon="4.81744">
        <ele>189.3</ele>
        <time>2014-03-23T10:29:44Z</time>
      </trkpt>
      <trkpt lat="44.88057" lon="4.81738">
        <ele>189.4</ele>
        <time>2014-03-23T10:29:46Z</time>
      </trkpt>
      <trkpt lat="44.88063" lon="4.81732">
        <ele>189.4</ele>
        <time>2014-03-23T10:29:48Z</time>
      </trkpt>
      <trkpt lat="44.88069" lon="4.81725">
        <ele>189.3</ele>
        <time>2014-03-23T10:29:50Z</time>
      </trkpt>
      <trkpt lat="44.88074" lon="4.81717">
        <ele>189.2</ele>
        <time>2014-03-23T10:29:52Z</time>
      </trkpt>
      <trkpt lat="44.88076" lon="4.81707">
        <ele>189.2</ele>
        <time>2014-03-23T10:29:54Z</time>
      </trkpt>
      <trkpt lat="44.88078" lon="4.81697">
        <ele>189.3</ele>
        <time>2014-03-23T10:29:56Z</time>
      </trkpt>
      <trkpt lat="44.8808" lon="4.81686">
        <ele>189.1</ele>
        <time>2014-03-23T10:29:58Z</time>
      </trkpt>
      <trkpt lat="44.88083" lon="4.81675">
        <ele>189.2</ele>
        <time>2014-03-23T10:30:00Z</time>
      </trkpt>
      <trkpt lat="44.88085" lon="4.81669">
        <ele>189.4</ele>
        <time>2014-03-23T10:30:01Z</time>
      </trkpt>
      <trkpt lat="44.88093" lon="4.81654">
        <ele>189.6</ele>
        <time>2014-03-23T10:30:04Z</time>
      </trkpt>
      <trkpt lat="44.881" lon="4.81647">
        <ele>189.9</ele>
        <time>2014-03-23T10:30:06Z</time>
      </trkpt>
      <trkpt lat="44.88108" lon="4.81641">
        <ele>189.7</ele>
        <time>2014-03-23T10:30:08Z</time>
      </trkpt>
      <trkpt lat="44.88116" lon="4.81635">
        <ele>188.9</ele>
        <time>2014-03-23T10:30:10Z</time>
      </trkpt>
      <trkpt lat="44.8812" lon="4.81632">
        <ele>188.8</ele>
        <time>2014-03-23T10:30:11Z</time>
      </trkpt>
      <trkpt lat="44.88124" lon="4.81629">
        <ele>188.7</ele>
        <time>2014-03-23T10:30:12Z</time>
      </trkpt>
      <trkpt lat="44.88131" lon="4.81622">
        <ele>188.7</ele>
        <time>2014-03-23T10:30:14Z</time>
      </trkpt>
      <trkpt lat="44.88138" lon="4.81613">
        <ele>188.8</ele>
        <time>2014-03-23T10:30:16Z</time>
      </trkpt>
      <trkpt lat="44.88144" lon="4.81605">
        <ele>189</ele>
        <time>2014-03-23T10:30:18Z</time>
      </trkpt>
      <trkpt lat="44.88149" lon="4.81595">
        <ele>189</ele>
        <time>2014-03-23T10:30:20Z</time>
      </trkpt>
      <trkpt lat="44.88154" lon="4.81585">
        <ele>189.3</ele>
        <time>2014-03-23T10:30:22Z</time>
      </trkpt>
      <trkpt lat="44.88156" lon="4.8158">
        <ele>189.8</ele>
        <time>2014-03-23T10:30:23Z</time>
      </trkpt>
      <trkpt lat="44.88159" lon="4.81574">
        <ele>190.2</ele>
        <time>2014-03-23T10:30:24Z</time>
      </trkpt>
      <trkpt lat="44.88161" lon="4.81569">
        <ele>190.5</ele>
        <time>2014-03-23T10:30:25Z</time>
      </trkpt>
      <trkpt lat="44.88163" lon="4.81563">
        <ele>190.5</ele>
        <time>2014-03-23T10:30:26Z</time>
      </trkpt>
      <trkpt lat="44.88167" lon="4.81552">
        <ele>190.4</ele>
        <time>2014-03-23T10:30:28Z</time>
      </trkpt>
      <trkpt lat="44.88171" lon="4.8154">
        <ele>190.3</ele>
        <time>2014-03-23T10:30:30Z</time>
      </trkpt>
      <trkpt lat="44.88172" lon="4.81529">
        <ele>190.2</ele>
        <time>2014-03-23T10:30:32Z</time>
      </trkpt>
      <trkpt lat="44.88174" lon="4.81517">
        <ele>189.5</ele>
        <time>2014-03-23T10:30:34Z</time>
      </trkpt>
      <trkpt lat="44.88174" lon="4.81505">
        <ele>189.5</ele>
        <time>2014-03-23T10:30:36Z</time>
      </trkpt>
      <trkpt lat="44.88175" lon="4.81494">
        <ele>190.4</ele>
        <time>2014-03-23T10:30:38Z</time>
      </trkpt>
      <trkpt lat="44.88174" lon="4.81483">
        <ele>190.7</ele>
        <time>2014-03-23T10:30:40Z</time>
      </trkpt>
      <trkpt lat="44.88174" lon="4.81473">
        <ele>190.6</ele>
        <time>2014-03-23T10:30:42Z</time>
      </trkpt>
      <trkpt lat="44.88173" lon="4.81462">
        <ele>190.3</ele>
        <time>2014-03-23T10:30:44Z</time>
      </trkpt>
      <trkpt lat="44.88172" lon="4.81452">
        <ele>190.6</ele>
        <time>2014-03-23T10:30:46Z</time>
      </trkpt>
      <trkpt lat="44.88171" lon="4.81441">
        <ele>191</ele>
        <time>2014-03-23T10:30:48Z</time>
      </trkpt>
      <trkpt lat="44.8817" lon="4.81429">
        <ele>191.3</ele>
        <time>2014-03-23T10:30:50Z</time>
      </trkpt>
      <trkpt lat="44.88169" lon="4.81418">
        <ele>191.7</ele>
        <time>2014-03-23T10:30:52Z</time>
      </trkpt>
      <trkpt lat="44.88167" lon="4.81407">
        <ele>192.1</ele>
        <time>2014-03-23T10:30:54Z</time>
      </trkpt>
      <trkpt lat="44.88165" lon="4.81397">
        <ele>192.3</ele>
        <time>2014-03-23T10:30:56Z</time>
      </trkpt>
      <trkpt lat="44.88161" lon="4.8139">
        <ele>192.7</ele>
        <time>2014-03-23T10:30:58Z</time>
      </trkpt>
      <trkpt lat="44.88153" lon="4.81386">
        <ele>193</ele>
        <time>2014-03-23T10:31:01Z</time>
      </trkpt>
      <trkpt lat="44.8815" lon="4.81386">
        <ele>193.1</ele>
        <time>2014-03-23T10:31:02Z</time>
      </trkpt>
      <trkpt lat="44.88152" lon="4.81382">
        <ele>195.2</ele>
        <time>2014-03-23T10:31:21Z</time>
      </trkpt>
      <trkpt lat="44.88159" lon="4.8139">
        <ele>193.7</ele>
        <time>2014-03-23T10:31:24Z</time>
      </trkpt>
      <trkpt lat="44.88162" lon="4.81399">
        <ele>193.5</ele>
        <time>2014-03-23T10:31:26Z</time>
      </trkpt>
      <trkpt lat="44.88164" lon="4.81411">
        <ele>193.5</ele>
        <time>2014-03-23T10:31:28Z</time>
      </trkpt>
      <trkpt lat="44.88165" lon="4.81422">
        <ele>193.4</ele>
        <time>2014-03-23T10:31:30Z</time>
      </trkpt>
      <trkpt lat="44.88167" lon="4.81432">
        <ele>193</ele>
        <time>2014-03-23T10:31:32Z</time>
      </trkpt>
      <trkpt lat="44.88168" lon="4.81442">
        <ele>192.5</ele>
        <time>2014-03-23T10:31:34Z</time>
      </trkpt>
      <trkpt lat="44.8817" lon="4.81454">
        <ele>192.1</ele>
        <time>2014-03-23T10:31:36Z</time>
      </trkpt>
      <trkpt lat="44.88171" lon="4.81464">
        <ele>192.4</ele>
        <time>2014-03-23T10:31:38Z</time>
      </trkpt>
      <trkpt lat="44.88172" lon="4.81475">
        <ele>192.4</ele>
        <time>2014-03-23T10:31:40Z</time>
      </trkpt>
      <trkpt lat="44.88173" lon="4.81487">
        <ele>192.7</ele>
        <time>2014-03-23T10:31:42Z</time>
      </trkpt>
      <trkpt lat="44.88173" lon="4.81493">
        <ele>192.8</ele>
        <time>2014-03-23T10:31:43Z</time>
      </trkpt>
      <trkpt lat="44.88173" lon="4.81501">
        <ele>192.5</ele>
        <time>2014-03-23T10:31:44Z</time>
      </trkpt>
      <trkpt lat="44.88173" lon="4.81508">
        <ele>192.3</ele>
        <time>2014-03-23T10:31:45Z</time>
      </trkpt>
      <trkpt lat="44.88173" lon="4.81515">
        <ele>192.3</ele>
        <time>2014-03-23T10:31:46Z</time>
      </trkpt>
      <trkpt lat="44.88172" lon="4.81523">
        <ele>192.3</ele>
        <time>2014-03-23T10:31:47Z</time>
      </trkpt>
      <trkpt lat="44.88171" lon="4.8153">
        <ele>192.3</ele>
        <time>2014-03-23T10:31:48Z</time>
      </trkpt>
      <trkpt lat="44.8817" lon="4.81537">
        <ele>192.2</ele>
        <time>2014-03-23T10:31:49Z</time>
      </trkpt>
      <trkpt lat="44.88168" lon="4.81544">
        <ele>192.2</ele>
        <time>2014-03-23T10:31:50Z</time>
      </trkpt>
      <trkpt lat="44.88166" lon="4.81551">
        <ele>191.6</ele>
        <time>2014-03-23T10:31:51Z</time>
      </trkpt>
      <trkpt lat="44.88163" lon="4.81557">
        <ele>191.2</ele>
        <time>2014-03-23T10:31:52Z</time>
      </trkpt>
      <trkpt lat="44.88161" lon="4.81563">
        <ele>191</ele>
        <time>2014-03-23T10:31:53Z</time>
      </trkpt>
      <trkpt lat="44.88158" lon="4.81569">
        <ele>190.8</ele>
        <time>2014-03-23T10:31:54Z</time>
      </trkpt>
      <trkpt lat="44.88156" lon="4.81575">
        <ele>190.6</ele>
        <time>2014-03-23T10:31:55Z</time>
      </trkpt>
      <trkpt lat="44.88154" lon="4.8158">
        <ele>190.7</ele>
        <time>2014-03-23T10:31:56Z</time>
      </trkpt>
      <trkpt lat="44.88148" lon="4.8159">
        <ele>190.5</ele>
        <time>2014-03-23T10:31:58Z</time>
      </trkpt>
      <trkpt lat="44.88143" lon="4.81599">
        <ele>190.2</ele>
        <time>2014-03-23T10:32:00Z</time>
      </trkpt>
      <trkpt lat="44.88139" lon="4.81604">
        <ele>190.1</ele>
        <time>2014-03-23T10:32:01Z</time>
      </trkpt>
      <trkpt lat="44.88136" lon="4.81608">
        <ele>189.9</ele>
        <time>2014-03-23T10:32:02Z</time>
      </trkpt>
      <trkpt lat="44.88132" lon="4.81613">
        <ele>189.8</ele>
        <time>2014-03-23T10:32:03Z</time>
      </trkpt>
      <trkpt lat="44.88128" lon="4.81616">
        <ele>189.7</ele>
        <time>2014-03-23T10:32:04Z</time>
      </trkpt>
      <trkpt lat="44.88124" lon="4.81619">
        <ele>190</ele>
        <time>2014-03-23T10:32:05Z</time>
      </trkpt>
      <trkpt lat="44.8812" lon="4.81623">
        <ele>190.2</ele>
        <time>2014-03-23T10:32:06Z</time>
      </trkpt>
      <trkpt lat="44.88115" lon="4.81626">
        <ele>190.3</ele>
        <time>2014-03-23T10:32:07Z</time>
      </trkpt>
      <trkpt lat="44.88111" lon="4.81629">
        <ele>190.1</ele>
        <time>2014-03-23T10:32:08Z</time>
      </trkpt>
      <trkpt lat="44.88106" lon="4.81632">
        <ele>190</ele>
        <time>2014-03-23T10:32:09Z</time>
      </trkpt>
      <trkpt lat="44.88102" lon="4.81636">
        <ele>190</ele>
        <time>2014-03-23T10:32:10Z</time>
      </trkpt>
      <trkpt lat="44.88098" lon="4.8164">
        <ele>189.9</ele>
        <time>2014-03-23T10:32:11Z</time>
      </trkpt>
      <trkpt lat="44.88094" lon="4.81645">
        <ele>189.9</ele>
        <time>2014-03-23T10:32:12Z</time>
      </trkpt>
      <trkpt lat="44.8809" lon="4.81655">
        <ele>189.9</ele>
        <time>2014-03-23T10:32:14Z</time>
      </trkpt>
      <trkpt lat="44.88087" lon="4.8166">
        <ele>191.4</ele>
        <time>2014-03-23T10:32:15Z</time>
      </trkpt>
      <trkpt lat="44.88084" lon="4.81672">
        <ele>193.7</ele>
        <time>2014-03-23T10:32:17Z</time>
      </trkpt>
      <trkpt lat="44.88082" lon="4.81682">
        <ele>195.1</ele>
        <time>2014-03-23T10:32:19Z</time>
      </trkpt>
      <trkpt lat="44.88079" lon="4.81693">
        <ele>194</ele>
        <time>2014-03-23T10:32:21Z</time>
      </trkpt>
      <trkpt lat="44.8808" lon="4.81706">
        <ele>192.9</ele>
        <time>2014-03-23T10:32:23Z</time>
      </trkpt>
      <trkpt lat="44.88083" lon="4.81717">
        <ele>191.7</ele>
        <time>2014-03-23T10:32:25Z</time>
      </trkpt>
      <trkpt lat="44.88087" lon="4.81727">
        <ele>190.9</ele>
        <time>2014-03-23T10:32:27Z</time>
      </trkpt>
      <trkpt lat="44.88091" lon="4.81736">
        <ele>191</ele>
        <time>2014-03-23T10:32:29Z</time>
      </trkpt>
      <trkpt lat="44.88097" lon="4.81744">
        <ele>191.1</ele>
        <time>2014-03-23T10:32:31Z</time>
      </trkpt>
      <trkpt lat="44.88104" lon="4.81751">
        <ele>191</ele>
        <time>2014-03-23T10:32:33Z</time>
      </trkpt>
      <trkpt lat="44.88112" lon="4.81753">
        <ele>190.6</ele>
        <time>2014-03-23T10:32:35Z</time>
      </trkpt>
      <trkpt lat="44.8812" lon="4.8175">
        <ele>191.3</ele>
        <time>2014-03-23T10:32:37Z</time>
      </trkpt>
      <trkpt lat="44.88128" lon="4.81745">
        <ele>191.6</ele>
        <time>2014-03-23T10:32:39Z</time>
      </trkpt>
      <trkpt lat="44.88135" lon="4.81738">
        <ele>191.5</ele>
        <time>2014-03-23T10:32:41Z</time>
      </trkpt>
      <trkpt lat="44.88142" lon="4.81732">
        <ele>191.6</ele>
        <time>2014-03-23T10:32:43Z</time>
      </trkpt>
      <trkpt lat="44.88149" lon="4.81727">
        <ele>191.9</ele>
        <time>2014-03-23T10:32:45Z</time>
      </trkpt>
      <trkpt lat="44.88157" lon="4.81721">
        <ele>191.7</ele>
        <time>2014-03-23T10:32:47Z</time>
      </trkpt>
      <trkpt lat="44.88164" lon="4.81715">
        <ele>191.6</ele>
        <time>2014-03-23T10:32:49Z</time>
      </trkpt>
      <trkpt lat="44.88171" lon="4.81709">
        <ele>192.5</ele>
        <time>2014-03-23T10:32:51Z</time>
      </trkpt>
      <trkpt lat="44.88178" lon="4.81704">
        <ele>193.3</ele>
        <time>2014-03-23T10:32:53Z</time>
      </trkpt>
      <trkpt lat="44.88185" lon="4.81698">
        <ele>193.7</ele>
        <time>2014-03-23T10:32:55Z</time>
      </trkpt>
      <trkpt lat="44.88192" lon="4.81692">
        <ele>193.9</ele>
        <time>2014-03-23T10:32:57Z</time>
      </trkpt>
      <trkpt lat="44.882" lon="4.81686">
        <ele>194</ele>
        <time>2014-03-23T10:32:59Z</time>
      </trkpt>
      <trkpt lat="44.88207" lon="4.81682">
        <ele>195.2</ele>
        <time>2014-03-23T10:33:01Z</time>
      </trkpt>
      <trkpt lat="44.88214" lon="4.81677">
        <ele>195.5</ele>
        <time>2014-03-23T10:33:03Z</time>
      </trkpt>
      <trkpt lat="44.88218" lon="4.81675">
        <ele>195.7</ele>
        <time>2014-03-23T10:33:04Z</time>
      </trkpt>
      <trkpt lat="44.88229" lon="4.81669">
        <ele>194.7</ele>
        <time>2014-03-23T10:33:07Z</time>
      </trkpt>
      <trkpt lat="44.88236" lon="4.81666">
        <ele>195</ele>
        <time>2014-03-23T10:33:09Z</time>
      </trkpt>
      <trkpt lat="44.88243" lon="4.81663">
        <ele>195.5</ele>
        <time>2014-03-23T10:33:11Z</time>
      </trkpt>
      <trkpt lat="44.88249" lon="4.81659">
        <ele>195.5</ele>
        <time>2014-03-23T10:33:13Z</time>
      </trkpt>
      <trkpt lat="44.88255" lon="4.81656">
        <ele>195.6</ele>
        <time>2014-03-23T10:33:15Z</time>
      </trkpt>
      <trkpt lat="44.88262" lon="4.81652">
        <ele>196</ele>
        <time>2014-03-23T10:33:17Z</time>
      </trkpt>
      <trkpt lat="44.88268" lon="4.81648">
        <ele>196.2</ele>
        <time>2014-03-23T10:33:19Z</time>
      </trkpt>
      <trkpt lat="44.88276" lon="4.81644">
        <ele>196</ele>
        <time>2014-03-23T10:33:21Z</time>
      </trkpt>
      <trkpt lat="44.88283" lon="4.81639">
        <ele>195.8</ele>
        <time>2014-03-23T10:33:23Z</time>
      </trkpt>
      <trkpt lat="44.8829" lon="4.81635">
        <ele>196.3</ele>
        <time>2014-03-23T10:33:25Z</time>
      </trkpt>
      <trkpt lat="44.88297" lon="4.8163">
        <ele>197.1</ele>
        <time>2014-03-23T10:33:27Z</time>
      </trkpt>
      <trkpt lat="44.88303" lon="4.81625">
        <ele>197.3</ele>
        <time>2014-03-23T10:33:29Z</time>
      </trkpt>
      <trkpt lat="44.88309" lon="4.8162">
        <ele>197.4</ele>
        <time>2014-03-23T10:33:31Z</time>
      </trkpt>
      <trkpt lat="44.88315" lon="4.81616">
        <ele>197.6</ele>
        <time>2014-03-23T10:33:33Z</time>
      </trkpt>
      <trkpt lat="44.88321" lon="4.8161">
        <ele>197.6</ele>
        <time>2014-03-23T10:33:36Z</time>
      </trkpt>
      <trkpt lat="44.88328" lon="4.81608">
        <ele>198.9</ele>
        <time>2014-03-23T10:33:39Z</time>
      </trkpt>
      <trkpt lat="44.88335" lon="4.81607">
        <ele>199.6</ele>
        <time>2014-03-23T10:33:42Z</time>
      </trkpt>
      <trkpt lat="44.88342" lon="4.81605">
        <ele>201.1</ele>
        <time>2014-03-23T10:33:45Z</time>
      </trkpt>
      <trkpt lat="44.88349" lon="4.816">
        <ele>202.2</ele>
        <time>2014-03-23T10:33:48Z</time>
      </trkpt>
      <trkpt lat="44.88354" lon="4.81592">
        <ele>202.9</ele>
        <time>2014-03-23T10:33:51Z</time>
      </trkpt>
      <trkpt lat="44.88356" lon="4.8158">
        <ele>203.2</ele>
        <time>2014-03-23T10:33:55Z</time>
      </trkpt>
      <trkpt lat="44.88353" lon="4.81569">
        <ele>204.9</ele>
        <time>2014-03-23T10:33:59Z</time>
      </trkpt>
      <trkpt lat="44.88349" lon="4.8156">
        <ele>206.6</ele>
        <time>2014-03-23T10:34:03Z</time>
      </trkpt>
      <trkpt lat="44.88345" lon="4.81549">
        <ele>208.2</ele>
        <time>2014-03-23T10:34:07Z</time>
      </trkpt>
      <trkpt lat="44.88344" lon="4.81547">
        <ele>208.6</ele>
        <time>2014-03-23T10:34:08Z</time>
      </trkpt>
      <trkpt lat="44.88347" lon="4.81526">
        <ele>212.1</ele>
        <time>2014-03-23T10:34:15Z</time>
      </trkpt>
      <trkpt lat="44.88351" lon="4.81516">
        <ele>213</ele>
        <time>2014-03-23T10:34:18Z</time>
      </trkpt>
      <trkpt lat="44.88353" lon="4.81505">
        <ele>213.9</ele>
        <time>2014-03-23T10:34:21Z</time>
      </trkpt>
      <trkpt lat="44.88353" lon="4.81494">
        <ele>214.9</ele>
        <time>2014-03-23T10:34:24Z</time>
      </trkpt>
      <trkpt lat="44.88353" lon="4.81484">
        <ele>216.7</ele>
        <time>2014-03-23T10:34:27Z</time>
      </trkpt>
      <trkpt lat="44.88351" lon="4.81474">
        <ele>217.3</ele>
        <time>2014-03-23T10:34:30Z</time>
      </trkpt>
      <trkpt lat="44.8835" lon="4.81464">
        <ele>217.8</ele>
        <time>2014-03-23T10:34:33Z</time>
      </trkpt>
      <trkpt lat="44.8835" lon="4.81452">
        <ele>218.3</ele>
        <time>2014-03-23T10:34:37Z</time>
      </trkpt>
      <trkpt lat="44.8835" lon="4.8144">
        <ele>218.6</ele>
        <time>2014-03-23T10:34:41Z</time>
      </trkpt>
      <trkpt lat="44.88351" lon="4.81428">
        <ele>220.6</ele>
        <time>2014-03-23T10:34:45Z</time>
      </trkpt>
      <trkpt lat="44.88353" lon="4.81419">
        <ele>221.6</ele>
        <time>2014-03-23T10:34:48Z</time>
      </trkpt>
      <trkpt lat="44.88356" lon="4.81407">
        <ele>222.2</ele>
        <time>2014-03-23T10:34:52Z</time>
      </trkpt>
      <trkpt lat="44.88359" lon="4.81396">
        <ele>222.8</ele>
        <time>2014-03-23T10:34:56Z</time>
      </trkpt>
      <trkpt lat="44.88362" lon="4.81385">
        <ele>223.7</ele>
        <time>2014-03-23T10:35:00Z</time>
      </trkpt>
      <trkpt lat="44.88365" lon="4.81374">
        <ele>224.5</ele>
        <time>2014-03-23T10:35:04Z</time>
      </trkpt>
      <trkpt lat="44.88367" lon="4.81363">
        <ele>225.9</ele>
        <time>2014-03-23T10:35:08Z</time>
      </trkpt>
      <trkpt lat="44.88368" lon="4.81361">
        <ele>226.1</ele>
        <time>2014-03-23T10:35:09Z</time>
      </trkpt>
      <trkpt lat="44.88373" lon="4.81342">
        <ele>226.8</ele>
        <time>2014-03-23T10:35:16Z</time>
      </trkpt>
      <trkpt lat="44.88376" lon="4.8133">
        <ele>228.4</ele>
        <time>2014-03-23T10:35:21Z</time>
      </trkpt>
      <trkpt lat="44.88379" lon="4.8132">
        <ele>229</ele>
        <time>2014-03-23T10:35:25Z</time>
      </trkpt>
      <trkpt lat="44.88381" lon="4.81309">
        <ele>229.8</ele>
        <time>2014-03-23T10:35:29Z</time>
      </trkpt>
      <trkpt lat="44.88384" lon="4.81298">
        <ele>231.4</ele>
        <time>2014-03-23T10:35:33Z</time>
      </trkpt>
      <trkpt lat="44.88387" lon="4.81287">
        <ele>231.9</ele>
        <time>2014-03-23T10:35:37Z</time>
      </trkpt>
      <trkpt lat="44.8839" lon="4.81276">
        <ele>233.4</ele>
        <time>2014-03-23T10:35:41Z</time>
      </trkpt>
      <trkpt lat="44.88392" lon="4.81266">
        <ele>233.8</ele>
        <time>2014-03-23T10:35:45Z</time>
      </trkpt>
      <trkpt lat="44.88395" lon="4.81256">
        <ele>235</ele>
        <time>2014-03-23T10:35:49Z</time>
      </trkpt>
      <trkpt lat="44.88398" lon="4.81244">
        <ele>235.6</ele>
        <time>2014-03-23T10:35:53Z</time>
      </trkpt>
      <trkpt lat="44.88398" lon="4.81234">
        <ele>237</ele>
        <time>2014-03-23T10:35:57Z</time>
      </trkpt>
      <trkpt lat="44.88394" lon="4.81224">
        <ele>238.1</ele>
        <time>2014-03-23T10:36:01Z</time>
      </trkpt>
      <trkpt lat="44.88387" lon="4.81216">
        <ele>237.7</ele>
        <time>2014-03-23T10:36:04Z</time>
      </trkpt>
      <trkpt lat="44.88382" lon="4.81211">
        <ele>237.9</ele>
        <time>2014-03-23T10:36:06Z</time>
      </trkpt>
      <trkpt lat="44.88378" lon="4.81204">
        <ele>237.1</ele>
        <time>2014-03-23T10:36:08Z</time>
      </trkpt>
      <trkpt lat="44.88376" lon="4.81192">
        <ele>237.6</ele>
        <time>2014-03-23T10:36:11Z</time>
      </trkpt>
      <trkpt lat="44.88376" lon="4.81188">
        <ele>237.6</ele>
        <time>2014-03-23T10:36:12Z</time>
      </trkpt>
      <trkpt lat="44.8838" lon="4.81167">
        <ele>237.9</ele>
        <time>2014-03-23T10:36:20Z</time>
      </trkpt>
      <trkpt lat="44.88381" lon="4.81156">
        <ele>238.9</ele>
        <time>2014-03-23T10:36:25Z</time>
      </trkpt>
      <trkpt lat="44.88382" lon="4.81144">
        <ele>240.7</ele>
        <time>2014-03-23T10:36:29Z</time>
      </trkpt>
      <trkpt lat="44.88383" lon="4.81133">
        <ele>242.2</ele>
        <time>2014-03-23T10:36:33Z</time>
      </trkpt>
      <trkpt lat="44.88388" lon="4.81123">
        <ele>242.9</ele>
        <time>2014-03-23T10:36:39Z</time>
      </trkpt>
      <trkpt lat="44.88391" lon="4.81112">
        <ele>245.6</ele>
        <time>2014-03-23T10:36:46Z</time>
      </trkpt>
      <trkpt lat="44.88397" lon="4.81104">
        <ele>247.9</ele>
        <time>2014-03-23T10:36:56Z</time>
      </trkpt>
      <trkpt lat="44.88405" lon="4.81103">
        <ele>249.9</ele>
        <time>2014-03-23T10:37:07Z</time>
      </trkpt>
      <trkpt lat="44.88413" lon="4.81096">
        <ele>250.8</ele>
        <time>2014-03-23T10:37:18Z</time>
      </trkpt>
      <trkpt lat="44.88413" lon="4.81095">
        <ele>251.2</ele>
        <time>2014-03-23T10:37:19Z</time>
      </trkpt>
      <trkpt lat="44.88428" lon="4.81087">
        <ele>259.9</ele>
        <time>2014-03-23T10:37:53Z</time>
      </trkpt>
      <trkpt lat="44.8843" lon="4.81074">
        <ele>265.1</ele>
        <time>2014-03-23T10:38:20Z</time>
      </trkpt>
      <trkpt lat="44.8843" lon="4.81074">
        <ele>265.2</ele>
        <time>2014-03-23T10:38:21Z</time>
      </trkpt>
      <trkpt lat="44.88434" lon="4.81052">
        <ele>272</ele>
        <time>2014-03-23T10:39:26Z</time>
      </trkpt>
      <trkpt lat="44.88434" lon="4.81052">
        <ele>271.8</ele>
        <time>2014-03-23T10:39:27Z</time>
      </trkpt>
      <trkpt lat="44.88451" lon="4.81053">
        <ele>273</ele>
        <time>2014-03-23T10:40:21Z</time>
      </trkpt>
      <trkpt lat="44.8846" lon="4.81051">
        <ele>274.1</ele>
        <time>2014-03-23T10:40:26Z</time>
      </trkpt>
      <trkpt lat="44.88467" lon="4.81048">
        <ele>273.5</ele>
        <time>2014-03-23T10:40:30Z</time>
      </trkpt>
      <trkpt lat="44.88469" lon="4.81047">
        <ele>273.9</ele>
        <time>2014-03-23T10:40:31Z</time>
      </trkpt>
      <trkpt lat="44.88481" lon="4.81041">
        <ele>273.7</ele>
        <time>2014-03-23T10:40:36Z</time>
      </trkpt>
      <trkpt lat="44.88488" lon="4.81038">
        <ele>274.2</ele>
        <time>2014-03-23T10:40:39Z</time>
      </trkpt>
      <trkpt lat="44.88496" lon="4.81035">
        <ele>273.7</ele>
        <time>2014-03-23T10:40:42Z</time>
      </trkpt>
      <trkpt lat="44.88502" lon="4.81031">
        <ele>273.4</ele>
        <time>2014-03-23T10:40:44Z</time>
      </trkpt>
      <trkpt lat="44.88511" lon="4.81027">
        <ele>272.7</ele>
        <time>2014-03-23T10:40:46Z</time>
      </trkpt>
      <trkpt lat="44.88515" lon="4.81025">
        <ele>272.6</ele>
        <time>2014-03-23T10:40:47Z</time>
      </trkpt>
      <trkpt lat="44.8852" lon="4.81024">
        <ele>272.5</ele>
        <time>2014-03-23T10:40:48Z</time>
      </trkpt>
      <trkpt lat="44.88528" lon="4.81022">
        <ele>271.7</ele>
        <time>2014-03-23T10:40:50Z</time>
      </trkpt>
      <trkpt lat="44.88537" lon="4.8102">
        <ele>270.9</ele>
        <time>2014-03-23T10:40:52Z</time>
      </trkpt>
      <trkpt lat="44.88542" lon="4.81019">
        <ele>270.6</ele>
        <time>2014-03-23T10:40:53Z</time>
      </trkpt>
      <trkpt lat="44.8855" lon="4.81017">
        <ele>270</ele>
        <time>2014-03-23T10:40:55Z</time>
      </trkpt>
      <trkpt lat="44.88558" lon="4.81016">
        <ele>269.6</ele>
        <time>2014-03-23T10:40:57Z</time>
      </trkpt>
      <trkpt lat="44.88566" lon="4.81015">
        <ele>269.4</ele>
        <time>2014-03-23T10:40:59Z</time>
      </trkpt>
      <trkpt lat="44.88573" lon="4.81014">
        <ele>269.3</ele>
        <time>2014-03-23T10:41:01Z</time>
      </trkpt>
      <trkpt lat="44.8858" lon="4.81013">
        <ele>270.4</ele>
        <time>2014-03-23T10:41:03Z</time>
      </trkpt>
      <trkpt lat="44.88586" lon="4.81013">
        <ele>270.5</ele>
        <time>2014-03-23T10:41:05Z</time>
      </trkpt>
      <trkpt lat="44.88594" lon="4.81014">
        <ele>270.6</ele>
        <time>2014-03-23T10:41:08Z</time>
      </trkpt>
      <trkpt lat="44.88602" lon="4.81017">
        <ele>271.4</ele>
        <time>2014-03-23T10:41:11Z</time>
      </trkpt>
      <trkpt lat="44.8861" lon="4.81023">
        <ele>271.8</ele>
        <time>2014-03-23T10:41:14Z</time>
      </trkpt>
      <trkpt lat="44.88616" lon="4.81028">
        <ele>271.8</ele>
        <time>2014-03-23T10:41:17Z</time>
      </trkpt>
      <trkpt lat="44.88624" lon="4.81031">
        <ele>271.5</ele>
        <time>2014-03-23T10:41:20Z</time>
      </trkpt>
      <trkpt lat="44.8863" lon="4.81031">
        <ele>271.7</ele>
        <time>2014-03-23T10:41:22Z</time>
      </trkpt>
      <trkpt lat="44.88636" lon="4.81031">
        <ele>272</ele>
        <time>2014-03-23T10:41:24Z</time>
      </trkpt>
      <trkpt lat="44.88643" lon="4.81029">
        <ele>272.8</ele>
        <time>2014-03-23T10:41:26Z</time>
      </trkpt>
      <trkpt lat="44.88651" lon="4.81027">
        <ele>272.9</ele>
        <time>2014-03-23T10:41:29Z</time>
      </trkpt>
      <trkpt lat="44.88659" lon="4.81026">
        <ele>273.6</ele>
        <time>2014-03-23T10:41:32Z</time>
      </trkpt>
      <trkpt lat="44.88662" lon="4.81025">
        <ele>273.5</ele>
        <time>2014-03-23T10:41:33Z</time>
      </trkpt>
      <trkpt lat="44.88674" lon="4.81023">
        <ele>274.1</ele>
        <time>2014-03-23T10:41:37Z</time>
      </trkpt>
      <trkpt lat="44.88682" lon="4.81022">
        <ele>274.4</ele>
        <time>2014-03-23T10:41:40Z</time>
      </trkpt>
      <trkpt lat="44.88688" lon="4.81022">
        <ele>274.5</ele>
        <time>2014-03-23T10:41:42Z</time>
      </trkpt>
      <trkpt lat="44.88695" lon="4.81022">
        <ele>274.2</ele>
        <time>2014-03-23T10:41:44Z</time>
      </trkpt>
      <trkpt lat="44.88701" lon="4.81021">
        <ele>273.9</ele>
        <time>2014-03-23T10:41:46Z</time>
      </trkpt>
      <trkpt lat="44.88708" lon="4.8102">
        <ele>274</ele>
        <time>2014-03-23T10:41:48Z</time>
      </trkpt>
      <trkpt lat="44.88715" lon="4.81018">
        <ele>273.7</ele>
        <time>2014-03-23T10:41:50Z</time>
      </trkpt>
      <trkpt lat="44.8872" lon="4.81014">
        <ele>273.7</ele>
        <time>2014-03-23T10:41:52Z</time>
      </trkpt>
      <trkpt lat="44.88728" lon="4.81008">
        <ele>274.1</ele>
        <time>2014-03-23T10:41:55Z</time>
      </trkpt>
      <trkpt lat="44.88734" lon="4.81001">
        <ele>274.5</ele>
        <time>2014-03-23T10:41:58Z</time>
      </trkpt>
      <trkpt lat="44.8874" lon="4.80996">
        <ele>274.9</ele>
        <time>2014-03-23T10:42:01Z</time>
      </trkpt>
      <trkpt lat="44.88747" lon="4.8099">
        <ele>275.5</ele>
        <time>2014-03-23T10:42:04Z</time>
      </trkpt>
      <trkpt lat="44.88755" lon="4.80985">
        <ele>277.1</ele>
        <time>2014-03-23T10:42:08Z</time>
      </trkpt>
      <trkpt lat="44.88762" lon="4.80982">
        <ele>278.3</ele>
        <time>2014-03-23T10:42:12Z</time>
      </trkpt>
      <trkpt lat="44.88769" lon="4.80979">
        <ele>278.8</ele>
        <time>2014-03-23T10:42:16Z</time>
      </trkpt>
      <trkpt lat="44.88777" lon="4.80976">
        <ele>280</ele>
        <time>2014-03-23T10:42:20Z</time>
      </trkpt>
      <trkpt lat="44.88784" lon="4.80973">
        <ele>280.8</ele>
        <time>2014-03-23T10:42:24Z</time>
      </trkpt>
      <trkpt lat="44.88791" lon="4.8097">
        <ele>282</ele>
        <time>2014-03-23T10:42:28Z</time>
      </trkpt>
      <trkpt lat="44.888" lon="4.80966">
        <ele>284.3</ele>
        <time>2014-03-23T10:42:32Z</time>
      </trkpt>
      <trkpt lat="44.88808" lon="4.80962">
        <ele>285.5</ele>
        <time>2014-03-23T10:42:36Z</time>
      </trkpt>
      <trkpt lat="44.8881" lon="4.80961">
        <ele>285.5</ele>
        <time>2014-03-23T10:42:37Z</time>
      </trkpt>
      <trkpt lat="44.88822" lon="4.80959">
        <ele>286.2</ele>
        <time>2014-03-23T10:42:41Z</time>
      </trkpt>
      <trkpt lat="44.88828" lon="4.80958">
        <ele>286.1</ele>
        <time>2014-03-23T10:42:43Z</time>
      </trkpt>
      <trkpt lat="44.88835" lon="4.80957">
        <ele>286.4</ele>
        <time>2014-03-23T10:42:45Z</time>
      </trkpt>
      <trkpt lat="44.88841" lon="4.80957">
        <ele>286.8</ele>
        <time>2014-03-23T10:42:47Z</time>
      </trkpt>
      <trkpt lat="44.88848" lon="4.80957">
        <ele>287</ele>
        <time>2014-03-23T10:42:49Z</time>
      </trkpt>
      <trkpt lat="44.88854" lon="4.80957">
        <ele>287.3</ele>
        <time>2014-03-23T10:42:51Z</time>
      </trkpt>
      <trkpt lat="44.8886" lon="4.80955">
        <ele>287.5</ele>
        <time>2014-03-23T10:42:53Z</time>
      </trkpt>
      <trkpt lat="44.88866" lon="4.80953">
        <ele>287.7</ele>
        <time>2014-03-23T10:42:55Z</time>
      </trkpt>
      <trkpt lat="44.88872" lon="4.80951">
        <ele>288.1</ele>
        <time>2014-03-23T10:42:57Z</time>
      </trkpt>
      <trkpt lat="44.88878" lon="4.80948">
        <ele>289</ele>
        <time>2014-03-23T10:42:59Z</time>
      </trkpt>
      <trkpt lat="44.88887" lon="4.80945">
        <ele>289.5</ele>
        <time>2014-03-23T10:43:02Z</time>
      </trkpt>
      <trkpt lat="44.88895" lon="4.80943">
        <ele>290.4</ele>
        <time>2014-03-23T10:43:05Z</time>
      </trkpt>
      <trkpt lat="44.88903" lon="4.80941">
        <ele>290.9</ele>
        <time>2014-03-23T10:43:08Z</time>
      </trkpt>
      <trkpt lat="44.88911" lon="4.8094">
        <ele>291.5</ele>
        <time>2014-03-23T10:43:11Z</time>
      </trkpt>
      <trkpt lat="44.88919" lon="4.80938">
        <ele>291.3</ele>
        <time>2014-03-23T10:43:14Z</time>
      </trkpt>
      <trkpt lat="44.88927" lon="4.80937">
        <ele>292.6</ele>
        <time>2014-03-23T10:43:17Z</time>
      </trkpt>
      <trkpt lat="44.88934" lon="4.80934">
        <ele>293.3</ele>
        <time>2014-03-23T10:43:20Z</time>
      </trkpt>
      <trkpt lat="44.88942" lon="4.80931">
        <ele>293.2</ele>
        <time>2014-03-23T10:43:23Z</time>
      </trkpt>
      <trkpt lat="44.88949" lon="4.80928">
        <ele>293.8</ele>
        <time>2014-03-23T10:43:26Z</time>
      </trkpt>
      <trkpt lat="44.88956" lon="4.80924">
        <ele>295.4</ele>
        <time>2014-03-23T10:43:29Z</time>
      </trkpt>
      <trkpt lat="44.88963" lon="4.80921">
        <ele>296.5</ele>
        <time>2014-03-23T10:43:32Z</time>
      </trkpt>
      <trkpt lat="44.88969" lon="4.80916">
        <ele>296.8</ele>
        <time>2014-03-23T10:43:35Z</time>
      </trkpt>
      <trkpt lat="44.88976" lon="4.80912">
        <ele>297.4</ele>
        <time>2014-03-23T10:43:38Z</time>
      </trkpt>
      <trkpt lat="44.88978" lon="4.8091">
        <ele>297.5</ele>
        <time>2014-03-23T10:43:39Z</time>
      </trkpt>
      <trkpt lat="44.88989" lon="4.80904">
        <ele>299.1</ele>
        <time>2014-03-23T10:43:44Z</time>
      </trkpt>
      <trkpt lat="44.88996" lon="4.80902">
        <ele>299.7</ele>
        <time>2014-03-23T10:43:47Z</time>
      </trkpt>
      <trkpt lat="44.89004" lon="4.809">
        <ele>301.5</ele>
        <time>2014-03-23T10:43:50Z</time>
      </trkpt>
      <trkpt lat="44.89011" lon="4.80899">
        <ele>302.6</ele>
        <time>2014-03-23T10:43:53Z</time>
      </trkpt>
      <trkpt lat="44.89019" lon="4.80902">
        <ele>302.6</ele>
        <time>2014-03-23T10:43:56Z</time>
      </trkpt>
      <trkpt lat="44.89028" lon="4.80905">
        <ele>302.9</ele>
        <time>2014-03-23T10:43:59Z</time>
      </trkpt>
      <trkpt lat="44.89034" lon="4.80909">
        <ele>303.7</ele>
        <time>2014-03-23T10:44:01Z</time>
      </trkpt>
      <trkpt lat="44.8904" lon="4.80913">
        <ele>303.3</ele>
        <time>2014-03-23T10:44:03Z</time>
      </trkpt>
      <trkpt lat="44.89047" lon="4.80917">
        <ele>303.9</ele>
        <time>2014-03-23T10:44:05Z</time>
      </trkpt>
      <trkpt lat="44.89053" lon="4.80923">
        <ele>304.1</ele>
        <time>2014-03-23T10:44:07Z</time>
      </trkpt>
      <trkpt lat="44.89061" lon="4.80928">
        <ele>304.1</ele>
        <time>2014-03-23T10:44:09Z</time>
      </trkpt>
      <trkpt lat="44.89067" lon="4.80934">
        <ele>304.1</ele>
        <time>2014-03-23T10:44:11Z</time>
      </trkpt>
      <trkpt lat="44.89073" lon="4.80941">
        <ele>304.6</ele>
        <time>2014-03-23T10:44:13Z</time>
      </trkpt>
      <trkpt lat="44.89079" lon="4.80948">
        <ele>304.3</ele>
        <time>2014-03-23T10:44:15Z</time>
      </trkpt>
      <trkpt lat="44.89084" lon="4.80954">
        <ele>304.6</ele>
        <time>2014-03-23T10:44:17Z</time>
      </trkpt>
      <trkpt lat="44.8909" lon="4.80961">
        <ele>304.9</ele>
        <time>2014-03-23T10:44:19Z</time>
      </trkpt>
      <trkpt lat="44.89095" lon="4.80967">
        <ele>305.3</ele>
        <time>2014-03-23T10:44:21Z</time>
      </trkpt>
      <trkpt lat="44.891" lon="4.80972">
        <ele>305.7</ele>
        <time>2014-03-23T10:44:23Z</time>
      </trkpt>
      <trkpt lat="44.89106" lon="4.80978">
        <ele>305.9</ele>
        <time>2014-03-23T10:44:25Z</time>
      </trkpt>
      <trkpt lat="44.89111" lon="4.80983">
        <ele>306.7</ele>
        <time>2014-03-23T10:44:27Z</time>
      </trkpt>
      <trkpt lat="44.89115" lon="4.80989">
        <ele>307.9</ele>
        <time>2014-03-23T10:44:29Z</time>
      </trkpt>
      <trkpt lat="44.89121" lon="4.80998">
        <ele>308.4</ele>
        <time>2014-03-23T10:44:32Z</time>
      </trkpt>
      <trkpt lat="44.89127" lon="4.81007">
        <ele>309.2</ele>
        <time>2014-03-23T10:44:35Z</time>
      </trkpt>
      <trkpt lat="44.89133" lon="4.81015">
        <ele>310.1</ele>
        <time>2014-03-23T10:44:38Z</time>
      </trkpt>
      <trkpt lat="44.89139" lon="4.81019">
        <ele>310.6</ele>
        <time>2014-03-23T10:44:40Z</time>
      </trkpt>
      <trkpt lat="44.89142" lon="4.81021">
        <ele>310.9</ele>
        <time>2014-03-23T10:44:41Z</time>
      </trkpt>
      <trkpt lat="44.8915" lon="4.81028">
        <ele>312.2</ele>
        <time>2014-03-23T10:44:44Z</time>
      </trkpt>
      <trkpt lat="44.89158" lon="4.81035">
        <ele>313</ele>
        <time>2014-03-23T10:44:47Z</time>
      </trkpt>
      <trkpt lat="44.89165" lon="4.81041">
        <ele>314.3</ele>
        <time>2014-03-23T10:44:50Z</time>
      </trkpt>
      <trkpt lat="44.89171" lon="4.81047">
        <ele>315.2</ele>
        <time>2014-03-23T10:44:52Z</time>
      </trkpt>
      <trkpt lat="44.89176" lon="4.81054">
        <ele>315.9</ele>
        <time>2014-03-23T10:44:54Z</time>
      </trkpt>
      <trkpt lat="44.89184" lon="4.81059">
        <ele>316.2</ele>
        <time>2014-03-23T10:44:56Z</time>
      </trkpt>
      <trkpt lat="44.89189" lon="4.81061">
        <ele>316.3</ele>
        <time>2014-03-23T10:44:57Z</time>
      </trkpt>
      <trkpt lat="44.89194" lon="4.81063">
        <ele>316.4</ele>
        <time>2014-03-23T10:44:58Z</time>
      </trkpt>
      <trkpt lat="44.892" lon="4.81066">
        <ele>316.2</ele>
        <time>2014-03-23T10:44:59Z</time>
      </trkpt>
      <trkpt lat="44.89206" lon="4.81071">
        <ele>316.1</ele>
        <time>2014-03-23T10:45:00Z</time>
      </trkpt>
      <trkpt lat="44.89212" lon="4.81078">
        <ele>315.3</ele>
        <time>2014-03-23T10:45:01Z</time>
      </trkpt>
      <trkpt lat="44.89217" lon="4.81087">
        <ele>314.7</ele>
        <time>2014-03-23T10:45:02Z</time>
      </trkpt>
      <trkpt lat="44.89221" lon="4.81097">
        <ele>314.3</ele>
        <time>2014-03-23T10:45:03Z</time>
      </trkpt>
      <trkpt lat="44.89223" lon="4.8111">
        <ele>313.4</ele>
        <time>2014-03-23T10:45:04Z</time>
      </trkpt>
      <trkpt lat="44.89224" lon="4.81122">
        <ele>312.8</ele>
        <time>2014-03-23T10:45:05Z</time>
      </trkpt>
      <trkpt lat="44.89227" lon="4.81135">
        <ele>311.5</ele>
        <time>2014-03-23T10:45:06Z</time>
      </trkpt>
      <trkpt lat="44.8923" lon="4.81148">
        <ele>310.6</ele>
        <time>2014-03-23T10:45:07Z</time>
      </trkpt>
      <trkpt lat="44.89233" lon="4.81161">
        <ele>309.9</ele>
        <time>2014-03-23T10:45:08Z</time>
      </trkpt>
      <trkpt lat="44.89238" lon="4.81174">
        <ele>308.5</ele>
        <time>2014-03-23T10:45:09Z</time>
      </trkpt>
      <trkpt lat="44.89245" lon="4.81186">
        <ele>307.4</ele>
        <time>2014-03-23T10:45:10Z</time>
      </trkpt>
      <trkpt lat="44.89251" lon="4.81198">
        <ele>305.1</ele>
        <time>2014-03-23T10:45:11Z</time>
      </trkpt>
      <trkpt lat="44.89258" lon="4.81208">
        <ele>303.4</ele>
        <time>2014-03-23T10:45:12Z</time>
      </trkpt>
      <trkpt lat="44.89263" lon="4.8122">
        <ele>302.4</ele>
        <time>2014-03-23T10:45:13Z</time>
      </trkpt>
      <trkpt lat="44.89264" lon="4.81233">
        <ele>301.7</ele>
        <time>2014-03-23T10:45:14Z</time>
      </trkpt>
      <trkpt lat="44.89262" lon="4.81244">
        <ele>301.1</ele>
        <time>2014-03-23T10:45:15Z</time>
      </trkpt>
      <trkpt lat="44.89259" lon="4.81255">
        <ele>300.4</ele>
        <time>2014-03-23T10:45:16Z</time>
      </trkpt>
      <trkpt lat="44.89257" lon="4.81266">
        <ele>299.8</ele>
        <time>2014-03-23T10:45:17Z</time>
      </trkpt>
      <trkpt lat="44.89258" lon="4.81276">
        <ele>299.3</ele>
        <time>2014-03-23T10:45:18Z</time>
      </trkpt>
      <trkpt lat="44.89262" lon="4.81284">
        <ele>298.9</ele>
        <time>2014-03-23T10:45:19Z</time>
      </trkpt>
      <trkpt lat="44.89267" lon="4.8129">
        <ele>298.5</ele>
        <time>2014-03-23T10:45:20Z</time>
      </trkpt>
      <trkpt lat="44.89272" lon="4.81296">
        <ele>298.3</ele>
        <time>2014-03-23T10:45:21Z</time>
      </trkpt>
      <trkpt lat="44.89277" lon="4.81301">
        <ele>298.1</ele>
        <time>2014-03-23T10:45:22Z</time>
      </trkpt>
      <trkpt lat="44.89282" lon="4.81307">
        <ele>298.4</ele>
        <time>2014-03-23T10:45:23Z</time>
      </trkpt>
      <trkpt lat="44.89288" lon="4.81312">
        <ele>298.7</ele>
        <time>2014-03-23T10:45:24Z</time>
      </trkpt>
      <trkpt lat="44.89294" lon="4.81318">
        <ele>298.4</ele>
        <time>2014-03-23T10:45:25Z</time>
      </trkpt>
      <trkpt lat="44.893" lon="4.81324">
        <ele>298.2</ele>
        <time>2014-03-23T10:45:26Z</time>
      </trkpt>
      <trkpt lat="44.89307" lon="4.81329">
        <ele>298</ele>
        <time>2014-03-23T10:45:27Z</time>
      </trkpt>
      <trkpt lat="44.89313" lon="4.81335">
        <ele>297.6</ele>
        <time>2014-03-23T10:45:28Z</time>
      </trkpt>
      <trkpt lat="44.8932" lon="4.8134">
        <ele>297.3</ele>
        <time>2014-03-23T10:45:29Z</time>
      </trkpt>
      <trkpt lat="44.89327" lon="4.81344">
        <ele>297.2</ele>
        <time>2014-03-23T10:45:30Z</time>
      </trkpt>
      <trkpt lat="44.89334" lon="4.81349">
        <ele>297.2</ele>
        <time>2014-03-23T10:45:31Z</time>
      </trkpt>
      <trkpt lat="44.89341" lon="4.81353">
        <ele>297</ele>
        <time>2014-03-23T10:45:32Z</time>
      </trkpt>
      <trkpt lat="44.89347" lon="4.81357">
        <ele>296.8</ele>
        <time>2014-03-23T10:45:33Z</time>
      </trkpt>
      <trkpt lat="44.89351" lon="4.81363">
        <ele>296.7</ele>
        <time>2014-03-23T10:45:34Z</time>
      </trkpt>
      <trkpt lat="44.89355" lon="4.81368">
        <ele>296.6</ele>
        <time>2014-03-23T10:45:35Z</time>
      </trkpt>
      <trkpt lat="44.89358" lon="4.81374">
        <ele>296.6</ele>
        <time>2014-03-23T10:45:36Z</time>
      </trkpt>
      <trkpt lat="44.89361" lon="4.81379">
        <ele>296.8</ele>
        <time>2014-03-23T10:45:37Z</time>
      </trkpt>
      <trkpt lat="44.89364" lon="4.81385">
        <ele>296.9</ele>
        <time>2014-03-23T10:45:38Z</time>
      </trkpt>
      <trkpt lat="44.89367" lon="4.8139">
        <ele>297.1</ele>
        <time>2014-03-23T10:45:39Z</time>
      </trkpt>
      <trkpt lat="44.8937" lon="4.81395">
        <ele>297.2</ele>
        <time>2014-03-23T10:45:40Z</time>
      </trkpt>
      <trkpt lat="44.89373" lon="4.814">
        <ele>297.3</ele>
        <time>2014-03-23T10:45:41Z</time>
      </trkpt>
      <trkpt lat="44.89375" lon="4.81406">
        <ele>297.5</ele>
        <time>2014-03-23T10:45:42Z</time>
      </trkpt>
      <trkpt lat="44.89378" lon="4.81411">
        <ele>297.7</ele>
        <time>2014-03-23T10:45:43Z</time>
      </trkpt>
      <trkpt lat="44.89381" lon="4.81416">
        <ele>297.6</ele>
        <time>2014-03-23T10:45:44Z</time>
      </trkpt>
      <trkpt lat="44.89385" lon="4.81421">
        <ele>297.6</ele>
        <time>2014-03-23T10:45:45Z</time>
      </trkpt>
      <trkpt lat="44.89388" lon="4.81426">
        <ele>297.6</ele>
        <time>2014-03-23T10:45:46Z</time>
      </trkpt>
      <trkpt lat="44.89392" lon="4.81432">
        <ele>297.8</ele>
        <time>2014-03-23T10:45:47Z</time>
      </trkpt>
      <trkpt lat="44.89396" lon="4.81438">
        <ele>298.1</ele>
        <time>2014-03-23T10:45:48Z</time>
      </trkpt>
      <trkpt lat="44.89398" lon="4.81445">
        <ele>297.6</ele>
        <time>2014-03-23T10:45:49Z</time>
      </trkpt>
      <trkpt lat="44.894" lon="4.81452">
        <ele>297.3</ele>
        <time>2014-03-23T10:45:50Z</time>
      </trkpt>
      <trkpt lat="44.89402" lon="4.8146">
        <ele>297.1</ele>
        <time>2014-03-23T10:45:51Z</time>
      </trkpt>
      <trkpt lat="44.89402" lon="4.81467">
        <ele>297</ele>
        <time>2014-03-23T10:45:52Z</time>
      </trkpt>
      <trkpt lat="44.89403" lon="4.81475">
        <ele>296.9</ele>
        <time>2014-03-23T10:45:53Z</time>
      </trkpt>
      <trkpt lat="44.89404" lon="4.81483">
        <ele>297</ele>
        <time>2014-03-23T10:45:54Z</time>
      </trkpt>
      <trkpt lat="44.89405" lon="4.8149">
        <ele>297</ele>
        <time>2014-03-23T10:45:55Z</time>
      </trkpt>
      <trkpt lat="44.89407" lon="4.81497">
        <ele>297.2</ele>
        <time>2014-03-23T10:45:56Z</time>
      </trkpt>
      <trkpt lat="44.89409" lon="4.81503">
        <ele>297.4</ele>
        <time>2014-03-23T10:45:57Z</time>
      </trkpt>
      <trkpt lat="44.89412" lon="4.81509">
        <ele>297.2</ele>
        <time>2014-03-23T10:45:58Z</time>
      </trkpt>
      <trkpt lat="44.89415" lon="4.81515">
        <ele>297.1</ele>
        <time>2014-03-23T10:45:59Z</time>
      </trkpt>
      <trkpt lat="44.89419" lon="4.8152">
        <ele>297</ele>
        <time>2014-03-23T10:46:00Z</time>
      </trkpt>
      <trkpt lat="44.89423" lon="4.81525">
        <ele>297.4</ele>
        <time>2014-03-23T10:46:01Z</time>
      </trkpt>
      <trkpt lat="44.89427" lon="4.8153">
        <ele>297.7</ele>
        <time>2014-03-23T10:46:02Z</time>
      </trkpt>
      <trkpt lat="44.89431" lon="4.81534">
        <ele>297.3</ele>
        <time>2014-03-23T10:46:03Z</time>
      </trkpt>
      <trkpt lat="44.89435" lon="4.81539">
        <ele>296.9</ele>
        <time>2014-03-23T10:46:04Z</time>
      </trkpt>
      <trkpt lat="44.89439" lon="4.81543">
        <ele>296.6</ele>
        <time>2014-03-23T10:46:05Z</time>
      </trkpt>
      <trkpt lat="44.89444" lon="4.81547">
        <ele>296.4</ele>
        <time>2014-03-23T10:46:06Z</time>
      </trkpt>
      <trkpt lat="44.89449" lon="4.8155">
        <ele>296.2</ele>
        <time>2014-03-23T10:46:07Z</time>
      </trkpt>
      <trkpt lat="44.89455" lon="4.81553">
        <ele>295.8</ele>
        <time>2014-03-23T10:46:08Z</time>
      </trkpt>
      <trkpt lat="44.89461" lon="4.81555">
        <ele>295.5</ele>
        <time>2014-03-23T10:46:09Z</time>
      </trkpt>
      <trkpt lat="44.89467" lon="4.81557">
        <ele>294.9</ele>
        <time>2014-03-23T10:46:10Z</time>
      </trkpt>
      <trkpt lat="44.89474" lon="4.81559">
        <ele>294.5</ele>
        <time>2014-03-23T10:46:11Z</time>
      </trkpt>
      <trkpt lat="44.8948" lon="4.81561">
        <ele>294.1</ele>
        <time>2014-03-23T10:46:12Z</time>
      </trkpt>
      <trkpt lat="44.89486" lon="4.81563">
        <ele>293.4</ele>
        <time>2014-03-23T10:46:13Z</time>
      </trkpt>
      <trkpt lat="44.89491" lon="4.81564">
        <ele>292.9</ele>
        <time>2014-03-23T10:46:14Z</time>
      </trkpt>
      <trkpt lat="44.89496" lon="4.81567">
        <ele>292.8</ele>
        <time>2014-03-23T10:46:15Z</time>
      </trkpt>
      <trkpt lat="44.895" lon="4.81569">
        <ele>292.7</ele>
        <time>2014-03-23T10:46:16Z</time>
      </trkpt>
      <trkpt lat="44.89504" lon="4.81572">
        <ele>292.9</ele>
        <time>2014-03-23T10:46:17Z</time>
      </trkpt>
      <trkpt lat="44.89509" lon="4.81574">
        <ele>293.1</ele>
        <time>2014-03-23T10:46:18Z</time>
      </trkpt>
      <trkpt lat="44.89513" lon="4.81577">
        <ele>293.2</ele>
        <time>2014-03-23T10:46:19Z</time>
      </trkpt>
      <trkpt lat="44.89517" lon="4.81581">
        <ele>293.1</ele>
        <time>2014-03-23T10:46:20Z</time>
      </trkpt>
      <trkpt lat="44.89521" lon="4.81584">
        <ele>293.1</ele>
        <time>2014-03-23T10:46:21Z</time>
      </trkpt>
      <trkpt lat="44.89525" lon="4.81588">
        <ele>293.5</ele>
        <time>2014-03-23T10:46:22Z</time>
      </trkpt>
      <trkpt lat="44.8953" lon="4.81592">
        <ele>293.7</ele>
        <time>2014-03-23T10:46:23Z</time>
      </trkpt>
      <trkpt lat="44.89534" lon="4.81596">
        <ele>293.9</ele>
        <time>2014-03-23T10:46:24Z</time>
      </trkpt>
      <trkpt lat="44.89539" lon="4.816">
        <ele>293.4</ele>
        <time>2014-03-23T10:46:25Z</time>
      </trkpt>
      <trkpt lat="44.89543" lon="4.81605">
        <ele>293</ele>
        <time>2014-03-23T10:46:26Z</time>
      </trkpt>
      <trkpt lat="44.89548" lon="4.81609">
        <ele>293</ele>
        <time>2014-03-23T10:46:27Z</time>
      </trkpt>
      <trkpt lat="44.89552" lon="4.81613">
        <ele>293</ele>
        <time>2014-03-23T10:46:28Z</time>
      </trkpt>
      <trkpt lat="44.89556" lon="4.81617">
        <ele>292.9</ele>
        <time>2014-03-23T10:46:29Z</time>
      </trkpt>
      <trkpt lat="44.8956" lon="4.81623">
        <ele>292.9</ele>
        <time>2014-03-23T10:46:30Z</time>
      </trkpt>
      <trkpt lat="44.89562" lon="4.81629">
        <ele>292.8</ele>
        <time>2014-03-23T10:46:31Z</time>
      </trkpt>
      <trkpt lat="44.89563" lon="4.81636">
        <ele>292.6</ele>
        <time>2014-03-23T10:46:32Z</time>
      </trkpt>
      <trkpt lat="44.89564" lon="4.81648">
        <ele>292.5</ele>
        <time>2014-03-23T10:46:34Z</time>
      </trkpt>
      <trkpt lat="44.89563" lon="4.81659">
        <ele>293</ele>
        <time>2014-03-23T10:46:36Z</time>
      </trkpt>
      <trkpt lat="44.89563" lon="4.81669">
        <ele>293.7</ele>
        <time>2014-03-23T10:46:38Z</time>
      </trkpt>
      <trkpt lat="44.89566" lon="4.81678">
        <ele>293.8</ele>
        <time>2014-03-23T10:46:40Z</time>
      </trkpt>
      <trkpt lat="44.8957" lon="4.81686">
        <ele>293.1</ele>
        <time>2014-03-23T10:46:42Z</time>
      </trkpt>
      <trkpt lat="44.89573" lon="4.81689">
        <ele>292.9</ele>
        <time>2014-03-23T10:46:43Z</time>
      </trkpt>
      <trkpt lat="44.89581" lon="4.81698">
        <ele>294</ele>
        <time>2014-03-23T10:46:46Z</time>
      </trkpt>
      <trkpt lat="44.89587" lon="4.81705">
        <ele>293.9</ele>
        <time>2014-03-23T10:46:48Z</time>
      </trkpt>
      <trkpt lat="44.89591" lon="4.81713">
        <ele>293.6</ele>
        <time>2014-03-23T10:46:50Z</time>
      </trkpt>
      <trkpt lat="44.89594" lon="4.81722">
        <ele>293.9</ele>
        <time>2014-03-23T10:46:52Z</time>
      </trkpt>
      <trkpt lat="44.89596" lon="4.81734">
        <ele>295.4</ele>
        <time>2014-03-23T10:46:55Z</time>
      </trkpt>
      <trkpt lat="44.89599" lon="4.81745">
        <ele>297</ele>
        <time>2014-03-23T10:46:59Z</time>
      </trkpt>
      <trkpt lat="44.89604" lon="4.81752">
        <ele>297.5</ele>
        <time>2014-03-23T10:47:02Z</time>
      </trkpt>
      <trkpt lat="44.8961" lon="4.81759">
        <ele>297.6</ele>
        <time>2014-03-23T10:47:04Z</time>
      </trkpt>
      <trkpt lat="44.89618" lon="4.81765">
        <ele>297.7</ele>
        <time>2014-03-23T10:47:06Z</time>
      </trkpt>
      <trkpt lat="44.89625" lon="4.81771">
        <ele>297.8</ele>
        <time>2014-03-23T10:47:09Z</time>
      </trkpt>
      <trkpt lat="44.89632" lon="4.8178">
        <ele>296.7</ele>
        <time>2014-03-23T10:47:12Z</time>
      </trkpt>
      <trkpt lat="44.89635" lon="4.81784">
        <ele>296.2</ele>
        <time>2014-03-23T10:47:13Z</time>
      </trkpt>
      <trkpt lat="44.89639" lon="4.81788">
        <ele>296</ele>
        <time>2014-03-23T10:47:14Z</time>
      </trkpt>
      <trkpt lat="44.89644" lon="4.8179">
        <ele>295.9</ele>
        <time>2014-03-23T10:47:15Z</time>
      </trkpt>
      <trkpt lat="44.89651" lon="4.81794">
        <ele>295.3</ele>
        <time>2014-03-23T10:47:18Z</time>
      </trkpt>
      <trkpt lat="44.89659" lon="4.81796">
        <ele>294.3</ele>
        <time>2014-03-23T10:47:22Z</time>
      </trkpt>
      <trkpt lat="44.89667" lon="4.81794">
        <ele>293.7</ele>
        <time>2014-03-23T10:47:25Z</time>
      </trkpt>
      <trkpt lat="44.89659" lon="4.81799">
        <ele>293.1</ele>
        <time>2014-03-23T10:47:47Z</time>
      </trkpt>
      <trkpt lat="44.89656" lon="4.81799">
        <ele>293.1</ele>
        <time>2014-03-23T10:47:48Z</time>
      </trkpt>
      <trkpt lat="44.89649" lon="4.81813">
        <ele>289.3</ele>
        <time>2014-03-23T10:47:59Z</time>
      </trkpt>
      <trkpt lat="44.89641" lon="4.81818">
        <ele>286.6</ele>
        <time>2014-03-23T10:48:07Z</time>
      </trkpt>
      <trkpt lat="44.89642" lon="4.81828">
        <ele>285.4</ele>
        <time>2014-03-23T10:48:12Z</time>
      </trkpt>
      <trkpt lat="44.89645" lon="4.81838">
        <ele>282.8</ele>
        <time>2014-03-23T10:48:16Z</time>
      </trkpt>
      <trkpt lat="44.89651" lon="4.81845">
        <ele>280.8</ele>
        <time>2014-03-23T10:48:19Z</time>
      </trkpt>
      <trkpt lat="44.89656" lon="4.81854">
        <ele>278.8</ele>
        <time>2014-03-23T10:48:23Z</time>
      </trkpt>
      <trkpt lat="44.89659" lon="4.81863">
        <ele>277.1</ele>
        <time>2014-03-23T10:48:26Z</time>
      </trkpt>
      <trkpt lat="44.89663" lon="4.81874">
        <ele>273.7</ele>
        <time>2014-03-23T10:48:30Z</time>
      </trkpt>
      <trkpt lat="44.89659" lon="4.81883">
        <ele>271.6</ele>
        <time>2014-03-23T10:48:33Z</time>
      </trkpt>
      <trkpt lat="44.89651" lon="4.81888">
        <ele>269.9</ele>
        <time>2014-03-23T10:48:35Z</time>
      </trkpt>
      <trkpt lat="44.89653" lon="4.81899">
        <ele>267</ele>
        <time>2014-03-23T10:48:38Z</time>
      </trkpt>
      <trkpt lat="44.89657" lon="4.81903">
        <ele>266.3</ele>
        <time>2014-03-23T10:48:39Z</time>
      </trkpt>
      <trkpt lat="44.89662" lon="4.81908">
        <ele>265.9</ele>
        <time>2014-03-23T10:48:40Z</time>
      </trkpt>
      <trkpt lat="44.89669" lon="4.81912">
        <ele>265.6</ele>
        <time>2014-03-23T10:48:41Z</time>
      </trkpt>
      <trkpt lat="44.89675" lon="4.81914">
        <ele>264.4</ele>
        <time>2014-03-23T10:48:42Z</time>
      </trkpt>
      <trkpt lat="44.89684" lon="4.81914">
        <ele>260.5</ele>
        <time>2014-03-23T10:48:46Z</time>
      </trkpt>
      <trkpt lat="44.89689" lon="4.8192">
        <ele>257.2</ele>
        <time>2014-03-23T10:48:50Z</time>
      </trkpt>
      <trkpt lat="44.89691" lon="4.81922">
        <ele>256.7</ele>
        <time>2014-03-23T10:48:51Z</time>
      </trkpt>
      <trkpt lat="44.897" lon="4.81923">
        <ele>256.6</ele>
        <time>2014-03-23T10:48:53Z</time>
      </trkpt>
      <trkpt lat="44.89706" lon="4.81923">
        <ele>256.2</ele>
        <time>2014-03-23T10:48:54Z</time>
      </trkpt>
      <trkpt lat="44.89713" lon="4.81923">
        <ele>255.8</ele>
        <time>2014-03-23T10:48:55Z</time>
      </trkpt>
      <trkpt lat="44.8972" lon="4.81922">
        <ele>255.7</ele>
        <time>2014-03-23T10:48:56Z</time>
      </trkpt>
      <trkpt lat="44.89727" lon="4.81922">
        <ele>255.7</ele>
        <time>2014-03-23T10:48:57Z</time>
      </trkpt>
      <trkpt lat="44.89734" lon="4.81922">
        <ele>255.7</ele>
        <time>2014-03-23T10:48:58Z</time>
      </trkpt>
      <trkpt lat="44.89742" lon="4.81921">
        <ele>255.4</ele>
        <time>2014-03-23T10:48:59Z</time>
      </trkpt>
      <trkpt lat="44.8975" lon="4.81921">
        <ele>255.2</ele>
        <time>2014-03-23T10:49:00Z</time>
      </trkpt>
      <trkpt lat="44.89758" lon="4.8192">
        <ele>254.8</ele>
        <time>2014-03-23T10:49:01Z</time>
      </trkpt>
      <trkpt lat="44.89766" lon="4.8192">
        <ele>254.4</ele>
        <time>2014-03-23T10:49:02Z</time>
      </trkpt>
      <trkpt lat="44.89775" lon="4.81919">
        <ele>253.6</ele>
        <time>2014-03-23T10:49:03Z</time>
      </trkpt>
      <trkpt lat="44.89784" lon="4.81918">
        <ele>253.1</ele>
        <time>2014-03-23T10:49:04Z</time>
      </trkpt>
      <trkpt lat="44.89793" lon="4.81917">
        <ele>252.6</ele>
        <time>2014-03-23T10:49:05Z</time>
      </trkpt>
      <trkpt lat="44.89802" lon="4.81915">
        <ele>252.4</ele>
        <time>2014-03-23T10:49:06Z</time>
      </trkpt>
      <trkpt lat="44.8981" lon="4.81913">
        <ele>252.2</ele>
        <time>2014-03-23T10:49:07Z</time>
      </trkpt>
      <trkpt lat="44.89819" lon="4.8191">
        <ele>251.8</ele>
        <time>2014-03-23T10:49:08Z</time>
      </trkpt>
      <trkpt lat="44.89828" lon="4.81907">
        <ele>251.4</ele>
        <time>2014-03-23T10:49:09Z</time>
      </trkpt>
      <trkpt lat="44.89837" lon="4.81904">
        <ele>251.2</ele>
        <time>2014-03-23T10:49:10Z</time>
      </trkpt>
      <trkpt lat="44.89846" lon="4.819">
        <ele>250.8</ele>
        <time>2014-03-23T10:49:11Z</time>
      </trkpt>
      <trkpt lat="44.89855" lon="4.81897">
        <ele>250.4</ele>
        <time>2014-03-23T10:49:12Z</time>
      </trkpt>
      <trkpt lat="44.89863" lon="4.81894">
        <ele>249.7</ele>
        <time>2014-03-23T10:49:13Z</time>
      </trkpt>
      <trkpt lat="44.89872" lon="4.81891">
        <ele>249.1</ele>
        <time>2014-03-23T10:49:14Z</time>
      </trkpt>
      <trkpt lat="44.89881" lon="4.81888">
        <ele>248.5</ele>
        <time>2014-03-23T10:49:15Z</time>
      </trkpt>
      <trkpt lat="44.89891" lon="4.81886">
        <ele>248.1</ele>
        <time>2014-03-23T10:49:16Z</time>
      </trkpt>
      <trkpt lat="44.899" lon="4.81884">
        <ele>247.8</ele>
        <time>2014-03-23T10:49:17Z</time>
      </trkpt>
      <trkpt lat="44.89909" lon="4.81883">
        <ele>247.1</ele>
        <time>2014-03-23T10:49:18Z</time>
      </trkpt>
      <trkpt lat="44.89918" lon="4.81882">
        <ele>246.6</ele>
        <time>2014-03-23T10:49:19Z</time>
      </trkpt>
      <trkpt lat="44.89928" lon="4.81882">
        <ele>246.1</ele>
        <time>2014-03-23T10:49:20Z</time>
      </trkpt>
      <trkpt lat="44.89937" lon="4.81882">
        <ele>245.8</ele>
        <time>2014-03-23T10:49:21Z</time>
      </trkpt>
      <trkpt lat="44.89946" lon="4.81882">
        <ele>245.3</ele>
        <time>2014-03-23T10:49:22Z</time>
      </trkpt>
      <trkpt lat="44.89955" lon="4.81884">
        <ele>244.9</ele>
        <time>2014-03-23T10:49:23Z</time>
      </trkpt>
      <trkpt lat="44.89964" lon="4.81886">
        <ele>244.6</ele>
        <time>2014-03-23T10:49:24Z</time>
      </trkpt>
      <trkpt lat="44.89973" lon="4.81888">
        <ele>244.1</ele>
        <time>2014-03-23T10:49:25Z</time>
      </trkpt>
      <trkpt lat="44.89982" lon="4.81891">
        <ele>243.7</ele>
        <time>2014-03-23T10:49:26Z</time>
      </trkpt>
      <trkpt lat="44.89991" lon="4.81893">
        <ele>243.2</ele>
        <time>2014-03-23T10:49:27Z</time>
      </trkpt>
      <trkpt lat="44.9" lon="4.81897">
        <ele>242.8</ele>
        <time>2014-03-23T10:49:28Z</time>
      </trkpt>
      <trkpt lat="44.90009" lon="4.819">
        <ele>242.6</ele>
        <time>2014-03-23T10:49:29Z</time>
      </trkpt>
      <trkpt lat="44.90017" lon="4.81905">
        <ele>242.1</ele>
        <time>2014-03-23T10:49:30Z</time>
      </trkpt>
      <trkpt lat="44.90026" lon="4.81909">
        <ele>241.7</ele>
        <time>2014-03-23T10:49:31Z</time>
      </trkpt>
      <trkpt lat="44.90034" lon="4.81914">
        <ele>241.2</ele>
        <time>2014-03-23T10:49:32Z</time>
      </trkpt>
      <trkpt lat="44.90043" lon="4.81919">
        <ele>240.8</ele>
        <time>2014-03-23T10:49:33Z</time>
      </trkpt>
      <trkpt lat="44.90051" lon="4.81924">
        <ele>240.2</ele>
        <time>2014-03-23T10:49:34Z</time>
      </trkpt>
      <trkpt lat="44.90059" lon="4.8193">
        <ele>239.7</ele>
        <time>2014-03-23T10:49:35Z</time>
      </trkpt>
      <trkpt lat="44.90067" lon="4.81936">
        <ele>239.4</ele>
        <time>2014-03-23T10:49:36Z</time>
      </trkpt>
      <trkpt lat="44.90075" lon="4.81941">
        <ele>239</ele>
        <time>2014-03-23T10:49:37Z</time>
      </trkpt>
      <trkpt lat="44.90083" lon="4.81947">
        <ele>238.7</ele>
        <time>2014-03-23T10:49:38Z</time>
      </trkpt>
      <trkpt lat="44.90091" lon="4.81953">
        <ele>238</ele>
        <time>2014-03-23T10:49:39Z</time>
      </trkpt>
      <trkpt lat="44.90099" lon="4.81959">
        <ele>237.4</ele>
        <time>2014-03-23T10:49:40Z</time>
      </trkpt>
      <trkpt lat="44.90107" lon="4.81965">
        <ele>236.7</ele>
        <time>2014-03-23T10:49:41Z</time>
      </trkpt>
      <trkpt lat="44.90115" lon="4.81971">
        <ele>236.1</ele>
        <time>2014-03-23T10:49:42Z</time>
      </trkpt>
      <trkpt lat="44.90122" lon="4.81977">
        <ele>235.7</ele>
        <time>2014-03-23T10:49:43Z</time>
      </trkpt>
      <trkpt lat="44.9013" lon="4.81983">
        <ele>235.4</ele>
        <time>2014-03-23T10:49:44Z</time>
      </trkpt>
      <trkpt lat="44.90138" lon="4.81988">
        <ele>235.2</ele>
        <time>2014-03-23T10:49:45Z</time>
      </trkpt>
      <trkpt lat="44.90145" lon="4.81994">
        <ele>234.9</ele>
        <time>2014-03-23T10:49:46Z</time>
      </trkpt>
      <trkpt lat="44.90153" lon="4.82">
        <ele>234.6</ele>
        <time>2014-03-23T10:49:47Z</time>
      </trkpt>
      <trkpt lat="44.90161" lon="4.82006">
        <ele>234.4</ele>
        <time>2014-03-23T10:49:48Z</time>
      </trkpt>
      <trkpt lat="44.90169" lon="4.82012">
        <ele>234.5</ele>
        <time>2014-03-23T10:49:49Z</time>
      </trkpt>
      <trkpt lat="44.90178" lon="4.82017">
        <ele>234.6</ele>
        <time>2014-03-23T10:49:50Z</time>
      </trkpt>
      <trkpt lat="44.90186" lon="4.82022">
        <ele>234.6</ele>
        <time>2014-03-23T10:49:51Z</time>
      </trkpt>
      <trkpt lat="44.90194" lon="4.82027">
        <ele>234.7</ele>
        <time>2014-03-23T10:49:52Z</time>
      </trkpt>
      <trkpt lat="44.90202" lon="4.82032">
        <ele>234.7</ele>
        <time>2014-03-23T10:49:53Z</time>
      </trkpt>
      <trkpt lat="44.9021" lon="4.82037">
        <ele>234.7</ele>
        <time>2014-03-23T10:49:54Z</time>
      </trkpt>
      <trkpt lat="44.90217" lon="4.82042">
        <ele>234.8</ele>
        <time>2014-03-23T10:49:55Z</time>
      </trkpt>
      <trkpt lat="44.90225" lon="4.82048">
        <ele>234.9</ele>
        <time>2014-03-23T10:49:56Z</time>
      </trkpt>
      <trkpt lat="44.90232" lon="4.82053">
        <ele>235</ele>
        <time>2014-03-23T10:49:57Z</time>
      </trkpt>
      <trkpt lat="44.9024" lon="4.82058">
        <ele>234.9</ele>
        <time>2014-03-23T10:49:58Z</time>
      </trkpt>
      <trkpt lat="44.90247" lon="4.82063">
        <ele>234.9</ele>
        <time>2014-03-23T10:49:59Z</time>
      </trkpt>
      <trkpt lat="44.90254" lon="4.82068">
        <ele>235.2</ele>
        <time>2014-03-23T10:50:00Z</time>
      </trkpt>
      <trkpt lat="44.90261" lon="4.82072">
        <ele>235.5</ele>
        <time>2014-03-23T10:50:01Z</time>
      </trkpt>
      <trkpt lat="44.90267" lon="4.82077">
        <ele>235.7</ele>
        <time>2014-03-23T10:50:02Z</time>
      </trkpt>
      <trkpt lat="44.90274" lon="4.82081">
        <ele>235.7</ele>
        <time>2014-03-23T10:50:03Z</time>
      </trkpt>
      <trkpt lat="44.9028" lon="4.82085">
        <ele>235.7</ele>
        <time>2014-03-23T10:50:04Z</time>
      </trkpt>
      <trkpt lat="44.90286" lon="4.82089">
        <ele>235.3</ele>
        <time>2014-03-23T10:50:05Z</time>
      </trkpt>
      <trkpt lat="44.90292" lon="4.82093">
        <ele>235.1</ele>
        <time>2014-03-23T10:50:06Z</time>
      </trkpt>
      <trkpt lat="44.90297" lon="4.82096">
        <ele>234.9</ele>
        <time>2014-03-23T10:50:07Z</time>
      </trkpt>
      <trkpt lat="44.90303" lon="4.821">
        <ele>234.4</ele>
        <time>2014-03-23T10:50:08Z</time>
      </trkpt>
      <trkpt lat="44.90308" lon="4.82104">
        <ele>234</ele>
        <time>2014-03-23T10:50:09Z</time>
      </trkpt>
      <trkpt lat="44.90314" lon="4.82108">
        <ele>233.8</ele>
        <time>2014-03-23T10:50:10Z</time>
      </trkpt>
      <trkpt lat="44.90319" lon="4.82112">
        <ele>233.6</ele>
        <time>2014-03-23T10:50:11Z</time>
      </trkpt>
      <trkpt lat="44.90325" lon="4.82116">
        <ele>233.8</ele>
        <time>2014-03-23T10:50:12Z</time>
      </trkpt>
      <trkpt lat="44.9033" lon="4.8212">
        <ele>233.9</ele>
        <time>2014-03-23T10:50:13Z</time>
      </trkpt>
      <trkpt lat="44.90336" lon="4.82124">
        <ele>234</ele>
        <time>2014-03-23T10:50:14Z</time>
      </trkpt>
      <trkpt lat="44.90341" lon="4.82127">
        <ele>233.9</ele>
        <time>2014-03-23T10:50:15Z</time>
      </trkpt>
      <trkpt lat="44.90346" lon="4.82132">
        <ele>233.8</ele>
        <time>2014-03-23T10:50:16Z</time>
      </trkpt>
      <trkpt lat="44.90352" lon="4.82136">
        <ele>233.5</ele>
        <time>2014-03-23T10:50:17Z</time>
      </trkpt>
      <trkpt lat="44.90357" lon="4.8214">
        <ele>233.2</ele>
        <time>2014-03-23T10:50:18Z</time>
      </trkpt>
      <trkpt lat="44.90363" lon="4.82144">
        <ele>232.7</ele>
        <time>2014-03-23T10:50:19Z</time>
      </trkpt>
      <trkpt lat="44.90368" lon="4.82148">
        <ele>232.3</ele>
        <time>2014-03-23T10:50:20Z</time>
      </trkpt>
      <trkpt lat="44.90374" lon="4.82152">
        <ele>232</ele>
        <time>2014-03-23T10:50:21Z</time>
      </trkpt>
      <trkpt lat="44.90379" lon="4.82157">
        <ele>232.3</ele>
        <time>2014-03-23T10:50:22Z</time>
      </trkpt>
      <trkpt lat="44.90385" lon="4.82161">
        <ele>232.5</ele>
        <time>2014-03-23T10:50:23Z</time>
      </trkpt>
      <trkpt lat="44.90391" lon="4.82165">
        <ele>232.7</ele>
        <time>2014-03-23T10:50:24Z</time>
      </trkpt>
      <trkpt lat="44.90396" lon="4.8217">
        <ele>232.8</ele>
        <time>2014-03-23T10:50:25Z</time>
      </trkpt>
      <trkpt lat="44.90402" lon="4.82174">
        <ele>232.9</ele>
        <time>2014-03-23T10:50:26Z</time>
      </trkpt>
      <trkpt lat="44.90407" lon="4.82179">
        <ele>232.6</ele>
        <time>2014-03-23T10:50:27Z</time>
      </trkpt>
      <trkpt lat="44.90413" lon="4.82183">
        <ele>232.4</ele>
        <time>2014-03-23T10:50:28Z</time>
      </trkpt>
      <trkpt lat="44.90419" lon="4.82188">
        <ele>232.6</ele>
        <time>2014-03-23T10:50:29Z</time>
      </trkpt>
      <trkpt lat="44.90424" lon="4.82192">
        <ele>232.8</ele>
        <time>2014-03-23T10:50:30Z</time>
      </trkpt>
      <trkpt lat="44.9043" lon="4.82197">
        <ele>232.2</ele>
        <time>2014-03-23T10:50:31Z</time>
      </trkpt>
      <trkpt lat="44.90435" lon="4.82201">
        <ele>231.8</ele>
        <time>2014-03-23T10:50:32Z</time>
      </trkpt>
      <trkpt lat="44.90441" lon="4.82205">
        <ele>231.5</ele>
        <time>2014-03-23T10:50:33Z</time>
      </trkpt>
      <trkpt lat="44.90446" lon="4.82209">
        <ele>231.7</ele>
        <time>2014-03-23T10:50:34Z</time>
      </trkpt>
      <trkpt lat="44.90452" lon="4.82214">
        <ele>231.9</ele>
        <time>2014-03-23T10:50:35Z</time>
      </trkpt>
      <trkpt lat="44.90458" lon="4.82218">
        <ele>231.6</ele>
        <time>2014-03-23T10:50:36Z</time>
      </trkpt>
      <trkpt lat="44.90463" lon="4.82223">
        <ele>231.3</ele>
        <time>2014-03-23T10:50:37Z</time>
      </trkpt>
      <trkpt lat="44.90469" lon="4.82227">
        <ele>231.2</ele>
        <time>2014-03-23T10:50:38Z</time>
      </trkpt>
      <trkpt lat="44.90475" lon="4.82232">
        <ele>231.1</ele>
        <time>2014-03-23T10:50:39Z</time>
      </trkpt>
      <trkpt lat="44.90481" lon="4.82236">
        <ele>231</ele>
        <time>2014-03-23T10:50:40Z</time>
      </trkpt>
      <trkpt lat="44.90487" lon="4.82241">
        <ele>230.8</ele>
        <time>2014-03-23T10:50:41Z</time>
      </trkpt>
      <trkpt lat="44.90493" lon="4.82246">
        <ele>230.6</ele>
        <time>2014-03-23T10:50:42Z</time>
      </trkpt>
      <trkpt lat="44.90499" lon="4.8225">
        <ele>230.7</ele>
        <time>2014-03-23T10:50:43Z</time>
      </trkpt>
      <trkpt lat="44.90505" lon="4.82255">
        <ele>230.7</ele>
        <time>2014-03-23T10:50:44Z</time>
      </trkpt>
      <trkpt lat="44.9051" lon="4.8226">
        <ele>230.7</ele>
        <time>2014-03-23T10:50:45Z</time>
      </trkpt>
      <trkpt lat="44.90516" lon="4.82265">
        <ele>230.9</ele>
        <time>2014-03-23T10:50:46Z</time>
      </trkpt>
      <trkpt lat="44.90522" lon="4.8227">
        <ele>231</ele>
        <time>2014-03-23T10:50:47Z</time>
      </trkpt>
      <trkpt lat="44.90527" lon="4.82275">
        <ele>231.2</ele>
        <time>2014-03-23T10:50:48Z</time>
      </trkpt>
      <trkpt lat="44.90532" lon="4.82281">
        <ele>231.4</ele>
        <time>2014-03-23T10:50:49Z</time>
      </trkpt>
      <trkpt lat="44.90538" lon="4.82286">
        <ele>231.5</ele>
        <time>2014-03-23T10:50:50Z</time>
      </trkpt>
      <trkpt lat="44.90543" lon="4.82292">
        <ele>231.6</ele>
        <time>2014-03-23T10:50:51Z</time>
      </trkpt>
      <trkpt lat="44.90548" lon="4.82298">
        <ele>231.7</ele>
        <time>2014-03-23T10:50:52Z</time>
      </trkpt>
      <trkpt lat="44.90553" lon="4.82304">
        <ele>231.6</ele>
        <time>2014-03-23T10:50:53Z</time>
      </trkpt>
      <trkpt lat="44.90558" lon="4.8231">
        <ele>231.6</ele>
        <time>2014-03-23T10:50:54Z</time>
      </trkpt>
      <trkpt lat="44.90563" lon="4.82316">
        <ele>231.7</ele>
        <time>2014-03-23T10:50:55Z</time>
      </trkpt>
      <trkpt lat="44.90568" lon="4.82322">
        <ele>231.7</ele>
        <time>2014-03-23T10:50:56Z</time>
      </trkpt>
      <trkpt lat="44.90573" lon="4.82328">
        <ele>231.6</ele>
        <time>2014-03-23T10:50:57Z</time>
      </trkpt>
      <trkpt lat="44.90577" lon="4.82335">
        <ele>231.5</ele>
        <time>2014-03-23T10:50:58Z</time>
      </trkpt>
      <trkpt lat="44.90582" lon="4.82341">
        <ele>231.4</ele>
        <time>2014-03-23T10:50:59Z</time>
      </trkpt>
      <trkpt lat="44.90586" lon="4.82347">
        <ele>231.4</ele>
        <time>2014-03-23T10:51:00Z</time>
      </trkpt>
      <trkpt lat="44.90591" lon="4.82353">
        <ele>231.4</ele>
        <time>2014-03-23T10:51:01Z</time>
      </trkpt>
      <trkpt lat="44.90595" lon="4.82359">
        <ele>231.1</ele>
        <time>2014-03-23T10:51:02Z</time>
      </trkpt>
      <trkpt lat="44.90599" lon="4.82365">
        <ele>230.9</ele>
        <time>2014-03-23T10:51:03Z</time>
      </trkpt>
      <trkpt lat="44.90604" lon="4.82371">
        <ele>230.7</ele>
        <time>2014-03-23T10:51:04Z</time>
      </trkpt>
      <trkpt lat="44.90608" lon="4.82376">
        <ele>230.5</ele>
        <time>2014-03-23T10:51:05Z</time>
      </trkpt>
      <trkpt lat="44.90613" lon="4.82382">
        <ele>230.5</ele>
        <time>2014-03-23T10:51:06Z</time>
      </trkpt>
      <trkpt lat="44.90618" lon="4.82388">
        <ele>230.5</ele>
        <time>2014-03-23T10:51:07Z</time>
      </trkpt>
      <trkpt lat="44.90623" lon="4.82394">
        <ele>230.5</ele>
        <time>2014-03-23T10:51:08Z</time>
      </trkpt>
      <trkpt lat="44.90628" lon="4.82399">
        <ele>231</ele>
        <time>2014-03-23T10:51:09Z</time>
      </trkpt>
      <trkpt lat="44.90633" lon="4.82404">
        <ele>231.4</ele>
        <time>2014-03-23T10:51:10Z</time>
      </trkpt>
      <trkpt lat="44.90638" lon="4.82409">
        <ele>231.7</ele>
        <time>2014-03-23T10:51:11Z</time>
      </trkpt>
      <trkpt lat="44.90643" lon="4.82414">
        <ele>231.5</ele>
        <time>2014-03-23T10:51:12Z</time>
      </trkpt>
      <trkpt lat="44.90647" lon="4.82418">
        <ele>231.4</ele>
        <time>2014-03-23T10:51:13Z</time>
      </trkpt>
      <trkpt lat="44.90652" lon="4.82422">
        <ele>231.3</ele>
        <time>2014-03-23T10:51:14Z</time>
      </trkpt>
      <trkpt lat="44.90656" lon="4.82427">
        <ele>231.2</ele>
        <time>2014-03-23T10:51:15Z</time>
      </trkpt>
      <trkpt lat="44.90661" lon="4.82432">
        <ele>231</ele>
        <time>2014-03-23T10:51:16Z</time>
      </trkpt>
      <trkpt lat="44.90665" lon="4.82437">
        <ele>230.8</ele>
        <time>2014-03-23T10:51:17Z</time>
      </trkpt>
      <trkpt lat="44.9067" lon="4.82441">
        <ele>230.6</ele>
        <time>2014-03-23T10:51:18Z</time>
      </trkpt>
      <trkpt lat="44.90675" lon="4.82446">
        <ele>230.7</ele>
        <time>2014-03-23T10:51:19Z</time>
      </trkpt>
      <trkpt lat="44.90679" lon="4.8245">
        <ele>230.8</ele>
        <time>2014-03-23T10:51:20Z</time>
      </trkpt>
      <trkpt lat="44.90684" lon="4.82455">
        <ele>230.4</ele>
        <time>2014-03-23T10:51:21Z</time>
      </trkpt>
      <trkpt lat="44.90688" lon="4.82459">
        <ele>230.1</ele>
        <time>2014-03-23T10:51:22Z</time>
      </trkpt>
      <trkpt lat="44.90693" lon="4.82464">
        <ele>229.9</ele>
        <time>2014-03-23T10:51:23Z</time>
      </trkpt>
      <trkpt lat="44.90697" lon="4.82468">
        <ele>230.1</ele>
        <time>2014-03-23T10:51:24Z</time>
      </trkpt>
      <trkpt lat="44.90701" lon="4.82473">
        <ele>230.3</ele>
        <time>2014-03-23T10:51:25Z</time>
      </trkpt>
      <trkpt lat="44.90706" lon="4.82477">
        <ele>230.1</ele>
        <time>2014-03-23T10:51:26Z</time>
      </trkpt>
      <trkpt lat="44.9071" lon="4.82481">
        <ele>229.9</ele>
        <time>2014-03-23T10:51:27Z</time>
      </trkpt>
      <trkpt lat="44.90715" lon="4.82486">
        <ele>229.5</ele>
        <time>2014-03-23T10:51:28Z</time>
      </trkpt>
      <trkpt lat="44.90719" lon="4.8249">
        <ele>229.2</ele>
        <time>2014-03-23T10:51:29Z</time>
      </trkpt>
      <trkpt lat="44.90724" lon="4.82495">
        <ele>228.9</ele>
        <time>2014-03-23T10:51:30Z</time>
      </trkpt>
      <trkpt lat="44.90728" lon="4.82499">
        <ele>228.9</ele>
        <time>2014-03-23T10:51:31Z</time>
      </trkpt>
      <trkpt lat="44.90732" lon="4.82504">
        <ele>228.8</ele>
        <time>2014-03-23T10:51:32Z</time>
      </trkpt>
      <trkpt lat="44.90737" lon="4.82508">
        <ele>228.7</ele>
        <time>2014-03-23T10:51:33Z</time>
      </trkpt>
      <trkpt lat="44.90741" lon="4.82513">
        <ele>228.6</ele>
        <time>2014-03-23T10:51:34Z</time>
      </trkpt>
      <trkpt lat="44.90746" lon="4.82517">
        <ele>228.7</ele>
        <time>2014-03-23T10:51:35Z</time>
      </trkpt>
      <trkpt lat="44.90751" lon="4.82522">
        <ele>228.8</ele>
        <time>2014-03-23T10:51:36Z</time>
      </trkpt>
      <trkpt lat="44.90755" lon="4.82527">
        <ele>228.8</ele>
        <time>2014-03-23T10:51:37Z</time>
      </trkpt>
      <trkpt lat="44.9076" lon="4.82531">
        <ele>228.3</ele>
        <time>2014-03-23T10:51:38Z</time>
      </trkpt>
      <trkpt lat="44.90765" lon="4.82536">
        <ele>227.9</ele>
        <time>2014-03-23T10:51:39Z</time>
      </trkpt>
      <trkpt lat="44.9077" lon="4.82541">
        <ele>227.8</ele>
        <time>2014-03-23T10:51:40Z</time>
      </trkpt>
      <trkpt lat="44.90775" lon="4.82545">
        <ele>227.7</ele>
        <time>2014-03-23T10:51:41Z</time>
      </trkpt>
      <trkpt lat="44.9078" lon="4.82549">
        <ele>227.8</ele>
        <time>2014-03-23T10:51:42Z</time>
      </trkpt>
      <trkpt lat="44.90785" lon="4.82554">
        <ele>227.8</ele>
        <time>2014-03-23T10:51:43Z</time>
      </trkpt>
      <trkpt lat="44.9079" lon="4.82559">
        <ele>227.8</ele>
        <time>2014-03-23T10:51:44Z</time>
      </trkpt>
      <trkpt lat="44.90795" lon="4.82564">
        <ele>228.1</ele>
        <time>2014-03-23T10:51:45Z</time>
      </trkpt>
      <trkpt lat="44.908" lon="4.82569">
        <ele>228.3</ele>
        <time>2014-03-23T10:51:46Z</time>
      </trkpt>
      <trkpt lat="44.90805" lon="4.82574">
        <ele>228.1</ele>
        <time>2014-03-23T10:51:47Z</time>
      </trkpt>
      <trkpt lat="44.90811" lon="4.8258">
        <ele>228</ele>
        <time>2014-03-23T10:51:48Z</time>
      </trkpt>
      <trkpt lat="44.90816" lon="4.82585">
        <ele>227.9</ele>
        <time>2014-03-23T10:51:49Z</time>
      </trkpt>
      <trkpt lat="44.90821" lon="4.82591">
        <ele>227.8</ele>
        <time>2014-03-23T10:51:50Z</time>
      </trkpt>
      <trkpt lat="44.90826" lon="4.82597">
        <ele>227.8</ele>
        <time>2014-03-23T10:51:51Z</time>
      </trkpt>
      <trkpt lat="44.90831" lon="4.82602">
        <ele>227.7</ele>
        <time>2014-03-23T10:51:52Z</time>
      </trkpt>
      <trkpt lat="44.90836" lon="4.82607">
        <ele>227.6</ele>
        <time>2014-03-23T10:51:53Z</time>
      </trkpt>
      <trkpt lat="44.90841" lon="4.82612">
        <ele>227.3</ele>
        <time>2014-03-23T10:51:54Z</time>
      </trkpt>
      <trkpt lat="44.90846" lon="4.82617">
        <ele>227</ele>
        <time>2014-03-23T10:51:55Z</time>
      </trkpt>
      <trkpt lat="44.90851" lon="4.82622">
        <ele>226.8</ele>
        <time>2014-03-23T10:51:56Z</time>
      </trkpt>
      <trkpt lat="44.90856" lon="4.82627">
        <ele>226.8</ele>
        <time>2014-03-23T10:51:57Z</time>
      </trkpt>
      <trkpt lat="44.90861" lon="4.82633">
        <ele>226.8</ele>
        <time>2014-03-23T10:51:58Z</time>
      </trkpt>
      <trkpt lat="44.90866" lon="4.82638">
        <ele>226.6</ele>
        <time>2014-03-23T10:51:59Z</time>
      </trkpt>
      <trkpt lat="44.90872" lon="4.82643">
        <ele>226.5</ele>
        <time>2014-03-23T10:52:00Z</time>
      </trkpt>
      <trkpt lat="44.90877" lon="4.82649">
        <ele>226.5</ele>
        <time>2014-03-23T10:52:01Z</time>
      </trkpt>
      <trkpt lat="44.90883" lon="4.82654">
        <ele>226.5</ele>
        <time>2014-03-23T10:52:02Z</time>
      </trkpt>
      <trkpt lat="44.90888" lon="4.8266">
        <ele>226.5</ele>
        <time>2014-03-23T10:52:03Z</time>
      </trkpt>
      <trkpt lat="44.90894" lon="4.82665">
        <ele>226.3</ele>
        <time>2014-03-23T10:52:04Z</time>
      </trkpt>
      <trkpt lat="44.90899" lon="4.82671">
        <ele>226.2</ele>
        <time>2014-03-23T10:52:05Z</time>
      </trkpt>
      <trkpt lat="44.90905" lon="4.82677">
        <ele>226.1</ele>
        <time>2014-03-23T10:52:06Z</time>
      </trkpt>
      <trkpt lat="44.90911" lon="4.82682">
        <ele>226</ele>
        <time>2014-03-23T10:52:07Z</time>
      </trkpt>
      <trkpt lat="44.90917" lon="4.82687">
        <ele>226</ele>
        <time>2014-03-23T10:52:08Z</time>
      </trkpt>
      <trkpt lat="44.90924" lon="4.82691">
        <ele>225.7</ele>
        <time>2014-03-23T10:52:09Z</time>
      </trkpt>
      <trkpt lat="44.9093" lon="4.82695">
        <ele>225.5</ele>
        <time>2014-03-23T10:52:10Z</time>
      </trkpt>
      <trkpt lat="44.90937" lon="4.82699">
        <ele>225</ele>
        <time>2014-03-23T10:52:11Z</time>
      </trkpt>
      <trkpt lat="44.90944" lon="4.82702">
        <ele>224.7</ele>
        <time>2014-03-23T10:52:12Z</time>
      </trkpt>
      <trkpt lat="44.90951" lon="4.82705">
        <ele>224.1</ele>
        <time>2014-03-23T10:52:13Z</time>
      </trkpt>
      <trkpt lat="44.90959" lon="4.82708">
        <ele>223.7</ele>
        <time>2014-03-23T10:52:14Z</time>
      </trkpt>
      <trkpt lat="44.90966" lon="4.82711">
        <ele>223.4</ele>
        <time>2014-03-23T10:52:15Z</time>
      </trkpt>
      <trkpt lat="44.90974" lon="4.82713">
        <ele>223</ele>
        <time>2014-03-23T10:52:16Z</time>
      </trkpt>
      <trkpt lat="44.90982" lon="4.82716">
        <ele>222.7</ele>
        <time>2014-03-23T10:52:17Z</time>
      </trkpt>
      <trkpt lat="44.9099" lon="4.82719">
        <ele>221.8</ele>
        <time>2014-03-23T10:52:18Z</time>
      </trkpt>
      <trkpt lat="44.90997" lon="4.82722">
        <ele>221.2</ele>
        <time>2014-03-23T10:52:19Z</time>
      </trkpt>
      <trkpt lat="44.91005" lon="4.82724">
        <ele>220.7</ele>
        <time>2014-03-23T10:52:20Z</time>
      </trkpt>
      <trkpt lat="44.91013" lon="4.82727">
        <ele>219.8</ele>
        <time>2014-03-23T10:52:21Z</time>
      </trkpt>
      <trkpt lat="44.91021" lon="4.8273">
        <ele>219.1</ele>
        <time>2014-03-23T10:52:22Z</time>
      </trkpt>
      <trkpt lat="44.91029" lon="4.82733">
        <ele>218.5</ele>
        <time>2014-03-23T10:52:23Z</time>
      </trkpt>
      <trkpt lat="44.91037" lon="4.82736">
        <ele>218.1</ele>
        <time>2014-03-23T10:52:24Z</time>
      </trkpt>
      <trkpt lat="44.91045" lon="4.82741">
        <ele>217.3</ele>
        <time>2014-03-23T10:52:25Z</time>
      </trkpt>
      <trkpt lat="44.91053" lon="4.82745">
        <ele>216.8</ele>
        <time>2014-03-23T10:52:26Z</time>
      </trkpt>
      <trkpt lat="44.9106" lon="4.82751">
        <ele>216.4</ele>
        <time>2014-03-23T10:52:27Z</time>
      </trkpt>
      <trkpt lat="44.91068" lon="4.82757">
        <ele>215.8</ele>
        <time>2014-03-23T10:52:28Z</time>
      </trkpt>
      <trkpt lat="44.91075" lon="4.82764">
        <ele>215.4</ele>
        <time>2014-03-23T10:52:29Z</time>
      </trkpt>
      <trkpt lat="44.91082" lon="4.82771">
        <ele>214.8</ele>
        <time>2014-03-23T10:52:30Z</time>
      </trkpt>
      <trkpt lat="44.91089" lon="4.82778">
        <ele>214.3</ele>
        <time>2014-03-23T10:52:31Z</time>
      </trkpt>
      <trkpt lat="44.91096" lon="4.82785">
        <ele>213.6</ele>
        <time>2014-03-23T10:52:32Z</time>
      </trkpt>
      <trkpt lat="44.91102" lon="4.82792">
        <ele>213.1</ele>
        <time>2014-03-23T10:52:33Z</time>
      </trkpt>
      <trkpt lat="44.91109" lon="4.82799">
        <ele>212.8</ele>
        <time>2014-03-23T10:52:34Z</time>
      </trkpt>
      <trkpt lat="44.91115" lon="4.82806">
        <ele>212.2</ele>
        <time>2014-03-23T10:52:35Z</time>
      </trkpt>
      <trkpt lat="44.91121" lon="4.82813">
        <ele>211.8</ele>
        <time>2014-03-23T10:52:36Z</time>
      </trkpt>
      <trkpt lat="44.91127" lon="4.82819">
        <ele>211.5</ele>
        <time>2014-03-23T10:52:37Z</time>
      </trkpt>
      <trkpt lat="44.91134" lon="4.82826">
        <ele>211.2</ele>
        <time>2014-03-23T10:52:38Z</time>
      </trkpt>
      <trkpt lat="44.9114" lon="4.82832">
        <ele>210.6</ele>
        <time>2014-03-23T10:52:39Z</time>
      </trkpt>
      <trkpt lat="44.91146" lon="4.82838">
        <ele>210.1</ele>
        <time>2014-03-23T10:52:40Z</time>
      </trkpt>
      <trkpt lat="44.91153" lon="4.82844">
        <ele>209.7</ele>
        <time>2014-03-23T10:52:41Z</time>
      </trkpt>
      <trkpt lat="44.91159" lon="4.82849">
        <ele>209.6</ele>
        <time>2014-03-23T10:52:42Z</time>
      </trkpt>
      <trkpt lat="44.91166" lon="4.82854">
        <ele>209.5</ele>
        <time>2014-03-23T10:52:43Z</time>
      </trkpt>
      <trkpt lat="44.91174" lon="4.8286">
        <ele>209.4</ele>
        <time>2014-03-23T10:52:44Z</time>
      </trkpt>
      <trkpt lat="44.91181" lon="4.82865">
        <ele>209.2</ele>
        <time>2014-03-23T10:52:45Z</time>
      </trkpt>
      <trkpt lat="44.91188" lon="4.8287">
        <ele>209.2</ele>
        <time>2014-03-23T10:52:46Z</time>
      </trkpt>
      <trkpt lat="44.91196" lon="4.82876">
        <ele>208.8</ele>
        <time>2014-03-23T10:52:47Z</time>
      </trkpt>
      <trkpt lat="44.91203" lon="4.82882">
        <ele>208.5</ele>
        <time>2014-03-23T10:52:48Z</time>
      </trkpt>
      <trkpt lat="44.91211" lon="4.82887">
        <ele>208.4</ele>
        <time>2014-03-23T10:52:49Z</time>
      </trkpt>
      <trkpt lat="44.91219" lon="4.82892">
        <ele>208.3</ele>
        <time>2014-03-23T10:52:50Z</time>
      </trkpt>
      <trkpt lat="44.91227" lon="4.82897">
        <ele>208</ele>
        <time>2014-03-23T10:52:51Z</time>
      </trkpt>
      <trkpt lat="44.91235" lon="4.82901">
        <ele>207.7</ele>
        <time>2014-03-23T10:52:52Z</time>
      </trkpt>
      <trkpt lat="44.91243" lon="4.82905">
        <ele>207.6</ele>
        <time>2014-03-23T10:52:53Z</time>
      </trkpt>
      <trkpt lat="44.9125" lon="4.82909">
        <ele>207.4</ele>
        <time>2014-03-23T10:52:54Z</time>
      </trkpt>
      <trkpt lat="44.91258" lon="4.82912">
        <ele>207.3</ele>
        <time>2014-03-23T10:52:55Z</time>
      </trkpt>
      <trkpt lat="44.91266" lon="4.82915">
        <ele>207.1</ele>
        <time>2014-03-23T10:52:56Z</time>
      </trkpt>
      <trkpt lat="44.91273" lon="4.82918">
        <ele>207</ele>
        <time>2014-03-23T10:52:57Z</time>
      </trkpt>
      <trkpt lat="44.91281" lon="4.82921">
        <ele>206.5</ele>
        <time>2014-03-23T10:52:58Z</time>
      </trkpt>
      <trkpt lat="44.91288" lon="4.82925">
        <ele>206.1</ele>
        <time>2014-03-23T10:52:59Z</time>
      </trkpt>
      <trkpt lat="44.91294" lon="4.82928">
        <ele>205.8</ele>
        <time>2014-03-23T10:53:00Z</time>
      </trkpt>
      <trkpt lat="44.91301" lon="4.82931">
        <ele>206</ele>
        <time>2014-03-23T10:53:01Z</time>
      </trkpt>
      <trkpt lat="44.91308" lon="4.82935">
        <ele>206.1</ele>
        <time>2014-03-23T10:53:02Z</time>
      </trkpt>
      <trkpt lat="44.91315" lon="4.82939">
        <ele>205.8</ele>
        <time>2014-03-23T10:53:03Z</time>
      </trkpt>
      <trkpt lat="44.91322" lon="4.82943">
        <ele>205.6</ele>
        <time>2014-03-23T10:53:04Z</time>
      </trkpt>
      <trkpt lat="44.91329" lon="4.82948">
        <ele>205.5</ele>
        <time>2014-03-23T10:53:05Z</time>
      </trkpt>
      <trkpt lat="44.91335" lon="4.82954">
        <ele>205.3</ele>
        <time>2014-03-23T10:53:06Z</time>
      </trkpt>
      <trkpt lat="44.91341" lon="4.8296">
        <ele>205.2</ele>
        <time>2014-03-23T10:53:07Z</time>
      </trkpt>
      <trkpt lat="44.91347" lon="4.82967">
        <ele>204.7</ele>
        <time>2014-03-23T10:53:08Z</time>
      </trkpt>
      <trkpt lat="44.91353" lon="4.82975">
        <ele>204.3</ele>
        <time>2014-03-23T10:53:09Z</time>
      </trkpt>
      <trkpt lat="44.91359" lon="4.82982">
        <ele>204.2</ele>
        <time>2014-03-23T10:53:10Z</time>
      </trkpt>
      <trkpt lat="44.91364" lon="4.8299">
        <ele>204.1</ele>
        <time>2014-03-23T10:53:11Z</time>
      </trkpt>
      <trkpt lat="44.9137" lon="4.82997">
        <ele>204</ele>
        <time>2014-03-23T10:53:12Z</time>
      </trkpt>
      <trkpt lat="44.91375" lon="4.83003">
        <ele>203.8</ele>
        <time>2014-03-23T10:53:13Z</time>
      </trkpt>
      <trkpt lat="44.91381" lon="4.83009">
        <ele>203.6</ele>
        <time>2014-03-23T10:53:14Z</time>
      </trkpt>
      <trkpt lat="44.91388" lon="4.83015">
        <ele>203.1</ele>
        <time>2014-03-23T10:53:15Z</time>
      </trkpt>
      <trkpt lat="44.91394" lon="4.8302">
        <ele>202.7</ele>
        <time>2014-03-23T10:53:16Z</time>
      </trkpt>
      <trkpt lat="44.91401" lon="4.83025">
        <ele>202.7</ele>
        <time>2014-03-23T10:53:17Z</time>
      </trkpt>
      <trkpt lat="44.91407" lon="4.83029">
        <ele>202.6</ele>
        <time>2014-03-23T10:53:18Z</time>
      </trkpt>
      <trkpt lat="44.91413" lon="4.83032">
        <ele>202.6</ele>
        <time>2014-03-23T10:53:19Z</time>
      </trkpt>
      <trkpt lat="44.9142" lon="4.83033">
        <ele>202.5</ele>
        <time>2014-03-23T10:53:20Z</time>
      </trkpt>
      <trkpt lat="44.91427" lon="4.83034">
        <ele>202.4</ele>
        <time>2014-03-23T10:53:21Z</time>
      </trkpt>
      <trkpt lat="44.91434" lon="4.83035">
        <ele>202</ele>
        <time>2014-03-23T10:53:22Z</time>
      </trkpt>
      <trkpt lat="44.91441" lon="4.83035">
        <ele>201.6</ele>
        <time>2014-03-23T10:53:23Z</time>
      </trkpt>
      <trkpt lat="44.91449" lon="4.83035">
        <ele>201.4</ele>
        <time>2014-03-23T10:53:24Z</time>
      </trkpt>
      <trkpt lat="44.91456" lon="4.83033">
        <ele>200.9</ele>
        <time>2014-03-23T10:53:25Z</time>
      </trkpt>
      <trkpt lat="44.91463" lon="4.83032">
        <ele>200.6</ele>
        <time>2014-03-23T10:53:26Z</time>
      </trkpt>
      <trkpt lat="44.91471" lon="4.83031">
        <ele>200.1</ele>
        <time>2014-03-23T10:53:27Z</time>
      </trkpt>
      <trkpt lat="44.91478" lon="4.83029">
        <ele>199.8</ele>
        <time>2014-03-23T10:53:28Z</time>
      </trkpt>
      <trkpt lat="44.91486" lon="4.83028">
        <ele>199.1</ele>
        <time>2014-03-23T10:53:29Z</time>
      </trkpt>
      <trkpt lat="44.91494" lon="4.83026">
        <ele>198.5</ele>
        <time>2014-03-23T10:53:30Z</time>
      </trkpt>
      <trkpt lat="44.91502" lon="4.83024">
        <ele>198.1</ele>
        <time>2014-03-23T10:53:31Z</time>
      </trkpt>
      <trkpt lat="44.9151" lon="4.83022">
        <ele>197.7</ele>
        <time>2014-03-23T10:53:32Z</time>
      </trkpt>
      <trkpt lat="44.91518" lon="4.8302">
        <ele>197.4</ele>
        <time>2014-03-23T10:53:33Z</time>
      </trkpt>
      <trkpt lat="44.91526" lon="4.83018">
        <ele>197</ele>
        <time>2014-03-23T10:53:34Z</time>
      </trkpt>
      <trkpt lat="44.91534" lon="4.83016">
        <ele>196.7</ele>
        <time>2014-03-23T10:53:35Z</time>
      </trkpt>
      <trkpt lat="44.91542" lon="4.83014">
        <ele>195.9</ele>
        <time>2014-03-23T10:53:36Z</time>
      </trkpt>
      <trkpt lat="44.9155" lon="4.83012">
        <ele>195.3</ele>
        <time>2014-03-23T10:53:37Z</time>
      </trkpt>
      <trkpt lat="44.91558" lon="4.83011">
        <ele>194.9</ele>
        <time>2014-03-23T10:53:38Z</time>
      </trkpt>
      <trkpt lat="44.91566" lon="4.83009">
        <ele>194.6</ele>
        <time>2014-03-23T10:53:39Z</time>
      </trkpt>
      <trkpt lat="44.91574" lon="4.83007">
        <ele>194.4</ele>
        <time>2014-03-23T10:53:40Z</time>
      </trkpt>
      <trkpt lat="44.91582" lon="4.83006">
        <ele>194.4</ele>
        <time>2014-03-23T10:53:41Z</time>
      </trkpt>
      <trkpt lat="44.91591" lon="4.83005">
        <ele>194.4</ele>
        <time>2014-03-23T10:53:42Z</time>
      </trkpt>
      <trkpt lat="44.91599" lon="4.83004">
        <ele>194.4</ele>
        <time>2014-03-23T10:53:43Z</time>
      </trkpt>
      <trkpt lat="44.91607" lon="4.83003">
        <ele>194</ele>
        <time>2014-03-23T10:53:44Z</time>
      </trkpt>
      <trkpt lat="44.91616" lon="4.83002">
        <ele>193.7</ele>
        <time>2014-03-23T10:53:45Z</time>
      </trkpt>
      <trkpt lat="44.91625" lon="4.83002">
        <ele>193.2</ele>
        <time>2014-03-23T10:53:46Z</time>
      </trkpt>
      <trkpt lat="44.91634" lon="4.83002">
        <ele>192.8</ele>
        <time>2014-03-23T10:53:47Z</time>
      </trkpt>
      <trkpt lat="44.91643" lon="4.83002">
        <ele>192.3</ele>
        <time>2014-03-23T10:53:48Z</time>
      </trkpt>
      <trkpt lat="44.91652" lon="4.83002">
        <ele>192</ele>
        <time>2014-03-23T10:53:49Z</time>
      </trkpt>
      <trkpt lat="44.91661" lon="4.83002">
        <ele>191.8</ele>
        <time>2014-03-23T10:53:50Z</time>
      </trkpt>
      <trkpt lat="44.91671" lon="4.83002">
        <ele>191.6</ele>
        <time>2014-03-23T10:53:51Z</time>
      </trkpt>
      <trkpt lat="44.9168" lon="4.83002">
        <ele>191.5</ele>
        <time>2014-03-23T10:53:52Z</time>
      </trkpt>
      <trkpt lat="44.91689" lon="4.83003">
        <ele>191.1</ele>
        <time>2014-03-23T10:53:53Z</time>
      </trkpt>
      <trkpt lat="44.91697" lon="4.83003">
        <ele>190.9</ele>
        <time>2014-03-23T10:53:54Z</time>
      </trkpt>
      <trkpt lat="44.91706" lon="4.83003">
        <ele>190.3</ele>
        <time>2014-03-23T10:53:55Z</time>
      </trkpt>
      <trkpt lat="44.91714" lon="4.83003">
        <ele>189.9</ele>
        <time>2014-03-23T10:53:56Z</time>
      </trkpt>
      <trkpt lat="44.91723" lon="4.83002">
        <ele>189.6</ele>
        <time>2014-03-23T10:53:57Z</time>
      </trkpt>
      <trkpt lat="44.91731" lon="4.83002">
        <ele>189.3</ele>
        <time>2014-03-23T10:53:58Z</time>
      </trkpt>
      <trkpt lat="44.91739" lon="4.83001">
        <ele>189.1</ele>
        <time>2014-03-23T10:53:59Z</time>
      </trkpt>
      <trkpt lat="44.91747" lon="4.83">
        <ele>188.9</ele>
        <time>2014-03-23T10:54:00Z</time>
      </trkpt>
      <trkpt lat="44.91754" lon="4.83">
        <ele>188.8</ele>
        <time>2014-03-23T10:54:01Z</time>
      </trkpt>
      <trkpt lat="44.91762" lon="4.82999">
        <ele>188.6</ele>
        <time>2014-03-23T10:54:02Z</time>
      </trkpt>
      <trkpt lat="44.91769" lon="4.82999">
        <ele>188.4</ele>
        <time>2014-03-23T10:54:03Z</time>
      </trkpt>
      <trkpt lat="44.91776" lon="4.82999">
        <ele>188.3</ele>
        <time>2014-03-23T10:54:04Z</time>
      </trkpt>
      <trkpt lat="44.91784" lon="4.82999">
        <ele>188.2</ele>
        <time>2014-03-23T10:54:05Z</time>
      </trkpt>
      <trkpt lat="44.9179" lon="4.83">
        <ele>188.1</ele>
        <time>2014-03-23T10:54:06Z</time>
      </trkpt>
      <trkpt lat="44.91797" lon="4.83">
        <ele>188.1</ele>
        <time>2014-03-23T10:54:07Z</time>
      </trkpt>
      <trkpt lat="44.91804" lon="4.83">
        <ele>188.1</ele>
        <time>2014-03-23T10:54:08Z</time>
      </trkpt>
      <trkpt lat="44.9181" lon="4.83001">
        <ele>188.1</ele>
        <time>2014-03-23T10:54:09Z</time>
      </trkpt>
      <trkpt lat="44.91817" lon="4.83002">
        <ele>188</ele>
        <time>2014-03-23T10:54:10Z</time>
      </trkpt>
      <trkpt lat="44.91823" lon="4.83004">
        <ele>188</ele>
        <time>2014-03-23T10:54:11Z</time>
      </trkpt>
      <trkpt lat="44.91829" lon="4.83005">
        <ele>188.2</ele>
        <time>2014-03-23T10:54:12Z</time>
      </trkpt>
      <trkpt lat="44.91836" lon="4.83006">
        <ele>188.3</ele>
        <time>2014-03-23T10:54:13Z</time>
      </trkpt>
      <trkpt lat="44.91842" lon="4.83008">
        <ele>188.4</ele>
        <time>2014-03-23T10:54:14Z</time>
      </trkpt>
      <trkpt lat="44.91849" lon="4.83009">
        <ele>188.4</ele>
        <time>2014-03-23T10:54:15Z</time>
      </trkpt>
      <trkpt lat="44.91855" lon="4.83011">
        <ele>188.5</ele>
        <time>2014-03-23T10:54:16Z</time>
      </trkpt>
      <trkpt lat="44.91862" lon="4.83012">
        <ele>188.3</ele>
        <time>2014-03-23T10:54:17Z</time>
      </trkpt>
      <trkpt lat="44.91869" lon="4.83013">
        <ele>188.2</ele>
        <time>2014-03-23T10:54:18Z</time>
      </trkpt>
      <trkpt lat="44.91875" lon="4.83015">
        <ele>188.7</ele>
        <time>2014-03-23T10:54:19Z</time>
      </trkpt>
      <trkpt lat="44.91882" lon="4.83016">
        <ele>189.1</ele>
        <time>2014-03-23T10:54:20Z</time>
      </trkpt>
      <trkpt lat="44.91889" lon="4.83018">
        <ele>189.4</ele>
        <time>2014-03-23T10:54:21Z</time>
      </trkpt>
      <trkpt lat="44.91895" lon="4.83019">
        <ele>189.6</ele>
        <time>2014-03-23T10:54:22Z</time>
      </trkpt>
      <trkpt lat="44.91902" lon="4.83021">
        <ele>189.8</ele>
        <time>2014-03-23T10:54:23Z</time>
      </trkpt>
      <trkpt lat="44.91909" lon="4.83022">
        <ele>190.1</ele>
        <time>2014-03-23T10:54:24Z</time>
      </trkpt>
      <trkpt lat="44.91916" lon="4.83024">
        <ele>190.3</ele>
        <time>2014-03-23T10:54:25Z</time>
      </trkpt>
      <trkpt lat="44.91922" lon="4.83026">
        <ele>190.5</ele>
        <time>2014-03-23T10:54:26Z</time>
      </trkpt>
      <trkpt lat="44.91929" lon="4.83027">
        <ele>190.7</ele>
        <time>2014-03-23T10:54:27Z</time>
      </trkpt>
      <trkpt lat="44.91935" lon="4.83028">
        <ele>190.8</ele>
        <time>2014-03-23T10:54:28Z</time>
      </trkpt>
      <trkpt lat="44.91942" lon="4.8303">
        <ele>190.8</ele>
        <time>2014-03-23T10:54:29Z</time>
      </trkpt>
      <trkpt lat="44.91949" lon="4.83032">
        <ele>190.9</ele>
        <time>2014-03-23T10:54:30Z</time>
      </trkpt>
      <trkpt lat="44.91956" lon="4.83034">
        <ele>190.7</ele>
        <time>2014-03-23T10:54:31Z</time>
      </trkpt>
      <trkpt lat="44.91962" lon="4.83037">
        <ele>190.6</ele>
        <time>2014-03-23T10:54:32Z</time>
      </trkpt>
      <trkpt lat="44.91969" lon="4.83039">
        <ele>190.4</ele>
        <time>2014-03-23T10:54:33Z</time>
      </trkpt>
      <trkpt lat="44.91976" lon="4.83042">
        <ele>190.2</ele>
        <time>2014-03-23T10:54:34Z</time>
      </trkpt>
      <trkpt lat="44.91983" lon="4.83045">
        <ele>190.1</ele>
        <time>2014-03-23T10:54:35Z</time>
      </trkpt>
      <trkpt lat="44.9199" lon="4.83048">
        <ele>189.7</ele>
        <time>2014-03-23T10:54:36Z</time>
      </trkpt>
      <trkpt lat="44.91997" lon="4.83051">
        <ele>189.4</ele>
        <time>2014-03-23T10:54:37Z</time>
      </trkpt>
      <trkpt lat="44.92004" lon="4.83055">
        <ele>189.1</ele>
        <time>2014-03-23T10:54:38Z</time>
      </trkpt>
      <trkpt lat="44.92011" lon="4.83058">
        <ele>188.8</ele>
        <time>2014-03-23T10:54:39Z</time>
      </trkpt>
      <trkpt lat="44.92019" lon="4.83062">
        <ele>188.2</ele>
        <time>2014-03-23T10:54:40Z</time>
      </trkpt>
      <trkpt lat="44.92027" lon="4.83066">
        <ele>187.7</ele>
        <time>2014-03-23T10:54:41Z</time>
      </trkpt>
      <trkpt lat="44.92034" lon="4.83069">
        <ele>187.4</ele>
        <time>2014-03-23T10:54:42Z</time>
      </trkpt>
      <trkpt lat="44.92043" lon="4.83073">
        <ele>187.2</ele>
        <time>2014-03-23T10:54:43Z</time>
      </trkpt>
      <trkpt lat="44.92051" lon="4.83077">
        <ele>187.1</ele>
        <time>2014-03-23T10:54:44Z</time>
      </trkpt>
      <trkpt lat="44.9206" lon="4.8308">
        <ele>187.1</ele>
        <time>2014-03-23T10:54:45Z</time>
      </trkpt>
      <trkpt lat="44.92068" lon="4.83084">
        <ele>187.1</ele>
        <time>2014-03-23T10:54:46Z</time>
      </trkpt>
      <trkpt lat="44.92077" lon="4.83086">
        <ele>187</ele>
        <time>2014-03-23T10:54:47Z</time>
      </trkpt>
      <trkpt lat="44.92086" lon="4.83088">
        <ele>187</ele>
        <time>2014-03-23T10:54:48Z</time>
      </trkpt>
      <trkpt lat="44.92094" lon="4.83088">
        <ele>187</ele>
        <time>2014-03-23T10:54:49Z</time>
      </trkpt>
      <trkpt lat="44.92103" lon="4.83088">
        <ele>186.5</ele>
        <time>2014-03-23T10:54:50Z</time>
      </trkpt>
      <trkpt lat="44.92112" lon="4.83088">
        <ele>186.1</ele>
        <time>2014-03-23T10:54:51Z</time>
      </trkpt>
      <trkpt lat="44.9212" lon="4.83088">
        <ele>185.7</ele>
        <time>2014-03-23T10:54:52Z</time>
      </trkpt>
      <trkpt lat="44.92129" lon="4.83088">
        <ele>185.4</ele>
        <time>2014-03-23T10:54:53Z</time>
      </trkpt>
      <trkpt lat="44.92137" lon="4.83088">
        <ele>185.1</ele>
        <time>2014-03-23T10:54:54Z</time>
      </trkpt>
      <trkpt lat="44.92145" lon="4.83089">
        <ele>185.1</ele>
        <time>2014-03-23T10:54:55Z</time>
      </trkpt>
      <trkpt lat="44.92153" lon="4.83091">
        <ele>185.1</ele>
        <time>2014-03-23T10:54:56Z</time>
      </trkpt>
      <trkpt lat="44.92161" lon="4.83092">
        <ele>184.6</ele>
        <time>2014-03-23T10:54:57Z</time>
      </trkpt>
      <trkpt lat="44.9217" lon="4.83095">
        <ele>184.2</ele>
        <time>2014-03-23T10:54:58Z</time>
      </trkpt>
      <trkpt lat="44.92178" lon="4.83096">
        <ele>184</ele>
        <time>2014-03-23T10:54:59Z</time>
      </trkpt>
      <trkpt lat="44.92186" lon="4.83098">
        <ele>183.8</ele>
        <time>2014-03-23T10:55:00Z</time>
      </trkpt>
      <trkpt lat="44.92194" lon="4.831">
        <ele>183.7</ele>
        <time>2014-03-23T10:55:01Z</time>
      </trkpt>
      <trkpt lat="44.92202" lon="4.83101">
        <ele>183.7</ele>
        <time>2014-03-23T10:55:02Z</time>
      </trkpt>
      <trkpt lat="44.9221" lon="4.83103">
        <ele>183.7</ele>
        <time>2014-03-23T10:55:03Z</time>
      </trkpt>
      <trkpt lat="44.92218" lon="4.83105">
        <ele>183</ele>
        <time>2014-03-23T10:55:04Z</time>
      </trkpt>
      <trkpt lat="44.92226" lon="4.83107">
        <ele>182.5</ele>
        <time>2014-03-23T10:55:05Z</time>
      </trkpt>
      <trkpt lat="44.92234" lon="4.83108">
        <ele>182.2</ele>
        <time>2014-03-23T10:55:06Z</time>
      </trkpt>
      <trkpt lat="44.92242" lon="4.8311">
        <ele>182.1</ele>
        <time>2014-03-23T10:55:07Z</time>
      </trkpt>
      <trkpt lat="44.9225" lon="4.83112">
        <ele>182.1</ele>
        <time>2014-03-23T10:55:08Z</time>
      </trkpt>
      <trkpt lat="44.92259" lon="4.83114">
        <ele>181.8</ele>
        <time>2014-03-23T10:55:09Z</time>
      </trkpt>
      <trkpt lat="44.92267" lon="4.83116">
        <ele>181.6</ele>
        <time>2014-03-23T10:55:10Z</time>
      </trkpt>
      <trkpt lat="44.92275" lon="4.83118">
        <ele>181.4</ele>
        <time>2014-03-23T10:55:11Z</time>
      </trkpt>
      <trkpt lat="44.92283" lon="4.8312">
        <ele>181.3</ele>
        <time>2014-03-23T10:55:12Z</time>
      </trkpt>
      <trkpt lat="44.92292" lon="4.83122">
        <ele>181.2</ele>
        <time>2014-03-23T10:55:13Z</time>
      </trkpt>
      <trkpt lat="44.923" lon="4.83124">
        <ele>181</ele>
        <time>2014-03-23T10:55:14Z</time>
      </trkpt>
      <trkpt lat="44.92308" lon="4.83127">
        <ele>180.8</ele>
        <time>2014-03-23T10:55:15Z</time>
      </trkpt>
      <trkpt lat="44.92316" lon="4.8313">
        <ele>180.7</ele>
        <time>2014-03-23T10:55:16Z</time>
      </trkpt>
      <trkpt lat="44.92324" lon="4.83133">
        <ele>180.6</ele>
        <time>2014-03-23T10:55:17Z</time>
      </trkpt>
      <trkpt lat="44.92332" lon="4.83135">
        <ele>180.8</ele>
        <time>2014-03-23T10:55:18Z</time>
      </trkpt>
      <trkpt lat="44.9234" lon="4.83138">
        <ele>180.9</ele>
        <time>2014-03-23T10:55:19Z</time>
      </trkpt>
      <trkpt lat="44.92348" lon="4.83141">
        <ele>180.9</ele>
        <time>2014-03-23T10:55:20Z</time>
      </trkpt>
      <trkpt lat="44.92356" lon="4.83144">
        <ele>180.6</ele>
        <time>2014-03-23T10:55:21Z</time>
      </trkpt>
      <trkpt lat="44.92364" lon="4.83147">
        <ele>180.3</ele>
        <time>2014-03-23T10:55:22Z</time>
      </trkpt>
      <trkpt lat="44.92372" lon="4.83149">
        <ele>180.5</ele>
        <time>2014-03-23T10:55:23Z</time>
      </trkpt>
      <trkpt lat="44.9238" lon="4.83151">
        <ele>180.7</ele>
        <time>2014-03-23T10:55:24Z</time>
      </trkpt>
      <trkpt lat="44.92388" lon="4.83152">
        <ele>180.8</ele>
        <time>2014-03-23T10:55:25Z</time>
      </trkpt>
      <trkpt lat="44.92396" lon="4.83153">
        <ele>180.4</ele>
        <time>2014-03-23T10:55:26Z</time>
      </trkpt>
      <trkpt lat="44.92404" lon="4.83154">
        <ele>180.2</ele>
        <time>2014-03-23T10:55:27Z</time>
      </trkpt>
      <trkpt lat="44.92412" lon="4.83154">
        <ele>179.8</ele>
        <time>2014-03-23T10:55:28Z</time>
      </trkpt>
      <trkpt lat="44.9242" lon="4.83155">
        <ele>179.5</ele>
        <time>2014-03-23T10:55:29Z</time>
      </trkpt>
      <trkpt lat="44.92428" lon="4.83155">
        <ele>179.9</ele>
        <time>2014-03-23T10:55:30Z</time>
      </trkpt>
      <trkpt lat="44.92436" lon="4.83156">
        <ele>180.2</ele>
        <time>2014-03-23T10:55:31Z</time>
      </trkpt>
      <trkpt lat="44.92444" lon="4.83157">
        <ele>180.4</ele>
        <time>2014-03-23T10:55:32Z</time>
      </trkpt>
      <trkpt lat="44.92452" lon="4.83157">
        <ele>180.3</ele>
        <time>2014-03-23T10:55:33Z</time>
      </trkpt>
      <trkpt lat="44.9246" lon="4.83158">
        <ele>180.3</ele>
        <time>2014-03-23T10:55:34Z</time>
      </trkpt>
      <trkpt lat="44.92468" lon="4.83158">
        <ele>180</ele>
        <time>2014-03-23T10:55:35Z</time>
      </trkpt>
      <trkpt lat="44.92476" lon="4.83159">
        <ele>179.7</ele>
        <time>2014-03-23T10:55:36Z</time>
      </trkpt>
      <trkpt lat="44.92484" lon="4.83159">
        <ele>179.3</ele>
        <time>2014-03-23T10:55:37Z</time>
      </trkpt>
      <trkpt lat="44.92492" lon="4.8316">
        <ele>178.9</ele>
        <time>2014-03-23T10:55:38Z</time>
      </trkpt>
      <trkpt lat="44.92499" lon="4.83162">
        <ele>178.7</ele>
        <time>2014-03-23T10:55:39Z</time>
      </trkpt>
      <trkpt lat="44.92507" lon="4.83163">
        <ele>178.5</ele>
        <time>2014-03-23T10:55:40Z</time>
      </trkpt>
      <trkpt lat="44.92514" lon="4.83165">
        <ele>178.4</ele>
        <time>2014-03-23T10:55:41Z</time>
      </trkpt>
      <trkpt lat="44.92521" lon="4.83169">
        <ele>177.4</ele>
        <time>2014-03-23T10:55:42Z</time>
      </trkpt>
      <trkpt lat="44.92528" lon="4.83173">
        <ele>176.7</ele>
        <time>2014-03-23T10:55:43Z</time>
      </trkpt>
      <trkpt lat="44.92534" lon="4.83177">
        <ele>176.2</ele>
        <time>2014-03-23T10:55:44Z</time>
      </trkpt>
      <trkpt lat="44.92541" lon="4.83181">
        <ele>175.5</ele>
        <time>2014-03-23T10:55:45Z</time>
      </trkpt>
      <trkpt lat="44.92548" lon="4.83186">
        <ele>175</ele>
        <time>2014-03-23T10:55:46Z</time>
      </trkpt>
      <trkpt lat="44.92554" lon="4.83192">
        <ele>174.4</ele>
        <time>2014-03-23T10:55:47Z</time>
      </trkpt>
      <trkpt lat="44.9256" lon="4.83197">
        <ele>174</ele>
        <time>2014-03-23T10:55:48Z</time>
      </trkpt>
      <trkpt lat="44.92567" lon="4.83203">
        <ele>173.3</ele>
        <time>2014-03-23T10:55:49Z</time>
      </trkpt>
      <trkpt lat="44.92573" lon="4.83208">
        <ele>172.8</ele>
        <time>2014-03-23T10:55:50Z</time>
      </trkpt>
      <trkpt lat="44.9258" lon="4.83214">
        <ele>172.4</ele>
        <time>2014-03-23T10:55:51Z</time>
      </trkpt>
      <trkpt lat="44.92585" lon="4.8322">
        <ele>171.8</ele>
        <time>2014-03-23T10:55:52Z</time>
      </trkpt>
      <trkpt lat="44.92591" lon="4.83226">
        <ele>171.4</ele>
        <time>2014-03-23T10:55:53Z</time>
      </trkpt>
      <trkpt lat="44.92596" lon="4.83232">
        <ele>170.7</ele>
        <time>2014-03-23T10:55:54Z</time>
      </trkpt>
      <trkpt lat="44.92601" lon="4.83238">
        <ele>170.2</ele>
        <time>2014-03-23T10:55:55Z</time>
      </trkpt>
      <trkpt lat="44.92605" lon="4.83244">
        <ele>169.9</ele>
        <time>2014-03-23T10:55:56Z</time>
      </trkpt>
      <trkpt lat="44.9261" lon="4.8325">
        <ele>169.8</ele>
        <time>2014-03-23T10:55:57Z</time>
      </trkpt>
      <trkpt lat="44.92615" lon="4.83256">
        <ele>169.6</ele>
        <time>2014-03-23T10:55:58Z</time>
      </trkpt>
      <trkpt lat="44.9262" lon="4.83262">
        <ele>169.5</ele>
        <time>2014-03-23T10:55:59Z</time>
      </trkpt>
      <trkpt lat="44.92625" lon="4.83268">
        <ele>169.4</ele>
        <time>2014-03-23T10:56:00Z</time>
      </trkpt>
      <trkpt lat="44.92629" lon="4.83274">
        <ele>169</ele>
        <time>2014-03-23T10:56:01Z</time>
      </trkpt>
      <trkpt lat="44.92634" lon="4.8328">
        <ele>168.6</ele>
        <time>2014-03-23T10:56:02Z</time>
      </trkpt>
      <trkpt lat="44.92639" lon="4.83286">
        <ele>168.4</ele>
        <time>2014-03-23T10:56:03Z</time>
      </trkpt>
      <trkpt lat="44.92644" lon="4.83292">
        <ele>167.8</ele>
        <time>2014-03-23T10:56:04Z</time>
      </trkpt>
      <trkpt lat="44.92649" lon="4.83297">
        <ele>167.4</ele>
        <time>2014-03-23T10:56:05Z</time>
      </trkpt>
      <trkpt lat="44.92654" lon="4.83302">
        <ele>167.1</ele>
        <time>2014-03-23T10:56:06Z</time>
      </trkpt>
      <trkpt lat="44.92659" lon="4.83308">
        <ele>166.9</ele>
        <time>2014-03-23T10:56:07Z</time>
      </trkpt>
      <trkpt lat="44.92664" lon="4.83313">
        <ele>167.1</ele>
        <time>2014-03-23T10:56:08Z</time>
      </trkpt>
      <trkpt lat="44.92669" lon="4.83318">
        <ele>167.2</ele>
        <time>2014-03-23T10:56:09Z</time>
      </trkpt>
      <trkpt lat="44.92674" lon="4.83323">
        <ele>167.3</ele>
        <time>2014-03-23T10:56:10Z</time>
      </trkpt>
      <trkpt lat="44.92679" lon="4.83328">
        <ele>167.6</ele>
        <time>2014-03-23T10:56:11Z</time>
      </trkpt>
      <trkpt lat="44.92683" lon="4.83332">
        <ele>167.9</ele>
        <time>2014-03-23T10:56:12Z</time>
      </trkpt>
      <trkpt lat="44.92688" lon="4.83336">
        <ele>167.7</ele>
        <time>2014-03-23T10:56:13Z</time>
      </trkpt>
      <trkpt lat="44.92693" lon="4.83339">
        <ele>167.5</ele>
        <time>2014-03-23T10:56:14Z</time>
      </trkpt>
      <trkpt lat="44.92698" lon="4.83342">
        <ele>167.6</ele>
        <time>2014-03-23T10:56:15Z</time>
      </trkpt>
      <trkpt lat="44.92703" lon="4.83344">
        <ele>167.7</ele>
        <time>2014-03-23T10:56:16Z</time>
      </trkpt>
      <trkpt lat="44.92708" lon="4.83346">
        <ele>167.8</ele>
        <time>2014-03-23T10:56:17Z</time>
      </trkpt>
      <trkpt lat="44.92713" lon="4.83347">
        <ele>167.7</ele>
        <time>2014-03-23T10:56:18Z</time>
      </trkpt>
      <trkpt lat="44.92718" lon="4.83347">
        <ele>167.6</ele>
        <time>2014-03-23T10:56:19Z</time>
      </trkpt>
      <trkpt lat="44.92723" lon="4.83348">
        <ele>167.7</ele>
        <time>2014-03-23T10:56:20Z</time>
      </trkpt>
      <trkpt lat="44.92728" lon="4.8335">
        <ele>167.8</ele>
        <time>2014-03-23T10:56:21Z</time>
      </trkpt>
      <trkpt lat="44.92733" lon="4.83353">
        <ele>167.9</ele>
        <time>2014-03-23T10:56:22Z</time>
      </trkpt>
      <trkpt lat="44.92739" lon="4.83354">
        <ele>167.7</ele>
        <time>2014-03-23T10:56:23Z</time>
      </trkpt>
      <trkpt lat="44.92744" lon="4.83357">
        <ele>167.5</ele>
        <time>2014-03-23T10:56:24Z</time>
      </trkpt>
      <trkpt lat="44.9275" lon="4.83358">
        <ele>167.7</ele>
        <time>2014-03-23T10:56:25Z</time>
      </trkpt>
      <trkpt lat="44.92755" lon="4.8336">
        <ele>167.8</ele>
        <time>2014-03-23T10:56:26Z</time>
      </trkpt>
      <trkpt lat="44.92761" lon="4.83363">
        <ele>167.8</ele>
        <time>2014-03-23T10:56:27Z</time>
      </trkpt>
      <trkpt lat="44.92766" lon="4.83365">
        <ele>167.9</ele>
        <time>2014-03-23T10:56:28Z</time>
      </trkpt>
      <trkpt lat="44.92771" lon="4.83367">
        <ele>167.9</ele>
        <time>2014-03-23T10:56:29Z</time>
      </trkpt>
      <trkpt lat="44.92777" lon="4.8337">
        <ele>167.7</ele>
        <time>2014-03-23T10:56:30Z</time>
      </trkpt>
      <trkpt lat="44.92782" lon="4.83372">
        <ele>167.6</ele>
        <time>2014-03-23T10:56:31Z</time>
      </trkpt>
      <trkpt lat="44.92787" lon="4.83375">
        <ele>167.7</ele>
        <time>2014-03-23T10:56:32Z</time>
      </trkpt>
      <trkpt lat="44.92792" lon="4.83379">
        <ele>167.8</ele>
        <time>2014-03-23T10:56:33Z</time>
      </trkpt>
      <trkpt lat="44.92797" lon="4.83382">
        <ele>167.8</ele>
        <time>2014-03-23T10:56:34Z</time>
      </trkpt>
      <trkpt lat="44.92801" lon="4.83386">
        <ele>167.7</ele>
        <time>2014-03-23T10:56:35Z</time>
      </trkpt>
      <trkpt lat="44.92806" lon="4.8339">
        <ele>167.7</ele>
        <time>2014-03-23T10:56:36Z</time>
      </trkpt>
      <trkpt lat="44.92811" lon="4.83394">
        <ele>167.7</ele>
        <time>2014-03-23T10:56:37Z</time>
      </trkpt>
      <trkpt lat="44.92815" lon="4.83399">
        <ele>167.7</ele>
        <time>2014-03-23T10:56:38Z</time>
      </trkpt>
      <trkpt lat="44.9282" lon="4.83403">
        <ele>167.8</ele>
        <time>2014-03-23T10:56:39Z</time>
      </trkpt>
      <trkpt lat="44.92824" lon="4.83407">
        <ele>167.9</ele>
        <time>2014-03-23T10:56:40Z</time>
      </trkpt>
      <trkpt lat="44.92829" lon="4.83411">
        <ele>168</ele>
        <time>2014-03-23T10:56:41Z</time>
      </trkpt>
      <trkpt lat="44.92834" lon="4.83415">
        <ele>168.3</ele>
        <time>2014-03-23T10:56:42Z</time>
      </trkpt>
      <trkpt lat="44.92838" lon="4.83419">
        <ele>168.5</ele>
        <time>2014-03-23T10:56:43Z</time>
      </trkpt>
      <trkpt lat="44.92843" lon="4.83422">
        <ele>168.1</ele>
        <time>2014-03-23T10:56:44Z</time>
      </trkpt>
      <trkpt lat="44.92848" lon="4.83426">
        <ele>167.8</ele>
        <time>2014-03-23T10:56:45Z</time>
      </trkpt>
      <trkpt lat="44.92853" lon="4.83429">
        <ele>167.9</ele>
        <time>2014-03-23T10:56:46Z</time>
      </trkpt>
      <trkpt lat="44.92858" lon="4.83433">
        <ele>168</ele>
        <time>2014-03-23T10:56:47Z</time>
      </trkpt>
      <trkpt lat="44.92863" lon="4.83437">
        <ele>168.1</ele>
        <time>2014-03-23T10:56:48Z</time>
      </trkpt>
      <trkpt lat="44.92868" lon="4.83442">
        <ele>167.7</ele>
        <time>2014-03-23T10:56:49Z</time>
      </trkpt>
      <trkpt lat="44.92873" lon="4.83446">
        <ele>167.4</ele>
        <time>2014-03-23T10:56:50Z</time>
      </trkpt>
      <trkpt lat="44.92878" lon="4.8345">
        <ele>167.5</ele>
        <time>2014-03-23T10:56:51Z</time>
      </trkpt>
      <trkpt lat="44.92883" lon="4.83455">
        <ele>167.7</ele>
        <time>2014-03-23T10:56:52Z</time>
      </trkpt>
      <trkpt lat="44.92887" lon="4.8346">
        <ele>167.7</ele>
        <time>2014-03-23T10:56:53Z</time>
      </trkpt>
      <trkpt lat="44.92892" lon="4.83465">
        <ele>167.8</ele>
        <time>2014-03-23T10:56:54Z</time>
      </trkpt>
      <trkpt lat="44.92897" lon="4.8347">
        <ele>167.9</ele>
        <time>2014-03-23T10:56:55Z</time>
      </trkpt>
      <trkpt lat="44.92902" lon="4.83474">
        <ele>167.6</ele>
        <time>2014-03-23T10:56:56Z</time>
      </trkpt>
      <trkpt lat="44.92907" lon="4.83479">
        <ele>167.4</ele>
        <time>2014-03-23T10:56:57Z</time>
      </trkpt>
      <trkpt lat="44.92911" lon="4.83484">
        <ele>167.6</ele>
        <time>2014-03-23T10:56:58Z</time>
      </trkpt>
      <trkpt lat="44.92915" lon="4.83488">
        <ele>167.7</ele>
        <time>2014-03-23T10:56:59Z</time>
      </trkpt>
      <trkpt lat="44.9292" lon="4.83493">
        <ele>167.8</ele>
        <time>2014-03-23T10:57:00Z</time>
      </trkpt>
      <trkpt lat="44.92924" lon="4.83497">
        <ele>167.7</ele>
        <time>2014-03-23T10:57:01Z</time>
      </trkpt>
      <trkpt lat="44.92929" lon="4.83501">
        <ele>167.6</ele>
        <time>2014-03-23T10:57:02Z</time>
      </trkpt>
      <trkpt lat="44.92933" lon="4.83505">
        <ele>167.2</ele>
        <time>2014-03-23T10:57:03Z</time>
      </trkpt>
      <trkpt lat="44.92938" lon="4.8351">
        <ele>166.9</ele>
        <time>2014-03-23T10:57:04Z</time>
      </trkpt>
      <trkpt lat="44.92942" lon="4.83514">
        <ele>167.1</ele>
        <time>2014-03-23T10:57:05Z</time>
      </trkpt>
      <trkpt lat="44.92947" lon="4.83519">
        <ele>167.2</ele>
        <time>2014-03-23T10:57:06Z</time>
      </trkpt>
      <trkpt lat="44.92951" lon="4.83523">
        <ele>167.3</ele>
        <time>2014-03-23T10:57:07Z</time>
      </trkpt>
      <trkpt lat="44.92956" lon="4.83527">
        <ele>167.2</ele>
        <time>2014-03-23T10:57:08Z</time>
      </trkpt>
      <trkpt lat="44.92961" lon="4.83531">
        <ele>167.1</ele>
        <time>2014-03-23T10:57:09Z</time>
      </trkpt>
      <trkpt lat="44.92966" lon="4.83535">
        <ele>166.9</ele>
        <time>2014-03-23T10:57:10Z</time>
      </trkpt>
      <trkpt lat="44.9297" lon="4.8354">
        <ele>166.7</ele>
        <time>2014-03-23T10:57:11Z</time>
      </trkpt>
      <trkpt lat="44.92975" lon="4.83545">
        <ele>166.5</ele>
        <time>2014-03-23T10:57:12Z</time>
      </trkpt>
      <trkpt lat="44.9298" lon="4.83549">
        <ele>166.4</ele>
        <time>2014-03-23T10:57:13Z</time>
      </trkpt>
      <trkpt lat="44.92985" lon="4.83553">
        <ele>166.3</ele>
        <time>2014-03-23T10:57:14Z</time>
      </trkpt>
      <trkpt lat="44.9299" lon="4.83558">
        <ele>166.2</ele>
        <time>2014-03-23T10:57:15Z</time>
      </trkpt>
      <trkpt lat="44.92995" lon="4.83563">
        <ele>166.1</ele>
        <time>2014-03-23T10:57:16Z</time>
      </trkpt>
      <trkpt lat="44.93" lon="4.83567">
        <ele>165.8</ele>
        <time>2014-03-23T10:57:17Z</time>
      </trkpt>
      <trkpt lat="44.93005" lon="4.83571">
        <ele>165.5</ele>
        <time>2014-03-23T10:57:18Z</time>
      </trkpt>
      <trkpt lat="44.93009" lon="4.83575">
        <ele>165.3</ele>
        <time>2014-03-23T10:57:19Z</time>
      </trkpt>
      <trkpt lat="44.93014" lon="4.83579">
        <ele>165.3</ele>
        <time>2014-03-23T10:57:20Z</time>
      </trkpt>
      <trkpt lat="44.93019" lon="4.83583">
        <ele>165.3</ele>
        <time>2014-03-23T10:57:21Z</time>
      </trkpt>
      <trkpt lat="44.93025" lon="4.83587">
        <ele>164.9</ele>
        <time>2014-03-23T10:57:22Z</time>
      </trkpt>
      <trkpt lat="44.9303" lon="4.8359">
        <ele>164.6</ele>
        <time>2014-03-23T10:57:23Z</time>
      </trkpt>
      <trkpt lat="44.93036" lon="4.83593">
        <ele>164.4</ele>
        <time>2014-03-23T10:57:24Z</time>
      </trkpt>
      <trkpt lat="44.93041" lon="4.83596">
        <ele>164.2</ele>
        <time>2014-03-23T10:57:25Z</time>
      </trkpt>
      <trkpt lat="44.93046" lon="4.83599">
        <ele>164</ele>
        <time>2014-03-23T10:57:26Z</time>
      </trkpt>
      <trkpt lat="44.93052" lon="4.83602">
        <ele>164.1</ele>
        <time>2014-03-23T10:57:27Z</time>
      </trkpt>
      <trkpt lat="44.93057" lon="4.83605">
        <ele>164.2</ele>
        <time>2014-03-23T10:57:28Z</time>
      </trkpt>
      <trkpt lat="44.93063" lon="4.83608">
        <ele>163.9</ele>
        <time>2014-03-23T10:57:29Z</time>
      </trkpt>
      <trkpt lat="44.93068" lon="4.83611">
        <ele>163.6</ele>
        <time>2014-03-23T10:57:30Z</time>
      </trkpt>
      <trkpt lat="44.93073" lon="4.83615">
        <ele>163.6</ele>
        <time>2014-03-23T10:57:31Z</time>
      </trkpt>
      <trkpt lat="44.93079" lon="4.83618">
        <ele>163.5</ele>
        <time>2014-03-23T10:57:32Z</time>
      </trkpt>
      <trkpt lat="44.93085" lon="4.83622">
        <ele>163.5</ele>
        <time>2014-03-23T10:57:33Z</time>
      </trkpt>
      <trkpt lat="44.9309" lon="4.83625">
        <ele>163.2</ele>
        <time>2014-03-23T10:57:34Z</time>
      </trkpt>
      <trkpt lat="44.93096" lon="4.83628">
        <ele>163.1</ele>
        <time>2014-03-23T10:57:35Z</time>
      </trkpt>
      <trkpt lat="44.93102" lon="4.83631">
        <ele>162.9</ele>
        <time>2014-03-23T10:57:36Z</time>
      </trkpt>
      <trkpt lat="44.93107" lon="4.83634">
        <ele>162.7</ele>
        <time>2014-03-23T10:57:37Z</time>
      </trkpt>
      <trkpt lat="44.93113" lon="4.83637">
        <ele>162.8</ele>
        <time>2014-03-23T10:57:38Z</time>
      </trkpt>
      <trkpt lat="44.93118" lon="4.83639">
        <ele>163</ele>
        <time>2014-03-23T10:57:39Z</time>
      </trkpt>
      <trkpt lat="44.93124" lon="4.83642">
        <ele>163</ele>
        <time>2014-03-23T10:57:40Z</time>
      </trkpt>
      <trkpt lat="44.93129" lon="4.83646">
        <ele>162.9</ele>
        <time>2014-03-23T10:57:41Z</time>
      </trkpt>
      <trkpt lat="44.93134" lon="4.83649">
        <ele>162.8</ele>
        <time>2014-03-23T10:57:42Z</time>
      </trkpt>
      <trkpt lat="44.9314" lon="4.83652">
        <ele>162.4</ele>
        <time>2014-03-23T10:57:43Z</time>
      </trkpt>
      <trkpt lat="44.93145" lon="4.83655">
        <ele>162.2</ele>
        <time>2014-03-23T10:57:44Z</time>
      </trkpt>
      <trkpt lat="44.9315" lon="4.83658">
        <ele>162</ele>
        <time>2014-03-23T10:57:45Z</time>
      </trkpt>
      <trkpt lat="44.93156" lon="4.83661">
        <ele>161.8</ele>
        <time>2014-03-23T10:57:46Z</time>
      </trkpt>
      <trkpt lat="44.93161" lon="4.83663">
        <ele>161.7</ele>
        <time>2014-03-23T10:57:47Z</time>
      </trkpt>
      <trkpt lat="44.93166" lon="4.83665">
        <ele>161.7</ele>
        <time>2014-03-23T10:57:48Z</time>
      </trkpt>
      <trkpt lat="44.93171" lon="4.83668">
        <ele>161.7</ele>
        <time>2014-03-23T10:57:49Z</time>
      </trkpt>
      <trkpt lat="44.93176" lon="4.8367">
        <ele>161.5</ele>
        <time>2014-03-23T10:57:50Z</time>
      </trkpt>
      <trkpt lat="44.93181" lon="4.83672">
        <ele>161.4</ele>
        <time>2014-03-23T10:57:51Z</time>
      </trkpt>
      <trkpt lat="44.93187" lon="4.83674">
        <ele>161.4</ele>
        <time>2014-03-23T10:57:52Z</time>
      </trkpt>
      <trkpt lat="44.93192" lon="4.83676">
        <ele>161.3</ele>
        <time>2014-03-23T10:57:53Z</time>
      </trkpt>
      <trkpt lat="44.93197" lon="4.83677">
        <ele>161.3</ele>
        <time>2014-03-23T10:57:54Z</time>
      </trkpt>
      <trkpt lat="44.93202" lon="4.83678">
        <ele>161.1</ele>
        <time>2014-03-23T10:57:55Z</time>
      </trkpt>
      <trkpt lat="44.93207" lon="4.83679">
        <ele>161</ele>
        <time>2014-03-23T10:57:56Z</time>
      </trkpt>
      <trkpt lat="44.93212" lon="4.83679">
        <ele>161.4</ele>
        <time>2014-03-23T10:57:57Z</time>
      </trkpt>
      <trkpt lat="44.93217" lon="4.83679">
        <ele>161.7</ele>
        <time>2014-03-23T10:57:58Z</time>
      </trkpt>
      <trkpt lat="44.93222" lon="4.83679">
        <ele>161.9</ele>
        <time>2014-03-23T10:57:59Z</time>
      </trkpt>
      <trkpt lat="44.93227" lon="4.83679">
        <ele>161.9</ele>
        <time>2014-03-23T10:58:00Z</time>
      </trkpt>
      <trkpt lat="44.93232" lon="4.8368">
        <ele>161.9</ele>
        <time>2014-03-23T10:58:01Z</time>
      </trkpt>
      <trkpt lat="44.93237" lon="4.83682">
        <ele>162.1</ele>
        <time>2014-03-23T10:58:02Z</time>
      </trkpt>
      <trkpt lat="44.93241" lon="4.83684">
        <ele>162.3</ele>
        <time>2014-03-23T10:58:03Z</time>
      </trkpt>
      <trkpt lat="44.93245" lon="4.83688">
        <ele>162.4</ele>
        <time>2014-03-23T10:58:04Z</time>
      </trkpt>
      <trkpt lat="44.93249" lon="4.83692">
        <ele>162.4</ele>
        <time>2014-03-23T10:58:05Z</time>
      </trkpt>
      <trkpt lat="44.93256" lon="4.83698">
        <ele>162.4</ele>
        <time>2014-03-23T10:58:07Z</time>
      </trkpt>
      <trkpt lat="44.93263" lon="4.83703">
        <ele>162.2</ele>
        <time>2014-03-23T10:58:09Z</time>
      </trkpt>
      <trkpt lat="44.93269" lon="4.83707">
        <ele>162</ele>
        <time>2014-03-23T10:58:11Z</time>
      </trkpt>
      <trkpt lat="44.93277" lon="4.8371">
        <ele>162.1</ele>
        <time>2014-03-23T10:58:13Z</time>
      </trkpt>
      <trkpt lat="44.93281" lon="4.83711">
        <ele>162.1</ele>
        <time>2014-03-23T10:58:14Z</time>
      </trkpt>
      <trkpt lat="44.93287" lon="4.83712">
        <ele>162.2</ele>
        <time>2014-03-23T10:58:15Z</time>
      </trkpt>
      <trkpt lat="44.93292" lon="4.83712">
        <ele>162</ele>
        <time>2014-03-23T10:58:16Z</time>
      </trkpt>
      <trkpt lat="44.93297" lon="4.83711">
        <ele>161.9</ele>
        <time>2014-03-23T10:58:17Z</time>
      </trkpt>
      <trkpt lat="44.93302" lon="4.83711">
        <ele>161.9</ele>
        <time>2014-03-23T10:58:18Z</time>
      </trkpt>
      <trkpt lat="44.93307" lon="4.8371">
        <ele>161.5</ele>
        <time>2014-03-23T10:58:19Z</time>
      </trkpt>
      <trkpt lat="44.93312" lon="4.8371">
        <ele>161.3</ele>
        <time>2014-03-23T10:58:20Z</time>
      </trkpt>
      <trkpt lat="44.93317" lon="4.8371">
        <ele>161.1</ele>
        <time>2014-03-23T10:58:21Z</time>
      </trkpt>
      <trkpt lat="44.93322" lon="4.8371">
        <ele>161</ele>
        <time>2014-03-23T10:58:22Z</time>
      </trkpt>
      <trkpt lat="44.93326" lon="4.83712">
        <ele>160.9</ele>
        <time>2014-03-23T10:58:23Z</time>
      </trkpt>
      <trkpt lat="44.93331" lon="4.83713">
        <ele>161.2</ele>
        <time>2014-03-23T10:58:24Z</time>
      </trkpt>
      <trkpt lat="44.93335" lon="4.83715">
        <ele>161.4</ele>
        <time>2014-03-23T10:58:25Z</time>
      </trkpt>
      <trkpt lat="44.93339" lon="4.83719">
        <ele>161.3</ele>
        <time>2014-03-23T10:58:26Z</time>
      </trkpt>
      <trkpt lat="44.93342" lon="4.83722">
        <ele>161.3</ele>
        <time>2014-03-23T10:58:27Z</time>
      </trkpt>
      <trkpt lat="44.93346" lon="4.83726">
        <ele>161.3</ele>
        <time>2014-03-23T10:58:28Z</time>
      </trkpt>
      <trkpt lat="44.9335" lon="4.8373">
        <ele>161.3</ele>
        <time>2014-03-23T10:58:29Z</time>
      </trkpt>
      <trkpt lat="44.93353" lon="4.83735">
        <ele>161.3</ele>
        <time>2014-03-23T10:58:30Z</time>
      </trkpt>
      <trkpt lat="44.93357" lon="4.83739">
        <ele>161.2</ele>
        <time>2014-03-23T10:58:31Z</time>
      </trkpt>
      <trkpt lat="44.9336" lon="4.83744">
        <ele>161.1</ele>
        <time>2014-03-23T10:58:32Z</time>
      </trkpt>
      <trkpt lat="44.93363" lon="4.83749">
        <ele>161.1</ele>
        <time>2014-03-23T10:58:33Z</time>
      </trkpt>
      <trkpt lat="44.93366" lon="4.83754">
        <ele>161</ele>
        <time>2014-03-23T10:58:34Z</time>
      </trkpt>
      <trkpt lat="44.93372" lon="4.83763">
        <ele>161.1</ele>
        <time>2014-03-23T10:58:36Z</time>
      </trkpt>
      <trkpt lat="44.93378" lon="4.83771">
        <ele>161.1</ele>
        <time>2014-03-23T10:58:38Z</time>
      </trkpt>
      <trkpt lat="44.93382" lon="4.83775">
        <ele>161.1</ele>
        <time>2014-03-23T10:58:39Z</time>
      </trkpt>
      <trkpt lat="44.93386" lon="4.83778">
        <ele>161.7</ele>
        <time>2014-03-23T10:58:40Z</time>
      </trkpt>
      <trkpt lat="44.93391" lon="4.8378">
        <ele>162.1</ele>
        <time>2014-03-23T10:58:41Z</time>
      </trkpt>
      <trkpt lat="44.93399" lon="4.83785">
        <ele>162.5</ele>
        <time>2014-03-23T10:58:43Z</time>
      </trkpt>
      <trkpt lat="44.93403" lon="4.83788">
        <ele>162.5</ele>
        <time>2014-03-23T10:58:44Z</time>
      </trkpt>
      <trkpt lat="44.93407" lon="4.83791">
        <ele>162.5</ele>
        <time>2014-03-23T10:58:45Z</time>
      </trkpt>
      <trkpt lat="44.93411" lon="4.83793">
        <ele>162.4</ele>
        <time>2014-03-23T10:58:46Z</time>
      </trkpt>
      <trkpt lat="44.93415" lon="4.83796">
        <ele>162.7</ele>
        <time>2014-03-23T10:58:47Z</time>
      </trkpt>
      <trkpt lat="44.9342" lon="4.83798">
        <ele>162.9</ele>
        <time>2014-03-23T10:58:48Z</time>
      </trkpt>
      <trkpt lat="44.93424" lon="4.83801">
        <ele>163</ele>
        <time>2014-03-23T10:58:49Z</time>
      </trkpt>
      <trkpt lat="44.93428" lon="4.83804">
        <ele>162.9</ele>
        <time>2014-03-23T10:58:50Z</time>
      </trkpt>
      <trkpt lat="44.93433" lon="4.83806">
        <ele>162.8</ele>
        <time>2014-03-23T10:58:51Z</time>
      </trkpt>
      <trkpt lat="44.93437" lon="4.83808">
        <ele>162.8</ele>
        <time>2014-03-23T10:58:52Z</time>
      </trkpt>
      <trkpt lat="44.93445" lon="4.83814">
        <ele>162.7</ele>
        <time>2014-03-23T10:58:54Z</time>
      </trkpt>
      <trkpt lat="44.93449" lon="4.83817">
        <ele>162.6</ele>
        <time>2014-03-23T10:58:55Z</time>
      </trkpt>
      <trkpt lat="44.93453" lon="4.83821">
        <ele>162.5</ele>
        <time>2014-03-23T10:58:56Z</time>
      </trkpt>
      <trkpt lat="44.93457" lon="4.83824">
        <ele>162.1</ele>
        <time>2014-03-23T10:58:57Z</time>
      </trkpt>
      <trkpt lat="44.93461" lon="4.83828">
        <ele>161.8</ele>
        <time>2014-03-23T10:58:58Z</time>
      </trkpt>
      <trkpt lat="44.93466" lon="4.83832">
        <ele>161.9</ele>
        <time>2014-03-23T10:58:59Z</time>
      </trkpt>
      <trkpt lat="44.93471" lon="4.83835">
        <ele>162</ele>
        <time>2014-03-23T10:59:00Z</time>
      </trkpt>
      <trkpt lat="44.93476" lon="4.83837">
        <ele>162.1</ele>
        <time>2014-03-23T10:59:01Z</time>
      </trkpt>
      <trkpt lat="44.93482" lon="4.8384">
        <ele>162.1</ele>
        <time>2014-03-23T10:59:02Z</time>
      </trkpt>
      <trkpt lat="44.93488" lon="4.83842">
        <ele>162.1</ele>
        <time>2014-03-23T10:59:03Z</time>
      </trkpt>
      <trkpt lat="44.93493" lon="4.83844">
        <ele>161.7</ele>
        <time>2014-03-23T10:59:04Z</time>
      </trkpt>
      <trkpt lat="44.93499" lon="4.83847">
        <ele>161.5</ele>
        <time>2014-03-23T10:59:05Z</time>
      </trkpt>
      <trkpt lat="44.93504" lon="4.83852">
        <ele>161.5</ele>
        <time>2014-03-23T10:59:06Z</time>
      </trkpt>
      <trkpt lat="44.93509" lon="4.83857">
        <ele>161.5</ele>
        <time>2014-03-23T10:59:07Z</time>
      </trkpt>
      <trkpt lat="44.93514" lon="4.83861">
        <ele>161.5</ele>
        <time>2014-03-23T10:59:08Z</time>
      </trkpt>
      <trkpt lat="44.93519" lon="4.83865">
        <ele>161</ele>
        <time>2014-03-23T10:59:09Z</time>
      </trkpt>
      <trkpt lat="44.93524" lon="4.83867">
        <ele>160.6</ele>
        <time>2014-03-23T10:59:10Z</time>
      </trkpt>
      <trkpt lat="44.93529" lon="4.83869">
        <ele>160.4</ele>
        <time>2014-03-23T10:59:11Z</time>
      </trkpt>
      <trkpt lat="44.93534" lon="4.83869">
        <ele>160.2</ele>
        <time>2014-03-23T10:59:12Z</time>
      </trkpt>
      <trkpt lat="44.93539" lon="4.83869">
        <ele>160.4</ele>
        <time>2014-03-23T10:59:13Z</time>
      </trkpt>
      <trkpt lat="44.93544" lon="4.83869">
        <ele>160.5</ele>
        <time>2014-03-23T10:59:14Z</time>
      </trkpt>
      <trkpt lat="44.93549" lon="4.83869">
        <ele>160.6</ele>
        <time>2014-03-23T10:59:15Z</time>
      </trkpt>
      <trkpt lat="44.93554" lon="4.83868">
        <ele>160.5</ele>
        <time>2014-03-23T10:59:16Z</time>
      </trkpt>
      <trkpt lat="44.93559" lon="4.83867">
        <ele>160.4</ele>
        <time>2014-03-23T10:59:17Z</time>
      </trkpt>
      <trkpt lat="44.93564" lon="4.83866">
        <ele>160.6</ele>
        <time>2014-03-23T10:59:18Z</time>
      </trkpt>
      <trkpt lat="44.93569" lon="4.83865">
        <ele>160.7</ele>
        <time>2014-03-23T10:59:19Z</time>
      </trkpt>
      <trkpt lat="44.93574" lon="4.83863">
        <ele>160.8</ele>
        <time>2014-03-23T10:59:20Z</time>
      </trkpt>
      <trkpt lat="44.93579" lon="4.83861">
        <ele>160.6</ele>
        <time>2014-03-23T10:59:21Z</time>
      </trkpt>
      <trkpt lat="44.93584" lon="4.83859">
        <ele>160.5</ele>
        <time>2014-03-23T10:59:22Z</time>
      </trkpt>
      <trkpt lat="44.93589" lon="4.83857">
        <ele>160.2</ele>
        <time>2014-03-23T10:59:23Z</time>
      </trkpt>
      <trkpt lat="44.93594" lon="4.83854">
        <ele>160</ele>
        <time>2014-03-23T10:59:24Z</time>
      </trkpt>
      <trkpt lat="44.93599" lon="4.83852">
        <ele>159.7</ele>
        <time>2014-03-23T10:59:25Z</time>
      </trkpt>
      <trkpt lat="44.93604" lon="4.8385">
        <ele>159.4</ele>
        <time>2014-03-23T10:59:26Z</time>
      </trkpt>
      <trkpt lat="44.93609" lon="4.83848">
        <ele>159.2</ele>
        <time>2014-03-23T10:59:27Z</time>
      </trkpt>
      <trkpt lat="44.93615" lon="4.83847">
        <ele>159.2</ele>
        <time>2014-03-23T10:59:28Z</time>
      </trkpt>
      <trkpt lat="44.9362" lon="4.83847">
        <ele>159.2</ele>
        <time>2014-03-23T10:59:29Z</time>
      </trkpt>
      <trkpt lat="44.93625" lon="4.83848">
        <ele>159.1</ele>
        <time>2014-03-23T10:59:30Z</time>
      </trkpt>
      <trkpt lat="44.9363" lon="4.83849">
        <ele>159.1</ele>
        <time>2014-03-23T10:59:31Z</time>
      </trkpt>
      <trkpt lat="44.93635" lon="4.83851">
        <ele>159.1</ele>
        <time>2014-03-23T10:59:32Z</time>
      </trkpt>
      <trkpt lat="44.9364" lon="4.83852">
        <ele>159.1</ele>
        <time>2014-03-23T10:59:33Z</time>
      </trkpt>
      <trkpt lat="44.93645" lon="4.83854">
        <ele>159.1</ele>
        <time>2014-03-23T10:59:34Z</time>
      </trkpt>
      <trkpt lat="44.9365" lon="4.83856">
        <ele>159.3</ele>
        <time>2014-03-23T10:59:35Z</time>
      </trkpt>
      <trkpt lat="44.93655" lon="4.83858">
        <ele>159.5</ele>
        <time>2014-03-23T10:59:36Z</time>
      </trkpt>
      <trkpt lat="44.9366" lon="4.8386">
        <ele>159.6</ele>
        <time>2014-03-23T10:59:37Z</time>
      </trkpt>
      <trkpt lat="44.93665" lon="4.83862">
        <ele>159.8</ele>
        <time>2014-03-23T10:59:38Z</time>
      </trkpt>
      <trkpt lat="44.9367" lon="4.83864">
        <ele>159.8</ele>
        <time>2014-03-23T10:59:39Z</time>
      </trkpt>
      <trkpt lat="44.93675" lon="4.83865">
        <ele>159.8</ele>
        <time>2014-03-23T10:59:40Z</time>
      </trkpt>
      <trkpt lat="44.9368" lon="4.83867">
        <ele>159.8</ele>
        <time>2014-03-23T10:59:41Z</time>
      </trkpt>
      <trkpt lat="44.93685" lon="4.83868">
        <ele>160.3</ele>
        <time>2014-03-23T10:59:42Z</time>
      </trkpt>
      <trkpt lat="44.9369" lon="4.83869">
        <ele>160.7</ele>
        <time>2014-03-23T10:59:43Z</time>
      </trkpt>
      <trkpt lat="44.93696" lon="4.83871">
        <ele>160.3</ele>
        <time>2014-03-23T10:59:44Z</time>
      </trkpt>
      <trkpt lat="44.93701" lon="4.83873">
        <ele>160</ele>
        <time>2014-03-23T10:59:45Z</time>
      </trkpt>
      <trkpt lat="44.93706" lon="4.83875">
        <ele>159.8</ele>
        <time>2014-03-23T10:59:46Z</time>
      </trkpt>
      <trkpt lat="44.93711" lon="4.83877">
        <ele>159.2</ele>
        <time>2014-03-23T10:59:47Z</time>
      </trkpt>
      <trkpt lat="44.93716" lon="4.8388">
        <ele>158.8</ele>
        <time>2014-03-23T10:59:48Z</time>
      </trkpt>
      <trkpt lat="44.93721" lon="4.83882">
        <ele>158.5</ele>
        <time>2014-03-23T10:59:49Z</time>
      </trkpt>
      <trkpt lat="44.93727" lon="4.83886">
        <ele>158.3</ele>
        <time>2014-03-23T10:59:50Z</time>
      </trkpt>
      <trkpt lat="44.93732" lon="4.83889">
        <ele>157.9</ele>
        <time>2014-03-23T10:59:51Z</time>
      </trkpt>
      <trkpt lat="44.93737" lon="4.83893">
        <ele>157.5</ele>
        <time>2014-03-23T10:59:52Z</time>
      </trkpt>
      <trkpt lat="44.93743" lon="4.83897">
        <ele>157.3</ele>
        <time>2014-03-23T10:59:53Z</time>
      </trkpt>
      <trkpt lat="44.93748" lon="4.83901">
        <ele>157.2</ele>
        <time>2014-03-23T10:59:54Z</time>
      </trkpt>
      <trkpt lat="44.93754" lon="4.83905">
        <ele>157.1</ele>
        <time>2014-03-23T10:59:55Z</time>
      </trkpt>
      <trkpt lat="44.93759" lon="4.83909">
        <ele>156.7</ele>
        <time>2014-03-23T10:59:56Z</time>
      </trkpt>
      <trkpt lat="44.93765" lon="4.83913">
        <ele>156.5</ele>
        <time>2014-03-23T10:59:57Z</time>
      </trkpt>
      <trkpt lat="44.93771" lon="4.83917">
        <ele>156.3</ele>
        <time>2014-03-23T10:59:58Z</time>
      </trkpt>
      <trkpt lat="44.93776" lon="4.8392">
        <ele>155.8</ele>
        <time>2014-03-23T10:59:59Z</time>
      </trkpt>
      <trkpt lat="44.93782" lon="4.83923">
        <ele>155.5</ele>
        <time>2014-03-23T11:00:00Z</time>
      </trkpt>
      <trkpt lat="44.93787" lon="4.83926">
        <ele>155.3</ele>
        <time>2014-03-23T11:00:01Z</time>
      </trkpt>
      <trkpt lat="44.93792" lon="4.83929">
        <ele>155.1</ele>
        <time>2014-03-23T11:00:02Z</time>
      </trkpt>
      <trkpt lat="44.93798" lon="4.83932">
        <ele>155.1</ele>
        <time>2014-03-23T11:00:03Z</time>
      </trkpt>
      <trkpt lat="44.93803" lon="4.83934">
        <ele>155</ele>
        <time>2014-03-23T11:00:04Z</time>
      </trkpt>
      <trkpt lat="44.93808" lon="4.83936">
        <ele>154.9</ele>
        <time>2014-03-23T11:00:05Z</time>
      </trkpt>
      <trkpt lat="44.93814" lon="4.83937">
        <ele>155</ele>
        <time>2014-03-23T11:00:06Z</time>
      </trkpt>
      <trkpt lat="44.93819" lon="4.83939">
        <ele>155</ele>
        <time>2014-03-23T11:00:07Z</time>
      </trkpt>
      <trkpt lat="44.93824" lon="4.83941">
        <ele>154.7</ele>
        <time>2014-03-23T11:00:08Z</time>
      </trkpt>
      <trkpt lat="44.93829" lon="4.83944">
        <ele>154.4</ele>
        <time>2014-03-23T11:00:09Z</time>
      </trkpt>
      <trkpt lat="44.93834" lon="4.83946">
        <ele>154.3</ele>
        <time>2014-03-23T11:00:10Z</time>
      </trkpt>
      <trkpt lat="44.93839" lon="4.83949">
        <ele>154.3</ele>
        <time>2014-03-23T11:00:11Z</time>
      </trkpt>
      <trkpt lat="44.93843" lon="4.83952">
        <ele>154.3</ele>
        <time>2014-03-23T11:00:12Z</time>
      </trkpt>
      <trkpt lat="44.93847" lon="4.83956">
        <ele>154.4</ele>
        <time>2014-03-23T11:00:13Z</time>
      </trkpt>
      <trkpt lat="44.93851" lon="4.83961">
        <ele>154.5</ele>
        <time>2014-03-23T11:00:14Z</time>
      </trkpt>
      <trkpt lat="44.93855" lon="4.83966">
        <ele>154.6</ele>
        <time>2014-03-23T11:00:15Z</time>
      </trkpt>
      <trkpt lat="44.93859" lon="4.83971">
        <ele>154.7</ele>
        <time>2014-03-23T11:00:16Z</time>
      </trkpt>
      <trkpt lat="44.93863" lon="4.83977">
        <ele>154.2</ele>
        <time>2014-03-23T11:00:17Z</time>
      </trkpt>
      <trkpt lat="44.93868" lon="4.83981">
        <ele>153.8</ele>
        <time>2014-03-23T11:00:18Z</time>
      </trkpt>
      <trkpt lat="44.93873" lon="4.83985">
        <ele>153.4</ele>
        <time>2014-03-23T11:00:19Z</time>
      </trkpt>
      <trkpt lat="44.93879" lon="4.83988">
        <ele>152.9</ele>
        <time>2014-03-23T11:00:20Z</time>
      </trkpt>
      <trkpt lat="44.93884" lon="4.83991">
        <ele>152.4</ele>
        <time>2014-03-23T11:00:21Z</time>
      </trkpt>
      <trkpt lat="44.93889" lon="4.83994">
        <ele>152.1</ele>
        <time>2014-03-23T11:00:22Z</time>
      </trkpt>
      <trkpt lat="44.93893" lon="4.83997">
        <ele>151.9</ele>
        <time>2014-03-23T11:00:23Z</time>
      </trkpt>
      <trkpt lat="44.93898" lon="4.84">
        <ele>151.7</ele>
        <time>2014-03-23T11:00:24Z</time>
      </trkpt>
      <trkpt lat="44.93903" lon="4.84003">
        <ele>151.6</ele>
        <time>2014-03-23T11:00:25Z</time>
      </trkpt>
      <trkpt lat="44.93908" lon="4.84006">
        <ele>151.5</ele>
        <time>2014-03-23T11:00:26Z</time>
      </trkpt>
      <trkpt lat="44.93913" lon="4.84009">
        <ele>151.7</ele>
        <time>2014-03-23T11:00:27Z</time>
      </trkpt>
      <trkpt lat="44.93918" lon="4.84012">
        <ele>151.9</ele>
        <time>2014-03-23T11:00:28Z</time>
      </trkpt>
      <trkpt lat="44.93923" lon="4.84015">
        <ele>151.7</ele>
        <time>2014-03-23T11:00:29Z</time>
      </trkpt>
      <trkpt lat="44.93927" lon="4.84018">
        <ele>151.5</ele>
        <time>2014-03-23T11:00:30Z</time>
      </trkpt>
      <trkpt lat="44.93931" lon="4.84022">
        <ele>151.4</ele>
        <time>2014-03-23T11:00:31Z</time>
      </trkpt>
      <trkpt lat="44.93935" lon="4.84026">
        <ele>151.1</ele>
        <time>2014-03-23T11:00:32Z</time>
      </trkpt>
      <trkpt lat="44.93941" lon="4.84034">
        <ele>151</ele>
        <time>2014-03-23T11:00:34Z</time>
      </trkpt>
      <trkpt lat="44.93946" lon="4.84042">
        <ele>151.1</ele>
        <time>2014-03-23T11:00:36Z</time>
      </trkpt>
      <trkpt lat="44.93952" lon="4.84051">
        <ele>151.2</ele>
        <time>2014-03-23T11:00:38Z</time>
      </trkpt>
      <trkpt lat="44.93956" lon="4.84055">
        <ele>151.3</ele>
        <time>2014-03-23T11:00:39Z</time>
      </trkpt>
      <trkpt lat="44.9396" lon="4.84058">
        <ele>151.4</ele>
        <time>2014-03-23T11:00:40Z</time>
      </trkpt>
      <trkpt lat="44.93965" lon="4.8406">
        <ele>151.7</ele>
        <time>2014-03-23T11:00:41Z</time>
      </trkpt>
      <trkpt lat="44.93969" lon="4.84061">
        <ele>152</ele>
        <time>2014-03-23T11:00:42Z</time>
      </trkpt>
      <trkpt lat="44.93974" lon="4.84062">
        <ele>152.2</ele>
        <time>2014-03-23T11:00:43Z</time>
      </trkpt>
      <trkpt lat="44.93979" lon="4.84063">
        <ele>152.2</ele>
        <time>2014-03-23T11:00:44Z</time>
      </trkpt>
      <trkpt lat="44.93987" lon="4.84066">
        <ele>152</ele>
        <time>2014-03-23T11:00:46Z</time>
      </trkpt>
      <trkpt lat="44.93995" lon="4.8407">
        <ele>151.8</ele>
        <time>2014-03-23T11:00:48Z</time>
      </trkpt>
      <trkpt lat="44.94004" lon="4.84074">
        <ele>151.7</ele>
        <time>2014-03-23T11:00:50Z</time>
      </trkpt>
      <trkpt lat="44.94012" lon="4.84078">
        <ele>151.5</ele>
        <time>2014-03-23T11:00:52Z</time>
      </trkpt>
      <trkpt lat="44.94021" lon="4.84082">
        <ele>151.7</ele>
        <time>2014-03-23T11:00:54Z</time>
      </trkpt>
      <trkpt lat="44.94029" lon="4.84087">
        <ele>151.9</ele>
        <time>2014-03-23T11:00:56Z</time>
      </trkpt>
      <trkpt lat="44.94036" lon="4.84093">
        <ele>151.6</ele>
        <time>2014-03-23T11:00:58Z</time>
      </trkpt>
      <trkpt lat="44.9404" lon="4.84096">
        <ele>151.4</ele>
        <time>2014-03-23T11:00:59Z</time>
      </trkpt>
      <trkpt lat="44.94049" lon="4.84101">
        <ele>151.3</ele>
        <time>2014-03-23T11:01:01Z</time>
      </trkpt>
      <trkpt lat="44.94057" lon="4.84104">
        <ele>150.9</ele>
        <time>2014-03-23T11:01:03Z</time>
      </trkpt>
      <trkpt lat="44.94061" lon="4.84104">
        <ele>150.8</ele>
        <time>2014-03-23T11:01:04Z</time>
      </trkpt>
      <trkpt lat="44.94074" lon="4.84103">
        <ele>150.4</ele>
        <time>2014-03-23T11:01:07Z</time>
      </trkpt>
      <trkpt lat="44.94081" lon="4.84105">
        <ele>150.1</ele>
        <time>2014-03-23T11:01:09Z</time>
      </trkpt>
      <trkpt lat="44.94088" lon="4.84107">
        <ele>150.1</ele>
        <time>2014-03-23T11:01:11Z</time>
      </trkpt>
      <trkpt lat="44.94095" lon="4.84113">
        <ele>150.7</ele>
        <time>2014-03-23T11:01:13Z</time>
      </trkpt>
      <trkpt lat="44.94102" lon="4.84121">
        <ele>150.5</ele>
        <time>2014-03-23T11:01:15Z</time>
      </trkpt>
      <trkpt lat="44.94105" lon="4.84126">
        <ele>150.4</ele>
        <time>2014-03-23T11:01:16Z</time>
      </trkpt>
      <trkpt lat="44.94108" lon="4.84131">
        <ele>150.1</ele>
        <time>2014-03-23T11:01:17Z</time>
      </trkpt>
      <trkpt lat="44.94111" lon="4.84136">
        <ele>149.9</ele>
        <time>2014-03-23T11:01:18Z</time>
      </trkpt>
      <trkpt lat="44.94114" lon="4.8414">
        <ele>149.6</ele>
        <time>2014-03-23T11:01:19Z</time>
      </trkpt>
      <trkpt lat="44.94117" lon="4.84145">
        <ele>149.5</ele>
        <time>2014-03-23T11:01:20Z</time>
      </trkpt>
      <trkpt lat="44.94124" lon="4.84154">
        <ele>149.7</ele>
        <time>2014-03-23T11:01:22Z</time>
      </trkpt>
      <trkpt lat="44.94129" lon="4.84162">
        <ele>149.6</ele>
        <time>2014-03-23T11:01:24Z</time>
      </trkpt>
      <trkpt lat="44.94135" lon="4.84169">
        <ele>148.6</ele>
        <time>2014-03-23T11:01:26Z</time>
      </trkpt>
      <trkpt lat="44.94141" lon="4.84176">
        <ele>147.6</ele>
        <time>2014-03-23T11:01:28Z</time>
      </trkpt>
      <trkpt lat="44.94147" lon="4.84181">
        <ele>148.1</ele>
        <time>2014-03-23T11:01:30Z</time>
      </trkpt>
      <trkpt lat="44.94154" lon="4.84187">
        <ele>148.3</ele>
        <time>2014-03-23T11:01:32Z</time>
      </trkpt>
      <trkpt lat="44.94162" lon="4.84189">
        <ele>148.5</ele>
        <time>2014-03-23T11:01:34Z</time>
      </trkpt>
      <trkpt lat="44.94169" lon="4.84184">
        <ele>149.4</ele>
        <time>2014-03-23T11:01:37Z</time>
      </trkpt>
      <trkpt lat="44.94175" lon="4.84174">
        <ele>150</ele>
        <time>2014-03-23T11:01:40Z</time>
      </trkpt>
      <trkpt lat="44.9418" lon="4.84165">
        <ele>149.8</ele>
        <time>2014-03-23T11:01:43Z</time>
      </trkpt>
      <trkpt lat="44.94188" lon="4.84163">
        <ele>150.8</ele>
        <time>2014-03-23T11:01:47Z</time>
      </trkpt>
      <trkpt lat="44.94196" lon="4.84168">
        <ele>150.5</ele>
        <time>2014-03-23T11:01:49Z</time>
      </trkpt>
      <trkpt lat="44.94201" lon="4.84172">
        <ele>150.2</ele>
        <time>2014-03-23T11:01:50Z</time>
      </trkpt>
      <trkpt lat="44.94205" lon="4.84176">
        <ele>149.9</ele>
        <time>2014-03-23T11:01:51Z</time>
      </trkpt>
      <trkpt lat="44.94211" lon="4.84183">
        <ele>149.4</ele>
        <time>2014-03-23T11:01:53Z</time>
      </trkpt>
      <trkpt lat="44.94215" lon="4.8419">
        <ele>148.9</ele>
        <time>2014-03-23T11:01:55Z</time>
      </trkpt>
      <trkpt lat="44.94222" lon="4.84191">
        <ele>148.4</ele>
        <time>2014-03-23T11:01:58Z</time>
      </trkpt>
      <trkpt lat="44.94228" lon="4.84184">
        <ele>148.7</ele>
        <time>2014-03-23T11:02:01Z</time>
      </trkpt>
      <trkpt lat="44.94233" lon="4.84176">
        <ele>148.9</ele>
        <time>2014-03-23T11:02:03Z</time>
      </trkpt>
      <trkpt lat="44.94239" lon="4.84168">
        <ele>149.1</ele>
        <time>2014-03-23T11:02:05Z</time>
      </trkpt>
      <trkpt lat="44.94242" lon="4.84163">
        <ele>149.1</ele>
        <time>2014-03-23T11:02:06Z</time>
      </trkpt>
      <trkpt lat="44.94248" lon="4.84149">
        <ele>149.3</ele>
        <time>2014-03-23T11:02:09Z</time>
      </trkpt>
      <trkpt lat="44.94252" lon="4.84139">
        <ele>149.5</ele>
        <time>2014-03-23T11:02:11Z</time>
      </trkpt>
      <trkpt lat="44.94255" lon="4.84129">
        <ele>149.7</ele>
        <time>2014-03-23T11:02:13Z</time>
      </trkpt>
      <trkpt lat="44.94258" lon="4.84117">
        <ele>150.2</ele>
        <time>2014-03-23T11:02:15Z</time>
      </trkpt>
      <trkpt lat="44.94262" lon="4.84107">
        <ele>150.6</ele>
        <time>2014-03-23T11:02:17Z</time>
      </trkpt>
      <trkpt lat="44.94267" lon="4.84098">
        <ele>150.8</ele>
        <time>2014-03-23T11:02:19Z</time>
      </trkpt>
      <trkpt lat="44.94272" lon="4.84089">
        <ele>150.9</ele>
        <time>2014-03-23T11:02:21Z</time>
      </trkpt>
      <trkpt lat="44.94276" lon="4.84081">
        <ele>151.2</ele>
        <time>2014-03-23T11:02:23Z</time>
      </trkpt>
      <trkpt lat="44.9428" lon="4.84073">
        <ele>151.4</ele>
        <time>2014-03-23T11:02:25Z</time>
      </trkpt>
      <trkpt lat="44.94289" lon="4.8407">
        <ele>152.2</ele>
        <time>2014-03-23T11:02:29Z</time>
      </trkpt>
      <trkpt lat="44.94297" lon="4.84073">
        <ele>152.6</ele>
        <time>2014-03-23T11:02:32Z</time>
      </trkpt>
      <trkpt lat="44.94303" lon="4.84076">
        <ele>152.7</ele>
        <time>2014-03-23T11:02:34Z</time>
      </trkpt>
      <trkpt lat="44.94309" lon="4.8408">
        <ele>153.6</ele>
        <time>2014-03-23T11:02:36Z</time>
      </trkpt>
      <trkpt lat="44.94314" lon="4.84084">
        <ele>153.7</ele>
        <time>2014-03-23T11:02:38Z</time>
      </trkpt>
      <trkpt lat="44.94319" lon="4.8409">
        <ele>153.6</ele>
        <time>2014-03-23T11:02:40Z</time>
      </trkpt>
      <trkpt lat="44.94326" lon="4.84096">
        <ele>153</ele>
        <time>2014-03-23T11:02:42Z</time>
      </trkpt>
      <trkpt lat="44.9433" lon="4.84099">
        <ele>152.5</ele>
        <time>2014-03-23T11:02:43Z</time>
      </trkpt>
      <trkpt lat="44.94334" lon="4.84103">
        <ele>152.1</ele>
        <time>2014-03-23T11:02:44Z</time>
      </trkpt>
      <trkpt lat="44.94338" lon="4.84106">
        <ele>151.7</ele>
        <time>2014-03-23T11:02:45Z</time>
      </trkpt>
      <trkpt lat="44.94346" lon="4.84112">
        <ele>151.1</ele>
        <time>2014-03-23T11:02:47Z</time>
      </trkpt>
      <trkpt lat="44.94353" lon="4.84117">
        <ele>150.8</ele>
        <time>2014-03-23T11:02:49Z</time>
      </trkpt>
      <trkpt lat="44.94361" lon="4.84122">
        <ele>150.6</ele>
        <time>2014-03-23T11:02:51Z</time>
      </trkpt>
      <trkpt lat="44.94368" lon="4.84128">
        <ele>151</ele>
        <time>2014-03-23T11:02:53Z</time>
      </trkpt>
      <trkpt lat="44.94376" lon="4.84129">
        <ele>150.7</ele>
        <time>2014-03-23T11:02:55Z</time>
      </trkpt>
      <trkpt lat="44.94381" lon="4.84127">
        <ele>150.6</ele>
        <time>2014-03-23T11:02:56Z</time>
      </trkpt>
      <trkpt lat="44.94385" lon="4.84125">
        <ele>150.6</ele>
        <time>2014-03-23T11:02:57Z</time>
      </trkpt>
      <trkpt lat="44.94392" lon="4.84118">
        <ele>150.5</ele>
        <time>2014-03-23T11:02:59Z</time>
      </trkpt>
      <trkpt lat="44.94397" lon="4.8411">
        <ele>150.2</ele>
        <time>2014-03-23T11:03:01Z</time>
      </trkpt>
      <trkpt lat="44.94403" lon="4.84103">
        <ele>150</ele>
        <time>2014-03-23T11:03:04Z</time>
      </trkpt>
      <trkpt lat="44.94412" lon="4.84103">
        <ele>149.2</ele>
        <time>2014-03-23T11:03:20Z</time>
      </trkpt>
      <trkpt lat="44.94412" lon="4.84103">
        <ele>149.5</ele>
        <time>2014-03-23T11:03:21Z</time>
      </trkpt>
      <trkpt lat="44.94412" lon="4.84103">
        <ele>149.6</ele>
        <time>2014-03-23T11:03:22Z</time>
      </trkpt>
    </trkseg>
  </trk>
</gpx>